<?xml version='1.0' encoding='UTF-8'?><gpx version="1.1" creator="JPX - https://github.com/jenetics/jpx" xmlns="http://www.topografix.com/GPX/1/1"><trk><trkseg><trkpt lat="43.9763041" lon="12.4812766"><ele>116.66666666666666</ele><time>2026-03-22T05:58:54.093Z</time></trkpt><trkpt lat="43.9763436" lon="12.48111"><ele>117.33333333333333</ele><time>2026-03-22T05:59:15.019Z</time></trkpt><trkpt lat="43.9764069" lon="12.4810736"><ele>118.0</ele><time>2026-03-22T05:59:23.096Z</time></trkpt><trkpt lat="43.9763369" lon="12.4809851"><ele>118.66666666666666</ele><time>2026-03-22T05:59:36.081Z</time></trkpt><trkpt lat="43.9762701" lon="12.4810435"><ele>119.33333333333333</ele><time>2026-03-22T05:59:41.111Z</time></trkpt><trkpt lat="43.9762413" lon="12.4811329"><ele>120.0</ele><time>2026-03-22T05:59:45.13Z</time></trkpt><trkpt lat="43.9762153" lon="12.4812246"><ele>120.0</ele><time>2026-03-22T05:59:51.128Z</time></trkpt><trkpt lat="43.9761463" lon="12.4812619"><ele>120.0</ele><time>2026-03-22T05:59:54.125Z</time></trkpt><trkpt lat="43.9760742" lon="12.4812871"><ele>120.0</ele><time>2026-03-22T05:59:57.108Z</time></trkpt><trkpt lat="43.9760034" lon="12.4813237"><ele>120.0</ele><time>2026-03-22T06:00:00.132Z</time></trkpt><trkpt lat="43.9759331" lon="12.4813532"><ele>120.0</ele><time>2026-03-22T06:00:03.122Z</time></trkpt><trkpt lat="43.9758655" lon="12.4813846"><ele>120.0</ele><time>2026-03-22T06:00:06.12Z</time></trkpt><trkpt lat="43.9757904" lon="12.4814234"><ele>120.0</ele><time>2026-03-22T06:00:10.095Z</time></trkpt><trkpt lat="43.975721" lon="12.481457"><ele>120.0</ele><time>2026-03-22T06:00:14.128Z</time></trkpt><trkpt lat="43.9756629" lon="12.4815037"><ele>120.0</ele><time>2026-03-22T06:00:17.129Z</time></trkpt><trkpt lat="43.9755988" lon="12.481538"><ele>120.0</ele><time>2026-03-22T06:00:20.13Z</time></trkpt><trkpt lat="43.9755342" lon="12.4815661"><ele>120.0</ele><time>2026-03-22T06:00:23.119Z</time></trkpt><trkpt lat="43.9754651" lon="12.4815976"><ele>120.0</ele><time>2026-03-22T06:00:26.113Z</time></trkpt><trkpt lat="43.9753924" lon="12.4815965"><ele>120.0</ele><time>2026-03-22T06:00:29.134Z</time></trkpt><trkpt lat="43.9753086" lon="12.4816459"><ele>120.0</ele><time>2026-03-22T06:00:32.093Z</time></trkpt><trkpt lat="43.9752134" lon="12.4817111"><ele>120.0</ele><time>2026-03-22T06:00:34.129Z</time></trkpt><trkpt lat="43.9751055" lon="12.4817514"><ele>120.0</ele><time>2026-03-22T06:00:36.135Z</time></trkpt><trkpt lat="43.9750393" lon="12.4817884"><ele>120.0</ele><time>2026-03-22T06:00:37.137Z</time></trkpt><trkpt lat="43.9749719" lon="12.4818311"><ele>120.0</ele><time>2026-03-22T06:00:38.133Z</time></trkpt><trkpt lat="43.9748988" lon="12.4818769"><ele>120.0</ele><time>2026-03-22T06:00:39.141Z</time></trkpt><trkpt lat="43.9748228" lon="12.4819069"><ele>120.0</ele><time>2026-03-22T06:00:40.069Z</time></trkpt><trkpt lat="43.9747383" lon="12.4819257"><ele>119.6</ele><time>2026-03-22T06:00:41.076Z</time></trkpt><trkpt lat="43.9746355" lon="12.4819119"><ele>119.2</ele><time>2026-03-22T06:00:42.063Z</time></trkpt><trkpt lat="43.9745323" lon="12.4818594"><ele>118.80000000000001</ele><time>2026-03-22T06:00:43.103Z</time></trkpt><trkpt lat="43.9744397" lon="12.4818126"><ele>118.4</ele><time>2026-03-22T06:00:44.106Z</time></trkpt><trkpt lat="43.97434" lon="12.481761"><ele>118.0</ele><time>2026-03-22T06:00:45.104Z</time></trkpt><trkpt lat="43.9742464" lon="12.4817137"><ele>116.00000000000001</ele><time>2026-03-22T06:00:46.102Z</time></trkpt><trkpt lat="43.97417" lon="12.4816802"><ele>114.0</ele><time>2026-03-22T06:00:47.118Z</time></trkpt><trkpt lat="43.9741022" lon="12.481651"><ele>112.0</ele><time>2026-03-22T06:00:48.141Z</time></trkpt><trkpt lat="43.9740047" lon="12.481631"><ele>110.0</ele><time>2026-03-22T06:00:50.128Z</time></trkpt><trkpt lat="43.9739774" lon="12.481747"><ele>108.00000000000001</ele><time>2026-03-22T06:00:52.116Z</time></trkpt><trkpt lat="43.973961" lon="12.4818922"><ele>106.0</ele><time>2026-03-22T06:00:54.125Z</time></trkpt><trkpt lat="43.9739659" lon="12.4820516"><ele>104.6</ele><time>2026-03-22T06:00:56.127Z</time></trkpt><trkpt lat="43.9739706" lon="12.4822147"><ele>103.19999999999999</ele><time>2026-03-22T06:00:58.149Z</time></trkpt><trkpt lat="43.9739825" lon="12.4823876"><ele>101.80000000000001</ele><time>2026-03-22T06:01:00.119Z</time></trkpt><trkpt lat="43.9739929" lon="12.4825048"><ele>100.4</ele><time>2026-03-22T06:01:02.122Z</time></trkpt><trkpt lat="43.9739311" lon="12.4824789"><ele>99.0</ele><time>2026-03-22T06:01:05.082Z</time></trkpt><trkpt lat="43.9738666" lon="12.4823861"><ele>99.0</ele><time>2026-03-22T06:01:07.089Z</time></trkpt><trkpt lat="43.9737783" lon="12.4822737"><ele>99.0</ele><time>2026-03-22T06:01:09.097Z</time></trkpt><trkpt lat="43.9737324" lon="12.4822116"><ele>99.0</ele><time>2026-03-22T06:01:10.084Z</time></trkpt><trkpt lat="43.973682" lon="12.4821342"><ele>99.0</ele><time>2026-03-22T06:01:11.079Z</time></trkpt><trkpt lat="43.9736256" lon="12.4820551"><ele>99.0</ele><time>2026-03-22T06:01:12.082Z</time></trkpt><trkpt lat="43.973562" lon="12.4819794"><ele>99.0</ele><time>2026-03-22T06:01:13.09Z</time></trkpt><trkpt lat="43.9734985" lon="12.4819009"><ele>100.16666666666667</ele><time>2026-03-22T06:01:14.085Z</time></trkpt><trkpt lat="43.973433" lon="12.481818"><ele>101.33333333333334</ele><time>2026-03-22T06:01:15.091Z</time></trkpt><trkpt lat="43.9733709" lon="12.4817577"><ele>102.5</ele><time>2026-03-22T06:01:16.078Z</time></trkpt><trkpt lat="43.9733145" lon="12.4817172"><ele>103.66666666666667</ele><time>2026-03-22T06:01:17.083Z</time></trkpt><trkpt lat="43.9732392" lon="12.4816926"><ele>104.83333333333334</ele><time>2026-03-22T06:01:18.085Z</time></trkpt><trkpt lat="43.9731631" lon="12.4816926"><ele>106.0</ele><time>2026-03-22T06:01:19.074Z</time></trkpt><trkpt lat="43.9730732" lon="12.4817003"><ele>103.33333333333334</ele><time>2026-03-22T06:01:20.092Z</time></trkpt><trkpt lat="43.9729813" lon="12.4817096"><ele>100.66666666666667</ele><time>2026-03-22T06:01:21.081Z</time></trkpt><trkpt lat="43.9728924" lon="12.4817243"><ele>98.0</ele><time>2026-03-22T06:01:22.113Z</time></trkpt><trkpt lat="43.9728212" lon="12.4817504"><ele>95.33333333333334</ele><time>2026-03-22T06:01:23.077Z</time></trkpt><trkpt lat="43.9727552" lon="12.4817739"><ele>92.66666666666667</ele><time>2026-03-22T06:01:24.079Z</time></trkpt><trkpt lat="43.9726835" lon="12.4818259"><ele>90.0</ele><time>2026-03-22T06:01:26.077Z</time></trkpt><trkpt lat="43.9726393" lon="12.4819253"><ele>90.0</ele><time>2026-03-22T06:01:29.127Z</time></trkpt><trkpt lat="43.9726287" lon="12.4820362"><ele>90.0</ele><time>2026-03-22T06:01:32.148Z</time></trkpt><trkpt lat="43.9726132" lon="12.4821248"><ele>90.0</ele><time>2026-03-22T06:01:34.138Z</time></trkpt><trkpt lat="43.9725636" lon="12.4822459"><ele>90.0</ele><time>2026-03-22T06:01:37.13Z</time></trkpt><trkpt lat="43.9725116" lon="12.4823225"><ele>90.0</ele><time>2026-03-22T06:01:39.139Z</time></trkpt><trkpt lat="43.9724311" lon="12.4823632"><ele>90.0</ele><time>2026-03-22T06:01:41.127Z</time></trkpt><trkpt lat="43.9723476" lon="12.4823926"><ele>90.2</ele><time>2026-03-22T06:01:43.098Z</time></trkpt><trkpt lat="43.9722281" lon="12.4824585"><ele>90.4</ele><time>2026-03-22T06:01:45.143Z</time></trkpt><trkpt lat="43.9721663" lon="12.4824993"><ele>90.6</ele><time>2026-03-22T06:01:46.109Z</time></trkpt><trkpt lat="43.9720964" lon="12.4825377"><ele>90.8</ele><time>2026-03-22T06:01:47.121Z</time></trkpt><trkpt lat="43.9720195" lon="12.4825708"><ele>91.0</ele><time>2026-03-22T06:01:48.123Z</time></trkpt><trkpt lat="43.9715963" lon="12.4830521"><ele>91.0</ele><time>2026-03-22T06:01:57.091Z</time></trkpt><trkpt lat="43.9715282" lon="12.4831376"><ele>91.0</ele><time>2026-03-22T06:01:58.068Z</time></trkpt><trkpt lat="43.9714673" lon="12.483201"><ele>91.0</ele><time>2026-03-22T06:02:01.099Z</time></trkpt><trkpt lat="43.9713894" lon="12.483198"><ele>91.0</ele><time>2026-03-22T06:02:04.119Z</time></trkpt><trkpt lat="43.9713083" lon="12.4831838"><ele>91.0</ele><time>2026-03-22T06:02:06.128Z</time></trkpt><trkpt lat="43.9711946" lon="12.4831719"><ele>91.0</ele><time>2026-03-22T06:02:09.106Z</time></trkpt><trkpt lat="43.9710871" lon="12.4831722"><ele>91.0</ele><time>2026-03-22T06:02:11.106Z</time></trkpt><trkpt lat="43.9710022" lon="12.4831593"><ele>91.0</ele><time>2026-03-22T06:02:13.114Z</time></trkpt><trkpt lat="43.9709129" lon="12.4831738"><ele>91.0</ele><time>2026-03-22T06:02:15.085Z</time></trkpt><trkpt lat="43.9708442" lon="12.4831806"><ele>91.0</ele><time>2026-03-22T06:02:17.125Z</time></trkpt><trkpt lat="43.9707713" lon="12.483181"><ele>91.0</ele><time>2026-03-22T06:02:19.12Z</time></trkpt><trkpt lat="43.9707017" lon="12.4831693"><ele>91.0</ele><time>2026-03-22T06:02:21.122Z</time></trkpt><trkpt lat="43.9706353" lon="12.4831486"><ele>91.16666666666666</ele><time>2026-03-22T06:02:23.127Z</time></trkpt><trkpt lat="43.970566" lon="12.4831194"><ele>91.33333333333333</ele><time>2026-03-22T06:02:25.106Z</time></trkpt><trkpt lat="43.9704927" lon="12.4831061"><ele>91.5</ele><time>2026-03-22T06:02:27.134Z</time></trkpt><trkpt lat="43.9704185" lon="12.4830689"><ele>91.66666666666667</ele><time>2026-03-22T06:02:29.127Z</time></trkpt><trkpt lat="43.9703399" lon="12.4830598"><ele>91.83333333333334</ele><time>2026-03-22T06:02:31.113Z</time></trkpt><trkpt lat="43.9702611" lon="12.4830537"><ele>92.0</ele><time>2026-03-22T06:02:33.114Z</time></trkpt><trkpt lat="43.970172" lon="12.4830042"><ele>92.0</ele><time>2026-03-22T06:02:35.118Z</time></trkpt><trkpt lat="43.9701164" lon="12.482957"><ele>92.0</ele><time>2026-03-22T06:02:37.13Z</time></trkpt><trkpt lat="43.9700549" lon="12.4829939"><ele>92.0</ele><time>2026-03-22T06:02:40.129Z</time></trkpt><trkpt lat="43.9699907" lon="12.4829858"><ele>92.0</ele><time>2026-03-22T06:02:42.086Z</time></trkpt><trkpt lat="43.9699131" lon="12.4829698"><ele>92.0</ele><time>2026-03-22T06:02:44.114Z</time></trkpt><trkpt lat="43.9698394" lon="12.4829481"><ele>92.0</ele><time>2026-03-22T06:02:46.116Z</time></trkpt><trkpt lat="43.9697632" lon="12.4829185"><ele>92.0</ele><time>2026-03-22T06:02:48.126Z</time></trkpt><trkpt lat="43.9696906" lon="12.4829068"><ele>93.0</ele><time>2026-03-22T06:02:50.139Z</time></trkpt><trkpt lat="43.9696118" lon="12.4829037"><ele>94.0</ele><time>2026-03-22T06:02:52.101Z</time></trkpt><trkpt lat="43.9695313" lon="12.4828868"><ele>95.0</ele><time>2026-03-22T06:02:54.125Z</time></trkpt><trkpt lat="43.9694411" lon="12.4828987"><ele>96.0</ele><time>2026-03-22T06:02:56.142Z</time></trkpt><trkpt lat="43.969362" lon="12.4828943"><ele>96.99999999999999</ele><time>2026-03-22T06:02:58.126Z</time></trkpt><trkpt lat="43.9692865" lon="12.4828835"><ele>98.0</ele><time>2026-03-22T06:03:00.112Z</time></trkpt><trkpt lat="43.9691881" lon="12.4828733"><ele>99.2</ele><time>2026-03-22T06:03:02.134Z</time></trkpt><trkpt lat="43.9690988" lon="12.4828788"><ele>100.4</ele><time>2026-03-22T06:03:04.131Z</time></trkpt><trkpt lat="43.9690172" lon="12.4828905"><ele>101.60000000000001</ele><time>2026-03-22T06:03:06.124Z</time></trkpt><trkpt lat="43.9689025" lon="12.4828926"><ele>102.80000000000001</ele><time>2026-03-22T06:03:08.111Z</time></trkpt><trkpt lat="43.9688076" lon="12.4829055"><ele>104.0</ele><time>2026-03-22T06:03:10.117Z</time></trkpt><trkpt lat="43.9687087" lon="12.4828988"><ele>103.99999999999999</ele><time>2026-03-22T06:03:12.104Z</time></trkpt><trkpt lat="43.9686206" lon="12.4828991"><ele>104.0</ele><time>2026-03-22T06:03:14.141Z</time></trkpt><trkpt lat="43.9685398" lon="12.4828574"><ele>104.0</ele><time>2026-03-22T06:03:16.104Z</time></trkpt><trkpt lat="43.9684447" lon="12.4828324"><ele>104.0</ele><time>2026-03-22T06:03:18.117Z</time></trkpt><trkpt lat="43.9683699" lon="12.4828016"><ele>103.99999999999999</ele><time>2026-03-22T06:03:20.113Z</time></trkpt><trkpt lat="43.968301" lon="12.4827575"><ele>104.0</ele><time>2026-03-22T06:03:22.128Z</time></trkpt><trkpt lat="43.9682232" lon="12.4827072"><ele>103.66666666666666</ele><time>2026-03-22T06:03:24.116Z</time></trkpt><trkpt lat="43.9681634" lon="12.4826337"><ele>103.33333333333333</ele><time>2026-03-22T06:03:26.096Z</time></trkpt><trkpt lat="43.9680974" lon="12.4825494"><ele>103.0</ele><time>2026-03-22T06:03:28.068Z</time></trkpt><trkpt lat="43.968031" lon="12.4824668"><ele>102.66666666666666</ele><time>2026-03-22T06:03:30.129Z</time></trkpt><trkpt lat="43.9679671" lon="12.482387"><ele>102.33333333333333</ele><time>2026-03-22T06:03:32.136Z</time></trkpt><trkpt lat="43.967927" lon="12.4823075"><ele>102.0</ele><time>2026-03-22T06:03:34.139Z</time></trkpt><trkpt lat="43.96789" lon="12.482231"><ele>102.0</ele><time>2026-03-22T06:03:36.114Z</time></trkpt><trkpt lat="43.9678467" lon="12.4821518"><ele>102.0</ele><time>2026-03-22T06:03:38.127Z</time></trkpt><trkpt lat="43.9678013" lon="12.4820644"><ele>102.0</ele><time>2026-03-22T06:03:40.088Z</time></trkpt><trkpt lat="43.9677579" lon="12.4819567"><ele>102.0</ele><time>2026-03-22T06:03:42.119Z</time></trkpt><trkpt lat="43.9677179" lon="12.4818647"><ele>102.0</ele><time>2026-03-22T06:03:44.111Z</time></trkpt><trkpt lat="43.9676947" lon="12.4817565"><ele>102.0</ele><time>2026-03-22T06:03:46.076Z</time></trkpt><trkpt lat="43.9676722" lon="12.4816467"><ele>104.0</ele><time>2026-03-22T06:03:48.124Z</time></trkpt><trkpt lat="43.9676748" lon="12.4815224"><ele>106.0</ele><time>2026-03-22T06:03:50.121Z</time></trkpt><trkpt lat="43.9676734" lon="12.4813987"><ele>108.0</ele><time>2026-03-22T06:03:52.12Z</time></trkpt><trkpt lat="43.9676692" lon="12.4812776"><ele>110.0</ele><time>2026-03-22T06:03:54.119Z</time></trkpt><trkpt lat="43.9676803" lon="12.4811831"><ele>112.0</ele><time>2026-03-22T06:03:56.136Z</time></trkpt><trkpt lat="43.9676963" lon="12.4810758"><ele>114.0</ele><time>2026-03-22T06:03:58.128Z</time></trkpt><trkpt lat="43.967696" lon="12.4809533"><ele>115.0</ele><time>2026-03-22T06:04:00.113Z</time></trkpt><trkpt lat="43.9676942" lon="12.4808339"><ele>116.0</ele><time>2026-03-22T06:04:02.075Z</time></trkpt><trkpt lat="43.9676704" lon="12.4807243"><ele>117.0</ele><time>2026-03-22T06:04:04.127Z</time></trkpt><trkpt lat="43.9675941" lon="12.4806479"><ele>118.0</ele><time>2026-03-22T06:04:06.115Z</time></trkpt><trkpt lat="43.967514" lon="12.4805458"><ele>119.0</ele><time>2026-03-22T06:04:08.126Z</time></trkpt><trkpt lat="43.9674656" lon="12.4804247"><ele>116.4</ele><time>2026-03-22T06:04:10.115Z</time></trkpt><trkpt lat="43.9674245" lon="12.4803031"><ele>113.80000000000001</ele><time>2026-03-22T06:04:12.128Z</time></trkpt><trkpt lat="43.9673534" lon="12.4802313"><ele>111.19999999999999</ele><time>2026-03-22T06:04:14.129Z</time></trkpt><trkpt lat="43.9672854" lon="12.4801574"><ele>108.6</ele><time>2026-03-22T06:04:16.076Z</time></trkpt><trkpt lat="43.9672739" lon="12.4800313"><ele>106.0</ele><time>2026-03-22T06:04:18.113Z</time></trkpt><trkpt lat="43.9672565" lon="12.4799073"><ele>106.00000000000001</ele><time>2026-03-22T06:04:20.117Z</time></trkpt><trkpt lat="43.9672255" lon="12.4797941"><ele>106.0</ele><time>2026-03-22T06:04:22.108Z</time></trkpt><trkpt lat="43.9671985" lon="12.4796717"><ele>106.0</ele><time>2026-03-22T06:04:24.114Z</time></trkpt><trkpt lat="43.9671743" lon="12.4795555"><ele>106.0</ele><time>2026-03-22T06:04:26.109Z</time></trkpt><trkpt lat="43.9671522" lon="12.4794341"><ele>106.00000000000001</ele><time>2026-03-22T06:04:28.118Z</time></trkpt><trkpt lat="43.9671357" lon="12.4793264"><ele>106.0</ele><time>2026-03-22T06:04:30.135Z</time></trkpt><trkpt lat="43.9671013" lon="12.4792236"><ele>106.50000000000001</ele><time>2026-03-22T06:04:32.147Z</time></trkpt><trkpt lat="43.9670694" lon="12.4791213"><ele>107.0</ele><time>2026-03-22T06:04:34.128Z</time></trkpt><trkpt lat="43.9670479" lon="12.4790182"><ele>107.5</ele><time>2026-03-22T06:04:36.116Z</time></trkpt><trkpt lat="43.9670299" lon="12.4789275"><ele>108.0</ele><time>2026-03-22T06:04:38.115Z</time></trkpt><trkpt lat="43.9670043" lon="12.4788342"><ele>108.50000000000001</ele><time>2026-03-22T06:04:40.114Z</time></trkpt><trkpt lat="43.9669774" lon="12.4787455"><ele>109.0</ele><time>2026-03-22T06:04:42.132Z</time></trkpt><trkpt lat="43.9669538" lon="12.4786273"><ele>109.83333333333334</ele><time>2026-03-22T06:04:45.1Z</time></trkpt><trkpt lat="43.9669254" lon="12.4784996"><ele>110.66666666666667</ele><time>2026-03-22T06:04:48.134Z</time></trkpt><trkpt lat="43.9669026" lon="12.4784081"><ele>111.5</ele><time>2026-03-22T06:04:50.124Z</time></trkpt><trkpt lat="43.9668815" lon="12.4782973"><ele>112.33333333333334</ele><time>2026-03-22T06:04:52.15Z</time></trkpt><trkpt lat="43.9668607" lon="12.4782071"><ele>113.16666666666667</ele><time>2026-03-22T06:04:54.135Z</time></trkpt><trkpt lat="43.9668407" lon="12.4781103"><ele>114.0</ele><time>2026-03-22T06:04:56.128Z</time></trkpt><trkpt lat="43.9668042" lon="12.4780127"><ele>113.5</ele><time>2026-03-22T06:04:58.11Z</time></trkpt><trkpt lat="43.9667706" lon="12.4779147"><ele>113.0</ele><time>2026-03-22T06:05:00.13Z</time></trkpt><trkpt lat="43.9667454" lon="12.4778202"><ele>112.5</ele><time>2026-03-22T06:05:02.122Z</time></trkpt><trkpt lat="43.9667052" lon="12.4777247"><ele>112.0</ele><time>2026-03-22T06:05:04.14Z</time></trkpt><trkpt lat="43.9666693" lon="12.4776308"><ele>111.5</ele><time>2026-03-22T06:05:06.131Z</time></trkpt><trkpt lat="43.9666242" lon="12.4775366"><ele>111.0</ele><time>2026-03-22T06:05:08.128Z</time></trkpt><trkpt lat="43.9665914" lon="12.4774434"><ele>111.0</ele><time>2026-03-22T06:05:10.139Z</time></trkpt><trkpt lat="43.966574" lon="12.4773235"><ele>111.0</ele><time>2026-03-22T06:05:13.116Z</time></trkpt><trkpt lat="43.96658" lon="12.4772132"><ele>111.0</ele><time>2026-03-22T06:05:16.114Z</time></trkpt><trkpt lat="43.9665853" lon="12.4771015"><ele>111.0</ele><time>2026-03-22T06:05:19.121Z</time></trkpt><trkpt lat="43.9665262" lon="12.4770479"><ele>111.0</ele><time>2026-03-22T06:05:22.127Z</time></trkpt><trkpt lat="43.9664452" lon="12.4770567"><ele>111.0</ele><time>2026-03-22T06:05:25.108Z</time></trkpt><trkpt lat="43.9664819" lon="12.4769779"><ele>111.85714285714286</ele><time>2026-03-22T06:05:32.111Z</time></trkpt><trkpt lat="43.9665545" lon="12.4769148"><ele>112.71428571428572</ele><time>2026-03-22T06:05:35.114Z</time></trkpt><trkpt lat="43.966608" lon="12.4768515"><ele>113.57142857142858</ele><time>2026-03-22T06:05:38.113Z</time></trkpt><trkpt lat="43.9666847" lon="12.4768681"><ele>114.42857142857143</ele><time>2026-03-22T06:05:42.114Z</time></trkpt><trkpt lat="43.9667428" lon="12.4769335"><ele>115.2857142857143</ele><time>2026-03-22T06:05:46.116Z</time></trkpt><trkpt lat="43.9668129" lon="12.4769364"><ele>116.14285714285715</ele><time>2026-03-22T06:05:50.113Z</time></trkpt><trkpt lat="43.966802" lon="12.4768476"><ele>117.0</ele><time>2026-03-22T06:05:54.113Z</time></trkpt><trkpt lat="43.9667718" lon="12.4767541"><ele>117.0</ele><time>2026-03-22T06:05:57.093Z</time></trkpt><trkpt lat="43.9667353" lon="12.4766476"><ele>117.00000000000001</ele><time>2026-03-22T06:06:00.117Z</time></trkpt><trkpt lat="43.9667078" lon="12.4765634"><ele>117.0</ele><time>2026-03-22T06:06:03.11Z</time></trkpt><trkpt lat="43.9666814" lon="12.4764666"><ele>117.0</ele><time>2026-03-22T06:06:07.128Z</time></trkpt><trkpt lat="43.9667406" lon="12.4765008"><ele>117.00000000000001</ele><time>2026-03-22T06:06:17.126Z</time></trkpt><trkpt lat="43.9668021" lon="12.476552"><ele>117.0</ele><time>2026-03-22T06:06:21.12Z</time></trkpt><trkpt lat="43.9667909" lon="12.4764628"><ele>117.0</ele><time>2026-03-22T06:06:26.123Z</time></trkpt><trkpt lat="43.9667615" lon="12.4763794"><ele>118.42857142857143</ele><time>2026-03-22T06:06:29.099Z</time></trkpt><trkpt lat="43.9667496" lon="12.4762911"><ele>119.85714285714286</ele><time>2026-03-22T06:06:32.127Z</time></trkpt><trkpt lat="43.9667443" lon="12.4761692"><ele>121.28571428571429</ele><time>2026-03-22T06:06:36.143Z</time></trkpt><trkpt lat="43.9667416" lon="12.4760749"><ele>122.71428571428572</ele><time>2026-03-22T06:06:39.134Z</time></trkpt><trkpt lat="43.9667263" lon="12.4759745"><ele>124.14285714285714</ele><time>2026-03-22T06:06:43.127Z</time></trkpt><trkpt lat="43.9667016" lon="12.4758907"><ele>125.57142857142858</ele><time>2026-03-22T06:06:46.157Z</time></trkpt><trkpt lat="43.9666634" lon="12.4757947"><ele>127.0</ele><time>2026-03-22T06:06:50.103Z</time></trkpt><trkpt lat="43.966619" lon="12.475697"><ele>127.0</ele><time>2026-03-22T06:06:54.131Z</time></trkpt><trkpt lat="43.9665772" lon="12.4756271"><ele>127.0</ele><time>2026-03-22T06:06:57.138Z</time></trkpt><trkpt lat="43.9665277" lon="12.4755406"><ele>127.0</ele><time>2026-03-22T06:07:01.13Z</time></trkpt><trkpt lat="43.9664838" lon="12.4754779"><ele>127.0</ele><time>2026-03-22T06:07:04.123Z</time></trkpt><trkpt lat="43.9664389" lon="12.4754128"><ele>127.0</ele><time>2026-03-22T06:07:07.139Z</time></trkpt><trkpt lat="43.9664058" lon="12.4753163"><ele>127.0</ele><time>2026-03-22T06:07:10.142Z</time></trkpt><trkpt lat="43.9663628" lon="12.4752337"><ele>127.0</ele><time>2026-03-22T06:07:13.104Z</time></trkpt><trkpt lat="43.966311" lon="12.4751398"><ele>129.0</ele><time>2026-03-22T06:07:16.115Z</time></trkpt><trkpt lat="43.9662673" lon="12.475069"><ele>131.0</ele><time>2026-03-22T06:07:18.132Z</time></trkpt><trkpt lat="43.9662214" lon="12.4750005"><ele>133.0</ele><time>2026-03-22T06:07:20.154Z</time></trkpt><trkpt lat="43.9661807" lon="12.4749267"><ele>135.0</ele><time>2026-03-22T06:07:22.134Z</time></trkpt><trkpt lat="43.9661319" lon="12.4748593"><ele>137.0</ele><time>2026-03-22T06:07:24.131Z</time></trkpt><trkpt lat="43.9660925" lon="12.4747764"><ele>139.0</ele><time>2026-03-22T06:07:26.129Z</time></trkpt><trkpt lat="43.9660507" lon="12.4747022"><ele>141.0</ele><time>2026-03-22T06:07:28.127Z</time></trkpt><trkpt lat="43.9660127" lon="12.4746233"><ele>140.66666666666666</ele><time>2026-03-22T06:07:30.112Z</time></trkpt><trkpt lat="43.9659812" lon="12.4745363"><ele>140.33333333333334</ele><time>2026-03-22T06:07:32.13Z</time></trkpt><trkpt lat="43.9659475" lon="12.4744203"><ele>140.0</ele><time>2026-03-22T06:07:35.133Z</time></trkpt><trkpt lat="43.9659181" lon="12.4743064"><ele>139.66666666666669</ele><time>2026-03-22T06:07:38.13Z</time></trkpt><trkpt lat="43.965892" lon="12.4742122"><ele>139.33333333333334</ele><time>2026-03-22T06:07:41.127Z</time></trkpt><trkpt lat="43.9658728" lon="12.4741057"><ele>139.0</ele><time>2026-03-22T06:07:44.114Z</time></trkpt><trkpt lat="43.9658613" lon="12.4739911"><ele>139.0</ele><time>2026-03-22T06:07:47.114Z</time></trkpt><trkpt lat="43.9658566" lon="12.4738727"><ele>139.0</ele><time>2026-03-22T06:07:50.137Z</time></trkpt><trkpt lat="43.9658547" lon="12.473761"><ele>139.0</ele><time>2026-03-22T06:07:53.08Z</time></trkpt><trkpt lat="43.965841" lon="12.4736509"><ele>139.0</ele><time>2026-03-22T06:07:56.126Z</time></trkpt><trkpt lat="43.9658238" lon="12.4735336"><ele>139.0</ele><time>2026-03-22T06:07:59.113Z</time></trkpt><trkpt lat="43.9658031" lon="12.4734182"><ele>139.0</ele><time>2026-03-22T06:08:02.107Z</time></trkpt><trkpt lat="43.9657819" lon="12.4733356"><ele>139.71428571428572</ele><time>2026-03-22T06:08:04.133Z</time></trkpt><trkpt lat="43.9657547" lon="12.4732544"><ele>140.42857142857144</ele><time>2026-03-22T06:08:06.118Z</time></trkpt><trkpt lat="43.9657152" lon="12.4731793"><ele>141.14285714285717</ele><time>2026-03-22T06:08:08.128Z</time></trkpt><trkpt lat="43.9656605" lon="12.4731078"><ele>141.85714285714286</ele><time>2026-03-22T06:08:10.121Z</time></trkpt><trkpt lat="43.9656102" lon="12.4730298"><ele>142.57142857142858</ele><time>2026-03-22T06:08:12.147Z</time></trkpt><trkpt lat="43.9655508" lon="12.4729628"><ele>143.2857142857143</ele><time>2026-03-22T06:08:14.119Z</time></trkpt><trkpt lat="43.9654782" lon="12.4729003"><ele>144.0</ele><time>2026-03-22T06:08:17.128Z</time></trkpt><trkpt lat="43.9653924" lon="12.4728746"><ele>144.0</ele><time>2026-03-22T06:08:20.13Z</time></trkpt><trkpt lat="43.9653225" lon="12.4729613"><ele>144.0</ele><time>2026-03-22T06:08:23.118Z</time></trkpt><trkpt lat="43.9653295" lon="12.473079"><ele>144.0</ele><time>2026-03-22T06:08:26.11Z</time></trkpt><trkpt lat="43.9653054" lon="12.473194"><ele>144.0</ele><time>2026-03-22T06:08:29.115Z</time></trkpt><trkpt lat="43.9652178" lon="12.4732176"><ele>144.0</ele><time>2026-03-22T06:08:31.119Z</time></trkpt><trkpt lat="43.965148" lon="12.4732191"><ele>144.0</ele><time>2026-03-22T06:08:33.129Z</time></trkpt><trkpt lat="43.965073" lon="12.4732189"><ele>143.33333333333334</ele><time>2026-03-22T06:08:35.118Z</time></trkpt><trkpt lat="43.9650028" lon="12.4732395"><ele>142.66666666666666</ele><time>2026-03-22T06:08:37.117Z</time></trkpt><trkpt lat="43.964926" lon="12.4732658"><ele>142.0</ele><time>2026-03-22T06:08:39.115Z</time></trkpt><trkpt lat="43.9648373" lon="12.4732868"><ele>141.33333333333331</ele><time>2026-03-22T06:08:42.114Z</time></trkpt><trkpt lat="43.9647568" lon="12.4733013"><ele>140.66666666666666</ele><time>2026-03-22T06:08:45.125Z</time></trkpt><trkpt lat="43.9646874" lon="12.4733124"><ele>140.0</ele><time>2026-03-22T06:08:48.136Z</time></trkpt><trkpt lat="43.9646231" lon="12.4732886"><ele>140.0</ele><time>2026-03-22T06:08:51.119Z</time></trkpt><trkpt lat="43.9645575" lon="12.4732762"><ele>140.0</ele><time>2026-03-22T06:08:54.116Z</time></trkpt><trkpt lat="43.9644932" lon="12.4732986"><ele>140.0</ele><time>2026-03-22T06:08:57.13Z</time></trkpt><trkpt lat="43.9644351" lon="12.4733485"><ele>140.0</ele><time>2026-03-22T06:09:00.127Z</time></trkpt><trkpt lat="43.9643755" lon="12.4734031"><ele>140.0</ele><time>2026-03-22T06:09:03.123Z</time></trkpt><trkpt lat="43.964308" lon="12.4734708"><ele>140.0</ele><time>2026-03-22T06:09:06.141Z</time></trkpt><trkpt lat="43.9642551" lon="12.473525"><ele>140.0</ele><time>2026-03-22T06:09:08.125Z</time></trkpt><trkpt lat="43.9641749" lon="12.4735788"><ele>140.83333333333331</ele><time>2026-03-22T06:09:11.117Z</time></trkpt><trkpt lat="43.9640933" lon="12.473616"><ele>141.66666666666666</ele><time>2026-03-22T06:09:14.111Z</time></trkpt><trkpt lat="43.9640147" lon="12.4736456"><ele>142.5</ele><time>2026-03-22T06:09:17.119Z</time></trkpt><trkpt lat="43.9639405" lon="12.4736686"><ele>143.33333333333334</ele><time>2026-03-22T06:09:20.122Z</time></trkpt><trkpt lat="43.9638522" lon="12.4736764"><ele>144.16666666666669</ele><time>2026-03-22T06:09:23.137Z</time></trkpt><trkpt lat="43.9637678" lon="12.4736906"><ele>145.0</ele><time>2026-03-22T06:09:26.124Z</time></trkpt><trkpt lat="43.9636866" lon="12.4736848"><ele>145.0</ele><time>2026-03-22T06:09:29.113Z</time></trkpt><trkpt lat="43.9636266" lon="12.4736469"><ele>145.0</ele><time>2026-03-22T06:09:31.119Z</time></trkpt><trkpt lat="43.9635516" lon="12.4735803"><ele>145.0</ele><time>2026-03-22T06:09:34.1Z</time></trkpt><trkpt lat="43.9635009" lon="12.4735034"><ele>145.0</ele><time>2026-03-22T06:09:36.121Z</time></trkpt><trkpt lat="43.9634501" lon="12.4734303"><ele>145.0</ele><time>2026-03-22T06:09:38.134Z</time></trkpt><trkpt lat="43.9633688" lon="12.473382"><ele>145.0</ele><time>2026-03-22T06:09:41.127Z</time></trkpt><trkpt lat="43.963307" lon="12.473357"><ele>145.85714285714286</ele><time>2026-03-22T06:09:43.09Z</time></trkpt><trkpt lat="43.963241" lon="12.4733411"><ele>146.71428571428572</ele><time>2026-03-22T06:09:45.069Z</time></trkpt><trkpt lat="43.9631702" lon="12.4733175"><ele>147.57142857142858</ele><time>2026-03-22T06:09:47.131Z</time></trkpt><trkpt lat="43.9630893" lon="12.4732816"><ele>148.42857142857144</ele><time>2026-03-22T06:09:50.117Z</time></trkpt><trkpt lat="43.9630231" lon="12.4732549"><ele>149.28571428571428</ele><time>2026-03-22T06:09:52.148Z</time></trkpt><trkpt lat="43.9629573" lon="12.4732363"><ele>150.14285714285717</ele><time>2026-03-22T06:09:54.095Z</time></trkpt><trkpt lat="43.9628911" lon="12.4732153"><ele>151.0</ele><time>2026-03-22T06:09:56.127Z</time></trkpt><trkpt lat="43.962817" lon="12.4732047"><ele>151.00000000000003</ele><time>2026-03-22T06:09:58.121Z</time></trkpt><trkpt lat="43.9627433" lon="12.4731845"><ele>151.0</ele><time>2026-03-22T06:10:00.059Z</time></trkpt><trkpt lat="43.9626728" lon="12.4731083"><ele>151.0</ele><time>2026-03-22T06:10:02.123Z</time></trkpt><trkpt lat="43.9626257" lon="12.4730365"><ele>151.0</ele><time>2026-03-22T06:10:04.118Z</time></trkpt><trkpt lat="43.962566" lon="12.4729765"><ele>151.0</ele><time>2026-03-22T06:10:06.123Z</time></trkpt><trkpt lat="43.962508" lon="12.4729405"><ele>151.00000000000003</ele><time>2026-03-22T06:10:08.124Z</time></trkpt><trkpt lat="43.9624352" lon="12.4729192"><ele>151.0</ele><time>2026-03-22T06:10:10.114Z</time></trkpt><trkpt lat="43.9623597" lon="12.4728985"><ele>151.66666666666669</ele><time>2026-03-22T06:10:12.103Z</time></trkpt><trkpt lat="43.9622854" lon="12.4728757"><ele>152.33333333333334</ele><time>2026-03-22T06:10:14.118Z</time></trkpt><trkpt lat="43.9622117" lon="12.4728462"><ele>153.0</ele><time>2026-03-22T06:10:16.115Z</time></trkpt><trkpt lat="43.9621406" lon="12.4728134"><ele>153.66666666666666</ele><time>2026-03-22T06:10:18.122Z</time></trkpt><trkpt lat="43.9620688" lon="12.4727971"><ele>154.33333333333331</ele><time>2026-03-22T06:10:20.123Z</time></trkpt><trkpt lat="43.9619926" lon="12.4727878"><ele>155.0</ele><time>2026-03-22T06:10:22.123Z</time></trkpt><trkpt lat="43.9619158" lon="12.4727763"><ele>155.0</ele><time>2026-03-22T06:10:24.1Z</time></trkpt><trkpt lat="43.9618477" lon="12.4727388"><ele>155.0</ele><time>2026-03-22T06:10:26.126Z</time></trkpt><trkpt lat="43.9617651" lon="12.4727154"><ele>155.0</ele><time>2026-03-22T06:10:28.122Z</time></trkpt><trkpt lat="43.9616733" lon="12.472754"><ele>155.0</ele><time>2026-03-22T06:10:30.099Z</time></trkpt><trkpt lat="43.9616272" lon="12.4728436"><ele>155.0</ele><time>2026-03-22T06:10:32.091Z</time></trkpt><trkpt lat="43.9615975" lon="12.4729511"><ele>155.0</ele><time>2026-03-22T06:10:34.127Z</time></trkpt><trkpt lat="43.9615755" lon="12.4730581"><ele>161.0</ele><time>2026-03-22T06:10:36.118Z</time></trkpt><trkpt lat="43.9615406" lon="12.4731703"><ele>167.0</ele><time>2026-03-22T06:10:38.114Z</time></trkpt><trkpt lat="43.9615249" lon="12.4762708"><ele>167.0</ele><time>2026-03-22T06:11:37.111Z</time></trkpt><trkpt lat="43.9615853" lon="12.4764193"><ele>167.0</ele><time>2026-03-22T06:11:39.078Z</time></trkpt><trkpt lat="43.9616215" lon="12.4765254"><ele>167.0</ele><time>2026-03-22T06:11:41.11Z</time></trkpt><trkpt lat="43.9616468" lon="12.4766544"><ele>167.0</ele><time>2026-03-22T06:11:43.129Z</time></trkpt><trkpt lat="43.9616624" lon="12.4767746"><ele>167.0</ele><time>2026-03-22T06:11:45.115Z</time></trkpt><trkpt lat="43.9616957" lon="12.4768968"><ele>164.79999999999998</ele><time>2026-03-22T06:11:47.103Z</time></trkpt><trkpt lat="43.9617249" lon="12.4770228"><ele>162.6</ele><time>2026-03-22T06:11:49.127Z</time></trkpt><trkpt lat="43.9617559" lon="12.4771421"><ele>160.39999999999998</ele><time>2026-03-22T06:11:51.115Z</time></trkpt><trkpt lat="43.961779" lon="12.4772727"><ele>158.2</ele><time>2026-03-22T06:11:53.12Z</time></trkpt><trkpt lat="43.9617971" lon="12.4773922"><ele>156.0</ele><time>2026-03-22T06:11:55.141Z</time></trkpt><trkpt lat="43.9618051" lon="12.4775218"><ele>156.0</ele><time>2026-03-22T06:11:57.125Z</time></trkpt><trkpt lat="43.9618119" lon="12.4776577"><ele>156.0</ele><time>2026-03-22T06:11:59.133Z</time></trkpt><trkpt lat="43.9618219" lon="12.4777847"><ele>156.0</ele><time>2026-03-22T06:12:01.115Z</time></trkpt><trkpt lat="43.9618079" lon="12.477902"><ele>156.0</ele><time>2026-03-22T06:12:03.125Z</time></trkpt><trkpt lat="43.9617848" lon="12.4780191"><ele>156.0</ele><time>2026-03-22T06:12:05.066Z</time></trkpt><trkpt lat="43.9617789" lon="12.4781577"><ele>156.66666666666666</ele><time>2026-03-22T06:12:07.143Z</time></trkpt><trkpt lat="43.9617679" lon="12.4782577"><ele>157.33333333333334</ele><time>2026-03-22T06:12:09.128Z</time></trkpt><trkpt lat="43.9617452" lon="12.478342"><ele>158.0</ele><time>2026-03-22T06:12:11.126Z</time></trkpt><trkpt lat="43.9617191" lon="12.4784558"><ele>158.66666666666669</ele><time>2026-03-22T06:12:14.138Z</time></trkpt><trkpt lat="43.9617032" lon="12.478579"><ele>159.33333333333334</ele><time>2026-03-22T06:12:17.122Z</time></trkpt><trkpt lat="43.9616775" lon="12.4786922"><ele>160.0</ele><time>2026-03-22T06:12:20.122Z</time></trkpt><trkpt lat="43.9616586" lon="12.4787796"><ele>162.33333333333334</ele><time>2026-03-22T06:12:22.127Z</time></trkpt><trkpt lat="43.9616437" lon="12.478881"><ele>164.66666666666669</ele><time>2026-03-22T06:12:24.147Z</time></trkpt><trkpt lat="43.9616338" lon="12.4789867"><ele>167.0</ele><time>2026-03-22T06:12:26.119Z</time></trkpt><trkpt lat="43.9616439" lon="12.4791224"><ele>169.33333333333334</ele><time>2026-03-22T06:12:28.125Z</time></trkpt><trkpt lat="43.961643" lon="12.4792318"><ele>171.66666666666666</ele><time>2026-03-22T06:12:30.113Z</time></trkpt><trkpt lat="43.9616328" lon="12.4793399"><ele>174.0</ele><time>2026-03-22T06:12:32.126Z</time></trkpt><trkpt lat="43.9616215" lon="12.4794629"><ele>174.0</ele><time>2026-03-22T06:12:34.111Z</time></trkpt><trkpt lat="43.961612" lon="12.479563"><ele>174.0</ele><time>2026-03-22T06:12:36.107Z</time></trkpt><trkpt lat="43.9615983" lon="12.4796581"><ele>174.0</ele><time>2026-03-22T06:12:38.143Z</time></trkpt><trkpt lat="43.9615841" lon="12.4797539"><ele>174.0</ele><time>2026-03-22T06:12:40.117Z</time></trkpt><trkpt lat="43.9615731" lon="12.4798516"><ele>174.0</ele><time>2026-03-22T06:12:42.134Z</time></trkpt><trkpt lat="43.9615599" lon="12.4799728"><ele>174.0</ele><time>2026-03-22T06:12:44.14Z</time></trkpt><trkpt lat="43.9615423" lon="12.4800896"><ele>174.33333333333334</ele><time>2026-03-22T06:12:46.112Z</time></trkpt><trkpt lat="43.9615288" lon="12.4801805"><ele>174.66666666666666</ele><time>2026-03-22T06:12:48.127Z</time></trkpt><trkpt lat="43.9615182" lon="12.4802827"><ele>175.0</ele><time>2026-03-22T06:12:50.132Z</time></trkpt><trkpt lat="43.9615096" lon="12.4803942"><ele>175.33333333333331</ele><time>2026-03-22T06:12:52.118Z</time></trkpt><trkpt lat="43.9615105" lon="12.4805098"><ele>175.66666666666666</ele><time>2026-03-22T06:12:54.11Z</time></trkpt><trkpt lat="43.9615049" lon="12.4806433"><ele>176.0</ele><time>2026-03-22T06:12:56.124Z</time></trkpt><trkpt lat="43.9615019" lon="12.4807586"><ele>176.0</ele><time>2026-03-22T06:12:58.099Z</time></trkpt><trkpt lat="43.9614936" lon="12.4808673"><ele>176.0</ele><time>2026-03-22T06:13:00.12Z</time></trkpt><trkpt lat="43.961483" lon="12.4809689"><ele>176.0</ele><time>2026-03-22T06:13:02.091Z</time></trkpt><trkpt lat="43.9614677" lon="12.4810721"><ele>176.0</ele><time>2026-03-22T06:13:04.15Z</time></trkpt><trkpt lat="43.9614452" lon="12.4811762"><ele>176.0</ele><time>2026-03-22T06:13:06.13Z</time></trkpt><trkpt lat="43.961423" lon="12.4812697"><ele>176.0</ele><time>2026-03-22T06:13:08.092Z</time></trkpt><trkpt lat="43.9613985" lon="12.4813568"><ele>176.0</ele><time>2026-03-22T06:13:10.134Z</time></trkpt><trkpt lat="43.9613696" lon="12.4814406"><ele>176.0</ele><time>2026-03-22T06:13:12.138Z</time></trkpt><trkpt lat="43.9613355" lon="12.4815188"><ele>176.0</ele><time>2026-03-22T06:13:14.12Z</time></trkpt><trkpt lat="43.9612983" lon="12.4815965"><ele>176.0</ele><time>2026-03-22T06:13:16.124Z</time></trkpt><trkpt lat="43.9612613" lon="12.4816748"><ele>176.0</ele><time>2026-03-22T06:13:18.094Z</time></trkpt><trkpt lat="43.9612259" lon="12.4817653"><ele>176.0</ele><time>2026-03-22T06:13:20.132Z</time></trkpt><trkpt lat="43.9611883" lon="12.481848"><ele>176.0</ele><time>2026-03-22T06:13:22.122Z</time></trkpt><trkpt lat="43.9611465" lon="12.4819363"><ele>176.0</ele><time>2026-03-22T06:13:24.14Z</time></trkpt><trkpt lat="43.9611001" lon="12.4820109"><ele>176.0</ele><time>2026-03-22T06:13:26.134Z</time></trkpt><trkpt lat="43.9610517" lon="12.4820728"><ele>176.0</ele><time>2026-03-22T06:13:28.135Z</time></trkpt><trkpt lat="43.9609866" lon="12.4821476"><ele>176.0</ele><time>2026-03-22T06:13:30.112Z</time></trkpt><trkpt lat="43.9609227" lon="12.4822113"><ele>176.0</ele><time>2026-03-22T06:13:32.103Z</time></trkpt><trkpt lat="43.9608474" lon="12.4822788"><ele>176.0</ele><time>2026-03-22T06:13:34.136Z</time></trkpt><trkpt lat="43.9607819" lon="12.4823308"><ele>176.0</ele><time>2026-03-22T06:13:36.08Z</time></trkpt><trkpt lat="43.9607109" lon="12.4823968"><ele>177.0</ele><time>2026-03-22T06:13:38.118Z</time></trkpt><trkpt lat="43.9606486" lon="12.4824444"><ele>178.0</ele><time>2026-03-22T06:13:40.098Z</time></trkpt><trkpt lat="43.960579" lon="12.4824735"><ele>179.0</ele><time>2026-03-22T06:13:42.077Z</time></trkpt><trkpt lat="43.9605082" lon="12.4824962"><ele>180.0</ele><time>2026-03-22T06:13:44.116Z</time></trkpt><trkpt lat="43.9604249" lon="12.4825185"><ele>181.0</ele><time>2026-03-22T06:13:46.096Z</time></trkpt><trkpt lat="43.9603455" lon="12.4825325"><ele>182.0</ele><time>2026-03-22T06:13:48.138Z</time></trkpt><trkpt lat="43.9602699" lon="12.4825449"><ele>182.0</ele><time>2026-03-22T06:13:50.128Z</time></trkpt><trkpt lat="43.9601918" lon="12.4825604"><ele>182.0</ele><time>2026-03-22T06:13:52.124Z</time></trkpt><trkpt lat="43.960124" lon="12.4825698"><ele>182.0</ele><time>2026-03-22T06:13:54.124Z</time></trkpt><trkpt lat="43.9600582" lon="12.4825762"><ele>182.0</ele><time>2026-03-22T06:13:56.071Z</time></trkpt><trkpt lat="43.9599877" lon="12.48257"><ele>182.0</ele><time>2026-03-22T06:13:59.068Z</time></trkpt><trkpt lat="43.9599228" lon="12.4825685"><ele>182.0</ele><time>2026-03-22T06:14:02.063Z</time></trkpt><trkpt lat="43.9598304" lon="12.4825486"><ele>182.0</ele><time>2026-03-22T06:14:05.068Z</time></trkpt><trkpt lat="43.9597603" lon="12.4825202"><ele>183.16666666666666</ele><time>2026-03-22T06:14:07.125Z</time></trkpt><trkpt lat="43.9596857" lon="12.4824886"><ele>184.33333333333331</ele><time>2026-03-22T06:14:09.062Z</time></trkpt><trkpt lat="43.9596111" lon="12.4824475"><ele>185.5</ele><time>2026-03-22T06:14:11.121Z</time></trkpt><trkpt lat="43.9595331" lon="12.4824246"><ele>186.66666666666666</ele><time>2026-03-22T06:14:13.109Z</time></trkpt><trkpt lat="43.9594616" lon="12.4824055"><ele>187.83333333333334</ele><time>2026-03-22T06:14:15.129Z</time></trkpt><trkpt lat="43.9593853" lon="12.4823755"><ele>189.0</ele><time>2026-03-22T06:14:17.106Z</time></trkpt><trkpt lat="43.9593147" lon="12.482344"><ele>189.0</ele><time>2026-03-22T06:14:19.093Z</time></trkpt><trkpt lat="43.9592483" lon="12.4823082"><ele>189.0</ele><time>2026-03-22T06:14:21.121Z</time></trkpt><trkpt lat="43.9591812" lon="12.482273"><ele>189.0</ele><time>2026-03-22T06:14:23.135Z</time></trkpt><trkpt lat="43.9591101" lon="12.4822519"><ele>189.0</ele><time>2026-03-22T06:14:25.125Z</time></trkpt><trkpt lat="43.9590389" lon="12.4822284"><ele>189.0</ele><time>2026-03-22T06:14:27.118Z</time></trkpt><trkpt lat="43.9589711" lon="12.4821886"><ele>189.0</ele><time>2026-03-22T06:14:29.126Z</time></trkpt><trkpt lat="43.9589046" lon="12.4821566"><ele>189.0</ele><time>2026-03-22T06:14:31.13Z</time></trkpt><trkpt lat="43.9588336" lon="12.4821124"><ele>189.83333333333334</ele><time>2026-03-22T06:14:33.116Z</time></trkpt><trkpt lat="43.9587607" lon="12.4820815"><ele>190.66666666666669</ele><time>2026-03-22T06:14:35.117Z</time></trkpt><trkpt lat="43.9586836" lon="12.4820526"><ele>191.5</ele><time>2026-03-22T06:14:37.106Z</time></trkpt><trkpt lat="43.9586147" lon="12.4820273"><ele>192.33333333333334</ele><time>2026-03-22T06:14:39.084Z</time></trkpt><trkpt lat="43.9585481" lon="12.4819916"><ele>193.16666666666669</ele><time>2026-03-22T06:14:41.119Z</time></trkpt><trkpt lat="43.9584599" lon="12.4819583"><ele>194.0</ele><time>2026-03-22T06:14:43.109Z</time></trkpt><trkpt lat="43.9583786" lon="12.4819388"><ele>194.50000000000003</ele><time>2026-03-22T06:14:45.119Z</time></trkpt><trkpt lat="43.9583114" lon="12.4819048"><ele>195.0</ele><time>2026-03-22T06:14:47.123Z</time></trkpt><trkpt lat="43.958249" lon="12.4818655"><ele>195.5</ele><time>2026-03-22T06:14:49.119Z</time></trkpt><trkpt lat="43.9581629" lon="12.4818142"><ele>196.0</ele><time>2026-03-22T06:14:52.129Z</time></trkpt><trkpt lat="43.9580796" lon="12.481772"><ele>196.50000000000003</ele><time>2026-03-22T06:14:55.128Z</time></trkpt><trkpt lat="43.9579943" lon="12.4817203"><ele>197.0</ele><time>2026-03-22T06:14:58.132Z</time></trkpt><trkpt lat="43.9579122" lon="12.4816753"><ele>197.00000000000003</ele><time>2026-03-22T06:15:01.116Z</time></trkpt><trkpt lat="43.9578204" lon="12.4816415"><ele>197.0</ele><time>2026-03-22T06:15:04.087Z</time></trkpt><trkpt lat="43.9577567" lon="12.4816189"><ele>197.0</ele><time>2026-03-22T06:15:06.122Z</time></trkpt><trkpt lat="43.9576606" lon="12.4815844"><ele>197.0</ele><time>2026-03-22T06:15:08.122Z</time></trkpt><trkpt lat="43.9575851" lon="12.4815436"><ele>197.00000000000003</ele><time>2026-03-22T06:15:10.117Z</time></trkpt><trkpt lat="43.9575001" lon="12.4815219"><ele>197.0</ele><time>2026-03-22T06:15:12.125Z</time></trkpt><trkpt lat="43.9574286" lon="12.4814989"><ele>197.42857142857144</ele><time>2026-03-22T06:15:14.115Z</time></trkpt><trkpt lat="43.9573553" lon="12.4814635"><ele>197.85714285714286</ele><time>2026-03-22T06:15:16.132Z</time></trkpt><trkpt lat="43.9572874" lon="12.4814267"><ele>198.28571428571428</ele><time>2026-03-22T06:15:18.114Z</time></trkpt><trkpt lat="43.9572265" lon="12.4813928"><ele>198.71428571428572</ele><time>2026-03-22T06:15:20.142Z</time></trkpt><trkpt lat="43.9571676" lon="12.4813557"><ele>199.14285714285714</ele><time>2026-03-22T06:15:22.138Z</time></trkpt><trkpt lat="43.9571089" lon="12.4813222"><ele>199.57142857142858</ele><time>2026-03-22T06:15:24.139Z</time></trkpt><trkpt lat="43.9570245" lon="12.4812831"><ele>200.0</ele><time>2026-03-22T06:15:27.134Z</time></trkpt><trkpt lat="43.9569615" lon="12.4812644"><ele>201.16666666666669</ele><time>2026-03-22T06:15:29.123Z</time></trkpt><trkpt lat="43.9568883" lon="12.4812473"><ele>202.33333333333334</ele><time>2026-03-22T06:15:31.13Z</time></trkpt><trkpt lat="43.9568205" lon="12.4812233"><ele>203.5</ele><time>2026-03-22T06:15:33.09Z</time></trkpt><trkpt lat="43.956743" lon="12.4811986"><ele>204.66666666666669</ele><time>2026-03-22T06:15:35.073Z</time></trkpt><trkpt lat="43.9566712" lon="12.4811597"><ele>205.83333333333334</ele><time>2026-03-22T06:15:37.082Z</time></trkpt><trkpt lat="43.9565929" lon="12.4811342"><ele>207.0</ele><time>2026-03-22T06:15:39.12Z</time></trkpt><trkpt lat="43.9565111" lon="12.4811014"><ele>207.0</ele><time>2026-03-22T06:15:41.159Z</time></trkpt><trkpt lat="43.9564282" lon="12.48108"><ele>207.0</ele><time>2026-03-22T06:15:43.128Z</time></trkpt><trkpt lat="43.9563422" lon="12.4810582"><ele>207.0</ele><time>2026-03-22T06:15:45.097Z</time></trkpt><trkpt lat="43.9562617" lon="12.4810366"><ele>207.0</ele><time>2026-03-22T06:15:47.132Z</time></trkpt><trkpt lat="43.9561811" lon="12.4810308"><ele>207.0</ele><time>2026-03-22T06:15:49.073Z</time></trkpt><trkpt lat="43.9560981" lon="12.4810401"><ele>207.0</ele><time>2026-03-22T06:15:51.138Z</time></trkpt><trkpt lat="43.9560139" lon="12.4810645"><ele>207.00000000000003</ele><time>2026-03-22T06:15:53.137Z</time></trkpt><trkpt lat="43.9559325" lon="12.4810686"><ele>207.0</ele><time>2026-03-22T06:15:55.059Z</time></trkpt><trkpt lat="43.9558685" lon="12.4810682"><ele>207.0</ele><time>2026-03-22T06:15:57.129Z</time></trkpt><trkpt lat="43.9558039" lon="12.4810868"><ele>207.0</ele><time>2026-03-22T06:16:00.123Z</time></trkpt><trkpt lat="43.9557207" lon="12.4810965"><ele>207.0</ele><time>2026-03-22T06:16:04.121Z</time></trkpt><trkpt lat="43.955655" lon="12.4811049"><ele>207.00000000000003</ele><time>2026-03-22T06:16:07.119Z</time></trkpt><trkpt lat="43.9555681" lon="12.4811172"><ele>207.0</ele><time>2026-03-22T06:16:10.126Z</time></trkpt><trkpt lat="43.9555013" lon="12.481137"><ele>207.16666666666666</ele><time>2026-03-22T06:16:12.131Z</time></trkpt><trkpt lat="43.9554309" lon="12.4811617"><ele>207.33333333333331</ele><time>2026-03-22T06:16:14.127Z</time></trkpt><trkpt lat="43.9553492" lon="12.4812005"><ele>207.5</ele><time>2026-03-22T06:16:16.139Z</time></trkpt><trkpt lat="43.9552804" lon="12.4812333"><ele>207.66666666666666</ele><time>2026-03-22T06:16:18.109Z</time></trkpt><trkpt lat="43.955216" lon="12.4812582"><ele>207.83333333333331</ele><time>2026-03-22T06:16:20.12Z</time></trkpt><trkpt lat="43.9551344" lon="12.4813228"><ele>208.0</ele><time>2026-03-22T06:16:23.116Z</time></trkpt><trkpt lat="43.955042" lon="12.481373"><ele>207.83333333333331</ele><time>2026-03-22T06:16:26.14Z</time></trkpt><trkpt lat="43.9549764" lon="12.4813962"><ele>207.66666666666666</ele><time>2026-03-22T06:16:28.114Z</time></trkpt><trkpt lat="43.9548877" lon="12.4814164"><ele>207.5</ele><time>2026-03-22T06:16:30.119Z</time></trkpt><trkpt lat="43.9547854" lon="12.4814302"><ele>207.33333333333331</ele><time>2026-03-22T06:16:32.104Z</time></trkpt><trkpt lat="43.9546874" lon="12.4814276"><ele>207.16666666666666</ele><time>2026-03-22T06:16:34.117Z</time></trkpt><trkpt lat="43.9545984" lon="12.4814112"><ele>207.0</ele><time>2026-03-22T06:16:36.077Z</time></trkpt><trkpt lat="43.9545185" lon="12.4814154"><ele>207.0</ele><time>2026-03-22T06:16:38.113Z</time></trkpt><trkpt lat="43.9544499" lon="12.4814271"><ele>207.0</ele><time>2026-03-22T06:16:40.136Z</time></trkpt><trkpt lat="43.9543732" lon="12.4814339"><ele>207.0</ele><time>2026-03-22T06:16:42.15Z</time></trkpt><trkpt lat="43.9543016" lon="12.4814354"><ele>207.0</ele><time>2026-03-22T06:16:44.148Z</time></trkpt><trkpt lat="43.9542296" lon="12.4814308"><ele>207.0</ele><time>2026-03-22T06:16:46.147Z</time></trkpt><trkpt lat="43.9541404" lon="12.4814298"><ele>207.0</ele><time>2026-03-22T06:16:48.129Z</time></trkpt><trkpt lat="43.9540539" lon="12.4814257"><ele>207.5</ele><time>2026-03-22T06:16:50.122Z</time></trkpt><trkpt lat="43.953973" lon="12.4814214"><ele>208.0</ele><time>2026-03-22T06:16:52.128Z</time></trkpt><trkpt lat="43.9538828" lon="12.4814234"><ele>208.5</ele><time>2026-03-22T06:16:54.136Z</time></trkpt><trkpt lat="43.953805" lon="12.4814256"><ele>209.0</ele><time>2026-03-22T06:16:56.125Z</time></trkpt><trkpt lat="43.9537268" lon="12.4814228"><ele>209.5</ele><time>2026-03-22T06:16:58.113Z</time></trkpt><trkpt lat="43.9536369" lon="12.4814183"><ele>210.0</ele><time>2026-03-22T06:17:01.121Z</time></trkpt><trkpt lat="43.9535601" lon="12.48144"><ele>210.0</ele><time>2026-03-22T06:17:04.127Z</time></trkpt><trkpt lat="43.9534888" lon="12.4814732"><ele>210.0</ele><time>2026-03-22T06:17:07.106Z</time></trkpt><trkpt lat="43.9534062" lon="12.481534"><ele>210.0</ele><time>2026-03-22T06:17:10.106Z</time></trkpt><trkpt lat="43.9533425" lon="12.4815727"><ele>210.0</ele><time>2026-03-22T06:17:12.138Z</time></trkpt><trkpt lat="43.9532781" lon="12.4816275"><ele>210.0</ele><time>2026-03-22T06:17:14.11Z</time></trkpt><trkpt lat="43.9532059" lon="12.4816804"><ele>210.0</ele><time>2026-03-22T06:17:16.137Z</time></trkpt><trkpt lat="43.953144" lon="12.481741"><ele>210.42857142857142</ele><time>2026-03-22T06:17:18.111Z</time></trkpt><trkpt lat="43.9530905" lon="12.4818221"><ele>210.85714285714286</ele><time>2026-03-22T06:17:20.127Z</time></trkpt><trkpt lat="43.9530397" lon="12.4819097"><ele>211.28571428571428</ele><time>2026-03-22T06:17:22.114Z</time></trkpt><trkpt lat="43.9529879" lon="12.4819883"><ele>211.71428571428572</ele><time>2026-03-22T06:17:24.128Z</time></trkpt><trkpt lat="43.9529511" lon="12.4820865"><ele>212.14285714285714</ele><time>2026-03-22T06:17:26.131Z</time></trkpt><trkpt lat="43.9529171" lon="12.4821637"><ele>212.57142857142856</ele><time>2026-03-22T06:17:28.096Z</time></trkpt><trkpt lat="43.9528896" lon="12.4822492"><ele>213.0</ele><time>2026-03-22T06:17:30.124Z</time></trkpt><trkpt lat="43.9528648" lon="12.4823325"><ele>212.99999999999997</ele><time>2026-03-22T06:17:32.136Z</time></trkpt><trkpt lat="43.95283" lon="12.4824222"><ele>213.0</ele><time>2026-03-22T06:17:34.145Z</time></trkpt><trkpt lat="43.9527922" lon="12.4824999"><ele>213.0</ele><time>2026-03-22T06:17:36.124Z</time></trkpt><trkpt lat="43.9527628" lon="12.4825827"><ele>213.0</ele><time>2026-03-22T06:17:38.077Z</time></trkpt><trkpt lat="43.9527375" lon="12.4826747"><ele>213.0</ele><time>2026-03-22T06:17:40.124Z</time></trkpt><trkpt lat="43.9527295" lon="12.4827881"><ele>212.99999999999997</ele><time>2026-03-22T06:17:42.13Z</time></trkpt><trkpt lat="43.9527196" lon="12.4829066"><ele>213.0</ele><time>2026-03-22T06:17:44.13Z</time></trkpt><trkpt lat="43.9527366" lon="12.4829915"><ele>212.5</ele><time>2026-03-22T06:17:45.144Z</time></trkpt><trkpt lat="43.9527304" lon="12.4831163"><ele>212.0</ele><time>2026-03-22T06:17:47.132Z</time></trkpt><trkpt lat="43.9527342" lon="12.4832444"><ele>211.5</ele><time>2026-03-22T06:17:49.125Z</time></trkpt><trkpt lat="43.952729" lon="12.4833725"><ele>211.0</ele><time>2026-03-22T06:17:51.131Z</time></trkpt><trkpt lat="43.952719" lon="12.4835017"><ele>210.5</ele><time>2026-03-22T06:17:53.129Z</time></trkpt><trkpt lat="43.952714" lon="12.4836043"><ele>210.0</ele><time>2026-03-22T06:17:55.127Z</time></trkpt><trkpt lat="43.9527155" lon="12.4837309"><ele>210.33333333333334</ele><time>2026-03-22T06:17:57.138Z</time></trkpt><trkpt lat="43.9527167" lon="12.4838564"><ele>210.66666666666669</ele><time>2026-03-22T06:17:59.126Z</time></trkpt><trkpt lat="43.9527179" lon="12.4839669"><ele>211.0</ele><time>2026-03-22T06:18:01.133Z</time></trkpt><trkpt lat="43.9527063" lon="12.4840753"><ele>211.33333333333334</ele><time>2026-03-22T06:18:03.119Z</time></trkpt><trkpt lat="43.952704" lon="12.4841897"><ele>211.66666666666669</ele><time>2026-03-22T06:18:05.128Z</time></trkpt><trkpt lat="43.9526903" lon="12.4842948"><ele>212.0</ele><time>2026-03-22T06:18:07.134Z</time></trkpt><trkpt lat="43.9526787" lon="12.4844098"><ele>212.0</ele><time>2026-03-22T06:18:09.091Z</time></trkpt><trkpt lat="43.9526712" lon="12.484518"><ele>212.0</ele><time>2026-03-22T06:18:11.125Z</time></trkpt><trkpt lat="43.9526569" lon="12.4846181"><ele>212.0</ele><time>2026-03-22T06:18:13.142Z</time></trkpt><trkpt lat="43.9526465" lon="12.4847183"><ele>212.0</ele><time>2026-03-22T06:18:15.102Z</time></trkpt><trkpt lat="43.9526192" lon="12.4848137"><ele>212.0</ele><time>2026-03-22T06:18:17.103Z</time></trkpt><trkpt lat="43.9525889" lon="12.4848986"><ele>212.0</ele><time>2026-03-22T06:18:19.13Z</time></trkpt><trkpt lat="43.952548" lon="12.4849918"><ele>212.0</ele><time>2026-03-22T06:18:21.102Z</time></trkpt><trkpt lat="43.9524933" lon="12.4850729"><ele>212.66666666666669</ele><time>2026-03-22T06:18:23.121Z</time></trkpt><trkpt lat="43.9524347" lon="12.4851588"><ele>213.33333333333334</ele><time>2026-03-22T06:18:25.122Z</time></trkpt><trkpt lat="43.9523766" lon="12.4852228"><ele>214.0</ele><time>2026-03-22T06:18:27.123Z</time></trkpt><trkpt lat="43.9523013" lon="12.4852881"><ele>214.66666666666669</ele><time>2026-03-22T06:18:30.12Z</time></trkpt><trkpt lat="43.9522461" lon="12.4853406"><ele>215.33333333333334</ele><time>2026-03-22T06:18:32.126Z</time></trkpt><trkpt lat="43.9521844" lon="12.4853915"><ele>216.0</ele><time>2026-03-22T06:18:34.131Z</time></trkpt><trkpt lat="43.9521005" lon="12.4854525"><ele>216.0</ele><time>2026-03-22T06:18:37.13Z</time></trkpt><trkpt lat="43.9520114" lon="12.4854955"><ele>216.0</ele><time>2026-03-22T06:18:40.102Z</time></trkpt><trkpt lat="43.9519438" lon="12.4855248"><ele>216.0</ele><time>2026-03-22T06:18:42.137Z</time></trkpt><trkpt lat="43.9518537" lon="12.4855504"><ele>216.0</ele><time>2026-03-22T06:18:45.098Z</time></trkpt><trkpt lat="43.9517787" lon="12.4855604"><ele>216.0</ele><time>2026-03-22T06:18:47.141Z</time></trkpt><trkpt lat="43.9517" lon="12.4855609"><ele>216.0</ele><time>2026-03-22T06:18:49.106Z</time></trkpt><trkpt lat="43.9516164" lon="12.4855427"><ele>217.28571428571428</ele><time>2026-03-22T06:18:51.127Z</time></trkpt><trkpt lat="43.9515428" lon="12.4855349"><ele>218.57142857142856</ele><time>2026-03-22T06:18:53.105Z</time></trkpt><trkpt lat="43.951475" lon="12.4855087"><ele>219.8571428571429</ele><time>2026-03-22T06:18:55.134Z</time></trkpt><trkpt lat="43.9514002" lon="12.4854733"><ele>221.14285714285717</ele><time>2026-03-22T06:18:57.119Z</time></trkpt><trkpt lat="43.9513404" lon="12.4854335"><ele>222.42857142857144</ele><time>2026-03-22T06:18:59.124Z</time></trkpt><trkpt lat="43.9512807" lon="12.4853896"><ele>223.71428571428575</ele><time>2026-03-22T06:19:01.073Z</time></trkpt><trkpt lat="43.951216" lon="12.4853406"><ele>225.00000000000003</ele><time>2026-03-22T06:19:03.106Z</time></trkpt><trkpt lat="43.951165" lon="12.4852707"><ele>225.33333333333334</ele><time>2026-03-22T06:19:05.06Z</time></trkpt><trkpt lat="43.9511184" lon="12.4851991"><ele>225.66666666666669</ele><time>2026-03-22T06:19:07.074Z</time></trkpt><trkpt lat="43.9510702" lon="12.4851174"><ele>226.0</ele><time>2026-03-22T06:19:09.079Z</time></trkpt><trkpt lat="43.9510047" lon="12.4850131"><ele>226.33333333333334</ele><time>2026-03-22T06:19:11.11Z</time></trkpt><trkpt lat="43.9509689" lon="12.4849157"><ele>226.66666666666669</ele><time>2026-03-22T06:19:13.111Z</time></trkpt><trkpt lat="43.9509459" lon="12.4848288"><ele>227.0</ele><time>2026-03-22T06:19:15.106Z</time></trkpt><trkpt lat="43.9509196" lon="12.4847382"><ele>227.0</ele><time>2026-03-22T06:19:17.134Z</time></trkpt><trkpt lat="43.9508945" lon="12.4846481"><ele>227.00000000000003</ele><time>2026-03-22T06:19:19.116Z</time></trkpt><trkpt lat="43.9508843" lon="12.484551"><ele>227.0</ele><time>2026-03-22T06:19:21.093Z</time></trkpt><trkpt lat="43.9508795" lon="12.4844572"><ele>227.0</ele><time>2026-03-22T06:19:23.082Z</time></trkpt><trkpt lat="43.9508832" lon="12.4843643"><ele>227.00000000000003</ele><time>2026-03-22T06:19:25.119Z</time></trkpt><trkpt lat="43.9508794" lon="12.4842447"><ele>227.0</ele><time>2026-03-22T06:19:27.097Z</time></trkpt><trkpt lat="43.9509002" lon="12.4841487"><ele>227.0</ele><time>2026-03-22T06:19:29.122Z</time></trkpt><trkpt lat="43.9509199" lon="12.4840534"><ele>227.66666666666669</ele><time>2026-03-22T06:19:31.127Z</time></trkpt><trkpt lat="43.9509425" lon="12.4839644"><ele>228.33333333333334</ele><time>2026-03-22T06:19:33.12Z</time></trkpt><trkpt lat="43.9509785" lon="12.4838655"><ele>229.0</ele><time>2026-03-22T06:19:35.116Z</time></trkpt><trkpt lat="43.9510142" lon="12.4837685"><ele>229.66666666666669</ele><time>2026-03-22T06:19:37.09Z</time></trkpt><trkpt lat="43.9510778" lon="12.4836649"><ele>230.33333333333334</ele><time>2026-03-22T06:19:39.122Z</time></trkpt><trkpt lat="43.9511209" lon="12.4835658"><ele>231.0</ele><time>2026-03-22T06:19:41.134Z</time></trkpt><trkpt lat="43.9511613" lon="12.4834763"><ele>231.28571428571428</ele><time>2026-03-22T06:19:43.133Z</time></trkpt><trkpt lat="43.9512033" lon="12.4833974"><ele>231.57142857142856</ele><time>2026-03-22T06:19:45.131Z</time></trkpt><trkpt lat="43.9512486" lon="12.4833221"><ele>231.85714285714286</ele><time>2026-03-22T06:19:47.115Z</time></trkpt><trkpt lat="43.9512995" lon="12.4832484"><ele>232.14285714285714</ele><time>2026-03-22T06:19:49.111Z</time></trkpt><trkpt lat="43.9513456" lon="12.4831694"><ele>232.42857142857142</ele><time>2026-03-22T06:19:51.115Z</time></trkpt><trkpt lat="43.951389" lon="12.4830736"><ele>232.71428571428572</ele><time>2026-03-22T06:19:53.099Z</time></trkpt><trkpt lat="43.9514319" lon="12.4829832"><ele>233.0</ele><time>2026-03-22T06:19:55.12Z</time></trkpt><trkpt lat="43.9514784" lon="12.4828899"><ele>233.66666666666669</ele><time>2026-03-22T06:19:57.122Z</time></trkpt><trkpt lat="43.9515314" lon="12.4827874"><ele>234.33333333333334</ele><time>2026-03-22T06:19:59.123Z</time></trkpt><trkpt lat="43.9515665" lon="12.4827017"><ele>235.0</ele><time>2026-03-22T06:20:01.068Z</time></trkpt><trkpt lat="43.9515851" lon="12.4825869"><ele>235.66666666666669</ele><time>2026-03-22T06:20:03.124Z</time></trkpt><trkpt lat="43.9516137" lon="12.4824935"><ele>236.33333333333334</ele><time>2026-03-22T06:20:05.127Z</time></trkpt><trkpt lat="43.9516175" lon="12.4823854"><ele>237.0</ele><time>2026-03-22T06:20:07.078Z</time></trkpt><trkpt lat="43.9516241" lon="12.4822794"><ele>237.0</ele><time>2026-03-22T06:20:09.128Z</time></trkpt><trkpt lat="43.9516364" lon="12.4821623"><ele>237.0</ele><time>2026-03-22T06:20:11.098Z</time></trkpt><trkpt lat="43.9516432" lon="12.4820533"><ele>237.0</ele><time>2026-03-22T06:20:13.116Z</time></trkpt><trkpt lat="43.9516462" lon="12.4819552"><ele>237.0</ele><time>2026-03-22T06:20:15.125Z</time></trkpt><trkpt lat="43.9516527" lon="12.4818509"><ele>237.0</ele><time>2026-03-22T06:20:17.124Z</time></trkpt><trkpt lat="43.9516511" lon="12.4817465"><ele>237.0</ele><time>2026-03-22T06:20:19.144Z</time></trkpt><trkpt lat="43.9516527" lon="12.4816441"><ele>237.66666666666666</ele><time>2026-03-22T06:20:21.129Z</time></trkpt><trkpt lat="43.9516508" lon="12.4815202"><ele>238.33333333333331</ele><time>2026-03-22T06:20:23.069Z</time></trkpt><trkpt lat="43.9516505" lon="12.4814245"><ele>239.0</ele><time>2026-03-22T06:20:25.132Z</time></trkpt><trkpt lat="43.951655" lon="12.4812898"><ele>239.66666666666666</ele><time>2026-03-22T06:20:28.128Z</time></trkpt><trkpt lat="43.9516626" lon="12.4811867"><ele>240.33333333333331</ele><time>2026-03-22T06:20:30.119Z</time></trkpt><trkpt lat="43.951656" lon="12.4810809"><ele>241.0</ele><time>2026-03-22T06:20:32.12Z</time></trkpt><trkpt lat="43.9516562" lon="12.4809875"><ele>241.33333333333331</ele><time>2026-03-22T06:20:34.092Z</time></trkpt><trkpt lat="43.9516564" lon="12.4808617"><ele>241.66666666666666</ele><time>2026-03-22T06:20:37.138Z</time></trkpt><trkpt lat="43.9516555" lon="12.4807617"><ele>242.0</ele><time>2026-03-22T06:20:39.082Z</time></trkpt><trkpt lat="43.9516419" lon="12.4806342"><ele>242.33333333333331</ele><time>2026-03-22T06:20:41.121Z</time></trkpt><trkpt lat="43.9516386" lon="12.480538"><ele>242.66666666666666</ele><time>2026-03-22T06:20:43.103Z</time></trkpt><trkpt lat="43.951637" lon="12.4804348"><ele>243.0</ele><time>2026-03-22T06:20:45.123Z</time></trkpt><trkpt lat="43.9516312" lon="12.4803368"><ele>243.66666666666666</ele><time>2026-03-22T06:20:47.121Z</time></trkpt><trkpt lat="43.9516273" lon="12.4802461"><ele>244.33333333333331</ele><time>2026-03-22T06:20:49.117Z</time></trkpt><trkpt lat="43.9516308" lon="12.480154"><ele>245.0</ele><time>2026-03-22T06:20:51.12Z</time></trkpt><trkpt lat="43.9516296" lon="12.480064"><ele>245.66666666666666</ele><time>2026-03-22T06:20:53.127Z</time></trkpt><trkpt lat="43.9516261" lon="12.4799371"><ele>246.33333333333331</ele><time>2026-03-22T06:20:56.136Z</time></trkpt><trkpt lat="43.9516269" lon="12.4798181"><ele>247.0</ele><time>2026-03-22T06:20:59.069Z</time></trkpt><trkpt lat="43.9516273" lon="12.4796904"><ele>247.99999999999997</ele><time>2026-03-22T06:21:02.115Z</time></trkpt><trkpt lat="43.9516265" lon="12.4795622"><ele>249.0</ele><time>2026-03-22T06:21:05.092Z</time></trkpt><trkpt lat="43.9516305" lon="12.4794381"><ele>250.0</ele><time>2026-03-22T06:21:08.125Z</time></trkpt><trkpt lat="43.951633" lon="12.4793171"><ele>251.0</ele><time>2026-03-22T06:21:11.13Z</time></trkpt><trkpt lat="43.951634" lon="12.4791936"><ele>251.99999999999997</ele><time>2026-03-22T06:21:14.131Z</time></trkpt><trkpt lat="43.951639" lon="12.4790798"><ele>253.0</ele><time>2026-03-22T06:21:17.121Z</time></trkpt><trkpt lat="43.9516459" lon="12.4789717"><ele>252.99999999999997</ele><time>2026-03-22T06:21:20.135Z</time></trkpt><trkpt lat="43.951653" lon="12.4788625"><ele>253.0</ele><time>2026-03-22T06:21:22.131Z</time></trkpt><trkpt lat="43.951649" lon="12.4787532"><ele>253.0</ele><time>2026-03-22T06:21:24.116Z</time></trkpt><trkpt lat="43.9516461" lon="12.478621"><ele>253.0</ele><time>2026-03-22T06:21:26.137Z</time></trkpt><trkpt lat="43.9516402" lon="12.4785195"><ele>252.99999999999997</ele><time>2026-03-22T06:21:28.104Z</time></trkpt><trkpt lat="43.951645" lon="12.4783838"><ele>253.0</ele><time>2026-03-22T06:21:30.12Z</time></trkpt><trkpt lat="43.9516369" lon="12.4782517"><ele>252.71428571428575</ele><time>2026-03-22T06:21:32.119Z</time></trkpt><trkpt lat="43.9516389" lon="12.4781431"><ele>252.42857142857144</ele><time>2026-03-22T06:21:34.126Z</time></trkpt><trkpt lat="43.9516426" lon="12.4780491"><ele>252.14285714285714</ele><time>2026-03-22T06:21:36.13Z</time></trkpt><trkpt lat="43.9516522" lon="12.477954"><ele>251.85714285714286</ele><time>2026-03-22T06:21:38.122Z</time></trkpt><trkpt lat="43.9516698" lon="12.4778641"><ele>251.57142857142856</ele><time>2026-03-22T06:21:40.124Z</time></trkpt><trkpt lat="43.9516984" lon="12.4777684"><ele>251.28571428571425</ele><time>2026-03-22T06:21:42.124Z</time></trkpt><trkpt lat="43.9517347" lon="12.4776866"><ele>250.99999999999997</ele><time>2026-03-22T06:21:44.131Z</time></trkpt><trkpt lat="43.9517935" lon="12.4776274"><ele>250.4</ele><time>2026-03-22T06:21:46.124Z</time></trkpt><trkpt lat="43.9518892" lon="12.4776352"><ele>249.8</ele><time>2026-03-22T06:21:48.134Z</time></trkpt><trkpt lat="43.9519682" lon="12.4775896"><ele>249.20000000000002</ele><time>2026-03-22T06:21:50.119Z</time></trkpt><trkpt lat="43.9520391" lon="12.4775189"><ele>248.60000000000002</ele><time>2026-03-22T06:21:52.132Z</time></trkpt><trkpt lat="43.9521115" lon="12.4774278"><ele>248.0</ele><time>2026-03-22T06:21:54.108Z</time></trkpt><trkpt lat="43.952162" lon="12.477334"><ele>248.00000000000003</ele><time>2026-03-22T06:21:56.121Z</time></trkpt><trkpt lat="43.9522277" lon="12.4772338"><ele>248.0</ele><time>2026-03-22T06:21:58.106Z</time></trkpt><trkpt lat="43.9522936" lon="12.4771405"><ele>248.0</ele><time>2026-03-22T06:22:00.122Z</time></trkpt><trkpt lat="43.9523382" lon="12.4770561"><ele>248.0</ele><time>2026-03-22T06:22:02.113Z</time></trkpt><trkpt lat="43.952385" lon="12.4769726"><ele>248.00000000000003</ele><time>2026-03-22T06:22:04.127Z</time></trkpt><trkpt lat="43.9524426" lon="12.4768774"><ele>248.0</ele><time>2026-03-22T06:22:06.133Z</time></trkpt><trkpt lat="43.9524926" lon="12.4768009"><ele>248.85714285714286</ele><time>2026-03-22T06:22:08.13Z</time></trkpt><trkpt lat="43.9525379" lon="12.4767348"><ele>249.71428571428572</ele><time>2026-03-22T06:22:10.125Z</time></trkpt><trkpt lat="43.9525822" lon="12.476662"><ele>250.57142857142858</ele><time>2026-03-22T06:22:12.124Z</time></trkpt><trkpt lat="43.9526339" lon="12.4765763"><ele>251.42857142857144</ele><time>2026-03-22T06:22:15.11Z</time></trkpt><trkpt lat="43.9526951" lon="12.4765481"><ele>252.28571428571428</ele><time>2026-03-22T06:22:18.126Z</time></trkpt><trkpt lat="43.9527556" lon="12.4765183"><ele>253.14285714285717</ele><time>2026-03-22T06:22:21.101Z</time></trkpt><trkpt lat="43.9528357" lon="12.4764609"><ele>254.0</ele><time>2026-03-22T06:22:24.13Z</time></trkpt><trkpt lat="43.9528982" lon="12.4764295"><ele>254.00000000000003</ele><time>2026-03-22T06:22:26.095Z</time></trkpt><trkpt lat="43.9529873" lon="12.4763846"><ele>254.0</ele><time>2026-03-22T06:22:29.092Z</time></trkpt><trkpt lat="43.9530568" lon="12.4763472"><ele>254.0</ele><time>2026-03-22T06:22:31.118Z</time></trkpt><trkpt lat="43.9531355" lon="12.4763156"><ele>254.0</ele><time>2026-03-22T06:22:33.098Z</time></trkpt><trkpt lat="43.9532147" lon="12.4762661"><ele>254.00000000000003</ele><time>2026-03-22T06:22:35.145Z</time></trkpt><trkpt lat="43.9532993" lon="12.4762259"><ele>254.0</ele><time>2026-03-22T06:22:37.13Z</time></trkpt><trkpt lat="43.9533656" lon="12.4761954"><ele>255.0</ele><time>2026-03-22T06:22:39.127Z</time></trkpt><trkpt lat="43.953434" lon="12.4761692"><ele>256.0</ele><time>2026-03-22T06:22:41.122Z</time></trkpt><trkpt lat="43.9534968" lon="12.476134"><ele>257.0</ele><time>2026-03-22T06:22:43.121Z</time></trkpt><trkpt lat="43.9535613" lon="12.4760855"><ele>258.0</ele><time>2026-03-22T06:22:45.092Z</time></trkpt><trkpt lat="43.9536319" lon="12.4760346"><ele>259.0</ele><time>2026-03-22T06:22:47.129Z</time></trkpt><trkpt lat="43.9536955" lon="12.4759845"><ele>260.0</ele><time>2026-03-22T06:22:49.117Z</time></trkpt><trkpt lat="43.9537593" lon="12.4759317"><ele>261.0</ele><time>2026-03-22T06:22:51.143Z</time></trkpt><trkpt lat="43.953825" lon="12.4758907"><ele>261.0</ele><time>2026-03-22T06:22:53.125Z</time></trkpt><trkpt lat="43.9538825" lon="12.4758473"><ele>261.0</ele><time>2026-03-22T06:22:55.119Z</time></trkpt><trkpt lat="43.9539506" lon="12.4757606"><ele>261.0</ele><time>2026-03-22T06:22:57.144Z</time></trkpt><trkpt lat="43.9540094" lon="12.4757033"><ele>261.0</ele><time>2026-03-22T06:22:59.132Z</time></trkpt><trkpt lat="43.9540594" lon="12.4756486"><ele>261.0</ele><time>2026-03-22T06:23:01.087Z</time></trkpt><trkpt lat="43.9541223" lon="12.4755644"><ele>261.0</ele><time>2026-03-22T06:23:04.095Z</time></trkpt><trkpt lat="43.9541938" lon="12.4754719"><ele>260.7142857142857</ele><time>2026-03-22T06:23:07.126Z</time></trkpt><trkpt lat="43.9542463" lon="12.4753993"><ele>260.42857142857144</ele><time>2026-03-22T06:23:09.103Z</time></trkpt><trkpt lat="43.954285" lon="12.4753073"><ele>260.1428571428571</ele><time>2026-03-22T06:23:11.125Z</time></trkpt><trkpt lat="43.9543221" lon="12.4752291"><ele>259.8571428571429</ele><time>2026-03-22T06:23:13.138Z</time></trkpt><trkpt lat="43.9543631" lon="12.4751431"><ele>259.57142857142856</ele><time>2026-03-22T06:23:15.13Z</time></trkpt><trkpt lat="43.9543958" lon="12.4750556"><ele>259.2857142857143</ele><time>2026-03-22T06:23:17.132Z</time></trkpt><trkpt lat="43.9544251" lon="12.474954"><ele>259.0</ele><time>2026-03-22T06:23:19.126Z</time></trkpt><trkpt lat="43.9544395" lon="12.474859"><ele>259.0</ele><time>2026-03-22T06:23:21.147Z</time></trkpt><trkpt lat="43.9544507" lon="12.4747571"><ele>259.0</ele><time>2026-03-22T06:23:23.138Z</time></trkpt><trkpt lat="43.9544494" lon="12.4746651"><ele>259.0</ele><time>2026-03-22T06:23:25.135Z</time></trkpt><trkpt lat="43.954439" lon="12.4745735"><ele>259.0</ele><time>2026-03-22T06:23:27.128Z</time></trkpt><trkpt lat="43.9544398" lon="12.47444"><ele>259.0</ele><time>2026-03-22T06:23:30.128Z</time></trkpt><trkpt lat="43.9544477" lon="12.4743526"><ele>259.0</ele><time>2026-03-22T06:23:32.122Z</time></trkpt><trkpt lat="43.9544505" lon="12.4742596"><ele>259.0</ele><time>2026-03-22T06:23:34.12Z</time></trkpt><trkpt lat="43.9544503" lon="12.4741663"><ele>259.7142857142857</ele><time>2026-03-22T06:23:36.143Z</time></trkpt><trkpt lat="43.9544464" lon="12.474073"><ele>260.42857142857144</ele><time>2026-03-22T06:23:38.14Z</time></trkpt><trkpt lat="43.9544504" lon="12.473985"><ele>261.1428571428571</ele><time>2026-03-22T06:23:40.128Z</time></trkpt><trkpt lat="43.9544514" lon="12.473894"><ele>261.8571428571429</ele><time>2026-03-22T06:23:42.132Z</time></trkpt><trkpt lat="43.9544547" lon="12.4737568"><ele>262.57142857142856</ele><time>2026-03-22T06:23:45.118Z</time></trkpt><trkpt lat="43.9544505" lon="12.4736624"><ele>263.2857142857143</ele><time>2026-03-22T06:23:47.119Z</time></trkpt><trkpt lat="43.9544524" lon="12.4735677"><ele>264.0</ele><time>2026-03-22T06:23:49.12Z</time></trkpt><trkpt lat="43.9544593" lon="12.4734766"><ele>264.0</ele><time>2026-03-22T06:23:51.124Z</time></trkpt><trkpt lat="43.9544591" lon="12.4733823"><ele>264.0</ele><time>2026-03-22T06:23:53.098Z</time></trkpt><trkpt lat="43.9544579" lon="12.4732874"><ele>264.0</ele><time>2026-03-22T06:23:55.126Z</time></trkpt><trkpt lat="43.954451" lon="12.4731865"><ele>264.0</ele><time>2026-03-22T06:23:57.122Z</time></trkpt><trkpt lat="43.9544418" lon="12.473084"><ele>264.0</ele><time>2026-03-22T06:23:59.134Z</time></trkpt><trkpt lat="43.9544331" lon="12.4729869"><ele>264.0</ele><time>2026-03-22T06:24:01.145Z</time></trkpt><trkpt lat="43.9544332" lon="12.4728746"><ele>264.0</ele><time>2026-03-22T06:24:03.126Z</time></trkpt><trkpt lat="43.9544303" lon="12.4727565"><ele>264.3333333333333</ele><time>2026-03-22T06:24:05.103Z</time></trkpt><trkpt lat="43.9544328" lon="12.4726449"><ele>264.6666666666667</ele><time>2026-03-22T06:24:07.115Z</time></trkpt><trkpt lat="43.9544273" lon="12.4725178"><ele>265.0</ele><time>2026-03-22T06:24:09.137Z</time></trkpt><trkpt lat="43.9544284" lon="12.4724022"><ele>265.33333333333337</ele><time>2026-03-22T06:24:11.12Z</time></trkpt><trkpt lat="43.9544331" lon="12.4722803"><ele>265.6666666666667</ele><time>2026-03-22T06:24:13.091Z</time></trkpt><trkpt lat="43.9544228" lon="12.4721897"><ele>266.0</ele><time>2026-03-22T06:24:15.115Z</time></trkpt><trkpt lat="43.954419" lon="12.4720979"><ele>266.83333333333337</ele><time>2026-03-22T06:24:17.123Z</time></trkpt><trkpt lat="43.9544243" lon="12.4720035"><ele>267.6666666666667</ele><time>2026-03-22T06:24:19.114Z</time></trkpt><trkpt lat="43.9544277" lon="12.4718772"><ele>268.5</ele><time>2026-03-22T06:24:22.123Z</time></trkpt><trkpt lat="43.9544394" lon="12.4717566"><ele>269.3333333333333</ele><time>2026-03-22T06:24:25.128Z</time></trkpt><trkpt lat="43.9544509" lon="12.4716686"><ele>270.16666666666663</ele><time>2026-03-22T06:24:27.088Z</time></trkpt><trkpt lat="43.9544704" lon="12.4715513"><ele>271.0</ele><time>2026-03-22T06:24:30.136Z</time></trkpt><trkpt lat="43.9545054" lon="12.4714504"><ele>271.0</ele><time>2026-03-22T06:24:33.126Z</time></trkpt><trkpt lat="43.954537" lon="12.4713342"><ele>271.0</ele><time>2026-03-22T06:24:36.125Z</time></trkpt><trkpt lat="43.9545677" lon="12.4712227"><ele>271.0</ele><time>2026-03-22T06:24:39.136Z</time></trkpt><trkpt lat="43.954589" lon="12.4711159"><ele>271.0</ele><time>2026-03-22T06:24:42.121Z</time></trkpt><trkpt lat="43.9546193" lon="12.4710049"><ele>271.0</ele><time>2026-03-22T06:24:45.135Z</time></trkpt><trkpt lat="43.9546294" lon="12.4709016"><ele>271.0</ele><time>2026-03-22T06:24:48.124Z</time></trkpt><trkpt lat="43.9546528" lon="12.4707939"><ele>271.42857142857144</ele><time>2026-03-22T06:24:51.124Z</time></trkpt><trkpt lat="43.954675" lon="12.4707054"><ele>271.8571428571429</ele><time>2026-03-22T06:24:53.123Z</time></trkpt><trkpt lat="43.9546866" lon="12.4706053"><ele>272.28571428571433</ele><time>2026-03-22T06:24:55.127Z</time></trkpt><trkpt lat="43.9546918" lon="12.4704686"><ele>272.7142857142857</ele><time>2026-03-22T06:24:58.137Z</time></trkpt><trkpt lat="43.9546925" lon="12.4703706"><ele>273.14285714285717</ele><time>2026-03-22T06:25:00.123Z</time></trkpt><trkpt lat="43.9546873" lon="12.4702702"><ele>273.5714285714286</ele><time>2026-03-22T06:25:02.092Z</time></trkpt><trkpt lat="43.9546856" lon="12.4701785"><ele>274.0</ele><time>2026-03-22T06:25:04.112Z</time></trkpt><trkpt lat="43.9546784" lon="12.4700804"><ele>274.00000000000006</ele><time>2026-03-22T06:25:06.137Z</time></trkpt><trkpt lat="43.9546733" lon="12.4699895"><ele>274.0</ele><time>2026-03-22T06:25:08.126Z</time></trkpt><trkpt lat="43.9546713" lon="12.4698952"><ele>274.0</ele><time>2026-03-22T06:25:10.126Z</time></trkpt><trkpt lat="43.9546734" lon="12.4697636"><ele>274.0</ele><time>2026-03-22T06:25:13.129Z</time></trkpt><trkpt lat="43.9546706" lon="12.4696674"><ele>274.0</ele><time>2026-03-22T06:25:15.119Z</time></trkpt><trkpt lat="43.9546591" lon="12.4695755"><ele>274.00000000000006</ele><time>2026-03-22T06:25:17.125Z</time></trkpt><trkpt lat="43.9546483" lon="12.4694797"><ele>274.0</ele><time>2026-03-22T06:25:19.118Z</time></trkpt><trkpt lat="43.954641" lon="12.4693841"><ele>274.5</ele><time>2026-03-22T06:25:21.115Z</time></trkpt><trkpt lat="43.9546339" lon="12.4692568"><ele>275.0</ele><time>2026-03-22T06:25:24.14Z</time></trkpt><trkpt lat="43.9546323" lon="12.4691479"><ele>275.5</ele><time>2026-03-22T06:25:27.083Z</time></trkpt><trkpt lat="43.9546343" lon="12.4690424"><ele>276.0</ele><time>2026-03-22T06:25:30.142Z</time></trkpt><trkpt lat="43.9546275" lon="12.46891"><ele>276.5</ele><time>2026-03-22T06:25:33.093Z</time></trkpt><trkpt lat="43.9546263" lon="12.468812"><ele>277.0</ele><time>2026-03-22T06:25:35.112Z</time></trkpt><trkpt lat="43.954623" lon="12.4687213"><ele>277.7142857142857</ele><time>2026-03-22T06:25:37.125Z</time></trkpt><trkpt lat="43.9546123" lon="12.4686347"><ele>278.4285714285714</ele><time>2026-03-22T06:25:39.116Z</time></trkpt><trkpt lat="43.9545714" lon="12.4685435"><ele>279.1428571428571</ele><time>2026-03-22T06:25:43.11Z</time></trkpt><trkpt lat="43.9544997" lon="12.4685561"><ele>279.85714285714283</ele><time>2026-03-22T06:25:47.12Z</time></trkpt><trkpt lat="43.9544247" lon="12.4685919"><ele>280.57142857142856</ele><time>2026-03-22T06:25:51.128Z</time></trkpt><trkpt lat="43.954367" lon="12.46863"><ele>281.2857142857143</ele><time>2026-03-22T06:25:54.124Z</time></trkpt><trkpt lat="43.9542913" lon="12.4686746"><ele>282.0</ele><time>2026-03-22T06:25:58.11Z</time></trkpt><trkpt lat="43.9542306" lon="12.4687115"><ele>283.42857142857144</ele><time>2026-03-22T06:26:02.122Z</time></trkpt><trkpt lat="43.9541797" lon="12.4687632"><ele>284.85714285714283</ele><time>2026-03-22T06:26:05.107Z</time></trkpt><trkpt lat="43.9541284" lon="12.4688322"><ele>286.2857142857143</ele><time>2026-03-22T06:26:08.127Z</time></trkpt><trkpt lat="43.9540827" lon="12.4689041"><ele>287.7142857142857</ele><time>2026-03-22T06:26:11.137Z</time></trkpt><trkpt lat="43.9540231" lon="12.4689529"><ele>289.14285714285717</ele><time>2026-03-22T06:26:14.104Z</time></trkpt><trkpt lat="43.9539645" lon="12.4690201"><ele>290.57142857142856</ele><time>2026-03-22T06:26:17.1Z</time></trkpt><trkpt lat="43.9539147" lon="12.4690761"><ele>292.0</ele><time>2026-03-22T06:26:20.109Z</time></trkpt><trkpt lat="43.9538502" lon="12.4691313"><ele>292.0</ele><time>2026-03-22T06:26:23.131Z</time></trkpt><trkpt lat="43.9537958" lon="12.469196"><ele>292.0</ele><time>2026-03-22T06:26:26.122Z</time></trkpt><trkpt lat="43.9537549" lon="12.4692737"><ele>292.0</ele><time>2026-03-22T06:26:30.125Z</time></trkpt><trkpt lat="43.9537167" lon="12.4693856"><ele>292.0</ele><time>2026-03-22T06:26:34.116Z</time></trkpt><trkpt lat="43.9536775" lon="12.4694753"><ele>292.0</ele><time>2026-03-22T06:26:37.139Z</time></trkpt><trkpt lat="43.9536303" lon="12.4695583"><ele>292.0</ele><time>2026-03-22T06:26:40.124Z</time></trkpt><trkpt lat="43.9535779" lon="12.4696377"><ele>291.42857142857144</ele><time>2026-03-22T06:26:43.11Z</time></trkpt><trkpt lat="43.9535123" lon="12.469706"><ele>290.8571428571429</ele><time>2026-03-22T06:26:47.126Z</time></trkpt><trkpt lat="43.9534561" lon="12.4697528"><ele>290.28571428571433</ele><time>2026-03-22T06:26:50.11Z</time></trkpt><trkpt lat="43.9533875" lon="12.4697816"><ele>289.7142857142857</ele><time>2026-03-22T06:26:53.119Z</time></trkpt><trkpt lat="43.953316" lon="12.4698094"><ele>289.14285714285717</ele><time>2026-03-22T06:26:57.117Z</time></trkpt><trkpt lat="43.9532466" lon="12.469807"><ele>288.5714285714286</ele><time>2026-03-22T06:27:01.124Z</time></trkpt><trkpt lat="43.9531804" lon="12.4697957"><ele>288.0</ele><time>2026-03-22T06:27:05.143Z</time></trkpt><trkpt lat="43.9530998" lon="12.4697817"><ele>289.42857142857144</ele><time>2026-03-22T06:27:09.104Z</time></trkpt><trkpt lat="43.9530313" lon="12.4697547"><ele>290.8571428571429</ele><time>2026-03-22T06:27:11.134Z</time></trkpt><trkpt lat="43.9529744" lon="12.4697061"><ele>292.2857142857143</ele><time>2026-03-22T06:27:13.126Z</time></trkpt><trkpt lat="43.9529105" lon="12.4696493"><ele>293.7142857142857</ele><time>2026-03-22T06:27:16.136Z</time></trkpt><trkpt lat="43.9528446" lon="12.4696102"><ele>295.1428571428571</ele><time>2026-03-22T06:27:20.119Z</time></trkpt><trkpt lat="43.9527962" lon="12.4695355"><ele>296.57142857142856</ele><time>2026-03-22T06:27:25.145Z</time></trkpt><trkpt lat="43.952792" lon="12.4694476"><ele>298.0</ele><time>2026-03-22T06:27:28.116Z</time></trkpt><trkpt lat="43.9528052" lon="12.4693562"><ele>299.0</ele><time>2026-03-22T06:27:31.133Z</time></trkpt><trkpt lat="43.9527939" lon="12.4692551"><ele>300.0</ele><time>2026-03-22T06:27:34.134Z</time></trkpt><trkpt lat="43.9527788" lon="12.4691443"><ele>301.0</ele><time>2026-03-22T06:27:37.154Z</time></trkpt><trkpt lat="43.9527593" lon="12.4690448"><ele>302.0</ele><time>2026-03-22T06:27:40.132Z</time></trkpt><trkpt lat="43.9527181" lon="12.4689716"><ele>303.0</ele><time>2026-03-22T06:27:43.135Z</time></trkpt><trkpt lat="43.9526691" lon="12.4688688"><ele>304.0</ele><time>2026-03-22T06:27:47.103Z</time></trkpt><trkpt lat="43.9526685" lon="12.4687788"><ele>304.0</ele><time>2026-03-22T06:27:50.107Z</time></trkpt><trkpt lat="43.9526813" lon="12.4686681"><ele>304.0</ele><time>2026-03-22T06:27:53.122Z</time></trkpt><trkpt lat="43.952694" lon="12.4685628"><ele>304.0</ele><time>2026-03-22T06:27:56.122Z</time></trkpt><trkpt lat="43.952667" lon="12.468475"><ele>304.0</ele><time>2026-03-22T06:27:59.12Z</time></trkpt><trkpt lat="43.9526114" lon="12.468553"><ele>304.0</ele><time>2026-03-22T06:28:02.138Z</time></trkpt><trkpt lat="43.9525847" lon="12.4686799"><ele>304.0</ele><time>2026-03-22T06:28:05.127Z</time></trkpt><trkpt lat="43.9525621" lon="12.4688038"><ele>305.1428571428571</ele><time>2026-03-22T06:28:08.129Z</time></trkpt><trkpt lat="43.9525312" lon="12.4688914"><ele>306.28571428571433</ele><time>2026-03-22T06:28:10.117Z</time></trkpt><trkpt lat="43.9524982" lon="12.4689763"><ele>307.42857142857144</ele><time>2026-03-22T06:28:12.139Z</time></trkpt><trkpt lat="43.9524557" lon="12.4690521"><ele>308.57142857142856</ele><time>2026-03-22T06:28:14.106Z</time></trkpt><trkpt lat="43.952413" lon="12.4691425"><ele>309.71428571428567</ele><time>2026-03-22T06:28:16.102Z</time></trkpt><trkpt lat="43.9523694" lon="12.4692176"><ele>310.8571428571429</ele><time>2026-03-22T06:28:18.118Z</time></trkpt><trkpt lat="43.9523173" lon="12.4692947"><ele>312.0</ele><time>2026-03-22T06:28:20.111Z</time></trkpt><trkpt lat="43.9522527" lon="12.469363"><ele>312.0</ele><time>2026-03-22T06:28:22.129Z</time></trkpt><trkpt lat="43.9521928" lon="12.4694408"><ele>312.0</ele><time>2026-03-22T06:28:24.144Z</time></trkpt><trkpt lat="43.952144" lon="12.4695041"><ele>312.0</ele><time>2026-03-22T06:28:26.122Z</time></trkpt><trkpt lat="43.9521054" lon="12.4695892"><ele>312.0</ele><time>2026-03-22T06:28:28.141Z</time></trkpt><trkpt lat="43.9520548" lon="12.469676"><ele>312.0</ele><time>2026-03-22T06:28:30.12Z</time></trkpt><trkpt lat="43.9520114" lon="12.4697577"><ele>312.0</ele><time>2026-03-22T06:28:32.125Z</time></trkpt><trkpt lat="43.9519661" lon="12.4698501"><ele>312.42857142857144</ele><time>2026-03-22T06:28:34.088Z</time></trkpt><trkpt lat="43.9519251" lon="12.4699184"><ele>312.85714285714283</ele><time>2026-03-22T06:28:36.097Z</time></trkpt><trkpt lat="43.9518493" lon="12.4698987"><ele>313.2857142857143</ele><time>2026-03-22T06:28:40.121Z</time></trkpt><trkpt lat="43.9517811" lon="12.4698264"><ele>313.7142857142857</ele><time>2026-03-22T06:28:44.116Z</time></trkpt><trkpt lat="43.951729" lon="12.4697561"><ele>314.1428571428571</ele><time>2026-03-22T06:28:47.118Z</time></trkpt><trkpt lat="43.9516703" lon="12.4697149"><ele>314.57142857142856</ele><time>2026-03-22T06:28:50.127Z</time></trkpt><trkpt lat="43.951612" lon="12.4696624"><ele>315.0</ele><time>2026-03-22T06:28:53.122Z</time></trkpt><trkpt lat="43.9515648" lon="12.4695897"><ele>316.0</ele><time>2026-03-22T06:28:57.106Z</time></trkpt><trkpt lat="43.9515035" lon="12.4695429"><ele>317.0</ele><time>2026-03-22T06:29:01.116Z</time></trkpt><trkpt lat="43.9514432" lon="12.4694859"><ele>318.0</ele><time>2026-03-22T06:29:05.114Z</time></trkpt><trkpt lat="43.9513905" lon="12.4694217"><ele>319.0</ele><time>2026-03-22T06:29:09.091Z</time></trkpt><trkpt lat="43.9513301" lon="12.4693555"><ele>320.0</ele><time>2026-03-22T06:29:13.111Z</time></trkpt><trkpt lat="43.9513543" lon="12.4692513"><ele>321.0</ele><time>2026-03-22T06:29:18.116Z</time></trkpt><trkpt lat="43.9514133" lon="12.4691509"><ele>321.0</ele><time>2026-03-22T06:29:21.117Z</time></trkpt><trkpt lat="43.9514709" lon="12.4690458"><ele>321.0</ele><time>2026-03-22T06:29:24.138Z</time></trkpt><trkpt lat="43.9515057" lon="12.4689626"><ele>321.0</ele><time>2026-03-22T06:29:26.148Z</time></trkpt><trkpt lat="43.9515263" lon="12.4688539"><ele>321.0</ele><time>2026-03-22T06:29:28.146Z</time></trkpt><trkpt lat="43.9515285" lon="12.4687483"><ele>321.0</ele><time>2026-03-22T06:29:30.131Z</time></trkpt><trkpt lat="43.9515036" lon="12.4686623"><ele>321.0</ele><time>2026-03-22T06:29:32.129Z</time></trkpt><trkpt lat="43.9514464" lon="12.4685831"><ele>321.6666666666667</ele><time>2026-03-22T06:29:35.117Z</time></trkpt><trkpt lat="43.9513763" lon="12.4685146"><ele>322.3333333333333</ele><time>2026-03-22T06:29:38.112Z</time></trkpt><trkpt lat="43.9513108" lon="12.4684965"><ele>323.0</ele><time>2026-03-22T06:29:41.085Z</time></trkpt><trkpt lat="43.9512341" lon="12.4685152"><ele>323.66666666666663</ele><time>2026-03-22T06:29:44.139Z</time></trkpt><trkpt lat="43.9511527" lon="12.4685557"><ele>324.3333333333333</ele><time>2026-03-22T06:29:47.115Z</time></trkpt><trkpt lat="43.9510732" lon="12.4685603"><ele>325.0</ele><time>2026-03-22T06:29:50.116Z</time></trkpt><trkpt lat="43.9510146" lon="12.4685076"><ele>325.0</ele><time>2026-03-22T06:29:53.137Z</time></trkpt><trkpt lat="43.9509519" lon="12.4684235"><ele>325.0</ele><time>2026-03-22T06:29:56.154Z</time></trkpt><trkpt lat="43.9508891" lon="12.4683705"><ele>325.0</ele><time>2026-03-22T06:29:59.118Z</time></trkpt><trkpt lat="43.9508351" lon="12.4683159"><ele>325.0</ele><time>2026-03-22T06:30:02.123Z</time></trkpt><trkpt lat="43.9507797" lon="12.4682481"><ele>325.0</ele><time>2026-03-22T06:30:05.132Z</time></trkpt><trkpt lat="43.9507311" lon="12.4681785"><ele>325.0</ele><time>2026-03-22T06:30:08.139Z</time></trkpt><trkpt lat="43.9506784" lon="12.4681167"><ele>325.0</ele><time>2026-03-22T06:30:11.131Z</time></trkpt><trkpt lat="43.9506187" lon="12.4680401"><ele>325.85714285714283</ele><time>2026-03-22T06:30:15.126Z</time></trkpt><trkpt lat="43.9505661" lon="12.4679589"><ele>326.7142857142857</ele><time>2026-03-22T06:30:19.131Z</time></trkpt><trkpt lat="43.9505132" lon="12.4678931"><ele>327.57142857142856</ele><time>2026-03-22T06:30:23.117Z</time></trkpt><trkpt lat="43.9504455" lon="12.4678607"><ele>328.42857142857144</ele><time>2026-03-22T06:30:29.094Z</time></trkpt><trkpt lat="43.9503702" lon="12.4678862"><ele>329.2857142857143</ele><time>2026-03-22T06:30:32.142Z</time></trkpt><trkpt lat="43.9503027" lon="12.4678472"><ele>330.14285714285717</ele><time>2026-03-22T06:30:37.118Z</time></trkpt><trkpt lat="43.9502988" lon="12.4677503"><ele>331.0</ele><time>2026-03-22T06:30:40.122Z</time></trkpt><trkpt lat="43.950311" lon="12.4676485"><ele>331.0</ele><time>2026-03-22T06:30:43.073Z</time></trkpt><trkpt lat="43.9503159" lon="12.4675504"><ele>331.0</ele><time>2026-03-22T06:30:46.106Z</time></trkpt><trkpt lat="43.9502919" lon="12.4674416"><ele>331.0</ele><time>2026-03-22T06:30:49.1Z</time></trkpt><trkpt lat="43.9502713" lon="12.4673221"><ele>331.0</ele><time>2026-03-22T06:30:52.14Z</time></trkpt><trkpt lat="43.9502582" lon="12.4672317"><ele>331.0</ele><time>2026-03-22T06:30:54.127Z</time></trkpt><trkpt lat="43.9502468" lon="12.4671274"><ele>331.0</ele><time>2026-03-22T06:30:56.119Z</time></trkpt><trkpt lat="43.9502258" lon="12.4670336"><ele>330.57142857142856</ele><time>2026-03-22T06:30:58.103Z</time></trkpt><trkpt lat="43.9501894" lon="12.46694"><ele>330.1428571428571</ele><time>2026-03-22T06:31:00.109Z</time></trkpt><trkpt lat="43.9501562" lon="12.4668498"><ele>329.71428571428567</ele><time>2026-03-22T06:31:02.067Z</time></trkpt><trkpt lat="43.9501182" lon="12.4667629"><ele>329.2857142857143</ele><time>2026-03-22T06:31:04.131Z</time></trkpt><trkpt lat="43.9500881" lon="12.4666706"><ele>328.85714285714283</ele><time>2026-03-22T06:31:06.146Z</time></trkpt><trkpt lat="43.9500531" lon="12.4665833"><ele>328.4285714285714</ele><time>2026-03-22T06:31:08.13Z</time></trkpt><trkpt lat="43.9499982" lon="12.4665103"><ele>328.0</ele><time>2026-03-22T06:31:10.128Z</time></trkpt><trkpt lat="43.949929" lon="12.4664214"><ele>329.5</ele><time>2026-03-22T06:31:13.078Z</time></trkpt><trkpt lat="43.9498651" lon="12.4663561"><ele>331.0</ele><time>2026-03-22T06:31:16.116Z</time></trkpt><trkpt lat="43.949792" lon="12.4662994"><ele>332.5</ele><time>2026-03-22T06:31:19.132Z</time></trkpt><trkpt lat="43.9497188" lon="12.466236"><ele>334.0</ele><time>2026-03-22T06:31:22.113Z</time></trkpt><trkpt lat="43.949663" lon="12.4661872"><ele>335.5</ele><time>2026-03-22T06:31:24.09Z</time></trkpt><trkpt lat="43.949583" lon="12.4661358"><ele>337.0</ele><time>2026-03-22T06:31:27.134Z</time></trkpt><trkpt lat="43.9495026" lon="12.4660944"><ele>337.0</ele><time>2026-03-22T06:31:30.088Z</time></trkpt><trkpt lat="43.9494217" lon="12.4660587"><ele>337.0</ele><time>2026-03-22T06:31:33.135Z</time></trkpt><trkpt lat="43.9493416" lon="12.4660288"><ele>337.0</ele><time>2026-03-22T06:31:36.113Z</time></trkpt><trkpt lat="43.94926" lon="12.466003"><ele>337.0</ele><time>2026-03-22T06:31:40.135Z</time></trkpt><trkpt lat="43.9491708" lon="12.4660059"><ele>337.0</ele><time>2026-03-22T06:31:43.119Z</time></trkpt><trkpt lat="43.949104" lon="12.4660044"><ele>337.0</ele><time>2026-03-22T06:31:45.135Z</time></trkpt><trkpt lat="43.9490402" lon="12.4660032"><ele>338.00000000000006</ele><time>2026-03-22T06:31:47.125Z</time></trkpt><trkpt lat="43.9489727" lon="12.466016"><ele>339.0</ele><time>2026-03-22T06:31:49.091Z</time></trkpt><trkpt lat="43.9489052" lon="12.4660239"><ele>340.0</ele><time>2026-03-22T06:31:51.127Z</time></trkpt><trkpt lat="43.9488309" lon="12.4660375"><ele>341.0</ele><time>2026-03-22T06:31:53.13Z</time></trkpt><trkpt lat="43.9487663" lon="12.4660441"><ele>342.0</ele><time>2026-03-22T06:31:55.124Z</time></trkpt><trkpt lat="43.9486967" lon="12.4660557"><ele>343.00000000000006</ele><time>2026-03-22T06:31:57.103Z</time></trkpt><trkpt lat="43.948602" lon="12.46607"><ele>344.0</ele><time>2026-03-22T06:32:00.124Z</time></trkpt><trkpt lat="43.9485374" lon="12.4660845"><ele>344.0</ele><time>2026-03-22T06:32:02.1Z</time></trkpt><trkpt lat="43.9484484" lon="12.4660962"><ele>344.0</ele><time>2026-03-22T06:32:05.126Z</time></trkpt><trkpt lat="43.9483655" lon="12.466093"><ele>344.0</ele><time>2026-03-22T06:32:09.094Z</time></trkpt><trkpt lat="43.9483021" lon="12.466106"><ele>344.0</ele><time>2026-03-22T06:32:12.126Z</time></trkpt><trkpt lat="43.947742" lon="12.4656886"><ele>345.5</ele><time>2026-03-22T06:32:30.128Z</time></trkpt><trkpt lat="43.9478008" lon="12.4655706"><ele>347.0</ele><time>2026-03-22T06:32:38.132Z</time></trkpt><trkpt lat="43.947807" lon="12.465664"><ele>348.5</ele><time>2026-03-22T06:32:45.122Z</time></trkpt><trkpt lat="43.9478187" lon="12.4657779"><ele>350.0</ele><time>2026-03-22T06:32:51.117Z</time></trkpt><trkpt lat="43.9477891" lon="12.4658909"><ele>351.5</ele><time>2026-03-22T06:32:55.125Z</time></trkpt><trkpt lat="43.9477554" lon="12.4659998"><ele>353.0</ele><time>2026-03-22T06:32:58.131Z</time></trkpt><trkpt lat="43.9477206" lon="12.4661235"><ele>353.0</ele><time>2026-03-22T06:33:01.098Z</time></trkpt><trkpt lat="43.9476953" lon="12.4662061"><ele>353.0</ele><time>2026-03-22T06:33:03.139Z</time></trkpt><trkpt lat="43.9476622" lon="12.4662913"><ele>353.0</ele><time>2026-03-22T06:33:05.153Z</time></trkpt><trkpt lat="43.9476392" lon="12.4663729"><ele>353.0</ele><time>2026-03-22T06:33:07.14Z</time></trkpt><trkpt lat="43.9476185" lon="12.4664625"><ele>353.0</ele><time>2026-03-22T06:33:09.132Z</time></trkpt><trkpt lat="43.947594" lon="12.4665483"><ele>353.0</ele><time>2026-03-22T06:33:11.126Z</time></trkpt><trkpt lat="43.9475751" lon="12.4666356"><ele>353.0</ele><time>2026-03-22T06:33:13.173Z</time></trkpt><trkpt lat="43.9475614" lon="12.4667222"><ele>352.83333333333337</ele><time>2026-03-22T06:33:15.153Z</time></trkpt><trkpt lat="43.9475395" lon="12.466811"><ele>352.6666666666667</ele><time>2026-03-22T06:33:17.125Z</time></trkpt><trkpt lat="43.9475153" lon="12.4669104"><ele>352.5</ele><time>2026-03-22T06:33:19.132Z</time></trkpt><trkpt lat="43.9475005" lon="12.4670152"><ele>352.3333333333333</ele><time>2026-03-22T06:33:21.123Z</time></trkpt><trkpt lat="43.9474858" lon="12.4671231"><ele>352.16666666666663</ele><time>2026-03-22T06:33:23.131Z</time></trkpt><trkpt lat="43.9474757" lon="12.4672111"><ele>352.0</ele><time>2026-03-22T06:33:25.132Z</time></trkpt><trkpt lat="43.9474628" lon="12.467345"><ele>352.8571428571429</ele><time>2026-03-22T06:33:28.138Z</time></trkpt><trkpt lat="43.9474583" lon="12.4674367"><ele>353.7142857142857</ele><time>2026-03-22T06:33:30.145Z</time></trkpt><trkpt lat="43.9474459" lon="12.4675259"><ele>354.57142857142856</ele><time>2026-03-22T06:33:32.099Z</time></trkpt><trkpt lat="43.9474278" lon="12.4676217"><ele>355.42857142857144</ele><time>2026-03-22T06:33:34.143Z</time></trkpt><trkpt lat="43.9474154" lon="12.4677231"><ele>356.2857142857143</ele><time>2026-03-22T06:33:36.115Z</time></trkpt><trkpt lat="43.9473951" lon="12.4678272"><ele>357.14285714285717</ele><time>2026-03-22T06:33:39.136Z</time></trkpt><trkpt lat="43.947337" lon="12.4678645"><ele>358.0</ele><time>2026-03-22T06:33:41.112Z</time></trkpt><trkpt lat="43.9472507" lon="12.4679106"><ele>358.0</ele><time>2026-03-22T06:33:43.129Z</time></trkpt><trkpt lat="43.9471394" lon="12.4679489"><ele>358.0</ele><time>2026-03-22T06:33:45.116Z</time></trkpt><trkpt lat="43.9470697" lon="12.4679798"><ele>358.0</ele><time>2026-03-22T06:33:47.127Z</time></trkpt><trkpt lat="43.946972" lon="12.4680347"><ele>358.0</ele><time>2026-03-22T06:33:50.138Z</time></trkpt><trkpt lat="43.9468677" lon="12.4680988"><ele>358.0</ele><time>2026-03-22T06:33:52.104Z</time></trkpt><trkpt lat="43.946796" lon="12.4681281"><ele>358.0</ele><time>2026-03-22T06:33:54.138Z</time></trkpt><trkpt lat="43.9467456" lon="12.4680523"><ele>358.0</ele><time>2026-03-22T06:33:57.13Z</time></trkpt><trkpt lat="43.9467139" lon="12.4679667"><ele>358.0</ele><time>2026-03-22T06:33:59.128Z</time></trkpt><trkpt lat="43.9466647" lon="12.4678416"><ele>358.0</ele><time>2026-03-22T06:34:01.112Z</time></trkpt><trkpt lat="43.9466184" lon="12.467776"><ele>358.0</ele><time>2026-03-22T06:34:02.121Z</time></trkpt><trkpt lat="43.94655" lon="12.4676834"><ele>358.0</ele><time>2026-03-22T06:34:03.123Z</time></trkpt><trkpt lat="43.9464749" lon="12.467573"><ele>355.4</ele><time>2026-03-22T06:34:04.087Z</time></trkpt><trkpt lat="43.9463992" lon="12.4674651"><ele>352.79999999999995</ele><time>2026-03-22T06:34:05.126Z</time></trkpt><trkpt lat="43.9463248" lon="12.4673451"><ele>350.2</ele><time>2026-03-22T06:34:06.152Z</time></trkpt><trkpt lat="43.946269" lon="12.4672266"><ele>347.6</ele><time>2026-03-22T06:34:07.117Z</time></trkpt><trkpt lat="43.9462544" lon="12.467127"><ele>345.0</ele><time>2026-03-22T06:34:08.131Z</time></trkpt><trkpt lat="43.9462837" lon="12.4669867"><ele>344.3333333333333</ele><time>2026-03-22T06:34:10.121Z</time></trkpt><trkpt lat="43.9463321" lon="12.4668643"><ele>343.6666666666667</ele><time>2026-03-22T06:34:12.126Z</time></trkpt><trkpt lat="43.9463507" lon="12.4667394"><ele>343.0</ele><time>2026-03-22T06:34:15.124Z</time></trkpt><trkpt lat="43.946395" lon="12.4666492"><ele>342.33333333333337</ele><time>2026-03-22T06:34:19.126Z</time></trkpt><trkpt lat="43.9464191" lon="12.4665563"><ele>341.6666666666667</ele><time>2026-03-22T06:34:22.145Z</time></trkpt><trkpt lat="43.9464024" lon="12.4664588"><ele>341.0</ele><time>2026-03-22T06:34:24.126Z</time></trkpt><trkpt lat="43.9463102" lon="12.4663563"><ele>341.0</ele><time>2026-03-22T06:34:26.134Z</time></trkpt><trkpt lat="43.9462347" lon="12.4662874"><ele>341.0</ele><time>2026-03-22T06:34:27.101Z</time></trkpt><trkpt lat="43.9461708" lon="12.466221"><ele>341.0</ele><time>2026-03-22T06:34:28.093Z</time></trkpt><trkpt lat="43.9460853" lon="12.4661657"><ele>341.0</ele><time>2026-03-22T06:34:29.125Z</time></trkpt><trkpt lat="43.9460087" lon="12.4661114"><ele>341.0</ele><time>2026-03-22T06:34:30.15Z</time></trkpt><trkpt lat="43.9459314" lon="12.4660366"><ele>341.0</ele><time>2026-03-22T06:34:31.136Z</time></trkpt><trkpt lat="43.9458552" lon="12.4659556"><ele>339.0</ele><time>2026-03-22T06:34:32.144Z</time></trkpt><trkpt lat="43.9457893" lon="12.465893"><ele>337.0</ele><time>2026-03-22T06:34:33.155Z</time></trkpt><trkpt lat="43.9457194" lon="12.4658256"><ele>335.0</ele><time>2026-03-22T06:34:34.142Z</time></trkpt><trkpt lat="43.9456495" lon="12.4657711"><ele>333.0</ele><time>2026-03-22T06:34:35.128Z</time></trkpt><trkpt lat="43.9455895" lon="12.4657059"><ele>331.0</ele><time>2026-03-22T06:34:36.129Z</time></trkpt><trkpt lat="43.9455254" lon="12.4656422"><ele>329.0</ele><time>2026-03-22T06:34:37.128Z</time></trkpt><trkpt lat="43.9454666" lon="12.4655811"><ele>329.0</ele><time>2026-03-22T06:34:38.16Z</time></trkpt><trkpt lat="43.9454125" lon="12.4655243"><ele>329.0</ele><time>2026-03-22T06:34:39.143Z</time></trkpt><trkpt lat="43.9453022" lon="12.4654592"><ele>329.0</ele><time>2026-03-22T06:34:41.137Z</time></trkpt><trkpt lat="43.9452409" lon="12.4653849"><ele>329.0</ele><time>2026-03-22T06:34:43.133Z</time></trkpt><trkpt lat="43.9452053" lon="12.4652688"><ele>329.0</ele><time>2026-03-22T06:34:45.116Z</time></trkpt><trkpt lat="43.9451006" lon="12.4651742"><ele>329.2857142857143</ele><time>2026-03-22T06:34:47.128Z</time></trkpt><trkpt lat="43.9450524" lon="12.4651145"><ele>329.57142857142856</ele><time>2026-03-22T06:34:48.137Z</time></trkpt><trkpt lat="43.9449932" lon="12.4650411"><ele>329.8571428571429</ele><time>2026-03-22T06:34:49.128Z</time></trkpt><trkpt lat="43.9449362" lon="12.4649668"><ele>330.1428571428571</ele><time>2026-03-22T06:34:50.133Z</time></trkpt><trkpt lat="43.9448885" lon="12.464906"><ele>330.42857142857144</ele><time>2026-03-22T06:34:51.121Z</time></trkpt><trkpt lat="43.9448228" lon="12.4648149"><ele>330.7142857142857</ele><time>2026-03-22T06:34:53.129Z</time></trkpt><trkpt lat="43.9447751" lon="12.464756"><ele>331.0</ele><time>2026-03-22T06:34:55.147Z</time></trkpt><trkpt lat="43.9447409" lon="12.4646419"><ele>329.42857142857144</ele><time>2026-03-22T06:34:58.123Z</time></trkpt><trkpt lat="43.9447012" lon="12.4645297"><ele>327.85714285714283</ele><time>2026-03-22T06:35:01.14Z</time></trkpt><trkpt lat="43.9446466" lon="12.4644653"><ele>326.2857142857143</ele><time>2026-03-22T06:35:05.143Z</time></trkpt><trkpt lat="43.9445764" lon="12.464451"><ele>324.7142857142857</ele><time>2026-03-22T06:35:09.13Z</time></trkpt><trkpt lat="43.9445115" lon="12.464443"><ele>323.14285714285717</ele><time>2026-03-22T06:35:12.112Z</time></trkpt><trkpt lat="43.9444427" lon="12.4644148"><ele>321.57142857142856</ele><time>2026-03-22T06:35:17.122Z</time></trkpt><trkpt lat="43.9443714" lon="12.4644099"><ele>320.0</ele><time>2026-03-22T06:35:22.133Z</time></trkpt><trkpt lat="43.9443077" lon="12.4644135"><ele>320.0</ele><time>2026-03-22T06:35:26.128Z</time></trkpt><trkpt lat="43.9442413" lon="12.4643859"><ele>320.0</ele><time>2026-03-22T06:35:31.129Z</time></trkpt><trkpt lat="43.9441947" lon="12.4643063"><ele>320.0</ele><time>2026-03-22T06:35:36.143Z</time></trkpt><trkpt lat="43.9441712" lon="12.4642151"><ele>320.0</ele><time>2026-03-22T06:35:43.061Z</time></trkpt><trkpt lat="43.9441943" lon="12.4641159"><ele>320.0</ele><time>2026-03-22T06:35:48.063Z</time></trkpt><trkpt lat="43.944192" lon="12.4640276"><ele>320.0</ele><time>2026-03-22T06:35:59.101Z</time></trkpt><trkpt lat="43.944223" lon="12.4639506"><ele>320.0</ele><time>2026-03-22T06:36:12.111Z</time></trkpt><trkpt lat="43.9442353" lon="12.4638474"><ele>321.1666666666667</ele><time>2026-03-22T06:36:18.127Z</time></trkpt><trkpt lat="43.9442396" lon="12.4637572"><ele>322.33333333333337</ele><time>2026-03-22T06:36:22.142Z</time></trkpt><trkpt lat="43.9442576" lon="12.4636514"><ele>323.5</ele><time>2026-03-22T06:36:26.108Z</time></trkpt><trkpt lat="43.9442788" lon="12.463539"><ele>324.6666666666667</ele><time>2026-03-22T06:36:29.124Z</time></trkpt><trkpt lat="43.9442968" lon="12.4634483"><ele>325.8333333333333</ele><time>2026-03-22T06:36:31.13Z</time></trkpt><trkpt lat="43.9443122" lon="12.4633546"><ele>327.0</ele><time>2026-03-22T06:36:33.127Z</time></trkpt><trkpt lat="43.9443294" lon="12.4632339"><ele>327.0</ele><time>2026-03-22T06:36:36.135Z</time></trkpt><trkpt lat="43.9443329" lon="12.4631333"><ele>327.0</ele><time>2026-03-22T06:36:39.129Z</time></trkpt><trkpt lat="43.9443328" lon="12.4630395"><ele>327.0</ele><time>2026-03-22T06:36:43.101Z</time></trkpt><trkpt lat="43.9443461" lon="12.4629252"><ele>327.0</ele><time>2026-03-22T06:36:47.133Z</time></trkpt><trkpt lat="43.9443503" lon="12.4628253"><ele>327.0</ele><time>2026-03-22T06:36:50.133Z</time></trkpt><trkpt lat="43.9443497" lon="12.4627343"><ele>327.0</ele><time>2026-03-22T06:36:53.143Z</time></trkpt><trkpt lat="43.9443269" lon="12.4626516"><ele>327.0</ele><time>2026-03-22T06:36:56.111Z</time></trkpt><trkpt lat="43.9442966" lon="12.4625745"><ele>327.42857142857144</ele><time>2026-03-22T06:36:59.12Z</time></trkpt><trkpt lat="43.944269" lon="12.4624909"><ele>327.8571428571429</ele><time>2026-03-22T06:37:02.14Z</time></trkpt><trkpt lat="43.9442365" lon="12.4623928"><ele>328.28571428571433</ele><time>2026-03-22T06:37:06.138Z</time></trkpt><trkpt lat="43.9441594" lon="12.4622972"><ele>328.7142857142857</ele><time>2026-03-22T06:40:03.139Z</time></trkpt><trkpt lat="43.9441544" lon="12.4622067"><ele>329.14285714285717</ele><time>2026-03-22T06:40:13.127Z</time></trkpt><trkpt lat="43.9441463" lon="12.4621167"><ele>329.5714285714286</ele><time>2026-03-22T06:40:17.125Z</time></trkpt><trkpt lat="43.9441217" lon="12.4620317"><ele>330.0</ele><time>2026-03-22T06:40:21.13Z</time></trkpt><trkpt lat="43.9440874" lon="12.4619417"><ele>332.28571428571433</ele><time>2026-03-22T06:40:26.147Z</time></trkpt><trkpt lat="43.9440618" lon="12.4618437"><ele>334.57142857142856</ele><time>2026-03-22T06:40:31.126Z</time></trkpt><trkpt lat="43.9440466" lon="12.461753"><ele>336.8571428571429</ele><time>2026-03-22T06:40:36.136Z</time></trkpt><trkpt lat="43.9440385" lon="12.4616616"><ele>339.14285714285717</ele><time>2026-03-22T06:40:41.13Z</time></trkpt><trkpt lat="43.9440414" lon="12.461558"><ele>341.42857142857144</ele><time>2026-03-22T06:40:46.122Z</time></trkpt><trkpt lat="43.9440252" lon="12.4614526"><ele>343.7142857142857</ele><time>2026-03-22T06:40:50.134Z</time></trkpt><trkpt lat="43.9440015" lon="12.4613425"><ele>346.0</ele><time>2026-03-22T06:40:54.139Z</time></trkpt><trkpt lat="43.9439901" lon="12.4612339"><ele>346.1428571428571</ele><time>2026-03-22T06:40:57.152Z</time></trkpt><trkpt lat="43.943965" lon="12.4611366"><ele>346.28571428571433</ele><time>2026-03-22T06:41:00.135Z</time></trkpt><trkpt lat="43.9439351" lon="12.4610487"><ele>346.42857142857144</ele><time>2026-03-22T06:41:03.116Z</time></trkpt><trkpt lat="43.9439037" lon="12.4609569"><ele>346.57142857142856</ele><time>2026-03-22T06:41:07.121Z</time></trkpt><trkpt lat="43.9438688" lon="12.4608558"><ele>346.71428571428567</ele><time>2026-03-22T06:41:11.134Z</time></trkpt><trkpt lat="43.9438537" lon="12.46077"><ele>346.8571428571429</ele><time>2026-03-22T06:41:15.121Z</time></trkpt><trkpt lat="43.94383" lon="12.4606732"><ele>347.0</ele><time>2026-03-22T06:41:20.136Z</time></trkpt><trkpt lat="43.9437949" lon="12.4605994"><ele>347.0</ele><time>2026-03-22T06:41:23.137Z</time></trkpt><trkpt lat="43.9437674" lon="12.4605031"><ele>347.0</ele><time>2026-03-22T06:41:27.128Z</time></trkpt><trkpt lat="43.9437327" lon="12.4604146"><ele>347.0</ele><time>2026-03-22T06:41:31.144Z</time></trkpt><trkpt lat="43.9437047" lon="12.4603343"><ele>347.0</ele><time>2026-03-22T06:41:35.146Z</time></trkpt><trkpt lat="43.9436742" lon="12.4602562"><ele>347.0</ele><time>2026-03-22T06:41:39.135Z</time></trkpt><trkpt lat="43.9436464" lon="12.4601757"><ele>347.0</ele><time>2026-03-22T06:41:44.135Z</time></trkpt><trkpt lat="43.9435948" lon="12.4601155"><ele>347.0</ele><time>2026-03-22T06:41:48.125Z</time></trkpt><trkpt lat="43.9435449" lon="12.4600289"><ele>347.7142857142857</ele><time>2026-03-22T06:41:53.125Z</time></trkpt><trkpt lat="43.9435088" lon="12.4599442"><ele>348.4285714285714</ele><time>2026-03-22T06:41:57.136Z</time></trkpt><trkpt lat="43.943471" lon="12.4598623"><ele>349.1428571428571</ele><time>2026-03-22T06:42:01.135Z</time></trkpt><trkpt lat="43.9434294" lon="12.4597786"><ele>349.8571428571429</ele><time>2026-03-22T06:42:05.133Z</time></trkpt><trkpt lat="43.9434007" lon="12.4596934"><ele>350.57142857142856</ele><time>2026-03-22T06:42:10.132Z</time></trkpt><trkpt lat="43.9433628" lon="12.4596161"><ele>351.2857142857143</ele><time>2026-03-22T06:42:15.142Z</time></trkpt><trkpt lat="43.9433188" lon="12.4595271"><ele>352.0</ele><time>2026-03-22T06:42:20.137Z</time></trkpt><trkpt lat="43.9432771" lon="12.4594514"><ele>354.7142857142857</ele><time>2026-03-22T06:42:23.101Z</time></trkpt><trkpt lat="43.9432302" lon="12.4593837"><ele>357.42857142857144</ele><time>2026-03-22T06:42:27.138Z</time></trkpt><trkpt lat="43.9431843" lon="12.4593092"><ele>360.1428571428571</ele><time>2026-03-22T06:42:32.145Z</time></trkpt><trkpt lat="43.9431363" lon="12.4592506"><ele>362.8571428571429</ele><time>2026-03-22T06:42:38.135Z</time></trkpt><trkpt lat="43.9430786" lon="12.4591888"><ele>365.57142857142856</ele><time>2026-03-22T06:42:42.135Z</time></trkpt><trkpt lat="43.9430205" lon="12.4591262"><ele>368.2857142857143</ele><time>2026-03-22T06:42:47.132Z</time></trkpt><trkpt lat="43.942966" lon="12.4590672"><ele>371.0</ele><time>2026-03-22T06:42:52.146Z</time></trkpt><trkpt lat="43.9429078" lon="12.4590076"><ele>371.0</ele><time>2026-03-22T06:42:57.138Z</time></trkpt><trkpt lat="43.9428523" lon="12.4589428"><ele>371.0</ele><time>2026-03-22T06:43:02.13Z</time></trkpt><trkpt lat="43.9428118" lon="12.4588586"><ele>371.0</ele><time>2026-03-22T06:43:07.134Z</time></trkpt><trkpt lat="43.9427813" lon="12.4587746"><ele>371.0</ele><time>2026-03-22T06:43:11.131Z</time></trkpt><trkpt lat="43.9427342" lon="12.4587035"><ele>371.0</ele><time>2026-03-22T06:43:15.133Z</time></trkpt><trkpt lat="43.9426923" lon="12.458634"><ele>371.0</ele><time>2026-03-22T06:43:19.142Z</time></trkpt><trkpt lat="43.9426114" lon="12.4586167"><ele>371.0</ele><time>2026-03-22T06:43:23.13Z</time></trkpt><trkpt lat="43.9425437" lon="12.4586398"><ele>372.1666666666667</ele><time>2026-03-22T06:43:25.135Z</time></trkpt><trkpt lat="43.9424513" lon="12.4586875"><ele>373.33333333333337</ele><time>2026-03-22T06:43:27.142Z</time></trkpt><trkpt lat="43.9423769" lon="12.458731"><ele>374.5</ele><time>2026-03-22T06:43:29.136Z</time></trkpt><trkpt lat="43.9423057" lon="12.4588009"><ele>375.6666666666667</ele><time>2026-03-22T06:43:31.115Z</time></trkpt><trkpt lat="43.9422373" lon="12.4588713"><ele>376.8333333333333</ele><time>2026-03-22T06:43:33.077Z</time></trkpt><trkpt lat="43.9421639" lon="12.4589465"><ele>378.0</ele><time>2026-03-22T06:43:35.107Z</time></trkpt><trkpt lat="43.9420897" lon="12.4590351"><ele>378.0</ele><time>2026-03-22T06:43:37.119Z</time></trkpt><trkpt lat="43.9420055" lon="12.4591179"><ele>378.0</ele><time>2026-03-22T06:43:39.101Z</time></trkpt><trkpt lat="43.9419257" lon="12.4591941"><ele>378.0</ele><time>2026-03-22T06:43:41.124Z</time></trkpt><trkpt lat="43.9418363" lon="12.459278"><ele>378.0</ele><time>2026-03-22T06:43:43.117Z</time></trkpt><trkpt lat="43.9417472" lon="12.459302"><ele>378.0</ele><time>2026-03-22T06:43:45.117Z</time></trkpt><trkpt lat="43.9416679" lon="12.4592958"><ele>378.42857142857144</ele><time>2026-03-22T06:43:47.127Z</time></trkpt><trkpt lat="43.9416004" lon="12.4593169"><ele>378.8571428571429</ele><time>2026-03-22T06:43:49.115Z</time></trkpt><trkpt lat="43.9415189" lon="12.45932"><ele>379.2857142857143</ele><time>2026-03-22T06:43:51.146Z</time></trkpt><trkpt lat="43.9414494" lon="12.4593391"><ele>379.7142857142857</ele><time>2026-03-22T06:43:53.14Z</time></trkpt><trkpt lat="43.9413844" lon="12.459355"><ele>380.14285714285717</ele><time>2026-03-22T06:43:55.134Z</time></trkpt><trkpt lat="43.9413194" lon="12.4593743"><ele>380.57142857142856</ele><time>2026-03-22T06:43:57.131Z</time></trkpt><trkpt lat="43.9412498" lon="12.4593605"><ele>381.0</ele><time>2026-03-22T06:44:01.131Z</time></trkpt><trkpt lat="43.9412164" lon="12.4592759"><ele>381.0</ele><time>2026-03-22T06:44:05.118Z</time></trkpt><trkpt lat="43.9411767" lon="12.4592017"><ele>381.0</ele><time>2026-03-22T06:44:08.131Z</time></trkpt><trkpt lat="43.9411349" lon="12.4591297"><ele>381.0</ele><time>2026-03-22T06:44:11.127Z</time></trkpt><trkpt lat="43.9410896" lon="12.4590666"><ele>381.0</ele><time>2026-03-22T06:44:14.128Z</time></trkpt><trkpt lat="43.9410283" lon="12.4589889"><ele>381.0</ele><time>2026-03-22T06:44:18.131Z</time></trkpt><trkpt lat="43.9409695" lon="12.458942"><ele>381.0</ele><time>2026-03-22T06:44:21.112Z</time></trkpt><trkpt lat="43.9409018" lon="12.458879"><ele>381.0</ele><time>2026-03-22T06:44:25.108Z</time></trkpt><trkpt lat="43.9408282" lon="12.4588194"><ele>383.0</ele><time>2026-03-22T06:44:29.119Z</time></trkpt><trkpt lat="43.9407762" lon="12.4587581"><ele>385.0</ele><time>2026-03-22T06:44:33.138Z</time></trkpt><trkpt lat="43.9407385" lon="12.4586652"><ele>387.0</ele><time>2026-03-22T06:44:37.15Z</time></trkpt><trkpt lat="43.9407268" lon="12.4585644"><ele>389.0</ele><time>2026-03-22T06:44:41.125Z</time></trkpt><trkpt lat="43.9407844" lon="12.4584855"><ele>391.0</ele><time>2026-03-22T06:44:45.103Z</time></trkpt><trkpt lat="43.9408419" lon="12.4584088"><ele>393.0</ele><time>2026-03-22T06:44:48.118Z</time></trkpt><trkpt lat="43.9408201" lon="12.4583047"><ele>393.00000000000006</ele><time>2026-03-22T06:44:52.121Z</time></trkpt><trkpt lat="43.9407468" lon="12.4583168"><ele>393.0</ele><time>2026-03-22T06:44:55.102Z</time></trkpt><trkpt lat="43.9406799" lon="12.4583444"><ele>393.0</ele><time>2026-03-22T06:44:58.135Z</time></trkpt><trkpt lat="43.9406155" lon="12.4583945"><ele>393.0</ele><time>2026-03-22T06:45:01.162Z</time></trkpt><trkpt lat="43.940552" lon="12.4584496"><ele>393.0</ele><time>2026-03-22T06:45:04.111Z</time></trkpt><trkpt lat="43.9404871" lon="12.4584885"><ele>393.00000000000006</ele><time>2026-03-22T06:45:07.115Z</time></trkpt><trkpt lat="43.940429" lon="12.4585372"><ele>393.0</ele><time>2026-03-22T06:45:10.11Z</time></trkpt><trkpt lat="43.9403558" lon="12.458587"><ele>393.00000000000006</ele><time>2026-03-22T06:45:14.139Z</time></trkpt><trkpt lat="43.940278" lon="12.4586156"><ele>393.0</ele><time>2026-03-22T06:45:18.129Z</time></trkpt><trkpt lat="43.9402081" lon="12.4586015"><ele>393.0</ele><time>2026-03-22T06:45:22.112Z</time></trkpt><trkpt lat="43.940142" lon="12.4585848"><ele>393.0</ele><time>2026-03-22T06:45:25.119Z</time></trkpt><trkpt lat="43.9400684" lon="12.4585961"><ele>393.0</ele><time>2026-03-22T06:45:28.133Z</time></trkpt><trkpt lat="43.9399928" lon="12.4586269"><ele>393.00000000000006</ele><time>2026-03-22T06:45:31.096Z</time></trkpt><trkpt lat="43.9399261" lon="12.4586764"><ele>393.0</ele><time>2026-03-22T06:45:34.134Z</time></trkpt><trkpt lat="43.9398697" lon="12.4587532"><ele>393.8333333333333</ele><time>2026-03-22T06:45:37.132Z</time></trkpt><trkpt lat="43.9398247" lon="12.4588199"><ele>394.66666666666663</ele><time>2026-03-22T06:45:40.146Z</time></trkpt><trkpt lat="43.9397788" lon="12.4588862"><ele>395.5</ele><time>2026-03-22T06:45:43.101Z</time></trkpt><trkpt lat="43.9397165" lon="12.4589656"><ele>396.3333333333333</ele><time>2026-03-22T06:45:47.132Z</time></trkpt><trkpt lat="43.9396627" lon="12.4590231"><ele>397.16666666666663</ele><time>2026-03-22T06:45:50.122Z</time></trkpt><trkpt lat="43.9396046" lon="12.4591083"><ele>398.0</ele><time>2026-03-22T06:45:54.136Z</time></trkpt><trkpt lat="43.9395435" lon="12.4591868"><ele>397.99999999999994</ele><time>2026-03-22T06:45:58.124Z</time></trkpt><trkpt lat="43.9394898" lon="12.4592472"><ele>398.0</ele><time>2026-03-22T06:46:01.1Z</time></trkpt><trkpt lat="43.9394186" lon="12.4592844"><ele>398.0</ele><time>2026-03-22T06:46:05.119Z</time></trkpt><trkpt lat="43.9393523" lon="12.4592886"><ele>398.0</ele><time>2026-03-22T06:46:09.133Z</time></trkpt><trkpt lat="43.9392898" lon="12.4592431"><ele>398.0</ele><time>2026-03-22T06:46:13.15Z</time></trkpt><trkpt lat="43.9392352" lon="12.4591943"><ele>397.99999999999994</ele><time>2026-03-22T06:46:16.109Z</time></trkpt><trkpt lat="43.9391717" lon="12.4591391"><ele>398.0</ele><time>2026-03-22T06:46:19.13Z</time></trkpt><trkpt lat="43.9391119" lon="12.4590947"><ele>399.4285714285714</ele><time>2026-03-22T06:46:22.143Z</time></trkpt><trkpt lat="43.9390592" lon="12.4590365"><ele>400.85714285714283</ele><time>2026-03-22T06:46:25.134Z</time></trkpt><trkpt lat="43.9390026" lon="12.4589729"><ele>402.2857142857143</ele><time>2026-03-22T06:46:28.127Z</time></trkpt><trkpt lat="43.9389516" lon="12.4589189"><ele>403.71428571428567</ele><time>2026-03-22T06:46:31.121Z</time></trkpt><trkpt lat="43.9388903" lon="12.4588587"><ele>405.14285714285717</ele><time>2026-03-22T06:46:34.131Z</time></trkpt><trkpt lat="43.9388397" lon="12.4587982"><ele>406.57142857142856</ele><time>2026-03-22T06:46:37.131Z</time></trkpt><trkpt lat="43.9387812" lon="12.4587251"><ele>408.0</ele><time>2026-03-22T06:46:40.129Z</time></trkpt><trkpt lat="43.9387287" lon="12.4586582"><ele>408.57142857142856</ele><time>2026-03-22T06:46:43.079Z</time></trkpt><trkpt lat="43.9386747" lon="12.4586008"><ele>409.14285714285717</ele><time>2026-03-22T06:46:46.123Z</time></trkpt><trkpt lat="43.9386188" lon="12.4585455"><ele>409.71428571428567</ele><time>2026-03-22T06:46:49.137Z</time></trkpt><trkpt lat="43.9385716" lon="12.4584835"><ele>410.2857142857143</ele><time>2026-03-22T06:46:52.131Z</time></trkpt><trkpt lat="43.9385396" lon="12.4583905"><ele>410.85714285714283</ele><time>2026-03-22T06:46:55.127Z</time></trkpt><trkpt lat="43.9385393" lon="12.4582886"><ele>411.4285714285714</ele><time>2026-03-22T06:46:58.127Z</time></trkpt><trkpt lat="43.938572" lon="12.4582083"><ele>412.0</ele><time>2026-03-22T06:47:01.122Z</time></trkpt><trkpt lat="43.938614" lon="12.4581353"><ele>411.99999999999994</ele><time>2026-03-22T06:47:04.121Z</time></trkpt><trkpt lat="43.9386338" lon="12.4580306"><ele>412.0</ele><time>2026-03-22T06:47:08.114Z</time></trkpt><trkpt lat="43.9386297" lon="12.4579228"><ele>412.0</ele><time>2026-03-22T06:47:12.122Z</time></trkpt><trkpt lat="43.9386025" lon="12.4578431"><ele>412.0</ele><time>2026-03-22T06:47:16.141Z</time></trkpt><trkpt lat="43.9385666" lon="12.4577482"><ele>412.0</ele><time>2026-03-22T06:47:20.127Z</time></trkpt><trkpt lat="43.93854" lon="12.457652"><ele>411.99999999999994</ele><time>2026-03-22T06:47:24.134Z</time></trkpt><trkpt lat="43.9385311" lon="12.4575453"><ele>412.0</ele><time>2026-03-22T06:47:28.085Z</time></trkpt><trkpt lat="43.938535" lon="12.4574568"><ele>412.99999999999994</ele><time>2026-03-22T06:47:32.084Z</time></trkpt><trkpt lat="43.9385451" lon="12.4573704"><ele>414.0</ele><time>2026-03-22T06:47:36.119Z</time></trkpt><trkpt lat="43.9385475" lon="12.45728"><ele>415.0</ele><time>2026-03-22T06:47:40.128Z</time></trkpt><trkpt lat="43.9385455" lon="12.4571798"><ele>416.0</ele><time>2026-03-22T06:47:44.136Z</time></trkpt><trkpt lat="43.9385038" lon="12.4570894"><ele>417.0</ele><time>2026-03-22T06:47:48.102Z</time></trkpt><trkpt lat="43.9384648" lon="12.4570165"><ele>417.99999999999994</ele><time>2026-03-22T06:47:52.121Z</time></trkpt><trkpt lat="43.9384236" lon="12.4569381"><ele>419.0</ele><time>2026-03-22T06:47:57.134Z</time></trkpt><trkpt lat="43.9383814" lon="12.4568527"><ele>421.4285714285714</ele><time>2026-03-22T06:48:03.135Z</time></trkpt><trkpt lat="43.9383318" lon="12.4567736"><ele>423.85714285714283</ele><time>2026-03-22T06:48:09.113Z</time></trkpt><trkpt lat="43.9382725" lon="12.4567331"><ele>426.2857142857143</ele><time>2026-03-22T06:48:14.162Z</time></trkpt><trkpt lat="43.9382107" lon="12.4567076"><ele>428.71428571428567</ele><time>2026-03-22T06:48:18.123Z</time></trkpt><trkpt lat="43.9381699" lon="12.4566212"><ele>431.14285714285717</ele><time>2026-03-22T06:48:23.137Z</time></trkpt><trkpt lat="43.9381193" lon="12.4565687"><ele>433.57142857142856</ele><time>2026-03-22T06:48:27.091Z</time></trkpt><trkpt lat="43.9380669" lon="12.4564987"><ele>436.0</ele><time>2026-03-22T06:48:32.127Z</time></trkpt><trkpt lat="43.9380358" lon="12.4564226"><ele>436.0</ele><time>2026-03-22T06:48:37.114Z</time></trkpt><trkpt lat="43.9380275" lon="12.4563265"><ele>436.0</ele><time>2026-03-22T06:48:43.154Z</time></trkpt><trkpt lat="43.9380558" lon="12.4562354"><ele>436.0</ele><time>2026-03-22T06:48:48.112Z</time></trkpt><trkpt lat="43.9380924" lon="12.4561458"><ele>436.0</ele><time>2026-03-22T06:48:53.124Z</time></trkpt><trkpt lat="43.9381271" lon="12.4560669"><ele>436.0</ele><time>2026-03-22T06:48:57.122Z</time></trkpt><trkpt lat="43.9381728" lon="12.4559963"><ele>436.0</ele><time>2026-03-22T06:49:01.108Z</time></trkpt><trkpt lat="43.9382158" lon="12.4559104"><ele>436.0</ele><time>2026-03-22T06:49:05.081Z</time></trkpt><trkpt lat="43.9382718" lon="12.4558131"><ele>436.1666666666667</ele><time>2026-03-22T06:49:09.135Z</time></trkpt><trkpt lat="43.9383166" lon="12.4557294"><ele>436.33333333333337</ele><time>2026-03-22T06:49:12.103Z</time></trkpt><trkpt lat="43.9383696" lon="12.4556397"><ele>436.5</ele><time>2026-03-22T06:49:15.155Z</time></trkpt><trkpt lat="43.9384313" lon="12.4555382"><ele>436.66666666666663</ele><time>2026-03-22T06:49:18.105Z</time></trkpt><trkpt lat="43.9384421" lon="12.4554419"><ele>436.8333333333333</ele><time>2026-03-22T06:49:20.132Z</time></trkpt><trkpt lat="43.938406" lon="12.4553444"><ele>437.0</ele><time>2026-03-22T06:49:23.101Z</time></trkpt><trkpt lat="43.9383511" lon="12.4552865"><ele>439.1428571428571</ele><time>2026-03-22T06:49:27.128Z</time></trkpt><trkpt lat="43.9382894" lon="12.4552406"><ele>441.28571428571433</ele><time>2026-03-22T06:49:32.126Z</time></trkpt><trkpt lat="43.9382236" lon="12.4552244"><ele>443.42857142857144</ele><time>2026-03-22T06:49:37.118Z</time></trkpt><trkpt lat="43.9381541" lon="12.4551982"><ele>445.57142857142856</ele><time>2026-03-22T06:49:42.074Z</time></trkpt><trkpt lat="43.9380852" lon="12.4551745"><ele>447.71428571428567</ele><time>2026-03-22T06:49:47.119Z</time></trkpt><trkpt lat="43.9380127" lon="12.4551726"><ele>449.8571428571429</ele><time>2026-03-22T06:49:53.131Z</time></trkpt><trkpt lat="43.9379458" lon="12.4551481"><ele>452.0</ele><time>2026-03-22T06:49:58.109Z</time></trkpt><trkpt lat="43.9378898" lon="12.4551054"><ele>451.99999999999994</ele><time>2026-03-22T06:50:03.118Z</time></trkpt><trkpt lat="43.9378227" lon="12.4550539"><ele>452.0</ele><time>2026-03-22T06:50:08.123Z</time></trkpt><trkpt lat="43.9377916" lon="12.4549598"><ele>452.0</ele><time>2026-03-22T06:50:13.136Z</time></trkpt><trkpt lat="43.9377512" lon="12.4548852"><ele>452.0</ele><time>2026-03-22T06:50:18.108Z</time></trkpt><trkpt lat="43.9377179" lon="12.4547848"><ele>451.99999999999994</ele><time>2026-03-22T06:50:23.124Z</time></trkpt><trkpt lat="43.9376797" lon="12.4546921"><ele>452.0</ele><time>2026-03-22T06:50:28.12Z</time></trkpt><trkpt lat="43.9376481" lon="12.4545942"><ele>453.99999999999994</ele><time>2026-03-22T06:50:33.12Z</time></trkpt><trkpt lat="43.9376194" lon="12.4544951"><ele>456.0</ele><time>2026-03-22T06:50:37.142Z</time></trkpt><trkpt lat="43.9376054" lon="12.4544014"><ele>458.0</ele><time>2026-03-22T06:50:40.116Z</time></trkpt><trkpt lat="43.9375664" lon="12.4542999"><ele>460.0</ele><time>2026-03-22T06:50:44.126Z</time></trkpt><trkpt lat="43.93753" lon="12.4542022"><ele>461.99999999999994</ele><time>2026-03-22T06:50:48.118Z</time></trkpt><trkpt lat="43.937511" lon="12.4540979"><ele>464.0</ele><time>2026-03-22T06:50:52.129Z</time></trkpt><trkpt lat="43.9375131" lon="12.4539956"><ele>464.00000000000006</ele><time>2026-03-22T06:50:56.145Z</time></trkpt><trkpt lat="43.9375458" lon="12.4539001"><ele>464.0</ele><time>2026-03-22T06:51:00.131Z</time></trkpt><trkpt lat="43.9375754" lon="12.4538207"><ele>464.00000000000006</ele><time>2026-03-22T06:51:03.135Z</time></trkpt><trkpt lat="43.9376318" lon="12.4537368"><ele>464.00000000000006</ele><time>2026-03-22T06:51:07.109Z</time></trkpt><trkpt lat="43.9376724" lon="12.4536566"><ele>464.0</ele><time>2026-03-22T06:51:11.147Z</time></trkpt><trkpt lat="43.9377122" lon="12.4535726"><ele>464.00000000000006</ele><time>2026-03-22T06:51:14.146Z</time></trkpt><trkpt lat="43.9377599" lon="12.4534795"><ele>464.00000000000006</ele><time>2026-03-22T06:51:17.123Z</time></trkpt><trkpt lat="43.9377962" lon="12.4533883"><ele>464.57142857142867</ele><time>2026-03-22T06:51:20.136Z</time></trkpt><trkpt lat="43.9378315" lon="12.4532915"><ele>465.14285714285717</ele><time>2026-03-22T06:51:23.16Z</time></trkpt><trkpt lat="43.9378469" lon="12.453199"><ele>465.7142857142858</ele><time>2026-03-22T06:51:26.155Z</time></trkpt><trkpt lat="43.9378662" lon="12.4531111"><ele>466.28571428571433</ele><time>2026-03-22T06:51:29.131Z</time></trkpt><trkpt lat="43.9378779" lon="12.4530042"><ele>466.8571428571429</ele><time>2026-03-22T06:51:32.072Z</time></trkpt><trkpt lat="43.9378892" lon="12.4528915"><ele>467.42857142857144</ele><time>2026-03-22T06:51:35.136Z</time></trkpt><trkpt lat="43.9379033" lon="12.4527935"><ele>468.0</ele><time>2026-03-22T06:51:38.147Z</time></trkpt><trkpt lat="43.9379062" lon="12.4526948"><ele>468.6666666666667</ele><time>2026-03-22T06:51:41.113Z</time></trkpt><trkpt lat="43.937914" lon="12.4525889"><ele>469.33333333333337</ele><time>2026-03-22T06:51:44.103Z</time></trkpt><trkpt lat="43.937928" lon="12.4524743"><ele>470.0</ele><time>2026-03-22T06:51:47.143Z</time></trkpt><trkpt lat="43.9379479" lon="12.4523516"><ele>470.6666666666667</ele><time>2026-03-22T06:51:50.139Z</time></trkpt><trkpt lat="43.9379707" lon="12.4522405"><ele>471.33333333333337</ele><time>2026-03-22T06:51:53.129Z</time></trkpt><trkpt lat="43.9379872" lon="12.4521506"><ele>472.0</ele><time>2026-03-22T06:51:55.151Z</time></trkpt><trkpt lat="43.9380078" lon="12.4520616"><ele>472.33333333333337</ele><time>2026-03-22T06:51:57.119Z</time></trkpt><trkpt lat="43.938028" lon="12.4519523"><ele>472.6666666666667</ele><time>2026-03-22T06:51:59.147Z</time></trkpt><trkpt lat="43.9380429" lon="12.4518398"><ele>473.0</ele><time>2026-03-22T06:52:01.121Z</time></trkpt><trkpt lat="43.9380554" lon="12.4517429"><ele>473.33333333333337</ele><time>2026-03-22T06:52:03.149Z</time></trkpt><trkpt lat="43.9380635" lon="12.4516166"><ele>473.6666666666667</ele><time>2026-03-22T06:52:05.124Z</time></trkpt><trkpt lat="43.9380834" lon="12.4515042"><ele>474.0</ele><time>2026-03-22T06:52:07.134Z</time></trkpt><trkpt lat="43.9381015" lon="12.4513866"><ele>475.0</ele><time>2026-03-22T06:52:09.114Z</time></trkpt><trkpt lat="43.9381149" lon="12.4512627"><ele>476.0</ele><time>2026-03-22T06:52:11.101Z</time></trkpt><trkpt lat="43.9381159" lon="12.4511379"><ele>477.0</ele><time>2026-03-22T06:52:13.142Z</time></trkpt><trkpt lat="43.9381344" lon="12.4510246"><ele>478.0</ele><time>2026-03-22T06:52:15.133Z</time></trkpt><trkpt lat="43.9381645" lon="12.4509215"><ele>479.0</ele><time>2026-03-22T06:52:17.127Z</time></trkpt><trkpt lat="43.9382014" lon="12.4508349"><ele>480.0</ele><time>2026-03-22T06:52:19.126Z</time></trkpt><trkpt lat="43.9382416" lon="12.4507629"><ele>480.0</ele><time>2026-03-22T06:52:21.129Z</time></trkpt><trkpt lat="43.9383083" lon="12.4506764"><ele>480.0</ele><time>2026-03-22T06:52:24.139Z</time></trkpt><trkpt lat="43.9383736" lon="12.4506081"><ele>480.0</ele><time>2026-03-22T06:52:27.121Z</time></trkpt><trkpt lat="43.9384412" lon="12.4505486"><ele>480.0</ele><time>2026-03-22T06:52:30.133Z</time></trkpt><trkpt lat="43.9385061" lon="12.4504894"><ele>480.0</ele><time>2026-03-22T06:52:33.126Z</time></trkpt><trkpt lat="43.9385159" lon="12.4503863"><ele>480.0</ele><time>2026-03-22T06:52:36.089Z</time></trkpt><trkpt lat="43.9384321" lon="12.4503626"><ele>481.8333333333333</ele><time>2026-03-22T06:52:40.118Z</time></trkpt><trkpt lat="43.9383655" lon="12.4503761"><ele>483.66666666666663</ele><time>2026-03-22T06:52:42.101Z</time></trkpt><trkpt lat="43.938279" lon="12.4503903"><ele>485.5</ele><time>2026-03-22T06:52:45.123Z</time></trkpt><trkpt lat="43.938181" lon="12.45041"><ele>487.3333333333333</ele><time>2026-03-22T06:52:48.12Z</time></trkpt><trkpt lat="43.938097" lon="12.4504282"><ele>489.16666666666663</ele><time>2026-03-22T06:52:51.112Z</time></trkpt><trkpt lat="43.9380042" lon="12.4504432"><ele>491.0</ele><time>2026-03-22T06:52:54.131Z</time></trkpt><trkpt lat="43.9379202" lon="12.4504529"><ele>491.0</ele><time>2026-03-22T06:52:57.121Z</time></trkpt><trkpt lat="43.9378384" lon="12.4504532"><ele>490.99999999999994</ele><time>2026-03-22T06:53:00.123Z</time></trkpt><trkpt lat="43.937771" lon="12.4504881"><ele>491.0</ele><time>2026-03-22T06:53:03.126Z</time></trkpt><trkpt lat="43.9377186" lon="12.4505601"><ele>491.0</ele><time>2026-03-22T06:53:06.118Z</time></trkpt><trkpt lat="43.9376704" lon="12.4506251"><ele>490.99999999999994</ele><time>2026-03-22T06:53:09.124Z</time></trkpt><trkpt lat="43.937616" lon="12.450674"><ele>491.0</ele><time>2026-03-22T06:53:13.096Z</time></trkpt><trkpt lat="43.9375504" lon="12.4506653"><ele>491.0</ele><time>2026-03-22T06:53:18.131Z</time></trkpt><trkpt lat="43.9374811" lon="12.450611"><ele>490.99999999999994</ele><time>2026-03-22T06:53:22.136Z</time></trkpt><trkpt lat="43.9374366" lon="12.4505286"><ele>491.0</ele><time>2026-03-22T06:53:26.143Z</time></trkpt><trkpt lat="43.9374365" lon="12.4504054"><ele>491.0</ele><time>2026-03-22T06:53:30.115Z</time></trkpt><trkpt lat="43.9374613" lon="12.4503167"><ele>491.0</ele><time>2026-03-22T06:53:33.063Z</time></trkpt><trkpt lat="43.9374977" lon="12.4502301"><ele>490.99999999999994</ele><time>2026-03-22T06:53:36.056Z</time></trkpt><trkpt lat="43.9375607" lon="12.4501355"><ele>491.0</ele><time>2026-03-22T06:53:39.067Z</time></trkpt><trkpt lat="43.9376009" lon="12.4500632"><ele>491.0</ele><time>2026-03-22T06:53:41.063Z</time></trkpt><trkpt lat="43.9376437" lon="12.4499962"><ele>490.99999999999994</ele><time>2026-03-22T06:53:43.115Z</time></trkpt><trkpt lat="43.9376753" lon="12.4498957"><ele>491.0</ele><time>2026-03-22T06:53:46.119Z</time></trkpt><trkpt lat="43.9376175" lon="12.4498321"><ele>491.0</ele><time>2026-03-22T06:53:49.102Z</time></trkpt><trkpt lat="43.9375501" lon="12.4498304"><ele>490.99999999999994</ele><time>2026-03-22T06:53:54.147Z</time></trkpt><trkpt lat="43.937485" lon="12.4498189"><ele>491.0</ele><time>2026-03-22T06:53:59.158Z</time></trkpt><trkpt lat="43.9374363" lon="12.4497627"><ele>491.0</ele><time>2026-03-22T06:54:04.115Z</time></trkpt><trkpt lat="43.9375018" lon="12.4496976"><ele>492.4285714285714</ele><time>2026-03-22T06:54:08.111Z</time></trkpt><trkpt lat="43.93755" lon="12.4496275"><ele>493.8571428571428</ele><time>2026-03-22T06:54:12.121Z</time></trkpt><trkpt lat="43.9376208" lon="12.4495769"><ele>495.2857142857143</ele><time>2026-03-22T06:54:17.125Z</time></trkpt><trkpt lat="43.9376841" lon="12.4495484"><ele>496.71428571428567</ele><time>2026-03-22T06:54:21.105Z</time></trkpt><trkpt lat="43.9377639" lon="12.4495125"><ele>498.1428571428571</ele><time>2026-03-22T06:54:25.124Z</time></trkpt><trkpt lat="43.9378349" lon="12.4494644"><ele>499.57142857142856</ele><time>2026-03-22T06:54:29.077Z</time></trkpt><trkpt lat="43.9378954" lon="12.4494234"><ele>501.0</ele><time>2026-03-22T06:54:32.122Z</time></trkpt><trkpt lat="43.9379566" lon="12.4493724"><ele>502.14285714285717</ele><time>2026-03-22T06:54:35.113Z</time></trkpt><trkpt lat="43.9380277" lon="12.4493366"><ele>503.2857142857142</ele><time>2026-03-22T06:54:39.111Z</time></trkpt><trkpt lat="43.9380961" lon="12.4493198"><ele>504.4285714285714</ele><time>2026-03-22T06:54:42.113Z</time></trkpt><trkpt lat="43.9381577" lon="12.4492747"><ele>505.57142857142856</ele><time>2026-03-22T06:54:47.075Z</time></trkpt><trkpt lat="43.9382124" lon="12.4492244"><ele>506.71428571428567</ele><time>2026-03-22T06:54:52.114Z</time></trkpt><trkpt lat="43.9382732" lon="12.449187"><ele>507.8571428571428</ele><time>2026-03-22T06:54:56.111Z</time></trkpt><trkpt lat="43.938334" lon="12.4491414"><ele>508.99999999999994</ele><time>2026-03-22T06:55:02.108Z</time></trkpt><trkpt lat="43.9383259" lon="12.4490532"><ele>508.99999999999994</ele><time>2026-03-22T06:55:10.097Z</time></trkpt><trkpt lat="43.9383294" lon="12.4489643"><ele>509.0</ele><time>2026-03-22T06:55:14.131Z</time></trkpt><trkpt lat="43.9383938" lon="12.4489238"><ele>508.99999999999994</ele><time>2026-03-22T06:55:21.13Z</time></trkpt><trkpt lat="43.9384682" lon="12.4489384"><ele>508.99999999999994</ele><time>2026-03-22T06:55:26.134Z</time></trkpt><trkpt lat="43.9385443" lon="12.4489117"><ele>509.0</ele><time>2026-03-22T06:55:30.126Z</time></trkpt><trkpt lat="43.9386054" lon="12.4488885"><ele>508.99999999999994</ele><time>2026-03-22T06:55:34.136Z</time></trkpt><trkpt lat="43.9386652" lon="12.4488355"><ele>508.99999999999994</ele><time>2026-03-22T06:55:38.154Z</time></trkpt><trkpt lat="43.9387276" lon="12.4488204"><ele>507.99999999999994</ele><time>2026-03-22T06:55:42.102Z</time></trkpt><trkpt lat="43.9387897" lon="12.4487981"><ele>507.0</ele><time>2026-03-22T06:55:47.143Z</time></trkpt><trkpt lat="43.9388555" lon="12.4487357"><ele>506.0</ele><time>2026-03-22T06:55:51.127Z</time></trkpt><trkpt lat="43.9389179" lon="12.4487193"><ele>505.0</ele><time>2026-03-22T06:55:53.154Z</time></trkpt><trkpt lat="43.938986" lon="12.4487137"><ele>503.99999999999994</ele><time>2026-03-22T06:55:55.129Z</time></trkpt><trkpt lat="43.9390637" lon="12.4486842"><ele>503.0</ele><time>2026-03-22T06:55:57.103Z</time></trkpt><trkpt lat="43.9391747" lon="12.4486747"><ele>504.16666666666663</ele><time>2026-03-22T06:55:59.132Z</time></trkpt><trkpt lat="43.9392293" lon="12.4486311"><ele>505.3333333333333</ele><time>2026-03-22T06:56:00.138Z</time></trkpt><trkpt lat="43.9392773" lon="12.4484905"><ele>506.5</ele><time>2026-03-22T06:56:02.107Z</time></trkpt><trkpt lat="43.9392834" lon="12.4483667"><ele>507.66666666666663</ele><time>2026-03-22T06:56:04.151Z</time></trkpt><trkpt lat="43.9392623" lon="12.4482572"><ele>508.8333333333333</ele><time>2026-03-22T06:56:06.089Z</time></trkpt><trkpt lat="43.9392558" lon="12.4481683"><ele>510.0</ele><time>2026-03-22T06:56:08.135Z</time></trkpt><trkpt lat="43.9392824" lon="12.4480762"><ele>510.0</ele><time>2026-03-22T06:56:10.122Z</time></trkpt><trkpt lat="43.9393372" lon="12.447979"><ele>510.0</ele><time>2026-03-22T06:56:13.142Z</time></trkpt><trkpt lat="43.9393917" lon="12.4479004"><ele>510.0</ele><time>2026-03-22T06:56:16.123Z</time></trkpt><trkpt lat="43.9394481" lon="12.4478234"><ele>510.0</ele><time>2026-03-22T06:56:20.141Z</time></trkpt><trkpt lat="43.9395192" lon="12.4478299"><ele>510.0</ele><time>2026-03-22T06:56:25.11Z</time></trkpt><trkpt lat="43.9395668" lon="12.4479131"><ele>510.0</ele><time>2026-03-22T06:56:27.131Z</time></trkpt><trkpt lat="43.9396439" lon="12.4479761"><ele>510.0</ele><time>2026-03-22T06:56:29.121Z</time></trkpt><trkpt lat="43.9397432" lon="12.4479662"><ele>510.0</ele><time>2026-03-22T06:56:31.131Z</time></trkpt><trkpt lat="43.9398353" lon="12.447917"><ele>510.0</ele><time>2026-03-22T06:56:33.122Z</time></trkpt><trkpt lat="43.9399139" lon="12.4478485"><ele>510.0</ele><time>2026-03-22T06:56:35.119Z</time></trkpt><trkpt lat="43.9399682" lon="12.4476857"><ele>510.0</ele><time>2026-03-22T06:56:37.076Z</time></trkpt><trkpt lat="43.9399903" lon="12.4475793"><ele>510.6666666666667</ele><time>2026-03-22T06:56:38.116Z</time></trkpt><trkpt lat="43.9400171" lon="12.4474801"><ele>511.33333333333337</ele><time>2026-03-22T06:56:39.119Z</time></trkpt><trkpt lat="43.9400477" lon="12.4473903"><ele>512.0</ele><time>2026-03-22T06:56:40.099Z</time></trkpt><trkpt lat="43.9400896" lon="12.4472868"><ele>512.6666666666667</ele><time>2026-03-22T06:56:41.114Z</time></trkpt><trkpt lat="43.9401368" lon="12.4471681"><ele>513.3333333333334</ele><time>2026-03-22T06:56:42.132Z</time></trkpt><trkpt lat="43.9401802" lon="12.4470504"><ele>514.0</ele><time>2026-03-22T06:56:43.124Z</time></trkpt><trkpt lat="43.9402404" lon="12.4469157"><ele>511.79999999999995</ele><time>2026-03-22T06:56:44.133Z</time></trkpt><trkpt lat="43.9402832" lon="12.446779"><ele>509.59999999999997</ele><time>2026-03-22T06:56:45.138Z</time></trkpt><trkpt lat="43.9403314" lon="12.4466723"><ele>507.4</ele><time>2026-03-22T06:56:46.155Z</time></trkpt><trkpt lat="43.9404141" lon="12.4465641"><ele>505.2</ele><time>2026-03-22T06:56:47.101Z</time></trkpt><trkpt lat="43.9404822" lon="12.4464535"><ele>503.0</ele><time>2026-03-22T06:56:48.143Z</time></trkpt><trkpt lat="43.9405321" lon="12.4463423"><ele>502.8333333333333</ele><time>2026-03-22T06:56:49.118Z</time></trkpt><trkpt lat="43.9405481" lon="12.4462183"><ele>502.66666666666663</ele><time>2026-03-22T06:56:50.142Z</time></trkpt><trkpt lat="43.9405515" lon="12.4461067"><ele>502.5</ele><time>2026-03-22T06:56:51.122Z</time></trkpt><trkpt lat="43.9405486" lon="12.4460102"><ele>502.33333333333337</ele><time>2026-03-22T06:56:52.122Z</time></trkpt><trkpt lat="43.9405528" lon="12.4459201"><ele>502.1666666666667</ele><time>2026-03-22T06:56:53.135Z</time></trkpt><trkpt lat="43.9405986" lon="12.445779"><ele>502.0</ele><time>2026-03-22T06:56:55.15Z</time></trkpt><trkpt lat="43.9406457" lon="12.4456471"><ele>502.00000000000006</ele><time>2026-03-22T06:56:57.144Z</time></trkpt><trkpt lat="43.9406719" lon="12.4455666"><ele>502.0</ele><time>2026-03-22T06:56:58.152Z</time></trkpt><trkpt lat="43.9406802" lon="12.4453896"><ele>502.0</ele><time>2026-03-22T06:57:00.139Z</time></trkpt><trkpt lat="43.9406696" lon="12.4452954"><ele>502.0</ele><time>2026-03-22T06:57:01.111Z</time></trkpt><trkpt lat="43.9406532" lon="12.4452027"><ele>502.00000000000006</ele><time>2026-03-22T06:57:02.134Z</time></trkpt><trkpt lat="43.9406328" lon="12.4451043"><ele>502.0</ele><time>2026-03-22T06:57:03.138Z</time></trkpt><trkpt lat="43.940606" lon="12.4450196"><ele>501.1666666666667</ele><time>2026-03-22T06:57:04.118Z</time></trkpt><trkpt lat="43.940577" lon="12.4449323"><ele>500.33333333333337</ele><time>2026-03-22T06:57:05.138Z</time></trkpt><trkpt lat="43.9405466" lon="12.4448551"><ele>499.5</ele><time>2026-03-22T06:57:06.119Z</time></trkpt><trkpt lat="43.9404929" lon="12.4447144"><ele>498.66666666666663</ele><time>2026-03-22T06:57:08.136Z</time></trkpt><trkpt lat="43.9404613" lon="12.4446088"><ele>497.8333333333333</ele><time>2026-03-22T06:57:10.15Z</time></trkpt><trkpt lat="43.9404288" lon="12.4444889"><ele>497.0</ele><time>2026-03-22T06:57:12.133Z</time></trkpt><trkpt lat="43.9404088" lon="12.4443301"><ele>495.5</ele><time>2026-03-22T06:57:14.131Z</time></trkpt><trkpt lat="43.9403956" lon="12.4442358"><ele>494.0</ele><time>2026-03-22T06:57:15.124Z</time></trkpt><trkpt lat="43.9403664" lon="12.444146"><ele>492.5</ele><time>2026-03-22T06:57:16.134Z</time></trkpt><trkpt lat="43.9403178" lon="12.444012"><ele>491.0</ele><time>2026-03-22T06:57:18.116Z</time></trkpt><trkpt lat="43.939864" lon="12.4417393"><ele>493.8333333333333</ele><time>2026-03-22T06:58:00.118Z</time></trkpt><trkpt lat="43.9398954" lon="12.4416405"><ele>496.66666666666663</ele><time>2026-03-22T06:58:02.119Z</time></trkpt><trkpt lat="43.9398728" lon="12.4415574"><ele>499.5</ele><time>2026-03-22T06:58:04.1Z</time></trkpt><trkpt lat="43.9398234" lon="12.4414826"><ele>502.33333333333337</ele><time>2026-03-22T06:58:06.097Z</time></trkpt><trkpt lat="43.9397833" lon="12.4413582"><ele>505.1666666666667</ele><time>2026-03-22T06:58:09.113Z</time></trkpt><trkpt lat="43.9397387" lon="12.4412892"><ele>508.0</ele><time>2026-03-22T06:58:11.108Z</time></trkpt><trkpt lat="43.9396653" lon="12.4412099"><ele>509.33333333333337</ele><time>2026-03-22T06:58:14.092Z</time></trkpt><trkpt lat="43.9396043" lon="12.44116"><ele>510.6666666666667</ele><time>2026-03-22T06:58:16.11Z</time></trkpt><trkpt lat="43.9395517" lon="12.4410993"><ele>512.0</ele><time>2026-03-22T06:58:18.113Z</time></trkpt><trkpt lat="43.9395043" lon="12.4409974"><ele>513.3333333333334</ele><time>2026-03-22T06:58:20.09Z</time></trkpt><trkpt lat="43.939444" lon="12.4408834"><ele>514.6666666666666</ele><time>2026-03-22T06:58:22.121Z</time></trkpt><trkpt lat="43.9394576" lon="12.4407406"><ele>516.0</ele><time>2026-03-22T06:58:25.054Z</time></trkpt><trkpt lat="43.9380324" lon="12.4395865"><ele>519.4</ele><time>2026-03-22T06:59:10.119Z</time></trkpt><trkpt lat="43.9379146" lon="12.4397058"><ele>522.8</ele><time>2026-03-22T06:59:16.1Z</time></trkpt><trkpt lat="43.9378231" lon="12.4397305"><ele>526.1999999999999</ele><time>2026-03-22T06:59:20.109Z</time></trkpt><trkpt lat="43.9377462" lon="12.4397514"><ele>529.6</ele><time>2026-03-22T06:59:23.119Z</time></trkpt><trkpt lat="43.9376754" lon="12.4397673"><ele>533.0</ele><time>2026-03-22T06:59:25.115Z</time></trkpt><trkpt lat="43.9375675" lon="12.4397761"><ele>531.8333333333333</ele><time>2026-03-22T06:59:27.088Z</time></trkpt><trkpt lat="43.9374808" lon="12.4397506"><ele>530.6666666666666</ele><time>2026-03-22T06:59:29.121Z</time></trkpt><trkpt lat="43.9374124" lon="12.4397248"><ele>529.5</ele><time>2026-03-22T06:59:31.095Z</time></trkpt><trkpt lat="43.937337" lon="12.4397656"><ele>528.3333333333334</ele><time>2026-03-22T06:59:33.118Z</time></trkpt><trkpt lat="43.9372737" lon="12.4398214"><ele>527.1666666666667</ele><time>2026-03-22T06:59:35.099Z</time></trkpt><trkpt lat="43.9372136" lon="12.4398998"><ele>526.0</ele><time>2026-03-22T06:59:37.113Z</time></trkpt><trkpt lat="43.9371475" lon="12.4399567"><ele>526.0</ele><time>2026-03-22T06:59:39.079Z</time></trkpt><trkpt lat="43.9370781" lon="12.4400008"><ele>526.0</ele><time>2026-03-22T06:59:41.132Z</time></trkpt><trkpt lat="43.9369982" lon="12.4400678"><ele>526.0</ele><time>2026-03-22T06:59:44.084Z</time></trkpt><trkpt lat="43.9369379" lon="12.4401415"><ele>526.0</ele><time>2026-03-22T06:59:47.141Z</time></trkpt><trkpt lat="43.936875" lon="12.440209"><ele>526.0</ele><time>2026-03-22T06:59:50.125Z</time></trkpt><trkpt lat="43.9368064" lon="12.4402742"><ele>526.0</ele><time>2026-03-22T06:59:53.113Z</time></trkpt><trkpt lat="43.936756" lon="12.4403311"><ele>526.3333333333334</ele><time>2026-03-22T06:59:56.126Z</time></trkpt><trkpt lat="43.9366871" lon="12.440404"><ele>526.6666666666667</ele><time>2026-03-22T06:59:59.117Z</time></trkpt><trkpt lat="43.9366351" lon="12.440489"><ele>527.0</ele><time>2026-03-22T07:00:02.13Z</time></trkpt><trkpt lat="43.936604" lon="12.4405877"><ele>527.3333333333334</ele><time>2026-03-22T07:00:05.15Z</time></trkpt><trkpt lat="43.9365437" lon="12.4406484"><ele>527.6666666666666</ele><time>2026-03-22T07:00:07.129Z</time></trkpt><trkpt lat="43.9364606" lon="12.4406893"><ele>528.0</ele><time>2026-03-22T07:00:09.11Z</time></trkpt><trkpt lat="43.9363364" lon="12.440712"><ele>528.0</ele><time>2026-03-22T07:00:11.123Z</time></trkpt><trkpt lat="43.9362668" lon="12.4407341"><ele>528.0</ele><time>2026-03-22T07:00:12.143Z</time></trkpt><trkpt lat="43.9361958" lon="12.4407395"><ele>528.0</ele><time>2026-03-22T07:00:13.13Z</time></trkpt><trkpt lat="43.9361191" lon="12.4407587"><ele>528.0</ele><time>2026-03-22T07:00:14.077Z</time></trkpt><trkpt lat="43.9360475" lon="12.440785"><ele>528.0</ele><time>2026-03-22T07:00:15.123Z</time></trkpt><trkpt lat="43.9359716" lon="12.4407966"><ele>528.0</ele><time>2026-03-22T07:00:16.125Z</time></trkpt><trkpt lat="43.9358485" lon="12.4408514"><ele>526.3333333333334</ele><time>2026-03-22T07:00:18.154Z</time></trkpt><trkpt lat="43.9357815" lon="12.4408922"><ele>524.6666666666666</ele><time>2026-03-22T07:00:20.139Z</time></trkpt><trkpt lat="43.9357322" lon="12.4407773"><ele>523.0</ele><time>2026-03-22T07:00:23.13Z</time></trkpt><trkpt lat="43.9356847" lon="12.4406961"><ele>521.3333333333333</ele><time>2026-03-22T07:00:25.151Z</time></trkpt><trkpt lat="43.9355866" lon="12.4406034"><ele>519.6666666666666</ele><time>2026-03-22T07:00:27.142Z</time></trkpt><trkpt lat="43.9355335" lon="12.4405495"><ele>518.0</ele><time>2026-03-22T07:00:28.171Z</time></trkpt><trkpt lat="43.9354193" lon="12.4404739"><ele>516.25</ele><time>2026-03-22T07:00:30.144Z</time></trkpt><trkpt lat="43.9352959" lon="12.4404166"><ele>514.5</ele><time>2026-03-22T07:00:32.133Z</time></trkpt><trkpt lat="43.935192" lon="12.440356"><ele>512.75</ele><time>2026-03-22T07:00:34.153Z</time></trkpt><trkpt lat="43.9350826" lon="12.4402829"><ele>511.0</ele><time>2026-03-22T07:00:36.115Z</time></trkpt><trkpt lat="43.9349883" lon="12.4401845"><ele>510.1666666666667</ele><time>2026-03-22T07:00:38.134Z</time></trkpt><trkpt lat="43.9349236" lon="12.4401173"><ele>509.33333333333337</ele><time>2026-03-22T07:00:40.152Z</time></trkpt><trkpt lat="43.9348668" lon="12.4400624"><ele>508.5</ele><time>2026-03-22T07:00:46.128Z</time></trkpt><trkpt lat="43.9348027" lon="12.4400337"><ele>507.66666666666663</ele><time>2026-03-22T07:00:52.163Z</time></trkpt><trkpt lat="43.9347179" lon="12.4400049"><ele>506.8333333333333</ele><time>2026-03-22T07:00:56.149Z</time></trkpt><trkpt lat="43.9346443" lon="12.439974"><ele>506.0</ele><time>2026-03-22T07:00:58.126Z</time></trkpt><trkpt lat="43.9345209" lon="12.4399049"><ele>505.99999999999994</ele><time>2026-03-22T07:01:00.134Z</time></trkpt><trkpt lat="43.9344439" lon="12.4398676"><ele>506.0</ele><time>2026-03-22T07:01:01.125Z</time></trkpt><trkpt lat="43.9343602" lon="12.4398245"><ele>506.0</ele><time>2026-03-22T07:01:02.124Z</time></trkpt><trkpt lat="43.9342802" lon="12.4397771"><ele>506.0</ele><time>2026-03-22T07:01:03.123Z</time></trkpt><trkpt lat="43.9341995" lon="12.4397287"><ele>505.99999999999994</ele><time>2026-03-22T07:01:04.076Z</time></trkpt><trkpt lat="43.9341215" lon="12.4396874"><ele>506.0</ele><time>2026-03-22T07:01:05.11Z</time></trkpt><trkpt lat="43.9340475" lon="12.4396497"><ele>502.16666666666663</ele><time>2026-03-22T07:01:06.093Z</time></trkpt><trkpt lat="43.9339707" lon="12.4396107"><ele>498.3333333333333</ele><time>2026-03-22T07:01:07.12Z</time></trkpt><trkpt lat="43.933898" lon="12.4395592"><ele>494.5</ele><time>2026-03-22T07:01:08.135Z</time></trkpt><trkpt lat="43.9338257" lon="12.4395199"><ele>490.66666666666663</ele><time>2026-03-22T07:01:09.11Z</time></trkpt><trkpt lat="43.933757" lon="12.4394934"><ele>486.8333333333333</ele><time>2026-03-22T07:01:10.124Z</time></trkpt><trkpt lat="43.9336846" lon="12.439462"><ele>483.0</ele><time>2026-03-22T07:01:11.122Z</time></trkpt><trkpt lat="43.9336094" lon="12.4394377"><ele>483.0</ele><time>2026-03-22T07:01:12.127Z</time></trkpt><trkpt lat="43.9335092" lon="12.4394163"><ele>483.0</ele><time>2026-03-22T07:01:14.109Z</time></trkpt><trkpt lat="43.9334969" lon="12.4393049"><ele>483.0</ele><time>2026-03-22T07:01:18.126Z</time></trkpt><trkpt lat="43.9335094" lon="12.439211"><ele>483.0</ele><time>2026-03-22T07:01:19.104Z</time></trkpt><trkpt lat="43.9335212" lon="12.4391238"><ele>483.0</ele><time>2026-03-22T07:01:20.122Z</time></trkpt><trkpt lat="43.9335388" lon="12.4390195"><ele>483.0</ele><time>2026-03-22T07:01:21.124Z</time></trkpt><trkpt lat="43.9335625" lon="12.4389078"><ele>480.79999999999995</ele><time>2026-03-22T07:01:22.131Z</time></trkpt><trkpt lat="43.9335747" lon="12.4387983"><ele>478.59999999999997</ele><time>2026-03-22T07:01:23.108Z</time></trkpt><trkpt lat="43.9336026" lon="12.4386762"><ele>476.40000000000003</ele><time>2026-03-22T07:01:24.138Z</time></trkpt><trkpt lat="43.9336266" lon="12.4385306"><ele>474.20000000000005</ele><time>2026-03-22T07:01:25.137Z</time></trkpt><trkpt lat="43.9336528" lon="12.4383901"><ele>472.0</ele><time>2026-03-22T07:01:26.134Z</time></trkpt><trkpt lat="43.9336749" lon="12.4382542"><ele>472.00000000000006</ele><time>2026-03-22T07:01:27.132Z</time></trkpt><trkpt lat="43.9336972" lon="12.4381312"><ele>472.0</ele><time>2026-03-22T07:01:28.091Z</time></trkpt><trkpt lat="43.9337202" lon="12.4380229"><ele>472.0</ele><time>2026-03-22T07:01:29.14Z</time></trkpt><trkpt lat="43.9337591" lon="12.4379196"><ele>472.0</ele><time>2026-03-22T07:01:30.146Z</time></trkpt><trkpt lat="43.933813" lon="12.437836"><ele>472.00000000000006</ele><time>2026-03-22T07:01:31.116Z</time></trkpt><trkpt lat="43.933871" lon="12.4377691"><ele>472.0</ele><time>2026-03-22T07:01:32.15Z</time></trkpt><trkpt lat="43.9339778" lon="12.4376878"><ele>470.83333333333337</ele><time>2026-03-22T07:01:34.145Z</time></trkpt><trkpt lat="43.9340575" lon="12.4376172"><ele>469.6666666666667</ele><time>2026-03-22T07:01:36.106Z</time></trkpt><trkpt lat="43.9341193" lon="12.4375515"><ele>468.5</ele><time>2026-03-22T07:01:38.131Z</time></trkpt><trkpt lat="43.934192" lon="12.4374785"><ele>467.33333333333337</ele><time>2026-03-22T07:01:40.135Z</time></trkpt><trkpt lat="43.9342636" lon="12.4373887"><ele>466.1666666666667</ele><time>2026-03-22T07:01:42.127Z</time></trkpt><trkpt lat="43.9343279" lon="12.4373128"><ele>465.0</ele><time>2026-03-22T07:01:44.129Z</time></trkpt><trkpt lat="43.934383" lon="12.4371913"><ele>466.0</ele><time>2026-03-22T07:01:46.131Z</time></trkpt><trkpt lat="43.9344185" lon="12.4370226"><ele>467.0</ele><time>2026-03-22T07:01:48.119Z</time></trkpt><trkpt lat="43.9344422" lon="12.4368534"><ele>468.0</ele><time>2026-03-22T07:01:50.121Z</time></trkpt><trkpt lat="43.9344317" lon="12.4367"><ele>469.0</ele><time>2026-03-22T07:01:52.123Z</time></trkpt><trkpt lat="43.9344032" lon="12.4365806"><ele>469.0</ele><time>2026-03-22T07:01:54.15Z</time></trkpt><trkpt lat="43.9344563" lon="12.4365002"><ele>469.0</ele><time>2026-03-22T07:01:57.144Z</time></trkpt><trkpt lat="43.9344991" lon="12.436383"><ele>469.0</ele><time>2026-03-22T07:01:59.162Z</time></trkpt><trkpt lat="43.9345463" lon="12.4362485"><ele>469.0</ele><time>2026-03-22T07:02:01.139Z</time></trkpt><trkpt lat="43.9346218" lon="12.43613"><ele>469.0</ele><time>2026-03-22T07:02:03.139Z</time></trkpt><trkpt lat="43.9346798" lon="12.4360715"><ele>466.50000000000006</ele><time>2026-03-22T07:02:04.142Z</time></trkpt><trkpt lat="43.934749" lon="12.4360159"><ele>464.0</ele><time>2026-03-22T07:02:05.131Z</time></trkpt><trkpt lat="43.9348258" lon="12.4359845"><ele>461.5</ele><time>2026-03-22T07:02:06.103Z</time></trkpt><trkpt lat="43.9349106" lon="12.4359508"><ele>459.0</ele><time>2026-03-22T07:02:07.147Z</time></trkpt><trkpt lat="43.9349929" lon="12.4359183"><ele>456.50000000000006</ele><time>2026-03-22T07:02:08.126Z</time></trkpt><trkpt lat="43.9350774" lon="12.4358867"><ele>454.0</ele><time>2026-03-22T07:02:09.142Z</time></trkpt><trkpt lat="43.9351644" lon="12.4358509"><ele>454.0</ele><time>2026-03-22T07:02:10.149Z</time></trkpt><trkpt lat="43.9352424" lon="12.4358248"><ele>454.0</ele><time>2026-03-22T07:02:11.12Z</time></trkpt><trkpt lat="43.9353325" lon="12.4357979"><ele>454.0</ele><time>2026-03-22T07:02:12.139Z</time></trkpt><trkpt lat="43.9354188" lon="12.4357727"><ele>454.0</ele><time>2026-03-22T07:02:13.143Z</time></trkpt><trkpt lat="43.9355105" lon="12.4357415"><ele>454.0</ele><time>2026-03-22T07:02:14.154Z</time></trkpt><trkpt lat="43.9356061" lon="12.4357013"><ele>454.0</ele><time>2026-03-22T07:02:15.135Z</time></trkpt><trkpt lat="43.9357042" lon="12.4356634"><ele>454.0</ele><time>2026-03-22T07:02:16.147Z</time></trkpt><trkpt lat="43.9358029" lon="12.4356192"><ele>454.0</ele><time>2026-03-22T07:02:17.139Z</time></trkpt><trkpt lat="43.9359057" lon="12.4355771"><ele>454.0</ele><time>2026-03-22T07:02:18.121Z</time></trkpt><trkpt lat="43.9360077" lon="12.4355321"><ele>454.0</ele><time>2026-03-22T07:02:19.122Z</time></trkpt><trkpt lat="43.9361095" lon="12.4354961"><ele>451.4</ele><time>2026-03-22T07:02:20.075Z</time></trkpt><trkpt lat="43.9362249" lon="12.4354623"><ele>448.79999999999995</ele><time>2026-03-22T07:02:21.129Z</time></trkpt><trkpt lat="43.9363303" lon="12.4354376"><ele>446.20000000000005</ele><time>2026-03-22T07:02:22.148Z</time></trkpt><trkpt lat="43.9364343" lon="12.4354117"><ele>443.6</ele><time>2026-03-22T07:02:23.108Z</time></trkpt><trkpt lat="43.9365366" lon="12.4353894"><ele>441.0</ele><time>2026-03-22T07:02:24.142Z</time></trkpt><trkpt lat="43.9366449" lon="12.4353621"><ele>438.4</ele><time>2026-03-22T07:02:25.155Z</time></trkpt><trkpt lat="43.9367536" lon="12.4353335"><ele>435.8</ele><time>2026-03-22T07:02:26.136Z</time></trkpt><trkpt lat="43.9368468" lon="12.4352997"><ele>433.19999999999993</ele><time>2026-03-22T07:02:27.16Z</time></trkpt><trkpt lat="43.9369139" lon="12.4352432"><ele>430.59999999999997</ele><time>2026-03-22T07:02:28.171Z</time></trkpt><trkpt lat="43.9369567" lon="12.4351554"><ele>428.0</ele><time>2026-03-22T07:02:29.152Z</time></trkpt><trkpt lat="43.9369828" lon="12.4350307"><ele>427.99999999999994</ele><time>2026-03-22T07:02:30.14Z</time></trkpt><trkpt lat="43.936949" lon="12.4349236"><ele>428.0</ele><time>2026-03-22T07:02:31.157Z</time></trkpt><trkpt lat="43.9368909" lon="12.4348417"><ele>428.0</ele><time>2026-03-22T07:02:32.161Z</time></trkpt><trkpt lat="43.9368125" lon="12.4348025"><ele>428.0</ele><time>2026-03-22T07:02:33.131Z</time></trkpt><trkpt lat="43.9367227" lon="12.4347669"><ele>427.99999999999994</ele><time>2026-03-22T07:02:34.146Z</time></trkpt><trkpt lat="43.9366602" lon="12.4347147"><ele>428.0</ele><time>2026-03-22T07:02:35.15Z</time></trkpt><trkpt lat="43.9366266" lon="12.4346143"><ele>428.66666666666663</ele><time>2026-03-22T07:02:36.137Z</time></trkpt><trkpt lat="43.9366509" lon="12.4345"><ele>429.3333333333333</ele><time>2026-03-22T07:02:37.149Z</time></trkpt><trkpt lat="43.9367178" lon="12.4343961"><ele>430.0</ele><time>2026-03-22T07:02:38.138Z</time></trkpt><trkpt lat="43.9367793" lon="12.4343165"><ele>430.66666666666663</ele><time>2026-03-22T07:02:39.161Z</time></trkpt><trkpt lat="43.9368388" lon="12.4342371"><ele>431.3333333333333</ele><time>2026-03-22T07:02:40.166Z</time></trkpt><trkpt lat="43.9369094" lon="12.4341604"><ele>432.0</ele><time>2026-03-22T07:02:41.157Z</time></trkpt><trkpt lat="43.9369773" lon="12.4340877"><ele>430.8</ele><time>2026-03-22T07:02:42.145Z</time></trkpt><trkpt lat="43.9370497" lon="12.4339931"><ele>429.6</ele><time>2026-03-22T07:02:43.097Z</time></trkpt><trkpt lat="43.9371193" lon="12.4339019"><ele>428.40000000000003</ele><time>2026-03-22T07:02:44.075Z</time></trkpt><trkpt lat="43.9371852" lon="12.4338066"><ele>427.20000000000005</ele><time>2026-03-22T07:02:45.071Z</time></trkpt><trkpt lat="43.9372515" lon="12.4337004"><ele>426.0</ele><time>2026-03-22T07:02:46.081Z</time></trkpt><trkpt lat="43.9373214" lon="12.4335966"><ele>426.0</ele><time>2026-03-22T07:02:47.099Z</time></trkpt><trkpt lat="43.9373799" lon="12.4334913"><ele>426.0</ele><time>2026-03-22T07:02:48.098Z</time></trkpt><trkpt lat="43.9374351" lon="12.4333742"><ele>426.0</ele><time>2026-03-22T07:02:49.108Z</time></trkpt><trkpt lat="43.937469" lon="12.4332379"><ele>426.0</ele><time>2026-03-22T07:02:50.129Z</time></trkpt><trkpt lat="43.9374716" lon="12.4331144"><ele>426.0</ele><time>2026-03-22T07:02:51.134Z</time></trkpt><trkpt lat="43.9374404" lon="12.4329847"><ele>426.0</ele><time>2026-03-22T07:02:52.144Z</time></trkpt><trkpt lat="43.9373781" lon="12.4328802"><ele>426.0</ele><time>2026-03-22T07:02:53.149Z</time></trkpt><trkpt lat="43.9373015" lon="12.4327772"><ele>426.0</ele><time>2026-03-22T07:02:54.117Z</time></trkpt><trkpt lat="43.937223" lon="12.4326735"><ele>426.0</ele><time>2026-03-22T07:02:55.099Z</time></trkpt><trkpt lat="43.9371499" lon="12.4325627"><ele>426.0</ele><time>2026-03-22T07:02:56.151Z</time></trkpt><trkpt lat="43.9370785" lon="12.432465"><ele>426.0</ele><time>2026-03-22T07:02:57.086Z</time></trkpt><trkpt lat="43.9370018" lon="12.4323572"><ele>426.0</ele><time>2026-03-22T07:02:58.133Z</time></trkpt><trkpt lat="43.9369245" lon="12.4322482"><ele>426.0</ele><time>2026-03-22T07:02:59.13Z</time></trkpt><trkpt lat="43.9368423" lon="12.4321405"><ele>426.0</ele><time>2026-03-22T07:03:00.122Z</time></trkpt><trkpt lat="43.9367555" lon="12.4320302"><ele>423.75</ele><time>2026-03-22T07:03:01.128Z</time></trkpt><trkpt lat="43.9366694" lon="12.4319158"><ele>421.5</ele><time>2026-03-22T07:03:02.148Z</time></trkpt><trkpt lat="43.9365817" lon="12.4318032"><ele>419.25</ele><time>2026-03-22T07:03:03.127Z</time></trkpt><trkpt lat="43.9364902" lon="12.4316923"><ele>417.0</ele><time>2026-03-22T07:03:04.114Z</time></trkpt><trkpt lat="43.9363911" lon="12.4315852"><ele>417.0</ele><time>2026-03-22T07:03:05.138Z</time></trkpt><trkpt lat="43.936296" lon="12.431479"><ele>417.0</ele><time>2026-03-22T07:03:06.078Z</time></trkpt><trkpt lat="43.9361873" lon="12.4314038"><ele>417.0</ele><time>2026-03-22T07:03:07.134Z</time></trkpt><trkpt lat="43.9360719" lon="12.4313428"><ele>417.0</ele><time>2026-03-22T07:03:08.142Z</time></trkpt><trkpt lat="43.9359531" lon="12.431281"><ele>414.0</ele><time>2026-03-22T07:03:09.126Z</time></trkpt><trkpt lat="43.9358379" lon="12.4312214"><ele>411.0</ele><time>2026-03-22T07:03:10.129Z</time></trkpt><trkpt lat="43.9357195" lon="12.4311656"><ele>408.0</ele><time>2026-03-22T07:03:11.163Z</time></trkpt><trkpt lat="43.935612" lon="12.4310875"><ele>405.0</ele><time>2026-03-22T07:03:12.122Z</time></trkpt><trkpt lat="43.9355326" lon="12.4309684"><ele>405.0</ele><time>2026-03-22T07:03:13.136Z</time></trkpt><trkpt lat="43.9354763" lon="12.4308401"><ele>405.0</ele><time>2026-03-22T07:03:14.132Z</time></trkpt><trkpt lat="43.9354632" lon="12.4307058"><ele>405.0</ele><time>2026-03-22T07:03:15.129Z</time></trkpt><trkpt lat="43.9355082" lon="12.4305658"><ele>405.0</ele><time>2026-03-22T07:03:16.134Z</time></trkpt><trkpt lat="43.9355649" lon="12.4304435"><ele>405.0</ele><time>2026-03-22T07:03:17.149Z</time></trkpt><trkpt lat="43.9356303" lon="12.4303348"><ele>405.25</ele><time>2026-03-22T07:03:18.143Z</time></trkpt><trkpt lat="43.9357287" lon="12.4302193"><ele>405.5</ele><time>2026-03-22T07:03:19.15Z</time></trkpt><trkpt lat="43.9358285" lon="12.4301297"><ele>405.75</ele><time>2026-03-22T07:03:20.134Z</time></trkpt><trkpt lat="43.9359243" lon="12.4300301"><ele>406.0</ele><time>2026-03-22T07:03:21.136Z</time></trkpt><trkpt lat="43.9360106" lon="12.4299229"><ele>406.0</ele><time>2026-03-22T07:03:22.092Z</time></trkpt><trkpt lat="43.9360936" lon="12.4298214"><ele>406.0</ele><time>2026-03-22T07:03:23.136Z</time></trkpt><trkpt lat="43.9361791" lon="12.4297228"><ele>406.0</ele><time>2026-03-22T07:03:24.143Z</time></trkpt><trkpt lat="43.9362642" lon="12.4296326"><ele>406.0</ele><time>2026-03-22T07:03:25.138Z</time></trkpt><trkpt lat="43.9363285" lon="12.4295442"><ele>406.0</ele><time>2026-03-22T07:03:26.139Z</time></trkpt><trkpt lat="43.9363623" lon="12.4294453"><ele>403.0</ele><time>2026-03-22T07:03:27.136Z</time></trkpt><trkpt lat="43.9363523" lon="12.4293215"><ele>400.0</ele><time>2026-03-22T07:03:28.122Z</time></trkpt><trkpt lat="43.9362998" lon="12.4292262"><ele>397.0</ele><time>2026-03-22T07:03:29.155Z</time></trkpt><trkpt lat="43.9362129" lon="12.4291726"><ele>394.0</ele><time>2026-03-22T07:03:30.159Z</time></trkpt><trkpt lat="43.9361098" lon="12.4291633"><ele>391.0</ele><time>2026-03-22T07:03:31.144Z</time></trkpt><trkpt lat="43.936002" lon="12.4291636"><ele>391.0</ele><time>2026-03-22T07:03:32.151Z</time></trkpt><trkpt lat="43.9358976" lon="12.4291548"><ele>391.0</ele><time>2026-03-22T07:03:33.163Z</time></trkpt><trkpt lat="43.9357902" lon="12.4291426"><ele>391.0</ele><time>2026-03-22T07:03:34.146Z</time></trkpt><trkpt lat="43.935672" lon="12.4291226"><ele>391.0</ele><time>2026-03-22T07:03:35.112Z</time></trkpt><trkpt lat="43.9355542" lon="12.4291067"><ele>389.0</ele><time>2026-03-22T07:03:36.141Z</time></trkpt><trkpt lat="43.93543" lon="12.4290931"><ele>387.0</ele><time>2026-03-22T07:03:37.119Z</time></trkpt><trkpt lat="43.9353084" lon="12.4290763"><ele>385.0</ele><time>2026-03-22T07:03:38.159Z</time></trkpt><trkpt lat="43.935174" lon="12.4290603"><ele>383.0</ele><time>2026-03-22T07:03:39.149Z</time></trkpt><trkpt lat="43.9350559" lon="12.4290508"><ele>380.5</ele><time>2026-03-22T07:03:40.151Z</time></trkpt><trkpt lat="43.9349502" lon="12.4290096"><ele>378.0</ele><time>2026-03-22T07:03:41.142Z</time></trkpt><trkpt lat="43.9348551" lon="12.4288812"><ele>375.5</ele><time>2026-03-22T07:03:42.122Z</time></trkpt><trkpt lat="43.934798" lon="12.4287092"><ele>373.0</ele><time>2026-03-22T07:03:43.118Z</time></trkpt><trkpt lat="43.93477" lon="12.4285302"><ele>371.0</ele><time>2026-03-22T07:03:44.083Z</time></trkpt><trkpt lat="43.9347442" lon="12.4283554"><ele>369.0</ele><time>2026-03-22T07:03:45.098Z</time></trkpt><trkpt lat="43.9347154" lon="12.4281795"><ele>367.0</ele><time>2026-03-22T07:03:46.128Z</time></trkpt><trkpt lat="43.934693" lon="12.4280171"><ele>365.0</ele><time>2026-03-22T07:03:47.137Z</time></trkpt><trkpt lat="43.9346803" lon="12.4278481"><ele>362.8</ele><time>2026-03-22T07:03:48.126Z</time></trkpt><trkpt lat="43.9346521" lon="12.4276877"><ele>360.6</ele><time>2026-03-22T07:03:49.11Z</time></trkpt><trkpt lat="43.9346125" lon="12.4275473"><ele>358.4</ele><time>2026-03-22T07:03:50.138Z</time></trkpt><trkpt lat="43.934561" lon="12.4274222"><ele>356.2</ele><time>2026-03-22T07:03:51.145Z</time></trkpt><trkpt lat="43.9344791" lon="12.427369"><ele>354.0</ele><time>2026-03-22T07:03:52.086Z</time></trkpt><trkpt lat="43.934371" lon="12.4273242"><ele>354.0</ele><time>2026-03-22T07:03:53.155Z</time></trkpt><trkpt lat="43.9342639" lon="12.4272856"><ele>354.0</ele><time>2026-03-22T07:03:54.145Z</time></trkpt><trkpt lat="43.9341632" lon="12.4272415"><ele>354.0</ele><time>2026-03-22T07:03:55.156Z</time></trkpt><trkpt lat="43.9340684" lon="12.4271949"><ele>354.0</ele><time>2026-03-22T07:03:56.143Z</time></trkpt><trkpt lat="43.9339738" lon="12.4271544"><ele>354.0</ele><time>2026-03-22T07:03:57.143Z</time></trkpt><trkpt lat="43.9338715" lon="12.4271133"><ele>352.0</ele><time>2026-03-22T07:03:58.146Z</time></trkpt><trkpt lat="43.9337781" lon="12.42708"><ele>350.0</ele><time>2026-03-22T07:03:59.161Z</time></trkpt><trkpt lat="43.9336893" lon="12.4270606"><ele>348.0</ele><time>2026-03-22T07:04:00.157Z</time></trkpt><trkpt lat="43.9335973" lon="12.4270479"><ele>346.0</ele><time>2026-03-22T07:04:01.111Z</time></trkpt><trkpt lat="43.9335015" lon="12.4270417"><ele>344.0</ele><time>2026-03-22T07:04:02.134Z</time></trkpt><trkpt lat="43.9334011" lon="12.4270417"><ele>344.79999999999995</ele><time>2026-03-22T07:04:03.145Z</time></trkpt><trkpt lat="43.9333073" lon="12.4270442"><ele>345.59999999999997</ele><time>2026-03-22T07:04:04.145Z</time></trkpt><trkpt lat="43.93322" lon="12.4270569"><ele>346.4</ele><time>2026-03-22T07:04:05.142Z</time></trkpt><trkpt lat="43.93313" lon="12.4270723"><ele>347.2</ele><time>2026-03-22T07:04:06.171Z</time></trkpt><trkpt lat="43.9330403" lon="12.4270918"><ele>348.0</ele><time>2026-03-22T07:04:07.123Z</time></trkpt><trkpt lat="43.9329527" lon="12.4271047"><ele>348.0</ele><time>2026-03-22T07:04:08.135Z</time></trkpt><trkpt lat="43.9328814" lon="12.4271057"><ele>348.0</ele><time>2026-03-22T07:04:09.15Z</time></trkpt><trkpt lat="43.9328004" lon="12.4270974"><ele>348.0</ele><time>2026-03-22T07:04:10.111Z</time></trkpt><trkpt lat="43.9327262" lon="12.4270896"><ele>348.0</ele><time>2026-03-22T07:04:11.136Z</time></trkpt><trkpt lat="43.9326499" lon="12.4270657"><ele>348.0</ele><time>2026-03-22T07:04:12.139Z</time></trkpt><trkpt lat="43.9325738" lon="12.4270334"><ele>348.0</ele><time>2026-03-22T07:04:13.149Z</time></trkpt><trkpt lat="43.9325022" lon="12.4270063"><ele>349.8333333333333</ele><time>2026-03-22T07:04:14.152Z</time></trkpt><trkpt lat="43.9324379" lon="12.4269834"><ele>351.6666666666667</ele><time>2026-03-22T07:04:15.129Z</time></trkpt><trkpt lat="43.9323723" lon="12.4269563"><ele>353.5</ele><time>2026-03-22T07:04:16.149Z</time></trkpt><trkpt lat="43.9323107" lon="12.4269381"><ele>355.33333333333337</ele><time>2026-03-22T07:04:17.123Z</time></trkpt><trkpt lat="43.932248" lon="12.4269134"><ele>357.1666666666667</ele><time>2026-03-22T07:04:18.129Z</time></trkpt><trkpt lat="43.9321305" lon="12.4268569"><ele>359.0</ele><time>2026-03-22T07:04:20.156Z</time></trkpt><trkpt lat="43.9320384" lon="12.4267575"><ele>359.0</ele><time>2026-03-22T07:04:22.143Z</time></trkpt><trkpt lat="43.9319749" lon="12.426621"><ele>359.0</ele><time>2026-03-22T07:04:24.089Z</time></trkpt><trkpt lat="43.9319221" lon="12.4264773"><ele>359.0</ele><time>2026-03-22T07:04:26.14Z</time></trkpt><trkpt lat="43.9318944" lon="12.4263221"><ele>359.0</ele><time>2026-03-22T07:04:28.127Z</time></trkpt><trkpt lat="43.9318806" lon="12.4262335"><ele>359.0</ele><time>2026-03-22T07:04:29.149Z</time></trkpt><trkpt lat="43.9318625" lon="12.4261486"><ele>358.79999999999995</ele><time>2026-03-22T07:04:30.141Z</time></trkpt><trkpt lat="43.9317945" lon="12.4260137"><ele>358.59999999999997</ele><time>2026-03-22T07:04:32.155Z</time></trkpt><trkpt lat="43.9317503" lon="12.4259457"><ele>358.4</ele><time>2026-03-22T07:04:33.15Z</time></trkpt><trkpt lat="43.9317066" lon="12.4258745"><ele>358.2</ele><time>2026-03-22T07:04:34.134Z</time></trkpt><trkpt lat="43.9316323" lon="12.4257472"><ele>358.0</ele><time>2026-03-22T07:04:36.159Z</time></trkpt><trkpt lat="43.9315616" lon="12.4256331"><ele>358.0</ele><time>2026-03-22T07:04:38.131Z</time></trkpt><trkpt lat="43.9314954" lon="12.4255478"><ele>358.0</ele><time>2026-03-22T07:04:40.135Z</time></trkpt><trkpt lat="43.9314355" lon="12.4255032"><ele>358.0</ele><time>2026-03-22T07:04:42.139Z</time></trkpt><trkpt lat="43.9313749" lon="12.4254594"><ele>358.0</ele><time>2026-03-22T07:04:44.123Z</time></trkpt><trkpt lat="43.9312895" lon="12.4254198"><ele>358.0</ele><time>2026-03-22T07:04:46.123Z</time></trkpt><trkpt lat="43.9311892" lon="12.4254083"><ele>358.0</ele><time>2026-03-22T07:04:48.129Z</time></trkpt><trkpt lat="43.9310894" lon="12.4254473"><ele>358.0</ele><time>2026-03-22T07:04:50.128Z</time></trkpt><trkpt lat="43.9310294" lon="12.4254765"><ele>358.0</ele><time>2026-03-22T07:04:51.143Z</time></trkpt><trkpt lat="43.9309657" lon="12.4255063"><ele>358.0</ele><time>2026-03-22T07:04:52.114Z</time></trkpt><trkpt lat="43.930888" lon="12.4255308"><ele>358.0</ele><time>2026-03-22T07:04:53.135Z</time></trkpt><trkpt lat="43.9308134" lon="12.4255524"><ele>358.0</ele><time>2026-03-22T07:04:54.136Z</time></trkpt><trkpt lat="43.9307365" lon="12.4255734"><ele>358.0</ele><time>2026-03-22T07:04:55.124Z</time></trkpt><trkpt lat="43.9306472" lon="12.4256092"><ele>356.5</ele><time>2026-03-22T07:04:56.123Z</time></trkpt><trkpt lat="43.9305492" lon="12.4256541"><ele>355.0</ele><time>2026-03-22T07:04:57.106Z</time></trkpt><trkpt lat="43.9304417" lon="12.4256994"><ele>353.5</ele><time>2026-03-22T07:04:58.134Z</time></trkpt><trkpt lat="43.9303279" lon="12.4257571"><ele>352.0</ele><time>2026-03-22T07:04:59.121Z</time></trkpt><trkpt lat="43.9302061" lon="12.4258234"><ele>352.0</ele><time>2026-03-22T07:05:00.131Z</time></trkpt><trkpt lat="43.9300751" lon="12.4258802"><ele>352.0</ele><time>2026-03-22T07:05:01.125Z</time></trkpt><trkpt lat="43.9299351" lon="12.425932"><ele>352.0</ele><time>2026-03-22T07:05:02.119Z</time></trkpt><trkpt lat="43.9297969" lon="12.4259985"><ele>352.0</ele><time>2026-03-22T07:05:03.127Z</time></trkpt><trkpt lat="43.9296735" lon="12.4260561"><ele>350.5</ele><time>2026-03-22T07:05:04.135Z</time></trkpt><trkpt lat="43.9295681" lon="12.4261158"><ele>349.0</ele><time>2026-03-22T07:05:05.142Z</time></trkpt><trkpt lat="43.9294792" lon="12.4261827"><ele>347.5</ele><time>2026-03-22T07:05:06.141Z</time></trkpt><trkpt lat="43.9294057" lon="12.4262309"><ele>346.0</ele><time>2026-03-22T07:05:07.123Z</time></trkpt><trkpt lat="43.9293414" lon="12.4262651"><ele>344.5</ele><time>2026-03-22T07:05:08.141Z</time></trkpt><trkpt lat="43.9292623" lon="12.4262709"><ele>343.0</ele><time>2026-03-22T07:05:09.147Z</time></trkpt><trkpt lat="43.9291714" lon="12.4262634"><ele>340.8333333333333</ele><time>2026-03-22T07:05:10.15Z</time></trkpt><trkpt lat="43.9290873" lon="12.4262535"><ele>338.66666666666663</ele><time>2026-03-22T07:05:11.143Z</time></trkpt><trkpt lat="43.9290122" lon="12.4262581"><ele>336.5</ele><time>2026-03-22T07:05:12.157Z</time></trkpt><trkpt lat="43.928889" lon="12.4262593"><ele>334.3333333333333</ele><time>2026-03-22T07:05:14.145Z</time></trkpt><trkpt lat="43.9288363" lon="12.4262108"><ele>332.1666666666667</ele><time>2026-03-22T07:05:15.139Z</time></trkpt><trkpt lat="43.9287932" lon="12.4261048"><ele>330.0</ele><time>2026-03-22T07:05:16.133Z</time></trkpt><trkpt lat="43.9287473" lon="12.4259973"><ele>330.0</ele><time>2026-03-22T07:05:17.135Z</time></trkpt><trkpt lat="43.92869" lon="12.4258925"><ele>330.0</ele><time>2026-03-22T07:05:18.159Z</time></trkpt><trkpt lat="43.9286464" lon="12.425809"><ele>330.0</ele><time>2026-03-22T07:05:19.126Z</time></trkpt><trkpt lat="43.9285887" lon="12.42576"><ele>330.0</ele><time>2026-03-22T07:05:20.088Z</time></trkpt><trkpt lat="43.9284731" lon="12.425734"><ele>330.0</ele><time>2026-03-22T07:05:22.135Z</time></trkpt><trkpt lat="43.9283997" lon="12.4257724"><ele>330.0</ele><time>2026-03-22T07:05:23.123Z</time></trkpt><trkpt lat="43.9283346" lon="12.4258303"><ele>327.0</ele><time>2026-03-22T07:05:24.095Z</time></trkpt><trkpt lat="43.9282647" lon="12.4258785"><ele>324.0</ele><time>2026-03-22T07:05:25.133Z</time></trkpt><trkpt lat="43.928201" lon="12.4259114"><ele>321.0</ele><time>2026-03-22T07:05:26.126Z</time></trkpt><trkpt lat="43.9281017" lon="12.4259306"><ele>318.0</ele><time>2026-03-22T07:05:28.132Z</time></trkpt><trkpt lat="43.9279797" lon="12.4259161"><ele>315.0</ele><time>2026-03-22T07:05:30.136Z</time></trkpt><trkpt lat="43.92791" lon="12.425929"><ele>312.0</ele><time>2026-03-22T07:05:31.128Z</time></trkpt><trkpt lat="43.9278432" lon="12.4259354"><ele>312.0</ele><time>2026-03-22T07:05:32.141Z</time></trkpt><trkpt lat="43.927749" lon="12.4259264"><ele>312.0</ele><time>2026-03-22T07:05:33.136Z</time></trkpt><trkpt lat="43.9276525" lon="12.4258969"><ele>312.0</ele><time>2026-03-22T07:05:34.135Z</time></trkpt><trkpt lat="43.927553" lon="12.4258797"><ele>312.0</ele><time>2026-03-22T07:05:35.139Z</time></trkpt><trkpt lat="43.9274539" lon="12.4258598"><ele>312.0</ele><time>2026-03-22T07:05:36.148Z</time></trkpt><trkpt lat="43.9273562" lon="12.4258564"><ele>308.8</ele><time>2026-03-22T07:05:37.148Z</time></trkpt><trkpt lat="43.9272706" lon="12.4258451"><ele>305.6</ele><time>2026-03-22T07:05:38.125Z</time></trkpt><trkpt lat="43.9271946" lon="12.4258317"><ele>302.40000000000003</ele><time>2026-03-22T07:05:39.141Z</time></trkpt><trkpt lat="43.9270706" lon="12.4257872"><ele>299.2</ele><time>2026-03-22T07:05:41.141Z</time></trkpt><trkpt lat="43.9269914" lon="12.4257394"><ele>296.0</ele><time>2026-03-22T07:05:42.137Z</time></trkpt><trkpt lat="43.9269071" lon="12.4256794"><ele>296.0</ele><time>2026-03-22T07:05:43.126Z</time></trkpt><trkpt lat="43.9268383" lon="12.4256332"><ele>296.0</ele><time>2026-03-22T07:05:44.129Z</time></trkpt><trkpt lat="43.9267555" lon="12.4255965"><ele>296.0</ele><time>2026-03-22T07:05:45.071Z</time></trkpt><trkpt lat="43.9266808" lon="12.4255681"><ele>296.0</ele><time>2026-03-22T07:05:46.121Z</time></trkpt><trkpt lat="43.9266103" lon="12.4255383"><ele>296.0</ele><time>2026-03-22T07:05:47.113Z</time></trkpt><trkpt lat="43.9265358" lon="12.4254885"><ele>296.0</ele><time>2026-03-22T07:05:49.101Z</time></trkpt><trkpt lat="43.9265577" lon="12.4253953"><ele>292.2</ele><time>2026-03-22T07:05:51.14Z</time></trkpt><trkpt lat="43.9266521" lon="12.4253435"><ele>288.40000000000003</ele><time>2026-03-22T07:05:53.142Z</time></trkpt><trkpt lat="43.9267521" lon="12.4253233"><ele>284.6</ele><time>2026-03-22T07:05:54.132Z</time></trkpt><trkpt lat="43.926834" lon="12.4252806"><ele>280.8</ele><time>2026-03-22T07:05:55.117Z</time></trkpt><trkpt lat="43.926925" lon="12.4251636"><ele>277.0</ele><time>2026-03-22T07:05:56.135Z</time></trkpt><trkpt lat="43.9269944" lon="12.4250214"><ele>277.0</ele><time>2026-03-22T07:05:57.111Z</time></trkpt><trkpt lat="43.9270395" lon="12.4248657"><ele>277.0</ele><time>2026-03-22T07:05:58.119Z</time></trkpt><trkpt lat="43.9270792" lon="12.4247046"><ele>277.0</ele><time>2026-03-22T07:05:59.11Z</time></trkpt><trkpt lat="43.9271271" lon="12.424541"><ele>277.0</ele><time>2026-03-22T07:06:00.129Z</time></trkpt><trkpt lat="43.9271765" lon="12.4243941"><ele>276.2</ele><time>2026-03-22T07:06:01.129Z</time></trkpt><trkpt lat="43.9272339" lon="12.4242652"><ele>275.4</ele><time>2026-03-22T07:06:02.132Z</time></trkpt><trkpt lat="43.9272995" lon="12.4241782"><ele>274.6</ele><time>2026-03-22T07:06:03.139Z</time></trkpt><trkpt lat="43.9273869" lon="12.4241323"><ele>273.8</ele><time>2026-03-22T07:06:04.142Z</time></trkpt><trkpt lat="43.9274918" lon="12.4241021"><ele>273.0</ele><time>2026-03-22T07:06:05.152Z</time></trkpt><trkpt lat="43.9275953" lon="12.4240636"><ele>273.0</ele><time>2026-03-22T07:06:06.157Z</time></trkpt><trkpt lat="43.9276913" lon="12.4240294"><ele>273.0</ele><time>2026-03-22T07:06:07.124Z</time></trkpt><trkpt lat="43.9277529" lon="12.4239498"><ele>273.0</ele><time>2026-03-22T07:06:08.142Z</time></trkpt><trkpt lat="43.9277714" lon="12.4238365"><ele>273.0</ele><time>2026-03-22T07:06:09.141Z</time></trkpt><trkpt lat="43.9277592" lon="12.4237201"><ele>273.0</ele><time>2026-03-22T07:06:10.135Z</time></trkpt><trkpt lat="43.9277297" lon="12.4236244"><ele>273.0</ele><time>2026-03-22T07:06:11.149Z</time></trkpt><trkpt lat="43.9277006" lon="12.4235255"><ele>272.3333333333333</ele><time>2026-03-22T07:06:12.148Z</time></trkpt><trkpt lat="43.9276777" lon="12.4234213"><ele>271.6666666666667</ele><time>2026-03-22T07:06:13.13Z</time></trkpt><trkpt lat="43.9276657" lon="12.4233147"><ele>271.0</ele><time>2026-03-22T07:06:14.131Z</time></trkpt><trkpt lat="43.9276643" lon="12.4232198"><ele>270.33333333333337</ele><time>2026-03-22T07:06:15.12Z</time></trkpt><trkpt lat="43.9276675" lon="12.4231298"><ele>269.6666666666667</ele><time>2026-03-22T07:06:16.139Z</time></trkpt><trkpt lat="43.927671" lon="12.4230421"><ele>269.0</ele><time>2026-03-22T07:06:17.131Z</time></trkpt><trkpt lat="43.927679" lon="12.4228919"><ele>267.8</ele><time>2026-03-22T07:06:19.13Z</time></trkpt><trkpt lat="43.9277165" lon="12.4227734"><ele>266.59999999999997</ele><time>2026-03-22T07:06:21.124Z</time></trkpt><trkpt lat="43.9277965" lon="12.4227047"><ele>265.4</ele><time>2026-03-22T07:06:23.116Z</time></trkpt><trkpt lat="43.9279149" lon="12.4226473"><ele>264.2</ele><time>2026-03-22T07:06:25.155Z</time></trkpt><trkpt lat="43.9280262" lon="12.4225578"><ele>263.0</ele><time>2026-03-22T07:06:27.121Z</time></trkpt><trkpt lat="43.9280755" lon="12.4224889"><ele>263.0</ele><time>2026-03-22T07:06:28.132Z</time></trkpt><trkpt lat="43.9281029" lon="12.4223646"><ele>263.0</ele><time>2026-03-22T07:06:30.129Z</time></trkpt><trkpt lat="43.9279972" lon="12.4223576"><ele>263.0</ele><time>2026-03-22T07:06:33.132Z</time></trkpt><trkpt lat="43.9278812" lon="12.422391"><ele>263.0</ele><time>2026-03-22T07:06:35.139Z</time></trkpt><trkpt lat="43.9277671" lon="12.4223118"><ele>263.0</ele><time>2026-03-22T07:06:37.132Z</time></trkpt><trkpt lat="43.9277294" lon="12.4222256"><ele>262.33333333333337</ele><time>2026-03-22T07:06:38.144Z</time></trkpt><trkpt lat="43.9277019" lon="12.4221248"><ele>261.6666666666667</ele><time>2026-03-22T07:06:39.135Z</time></trkpt><trkpt lat="43.9276861" lon="12.422018"><ele>261.0</ele><time>2026-03-22T07:06:40.133Z</time></trkpt><trkpt lat="43.9276664" lon="12.4219025"><ele>260.3333333333333</ele><time>2026-03-22T07:06:41.157Z</time></trkpt><trkpt lat="43.9276439" lon="12.4217814"><ele>259.66666666666663</ele><time>2026-03-22T07:06:42.138Z</time></trkpt><trkpt lat="43.9276016" lon="12.4216591"><ele>259.0</ele><time>2026-03-22T07:06:43.138Z</time></trkpt><trkpt lat="43.9275286" lon="12.4215487"><ele>257.2</ele><time>2026-03-22T07:06:44.14Z</time></trkpt><trkpt lat="43.9274422" lon="12.4214622"><ele>255.39999999999998</ele><time>2026-03-22T07:06:45.134Z</time></trkpt><trkpt lat="43.92736" lon="12.4213974"><ele>253.6</ele><time>2026-03-22T07:06:46.117Z</time></trkpt><trkpt lat="43.9272554" lon="12.4213332"><ele>251.8</ele><time>2026-03-22T07:06:47.126Z</time></trkpt><trkpt lat="43.9271542" lon="12.4212825"><ele>250.0</ele><time>2026-03-22T07:06:48.138Z</time></trkpt><trkpt lat="43.9270607" lon="12.4212373"><ele>249.99999999999997</ele><time>2026-03-22T07:06:49.133Z</time></trkpt><trkpt lat="43.9269681" lon="12.4212341"><ele>250.0</ele><time>2026-03-22T07:06:50.15Z</time></trkpt><trkpt lat="43.9268804" lon="12.4212561"><ele>250.0</ele><time>2026-03-22T07:06:51.116Z</time></trkpt><trkpt lat="43.9268203" lon="12.4213089"><ele>250.0</ele><time>2026-03-22T07:06:52.131Z</time></trkpt><trkpt lat="43.926773" lon="12.421397"><ele>249.99999999999997</ele><time>2026-03-22T07:06:53.099Z</time></trkpt><trkpt lat="43.926749" lon="12.4215196"><ele>250.0</ele><time>2026-03-22T07:06:54.143Z</time></trkpt><trkpt lat="43.9267254" lon="12.421647"><ele>247.4</ele><time>2026-03-22T07:06:55.128Z</time></trkpt><trkpt lat="43.9267155" lon="12.4217766"><ele>244.8</ele><time>2026-03-22T07:06:56.146Z</time></trkpt><trkpt lat="43.9266786" lon="12.4218937"><ele>242.2</ele><time>2026-03-22T07:06:57.131Z</time></trkpt><trkpt lat="43.9266188" lon="12.4219749"><ele>239.6</ele><time>2026-03-22T07:06:58.148Z</time></trkpt><trkpt lat="43.9265318" lon="12.4219965"><ele>237.0</ele><time>2026-03-22T07:06:59.135Z</time></trkpt><trkpt lat="43.926443" lon="12.42195"><ele>237.0</ele><time>2026-03-22T07:07:00.106Z</time></trkpt><trkpt lat="43.9263485" lon="12.4218763"><ele>237.0</ele><time>2026-03-22T07:07:01.126Z</time></trkpt><trkpt lat="43.9262503" lon="12.4218104"><ele>237.0</ele><time>2026-03-22T07:07:02.118Z</time></trkpt><trkpt lat="43.9261422" lon="12.4217608"><ele>237.0</ele><time>2026-03-22T07:07:03.134Z</time></trkpt><trkpt lat="43.9260366" lon="12.4217206"><ele>237.0</ele><time>2026-03-22T07:07:04.127Z</time></trkpt><trkpt lat="43.9259256" lon="12.4216749"><ele>234.0</ele><time>2026-03-22T07:07:05.091Z</time></trkpt><trkpt lat="43.9258213" lon="12.421626"><ele>231.0</ele><time>2026-03-22T07:07:06.139Z</time></trkpt><trkpt lat="43.9257114" lon="12.4215894"><ele>228.0</ele><time>2026-03-22T07:07:07.126Z</time></trkpt><trkpt lat="43.9256008" lon="12.4215436"><ele>225.0</ele><time>2026-03-22T07:07:08.135Z</time></trkpt><trkpt lat="43.9254892" lon="12.4214968"><ele>225.0</ele><time>2026-03-22T07:07:09.137Z</time></trkpt><trkpt lat="43.9253881" lon="12.4214555"><ele>225.0</ele><time>2026-03-22T07:07:10.106Z</time></trkpt><trkpt lat="43.9252946" lon="12.4214126"><ele>225.0</ele><time>2026-03-22T07:07:11.137Z</time></trkpt><trkpt lat="43.925218" lon="12.4213751"><ele>225.0</ele><time>2026-03-22T07:07:12.131Z</time></trkpt><trkpt lat="43.9251572" lon="12.4213493"><ele>225.0</ele><time>2026-03-22T07:07:13.157Z</time></trkpt><trkpt lat="43.9250733" lon="12.4213155"><ele>225.0</ele><time>2026-03-22T07:07:15.13Z</time></trkpt><trkpt lat="43.9250007" lon="12.4213193"><ele>223.4</ele><time>2026-03-22T07:07:17.094Z</time></trkpt><trkpt lat="43.9249421" lon="12.4213648"><ele>221.8</ele><time>2026-03-22T07:07:19.123Z</time></trkpt><trkpt lat="43.9249132" lon="12.4214609"><ele>220.2</ele><time>2026-03-22T07:07:21.122Z</time></trkpt><trkpt lat="43.9248897" lon="12.42158"><ele>218.6</ele><time>2026-03-22T07:07:23.138Z</time></trkpt><trkpt lat="43.9248778" lon="12.4217265"><ele>217.0</ele><time>2026-03-22T07:07:25.145Z</time></trkpt><trkpt lat="43.9248536" lon="12.4218789"><ele>217.0</ele><time>2026-03-22T07:07:27.148Z</time></trkpt><trkpt lat="43.9248133" lon="12.4220087"><ele>217.0</ele><time>2026-03-22T07:07:29.144Z</time></trkpt><trkpt lat="43.9247467" lon="12.4221338"><ele>217.0</ele><time>2026-03-22T07:07:31.151Z</time></trkpt><trkpt lat="43.9246675" lon="12.4222482"><ele>217.0</ele><time>2026-03-22T07:07:33.16Z</time></trkpt><trkpt lat="43.9245668" lon="12.4223292"><ele>217.0</ele><time>2026-03-22T07:07:35.155Z</time></trkpt><trkpt lat="43.9245075" lon="12.4223614"><ele>217.2</ele><time>2026-03-22T07:07:36.147Z</time></trkpt><trkpt lat="43.9243983" lon="12.422416"><ele>217.39999999999998</ele><time>2026-03-22T07:07:38.146Z</time></trkpt><trkpt lat="43.9242957" lon="12.4224652"><ele>217.60000000000002</ele><time>2026-03-22T07:07:40.127Z</time></trkpt><trkpt lat="43.9241909" lon="12.4225057"><ele>217.8</ele><time>2026-03-22T07:07:42.109Z</time></trkpt><trkpt lat="43.9240914" lon="12.4225288"><ele>218.0</ele><time>2026-03-22T07:07:44.141Z</time></trkpt><trkpt lat="43.9240382" lon="12.4224532"><ele>217.2</ele><time>2026-03-22T07:07:46.14Z</time></trkpt><trkpt lat="43.924008" lon="12.4223205"><ele>216.4</ele><time>2026-03-22T07:07:48.138Z</time></trkpt><trkpt lat="43.9239878" lon="12.4221787"><ele>215.59999999999997</ele><time>2026-03-22T07:07:50.131Z</time></trkpt><trkpt lat="43.9239721" lon="12.4220341"><ele>214.79999999999998</ele><time>2026-03-22T07:07:52.132Z</time></trkpt><trkpt lat="43.9239374" lon="12.4218756"><ele>214.0</ele><time>2026-03-22T07:07:54.131Z</time></trkpt><trkpt lat="43.9239165" lon="12.4217917"><ele>214.00000000000003</ele><time>2026-03-22T07:07:55.159Z</time></trkpt><trkpt lat="43.9238956" lon="12.4216963"><ele>214.0</ele><time>2026-03-22T07:07:56.146Z</time></trkpt><trkpt lat="43.923872" lon="12.4216041"><ele>214.0</ele><time>2026-03-22T07:07:57.151Z</time></trkpt><trkpt lat="43.9238486" lon="12.4215063"><ele>214.0</ele><time>2026-03-22T07:07:58.14Z</time></trkpt><trkpt lat="43.9238363" lon="12.4214056"><ele>214.0</ele><time>2026-03-22T07:07:59.158Z</time></trkpt><trkpt lat="43.9238184" lon="12.4213115"><ele>214.00000000000003</ele><time>2026-03-22T07:08:00.144Z</time></trkpt><trkpt lat="43.9237994" lon="12.4212151"><ele>214.0</ele><time>2026-03-22T07:08:01.126Z</time></trkpt><trkpt lat="43.9237736" lon="12.4211162"><ele>213.33333333333331</ele><time>2026-03-22T07:08:02.116Z</time></trkpt><trkpt lat="43.9237529" lon="12.4210074"><ele>212.66666666666666</ele><time>2026-03-22T07:08:03.125Z</time></trkpt><trkpt lat="43.9237223" lon="12.4209051"><ele>212.0</ele><time>2026-03-22T07:08:04.132Z</time></trkpt><trkpt lat="43.9236975" lon="12.4207961"><ele>211.33333333333331</ele><time>2026-03-22T07:08:05.14Z</time></trkpt><trkpt lat="43.9236726" lon="12.4206852"><ele>210.66666666666666</ele><time>2026-03-22T07:08:06.151Z</time></trkpt><trkpt lat="43.9236478" lon="12.4205698"><ele>210.0</ele><time>2026-03-22T07:08:07.135Z</time></trkpt><trkpt lat="43.9236205" lon="12.4204604"><ele>209.83333333333334</ele><time>2026-03-22T07:08:08.159Z</time></trkpt><trkpt lat="43.9235956" lon="12.4203578"><ele>209.66666666666669</ele><time>2026-03-22T07:08:09.147Z</time></trkpt><trkpt lat="43.9235777" lon="12.4202518"><ele>209.5</ele><time>2026-03-22T07:08:10.141Z</time></trkpt><trkpt lat="43.9235672" lon="12.4201329"><ele>209.33333333333334</ele><time>2026-03-22T07:08:11.155Z</time></trkpt><trkpt lat="43.9235632" lon="12.4200245"><ele>209.16666666666669</ele><time>2026-03-22T07:08:12.153Z</time></trkpt><trkpt lat="43.9235677" lon="12.4199138"><ele>209.0</ele><time>2026-03-22T07:08:13.158Z</time></trkpt><trkpt lat="43.9235802" lon="12.4198179"><ele>209.0</ele><time>2026-03-22T07:08:14.146Z</time></trkpt><trkpt lat="43.9235966" lon="12.4197196"><ele>209.0</ele><time>2026-03-22T07:08:15.147Z</time></trkpt><trkpt lat="43.9236133" lon="12.4196237"><ele>209.0</ele><time>2026-03-22T07:08:16.15Z</time></trkpt><trkpt lat="43.9236265" lon="12.4195334"><ele>209.0</ele><time>2026-03-22T07:08:17.142Z</time></trkpt><trkpt lat="43.9236398" lon="12.4194435"><ele>209.0</ele><time>2026-03-22T07:08:18.149Z</time></trkpt><trkpt lat="43.9236503" lon="12.4193531"><ele>209.0</ele><time>2026-03-22T07:08:19.118Z</time></trkpt><trkpt lat="43.9236643" lon="12.4192613"><ele>209.0</ele><time>2026-03-22T07:08:20.157Z</time></trkpt><trkpt lat="43.9236827" lon="12.4191656"><ele>209.0</ele><time>2026-03-22T07:08:21.13Z</time></trkpt><trkpt lat="43.9237006" lon="12.4189977"><ele>209.0</ele><time>2026-03-22T07:08:23.131Z</time></trkpt><trkpt lat="43.923729" lon="12.4188496"><ele>209.0</ele><time>2026-03-22T07:08:25.123Z</time></trkpt><trkpt lat="43.9237651" lon="12.4186941"><ele>209.0</ele><time>2026-03-22T07:08:27.126Z</time></trkpt><trkpt lat="43.9237902" lon="12.4185377"><ele>209.00000000000003</ele><time>2026-03-22T07:08:29.136Z</time></trkpt><trkpt lat="43.9238301" lon="12.4183993"><ele>209.0</ele><time>2026-03-22T07:08:31.141Z</time></trkpt><trkpt lat="43.923881" lon="12.418307"><ele>209.0</ele><time>2026-03-22T07:08:33.121Z</time></trkpt><trkpt lat="43.9239238" lon="12.4182256"><ele>209.0</ele><time>2026-03-22T07:08:36.114Z</time></trkpt><trkpt lat="43.9239499" lon="12.4181386"><ele>209.00000000000003</ele><time>2026-03-22T07:08:39.108Z</time></trkpt><trkpt lat="43.9239205" lon="12.4180539"><ele>209.0</ele><time>2026-03-22T07:08:42.135Z</time></trkpt><trkpt lat="43.9238565" lon="12.4180106"><ele>209.0</ele><time>2026-03-22T07:08:45.095Z</time></trkpt><trkpt lat="43.9237791" lon="12.4180045"><ele>209.0</ele><time>2026-03-22T07:08:49.093Z</time></trkpt><trkpt lat="43.923715" lon="12.4180065"><ele>209.0</ele><time>2026-03-22T07:08:52.126Z</time></trkpt><trkpt lat="43.9236385" lon="12.4180245"><ele>209.0</ele><time>2026-03-22T07:08:56.144Z</time></trkpt><trkpt lat="43.923567" lon="12.4180088"><ele>209.0</ele><time>2026-03-22T07:09:00.14Z</time></trkpt><trkpt lat="43.9234883" lon="12.4179892"><ele>209.0</ele><time>2026-03-22T07:09:04.128Z</time></trkpt><trkpt lat="43.9234241" lon="12.4179516"><ele>209.0</ele><time>2026-03-22T07:09:08.131Z</time></trkpt><trkpt lat="43.9233628" lon="12.4179187"><ele>211.57142857142856</ele><time>2026-03-22T07:09:11.115Z</time></trkpt><trkpt lat="43.9232984" lon="12.4178765"><ele>214.14285714285714</ele><time>2026-03-22T07:09:15.145Z</time></trkpt><trkpt lat="43.9232354" lon="12.417835"><ele>216.71428571428572</ele><time>2026-03-22T07:09:19.129Z</time></trkpt><trkpt lat="43.9231808" lon="12.4177879"><ele>219.28571428571428</ele><time>2026-03-22T07:09:23.134Z</time></trkpt><trkpt lat="43.9231269" lon="12.4177366"><ele>221.8571428571429</ele><time>2026-03-22T07:09:27.152Z</time></trkpt><trkpt lat="43.9230642" lon="12.417689"><ele>224.42857142857144</ele><time>2026-03-22T07:09:31.135Z</time></trkpt><trkpt lat="43.9230035" lon="12.4176562"><ele>227.0</ele><time>2026-03-22T07:09:35.131Z</time></trkpt><trkpt lat="43.9229458" lon="12.4176094"><ele>227.0</ele><time>2026-03-22T07:09:39.15Z</time></trkpt><trkpt lat="43.9228746" lon="12.417573"><ele>227.00000000000003</ele><time>2026-03-22T07:09:43.119Z</time></trkpt><trkpt lat="43.9227976" lon="12.4175513"><ele>227.0</ele><time>2026-03-22T07:09:47.108Z</time></trkpt><trkpt lat="43.9227413" lon="12.4175088"><ele>227.0</ele><time>2026-03-22T07:09:51.126Z</time></trkpt><trkpt lat="43.9227386" lon="12.4174182"><ele>227.00000000000003</ele><time>2026-03-22T07:09:56.097Z</time></trkpt><trkpt lat="43.9227947" lon="12.4173677"><ele>227.0</ele><time>2026-03-22T07:10:01.087Z</time></trkpt><trkpt lat="43.9228663" lon="12.4173425"><ele>227.0</ele><time>2026-03-22T07:10:06.098Z</time></trkpt><trkpt lat="43.9229273" lon="12.4173008"><ele>227.0</ele><time>2026-03-22T07:10:10.123Z</time></trkpt><trkpt lat="43.9229877" lon="12.4172731"><ele>227.00000000000003</ele><time>2026-03-22T07:10:14.136Z</time></trkpt><trkpt lat="43.9230542" lon="12.4172374"><ele>227.0</ele><time>2026-03-22T07:10:18.15Z</time></trkpt><trkpt lat="43.9231158" lon="12.4172128"><ele>227.0</ele><time>2026-03-22T07:10:22.112Z</time></trkpt><trkpt lat="43.923165" lon="12.4171408"><ele>227.00000000000003</ele><time>2026-03-22T07:10:26.138Z</time></trkpt><trkpt lat="43.92319" lon="12.4170485"><ele>227.0</ele><time>2026-03-22T07:10:31.11Z</time></trkpt><trkpt lat="43.9231673" lon="12.4169488"><ele>227.0</ele><time>2026-03-22T07:10:35.148Z</time></trkpt><trkpt lat="43.92312" lon="12.4168725"><ele>228.71428571428572</ele><time>2026-03-22T07:10:39.13Z</time></trkpt><trkpt lat="43.923067" lon="12.4167872"><ele>230.42857142857144</ele><time>2026-03-22T07:10:44.133Z</time></trkpt><trkpt lat="43.9230188" lon="12.4167165"><ele>232.14285714285717</ele><time>2026-03-22T07:10:48.101Z</time></trkpt><trkpt lat="43.9229659" lon="12.4166508"><ele>233.8571428571429</ele><time>2026-03-22T07:10:52.105Z</time></trkpt><trkpt lat="43.9229142" lon="12.4165974"><ele>235.57142857142858</ele><time>2026-03-22T07:10:56.127Z</time></trkpt><trkpt lat="43.9228526" lon="12.4165348"><ele>237.28571428571433</ele><time>2026-03-22T07:11:00.099Z</time></trkpt><trkpt lat="43.9227946" lon="12.4164703"><ele>239.00000000000003</ele><time>2026-03-22T07:11:05.127Z</time></trkpt><trkpt lat="43.9227536" lon="12.416392"><ele>241.00000000000003</ele><time>2026-03-22T07:11:09.132Z</time></trkpt><trkpt lat="43.9227146" lon="12.4163043"><ele>243.0</ele><time>2026-03-22T07:11:13.11Z</time></trkpt><trkpt lat="43.9226943" lon="12.4162001"><ele>245.00000000000003</ele><time>2026-03-22T07:11:18.135Z</time></trkpt><trkpt lat="43.9227154" lon="12.4161025"><ele>247.00000000000003</ele><time>2026-03-22T07:11:23.12Z</time></trkpt><trkpt lat="43.922755" lon="12.4160274"><ele>249.0</ele><time>2026-03-22T07:11:28.121Z</time></trkpt><trkpt lat="43.9228244" lon="12.4159786"><ele>251.00000000000003</ele><time>2026-03-22T07:11:33.107Z</time></trkpt><trkpt lat="43.9228861" lon="12.4159337"><ele>253.00000000000003</ele><time>2026-03-22T07:11:37.125Z</time></trkpt><trkpt lat="43.922947" lon="12.4159026"><ele>253.00000000000003</ele><time>2026-03-22T07:11:41.108Z</time></trkpt><trkpt lat="43.9230043" lon="12.4158286"><ele>253.0</ele><time>2026-03-22T07:11:46.136Z</time></trkpt><trkpt lat="43.923022" lon="12.4157408"><ele>253.00000000000003</ele><time>2026-03-22T07:11:50.144Z</time></trkpt><trkpt lat="43.9230167" lon="12.4156355"><ele>253.00000000000003</ele><time>2026-03-22T07:11:55.132Z</time></trkpt><trkpt lat="43.9229857" lon="12.4155585"><ele>253.0</ele><time>2026-03-22T07:12:00.131Z</time></trkpt><trkpt lat="43.9229463" lon="12.4154745"><ele>253.00000000000003</ele><time>2026-03-22T07:12:05.139Z</time></trkpt><trkpt lat="43.9229264" lon="12.4153868"><ele>253.00000000000003</ele><time>2026-03-22T07:12:10.16Z</time></trkpt><trkpt lat="43.9229248" lon="12.4152985"><ele>254.71428571428575</ele><time>2026-03-22T07:12:15.133Z</time></trkpt><trkpt lat="43.9229493" lon="12.4152024"><ele>256.42857142857144</ele><time>2026-03-22T07:12:21.119Z</time></trkpt><trkpt lat="43.9229551" lon="12.415103"><ele>258.1428571428571</ele><time>2026-03-22T07:12:26.127Z</time></trkpt><trkpt lat="43.9230031" lon="12.4150301"><ele>259.8571428571429</ele><time>2026-03-22T07:12:32.132Z</time></trkpt><trkpt lat="43.9230458" lon="12.414955"><ele>261.57142857142856</ele><time>2026-03-22T07:12:37.141Z</time></trkpt><trkpt lat="43.923079" lon="12.414876"><ele>263.2857142857143</ele><time>2026-03-22T07:12:42.142Z</time></trkpt><trkpt lat="43.923117" lon="12.4147991"><ele>265.0</ele><time>2026-03-22T07:12:48.13Z</time></trkpt><trkpt lat="43.9231272" lon="12.4147054"><ele>266.2857142857143</ele><time>2026-03-22T07:12:53.122Z</time></trkpt><trkpt lat="43.9231112" lon="12.4146032"><ele>267.57142857142856</ele><time>2026-03-22T07:12:58.123Z</time></trkpt><trkpt lat="43.9230605" lon="12.4145416"><ele>268.8571428571429</ele><time>2026-03-22T07:13:02.125Z</time></trkpt><trkpt lat="43.9229967" lon="12.4144982"><ele>270.1428571428571</ele><time>2026-03-22T07:13:07.137Z</time></trkpt><trkpt lat="43.9229346" lon="12.4144773"><ele>271.42857142857144</ele><time>2026-03-22T07:13:12.142Z</time></trkpt><trkpt lat="43.9228718" lon="12.4144655"><ele>272.7142857142857</ele><time>2026-03-22T07:13:16.144Z</time></trkpt><trkpt lat="43.922812" lon="12.4144375"><ele>274.0</ele><time>2026-03-22T07:13:20.133Z</time></trkpt><trkpt lat="43.9227387" lon="12.4144256"><ele>274.00000000000006</ele><time>2026-03-22T07:13:25.134Z</time></trkpt><trkpt lat="43.9226781" lon="12.4144018"><ele>274.0</ele><time>2026-03-22T07:13:30.156Z</time></trkpt><trkpt lat="43.922606" lon="12.4143774"><ele>274.0</ele><time>2026-03-22T07:13:35.152Z</time></trkpt><trkpt lat="43.9225312" lon="12.4143411"><ele>274.0</ele><time>2026-03-22T07:13:40.132Z</time></trkpt><trkpt lat="43.9224719" lon="12.4143096"><ele>274.0</ele><time>2026-03-22T07:13:44.124Z</time></trkpt><trkpt lat="43.9223995" lon="12.4142759"><ele>274.00000000000006</ele><time>2026-03-22T07:13:48.142Z</time></trkpt><trkpt lat="43.9223362" lon="12.4142417"><ele>274.0</ele><time>2026-03-22T07:13:52.123Z</time></trkpt><trkpt lat="43.9222738" lon="12.4142058"><ele>275.00000000000006</ele><time>2026-03-22T07:13:56.105Z</time></trkpt><trkpt lat="43.9222135" lon="12.414166"><ele>276.0</ele><time>2026-03-22T07:14:00.151Z</time></trkpt><trkpt lat="43.9221551" lon="12.4141184"><ele>277.0</ele><time>2026-03-22T07:14:04.137Z</time></trkpt><trkpt lat="43.9220924" lon="12.4140547"><ele>278.0</ele><time>2026-03-22T07:14:09.134Z</time></trkpt><trkpt lat="43.9220271" lon="12.4139974"><ele>279.0</ele><time>2026-03-22T07:14:14.12Z</time></trkpt><trkpt lat="43.9219749" lon="12.4139448"><ele>280.00000000000006</ele><time>2026-03-22T07:14:18.132Z</time></trkpt><trkpt lat="43.9219245" lon="12.4138822"><ele>281.0</ele><time>2026-03-22T07:14:22.13Z</time></trkpt><trkpt lat="43.9219005" lon="12.4137915"><ele>283.00000000000006</ele><time>2026-03-22T07:14:27.121Z</time></trkpt><trkpt lat="43.921917" lon="12.413693"><ele>285.0</ele><time>2026-03-22T07:14:33.091Z</time></trkpt><trkpt lat="43.9219826" lon="12.4136486"><ele>287.0</ele><time>2026-03-22T07:14:38.103Z</time></trkpt><trkpt lat="43.9220499" lon="12.4136242"><ele>289.0</ele><time>2026-03-22T07:14:43.119Z</time></trkpt><trkpt lat="43.9221242" lon="12.4135984"><ele>291.0</ele><time>2026-03-22T07:14:48.15Z</time></trkpt><trkpt lat="43.9221942" lon="12.4135682"><ele>293.00000000000006</ele><time>2026-03-22T07:14:53.092Z</time></trkpt><trkpt lat="43.922261" lon="12.4135324"><ele>295.0</ele><time>2026-03-22T07:14:58.142Z</time></trkpt><trkpt lat="43.9223265" lon="12.4135107"><ele>295.00000000000006</ele><time>2026-03-22T07:15:02.145Z</time></trkpt><trkpt lat="43.9223889" lon="12.4134826"><ele>295.0</ele><time>2026-03-22T07:15:06.079Z</time></trkpt><trkpt lat="43.9224503" lon="12.4134249"><ele>295.0</ele><time>2026-03-22T07:15:10.136Z</time></trkpt><trkpt lat="43.9225094" lon="12.4133659"><ele>295.0</ele><time>2026-03-22T07:15:15.141Z</time></trkpt><trkpt lat="43.9225504" lon="12.4132968"><ele>295.0</ele><time>2026-03-22T07:15:19.113Z</time></trkpt><trkpt lat="43.92257" lon="12.4132131"><ele>295.00000000000006</ele><time>2026-03-22T07:15:23.142Z</time></trkpt><trkpt lat="43.9225404" lon="12.4131153"><ele>295.0</ele><time>2026-03-22T07:15:29.146Z</time></trkpt><trkpt lat="43.9224854" lon="12.4130446"><ele>295.00000000000006</ele><time>2026-03-22T07:15:34.149Z</time></trkpt><trkpt lat="43.9224209" lon="12.4130064"><ele>295.0</ele><time>2026-03-22T07:15:38.135Z</time></trkpt><trkpt lat="43.9223546" lon="12.4129665"><ele>295.0</ele><time>2026-03-22T07:15:42.127Z</time></trkpt><trkpt lat="43.9222929" lon="12.4129446"><ele>295.0</ele><time>2026-03-22T07:15:46.128Z</time></trkpt><trkpt lat="43.9222305" lon="12.4128868"><ele>295.0</ele><time>2026-03-22T07:15:51.133Z</time></trkpt><trkpt lat="43.9222121" lon="12.4128001"><ele>295.00000000000006</ele><time>2026-03-22T07:15:56.155Z</time></trkpt><trkpt lat="43.9222326" lon="12.4127119"><ele>295.0</ele><time>2026-03-22T07:16:01.125Z</time></trkpt><trkpt lat="43.922278" lon="12.4126441"><ele>296.28571428571433</ele><time>2026-03-22T07:16:06.136Z</time></trkpt><trkpt lat="43.9222999" lon="12.4125604"><ele>297.57142857142856</ele><time>2026-03-22T07:16:11.126Z</time></trkpt><trkpt lat="43.922294" lon="12.4124637"><ele>298.8571428571429</ele><time>2026-03-22T07:16:15.139Z</time></trkpt><trkpt lat="43.9222716" lon="12.4123701"><ele>300.14285714285717</ele><time>2026-03-22T07:16:20.127Z</time></trkpt><trkpt lat="43.9222478" lon="12.4122866"><ele>301.42857142857144</ele><time>2026-03-22T07:16:24.148Z</time></trkpt><trkpt lat="43.9222183" lon="12.4121951"><ele>302.7142857142857</ele><time>2026-03-22T07:16:29.149Z</time></trkpt><trkpt lat="43.9221927" lon="12.4121145"><ele>304.0</ele><time>2026-03-22T07:16:33.136Z</time></trkpt><trkpt lat="43.9221629" lon="12.4120288"><ele>304.85714285714283</ele><time>2026-03-22T07:16:38.152Z</time></trkpt><trkpt lat="43.9221241" lon="12.4119483"><ele>305.7142857142857</ele><time>2026-03-22T07:16:43.097Z</time></trkpt><trkpt lat="43.9220623" lon="12.4119214"><ele>306.57142857142856</ele><time>2026-03-22T07:16:48.148Z</time></trkpt><trkpt lat="43.9219997" lon="12.411893"><ele>307.42857142857144</ele><time>2026-03-22T07:16:53.145Z</time></trkpt><trkpt lat="43.9219274" lon="12.4118636"><ele>308.2857142857143</ele><time>2026-03-22T07:16:58.136Z</time></trkpt><trkpt lat="43.9218526" lon="12.4118578"><ele>309.14285714285717</ele><time>2026-03-22T07:17:03.134Z</time></trkpt><trkpt lat="43.9217832" lon="12.4118357"><ele>310.0</ele><time>2026-03-22T07:17:08.105Z</time></trkpt><trkpt lat="43.9217167" lon="12.4118218"><ele>312.57142857142856</ele><time>2026-03-22T07:17:13.122Z</time></trkpt><trkpt lat="43.9216517" lon="12.4118088"><ele>315.1428571428571</ele><time>2026-03-22T07:17:18.152Z</time></trkpt><trkpt lat="43.9215879" lon="12.4118043"><ele>317.71428571428567</ele><time>2026-03-22T07:17:22.139Z</time></trkpt><trkpt lat="43.9215159" lon="12.411783"><ele>320.2857142857143</ele><time>2026-03-22T07:17:27.128Z</time></trkpt><trkpt lat="43.9214509" lon="12.4117573"><ele>322.85714285714283</ele><time>2026-03-22T07:17:32.127Z</time></trkpt><trkpt lat="43.9213882" lon="12.4117393"><ele>325.4285714285714</ele><time>2026-03-22T07:17:36.14Z</time></trkpt><trkpt lat="43.9213137" lon="12.4117198"><ele>328.0</ele><time>2026-03-22T07:17:41.141Z</time></trkpt><trkpt lat="43.9212458" lon="12.4117012"><ele>327.99999999999994</ele><time>2026-03-22T07:17:45.138Z</time></trkpt><trkpt lat="43.9211798" lon="12.411676"><ele>328.0</ele><time>2026-03-22T07:17:49.141Z</time></trkpt><trkpt lat="43.9211253" lon="12.4115972"><ele>328.0</ele><time>2026-03-22T07:17:54.114Z</time></trkpt><trkpt lat="43.9211236" lon="12.4114971"><ele>328.0</ele><time>2026-03-22T07:17:59.102Z</time></trkpt><trkpt lat="43.9211818" lon="12.4114296"><ele>328.0</ele><time>2026-03-22T07:18:04.123Z</time></trkpt><trkpt lat="43.9212501" lon="12.4113968"><ele>327.99999999999994</ele><time>2026-03-22T07:18:08.13Z</time></trkpt><trkpt lat="43.9213122" lon="12.4113699"><ele>328.0</ele><time>2026-03-22T07:18:12.135Z</time></trkpt><trkpt lat="43.9213768" lon="12.4113218"><ele>330.2857142857143</ele><time>2026-03-22T07:18:16.131Z</time></trkpt><trkpt lat="43.9214385" lon="12.4112709"><ele>332.57142857142856</ele><time>2026-03-22T07:18:20.12Z</time></trkpt><trkpt lat="43.9215022" lon="12.4112025"><ele>334.8571428571429</ele><time>2026-03-22T07:18:24.104Z</time></trkpt><trkpt lat="43.9215484" lon="12.4111416"><ele>337.1428571428571</ele><time>2026-03-22T07:18:27.155Z</time></trkpt><trkpt lat="43.9215823" lon="12.4110658"><ele>339.42857142857144</ele><time>2026-03-22T07:18:30.159Z</time></trkpt><trkpt lat="43.9216052" lon="12.4109602"><ele>341.7142857142857</ele><time>2026-03-22T07:18:34.146Z</time></trkpt><trkpt lat="43.9215745" lon="12.4108541"><ele>344.0</ele><time>2026-03-22T07:18:38.132Z</time></trkpt><trkpt lat="43.9215061" lon="12.4108054"><ele>344.00000000000006</ele><time>2026-03-22T07:18:42.125Z</time></trkpt><trkpt lat="43.92143" lon="12.4107811"><ele>344.0</ele><time>2026-03-22T07:18:46.138Z</time></trkpt><trkpt lat="43.921362" lon="12.4107778"><ele>344.0</ele><time>2026-03-22T07:18:50.137Z</time></trkpt><trkpt lat="43.9212963" lon="12.4107728"><ele>344.0</ele><time>2026-03-22T07:18:54.134Z</time></trkpt><trkpt lat="43.9212208" lon="12.4107782"><ele>344.0</ele><time>2026-03-22T07:18:59.107Z</time></trkpt><trkpt lat="43.9211555" lon="12.41077"><ele>344.00000000000006</ele><time>2026-03-22T07:19:02.124Z</time></trkpt><trkpt lat="43.9210781" lon="12.4107708"><ele>344.0</ele><time>2026-03-22T07:19:06.127Z</time></trkpt><trkpt lat="43.9210126" lon="12.4107688"><ele>344.00000000000006</ele><time>2026-03-22T07:19:09.092Z</time></trkpt><trkpt lat="43.9209372" lon="12.4107474"><ele>344.0</ele><time>2026-03-22T07:19:13.129Z</time></trkpt><trkpt lat="43.920869" lon="12.4107149"><ele>344.0</ele><time>2026-03-22T07:19:17.127Z</time></trkpt><trkpt lat="43.9207985" lon="12.4106933"><ele>344.0</ele><time>2026-03-22T07:19:21.114Z</time></trkpt><trkpt lat="43.920733" lon="12.4106724"><ele>344.0</ele><time>2026-03-22T07:19:25.082Z</time></trkpt><trkpt lat="43.9206726" lon="12.4106335"><ele>344.00000000000006</ele><time>2026-03-22T07:19:29.137Z</time></trkpt><trkpt lat="43.9206057" lon="12.4106213"><ele>344.0</ele><time>2026-03-22T07:19:33.125Z</time></trkpt><trkpt lat="43.9205263" lon="12.4105983"><ele>345.42857142857144</ele><time>2026-03-22T07:19:37.107Z</time></trkpt><trkpt lat="43.9204478" lon="12.4105706"><ele>346.8571428571429</ele><time>2026-03-22T07:19:41.135Z</time></trkpt><trkpt lat="43.9203724" lon="12.4105516"><ele>348.28571428571433</ele><time>2026-03-22T07:19:45.119Z</time></trkpt><trkpt lat="43.920298" lon="12.4105203"><ele>349.7142857142857</ele><time>2026-03-22T07:19:48.133Z</time></trkpt><trkpt lat="43.9202582" lon="12.4104395"><ele>351.1428571428571</ele><time>2026-03-22T07:19:51.116Z</time></trkpt><trkpt lat="43.9202526" lon="12.4103474"><ele>352.5714285714286</ele><time>2026-03-22T07:19:55.128Z</time></trkpt><trkpt lat="43.9202964" lon="12.4102612"><ele>354.0</ele><time>2026-03-22T07:20:01.126Z</time></trkpt><trkpt lat="43.9203654" lon="12.410248"><ele>356.1666666666667</ele><time>2026-03-22T07:20:06.141Z</time></trkpt><trkpt lat="43.9204288" lon="12.4102576"><ele>358.3333333333333</ele><time>2026-03-22T07:20:11.139Z</time></trkpt><trkpt lat="43.9204977" lon="12.4102761"><ele>360.5</ele><time>2026-03-22T07:20:16.121Z</time></trkpt><trkpt lat="43.9205692" lon="12.41027"><ele>362.66666666666663</ele><time>2026-03-22T07:20:21.129Z</time></trkpt><trkpt lat="43.9206331" lon="12.4102141"><ele>364.8333333333333</ele><time>2026-03-22T07:20:25.125Z</time></trkpt><trkpt lat="43.9206804" lon="12.4100984"><ele>367.0</ele><time>2026-03-22T07:20:28.124Z</time></trkpt><trkpt lat="43.9207106" lon="12.4099982"><ele>367.0</ele><time>2026-03-22T07:20:30.141Z</time></trkpt><trkpt lat="43.9207381" lon="12.4098992"><ele>367.0</ele><time>2026-03-22T07:20:32.132Z</time></trkpt><trkpt lat="43.9207663" lon="12.409796"><ele>367.0</ele><time>2026-03-22T07:20:34.138Z</time></trkpt><trkpt lat="43.9208139" lon="12.4096726"><ele>367.0</ele><time>2026-03-22T07:20:36.135Z</time></trkpt><trkpt lat="43.9208367" lon="12.4095824"><ele>367.0</ele><time>2026-03-22T07:20:38.134Z</time></trkpt><trkpt lat="43.9208615" lon="12.409496"><ele>367.0</ele><time>2026-03-22T07:20:40.126Z</time></trkpt><trkpt lat="43.9208975" lon="12.409384"><ele>366.0</ele><time>2026-03-22T07:20:43.141Z</time></trkpt><trkpt lat="43.9209345" lon="12.4092775"><ele>365.0</ele><time>2026-03-22T07:20:46.114Z</time></trkpt><trkpt lat="43.9209641" lon="12.4091856"><ele>364.0</ele><time>2026-03-22T07:20:49.147Z</time></trkpt><trkpt lat="43.920995" lon="12.4090796"><ele>363.0</ele><time>2026-03-22T07:20:52.147Z</time></trkpt><trkpt lat="43.9210233" lon="12.4089751"><ele>362.0</ele><time>2026-03-22T07:20:55.125Z</time></trkpt><trkpt lat="43.9210432" lon="12.4088593"><ele>361.0</ele><time>2026-03-22T07:20:58.143Z</time></trkpt><trkpt lat="43.9210516" lon="12.4087461"><ele>360.8333333333333</ele><time>2026-03-22T07:21:01.116Z</time></trkpt><trkpt lat="43.9210425" lon="12.4086367"><ele>360.66666666666663</ele><time>2026-03-22T07:21:04.123Z</time></trkpt><trkpt lat="43.9210217" lon="12.4085219"><ele>360.5</ele><time>2026-03-22T07:21:07.07Z</time></trkpt><trkpt lat="43.9209823" lon="12.4084265"><ele>360.3333333333333</ele><time>2026-03-22T07:21:10.133Z</time></trkpt><trkpt lat="43.9209422" lon="12.4083278"><ele>360.1666666666667</ele><time>2026-03-22T07:21:13.124Z</time></trkpt><trkpt lat="43.9208945" lon="12.408232"><ele>360.0</ele><time>2026-03-22T07:21:17.116Z</time></trkpt><trkpt lat="43.9208444" lon="12.4081432"><ele>362.1428571428571</ele><time>2026-03-22T07:21:21.138Z</time></trkpt><trkpt lat="43.9207982" lon="12.4080568"><ele>364.28571428571433</ele><time>2026-03-22T07:21:25.134Z</time></trkpt><trkpt lat="43.920758" lon="12.407989"><ele>366.42857142857144</ele><time>2026-03-22T07:21:29.13Z</time></trkpt><trkpt lat="43.9207034" lon="12.4079146"><ele>368.57142857142856</ele><time>2026-03-22T07:21:34.143Z</time></trkpt><trkpt lat="43.9206511" lon="12.4078514"><ele>370.71428571428567</ele><time>2026-03-22T07:21:41.126Z</time></trkpt><trkpt lat="43.9205885" lon="12.4077942"><ele>372.8571428571429</ele><time>2026-03-22T07:21:46.141Z</time></trkpt><trkpt lat="43.9205316" lon="12.4077558"><ele>375.0</ele><time>2026-03-22T07:21:50.109Z</time></trkpt><trkpt lat="43.920463" lon="12.4077144"><ele>375.7142857142857</ele><time>2026-03-22T07:21:56.125Z</time></trkpt><trkpt lat="43.920393" lon="12.4076805"><ele>376.4285714285714</ele><time>2026-03-22T07:22:01.117Z</time></trkpt><trkpt lat="43.9203247" lon="12.4076595"><ele>377.1428571428571</ele><time>2026-03-22T07:22:06.115Z</time></trkpt><trkpt lat="43.920262" lon="12.4076365"><ele>377.8571428571429</ele><time>2026-03-22T07:22:11.07Z</time></trkpt><trkpt lat="43.9201935" lon="12.4076259"><ele>378.57142857142856</ele><time>2026-03-22T07:22:17.122Z</time></trkpt><trkpt lat="43.9201318" lon="12.4076079"><ele>379.2857142857143</ele><time>2026-03-22T07:22:21.125Z</time></trkpt><trkpt lat="43.9200668" lon="12.4075707"><ele>380.0</ele><time>2026-03-22T07:22:26.121Z</time></trkpt><trkpt lat="43.920002" lon="12.4075395"><ele>381.2857142857143</ele><time>2026-03-22T07:22:30.157Z</time></trkpt><trkpt lat="43.9199404" lon="12.4074834"><ele>382.57142857142856</ele><time>2026-03-22T07:22:35.119Z</time></trkpt><trkpt lat="43.9198947" lon="12.4074034"><ele>383.8571428571429</ele><time>2026-03-22T07:22:40.118Z</time></trkpt><trkpt lat="43.9198607" lon="12.4073274"><ele>385.1428571428571</ele><time>2026-03-22T07:22:45.16Z</time></trkpt><trkpt lat="43.9198257" lon="12.4072313"><ele>386.4285714285714</ele><time>2026-03-22T07:22:50.125Z</time></trkpt><trkpt lat="43.9197925" lon="12.4071391"><ele>387.7142857142857</ele><time>2026-03-22T07:22:55.132Z</time></trkpt><trkpt lat="43.9197601" lon="12.4070615"><ele>389.0</ele><time>2026-03-22T07:22:59.138Z</time></trkpt><trkpt lat="43.9197104" lon="12.4069761"><ele>389.7142857142857</ele><time>2026-03-22T07:23:04.11Z</time></trkpt><trkpt lat="43.9196831" lon="12.4068963"><ele>390.4285714285714</ele><time>2026-03-22T07:23:08.135Z</time></trkpt><trkpt lat="43.9196531" lon="12.4068105"><ele>391.1428571428571</ele><time>2026-03-22T07:23:12.133Z</time></trkpt><trkpt lat="43.9196136" lon="12.406738"><ele>391.8571428571429</ele><time>2026-03-22T07:23:16.133Z</time></trkpt><trkpt lat="43.9195763" lon="12.4066668"><ele>392.57142857142856</ele><time>2026-03-22T07:23:20.147Z</time></trkpt><trkpt lat="43.9195361" lon="12.4065854"><ele>393.2857142857143</ele><time>2026-03-22T07:23:24.144Z</time></trkpt><trkpt lat="43.9194946" lon="12.4065012"><ele>394.0</ele><time>2026-03-22T07:23:28.097Z</time></trkpt><trkpt lat="43.9194593" lon="12.4064101"><ele>394.0</ele><time>2026-03-22T07:23:32.138Z</time></trkpt><trkpt lat="43.9194164" lon="12.4063314"><ele>394.0</ele><time>2026-03-22T07:23:36.132Z</time></trkpt><trkpt lat="43.919382" lon="12.4062364"><ele>394.0</ele><time>2026-03-22T07:23:40.144Z</time></trkpt><trkpt lat="43.9193427" lon="12.4061334"><ele>394.0</ele><time>2026-03-22T07:23:44.131Z</time></trkpt><trkpt lat="43.919306" lon="12.4060501"><ele>394.0</ele><time>2026-03-22T07:23:47.12Z</time></trkpt><trkpt lat="43.919274" lon="12.4059712"><ele>394.0</ele><time>2026-03-22T07:23:50.13Z</time></trkpt><trkpt lat="43.9192491" lon="12.4058815"><ele>394.0</ele><time>2026-03-22T07:23:53.117Z</time></trkpt><trkpt lat="43.9192187" lon="12.4057847"><ele>396.33333333333337</ele><time>2026-03-22T07:23:56.146Z</time></trkpt><trkpt lat="43.919196" lon="12.4056728"><ele>398.6666666666667</ele><time>2026-03-22T07:23:59.159Z</time></trkpt><trkpt lat="43.9191681" lon="12.4055864"><ele>401.0</ele><time>2026-03-22T07:24:01.081Z</time></trkpt><trkpt lat="43.9191276" lon="12.4054691"><ele>403.33333333333337</ele><time>2026-03-22T07:24:03.071Z</time></trkpt><trkpt lat="43.9190851" lon="12.4053758"><ele>405.6666666666667</ele><time>2026-03-22T07:24:05.141Z</time></trkpt><trkpt lat="43.919042" lon="12.4052667"><ele>408.0</ele><time>2026-03-22T07:24:08.121Z</time></trkpt><trkpt lat="43.9190042" lon="12.4051789"><ele>408.0</ele><time>2026-03-22T07:24:11.145Z</time></trkpt><trkpt lat="43.9189675" lon="12.4050783"><ele>408.0</ele><time>2026-03-22T07:24:14.128Z</time></trkpt><trkpt lat="43.9189163" lon="12.404966"><ele>408.0</ele><time>2026-03-22T07:24:17.123Z</time></trkpt><trkpt lat="43.9188605" lon="12.4048639"><ele>408.0</ele><time>2026-03-22T07:24:20.131Z</time></trkpt><trkpt lat="43.9188193" lon="12.4047863"><ele>408.0</ele><time>2026-03-22T07:24:22.142Z</time></trkpt><trkpt lat="43.918762" lon="12.4046899"><ele>408.0</ele><time>2026-03-22T07:24:25.11Z</time></trkpt><trkpt lat="43.9187046" lon="12.404586"><ele>408.0</ele><time>2026-03-22T07:24:28.122Z</time></trkpt><trkpt lat="43.9186685" lon="12.4045109"><ele>408.0</ele><time>2026-03-22T07:24:30.132Z</time></trkpt><trkpt lat="43.9186439" lon="12.4044157"><ele>408.0</ele><time>2026-03-22T07:24:32.135Z</time></trkpt><trkpt lat="43.9186067" lon="12.4043165"><ele>408.0</ele><time>2026-03-22T07:24:34.122Z</time></trkpt><trkpt lat="43.9185763" lon="12.4041997"><ele>408.0</ele><time>2026-03-22T07:24:36.126Z</time></trkpt><trkpt lat="43.9185408" lon="12.4040747"><ele>408.0</ele><time>2026-03-22T07:24:38.107Z</time></trkpt><trkpt lat="43.9184985" lon="12.4039622"><ele>408.0</ele><time>2026-03-22T07:24:40.139Z</time></trkpt><trkpt lat="43.9184778" lon="12.4038686"><ele>408.0</ele><time>2026-03-22T07:24:42.13Z</time></trkpt><trkpt lat="43.9184425" lon="12.403767"><ele>408.0</ele><time>2026-03-22T07:24:46.148Z</time></trkpt><trkpt lat="43.9183882" lon="12.40369"><ele>408.0</ele><time>2026-03-22T07:24:50.14Z</time></trkpt><trkpt lat="43.9183216" lon="12.4036415"><ele>408.0</ele><time>2026-03-22T07:24:54.135Z</time></trkpt><trkpt lat="43.9182468" lon="12.4036019"><ele>408.0</ele><time>2026-03-22T07:24:58.133Z</time></trkpt><trkpt lat="43.9181859" lon="12.4035673"><ele>408.42857142857144</ele><time>2026-03-22T07:25:01.134Z</time></trkpt><trkpt lat="43.9181093" lon="12.4035287"><ele>408.8571428571429</ele><time>2026-03-22T07:25:05.118Z</time></trkpt><trkpt lat="43.9180339" lon="12.4035002"><ele>409.2857142857143</ele><time>2026-03-22T07:25:09.094Z</time></trkpt><trkpt lat="43.917968" lon="12.4034852"><ele>409.7142857142857</ele><time>2026-03-22T07:25:13.13Z</time></trkpt><trkpt lat="43.9179058" lon="12.4034701"><ele>410.1428571428571</ele><time>2026-03-22T07:25:16.145Z</time></trkpt><trkpt lat="43.9178246" lon="12.4034399"><ele>410.57142857142856</ele><time>2026-03-22T07:25:20.151Z</time></trkpt><trkpt lat="43.9177572" lon="12.4034099"><ele>411.0</ele><time>2026-03-22T07:25:23.162Z</time></trkpt><trkpt lat="43.9176872" lon="12.4033911"><ele>411.0</ele><time>2026-03-22T07:25:26.131Z</time></trkpt><trkpt lat="43.9176249" lon="12.4033719"><ele>411.0</ele><time>2026-03-22T07:25:28.114Z</time></trkpt><trkpt lat="43.9175445" lon="12.4033459"><ele>411.0</ele><time>2026-03-22T07:25:31.124Z</time></trkpt><trkpt lat="43.9174568" lon="12.4033081"><ele>411.0</ele><time>2026-03-22T07:25:34.119Z</time></trkpt><trkpt lat="43.9173961" lon="12.4032775"><ele>411.0</ele><time>2026-03-22T07:25:36.067Z</time></trkpt><trkpt lat="43.9173104" lon="12.4032403"><ele>411.0</ele><time>2026-03-22T07:25:39.152Z</time></trkpt><trkpt lat="43.9172351" lon="12.4032095"><ele>412.1428571428571</ele><time>2026-03-22T07:25:42.129Z</time></trkpt><trkpt lat="43.91716" lon="12.4031699"><ele>413.2857142857143</ele><time>2026-03-22T07:25:46.118Z</time></trkpt><trkpt lat="43.9171017" lon="12.4031312"><ele>414.42857142857144</ele><time>2026-03-22T07:25:50.131Z</time></trkpt><trkpt lat="43.9170434" lon="12.4030944"><ele>415.57142857142856</ele><time>2026-03-22T07:25:54.129Z</time></trkpt><trkpt lat="43.9169894" lon="12.4030372"><ele>416.7142857142857</ele><time>2026-03-22T07:25:57.117Z</time></trkpt><trkpt lat="43.9169414" lon="12.4029625"><ele>417.85714285714283</ele><time>2026-03-22T07:26:00.109Z</time></trkpt><trkpt lat="43.9168999" lon="12.4028956"><ele>419.0</ele><time>2026-03-22T07:26:03.134Z</time></trkpt><trkpt lat="43.9168586" lon="12.4027922"><ele>418.99999999999994</ele><time>2026-03-22T07:26:07.141Z</time></trkpt><trkpt lat="43.9168229" lon="12.4026941"><ele>419.0</ele><time>2026-03-22T07:26:11.118Z</time></trkpt><trkpt lat="43.9167925" lon="12.4025962"><ele>419.0</ele><time>2026-03-22T07:26:15.13Z</time></trkpt><trkpt lat="43.9167626" lon="12.4025056"><ele>419.0</ele><time>2026-03-22T07:26:19.148Z</time></trkpt><trkpt lat="43.9167357" lon="12.4024113"><ele>419.0</ele><time>2026-03-22T07:26:23.128Z</time></trkpt><trkpt lat="43.9167103" lon="12.4023262"><ele>418.99999999999994</ele><time>2026-03-22T07:26:27.151Z</time></trkpt><trkpt lat="43.9166887" lon="12.4022324"><ele>419.0</ele><time>2026-03-22T07:26:31.134Z</time></trkpt><trkpt lat="43.9166647" lon="12.4021373"><ele>421.1428571428571</ele><time>2026-03-22T07:26:35.126Z</time></trkpt><trkpt lat="43.9166432" lon="12.402042"><ele>423.2857142857143</ele><time>2026-03-22T07:26:39.144Z</time></trkpt><trkpt lat="43.916605" lon="12.4019591"><ele>425.42857142857144</ele><time>2026-03-22T07:26:43.123Z</time></trkpt><trkpt lat="43.9165807" lon="12.4018654"><ele>427.57142857142856</ele><time>2026-03-22T07:26:47.153Z</time></trkpt><trkpt lat="43.916553" lon="12.4017746"><ele>429.7142857142857</ele><time>2026-03-22T07:26:51.141Z</time></trkpt><trkpt lat="43.9165164" lon="12.4016805"><ele>431.85714285714283</ele><time>2026-03-22T07:26:55.14Z</time></trkpt><trkpt lat="43.9164738" lon="12.401596"><ele>434.0</ele><time>2026-03-22T07:26:59.157Z</time></trkpt><trkpt lat="43.916441" lon="12.4015154"><ele>434.0</ele><time>2026-03-22T07:27:02.141Z</time></trkpt><trkpt lat="43.9164004" lon="12.40143"><ele>434.0</ele><time>2026-03-22T07:27:05.089Z</time></trkpt><trkpt lat="43.916356" lon="12.4013439"><ele>434.0</ele><time>2026-03-22T07:27:08.109Z</time></trkpt><trkpt lat="43.9163155" lon="12.4012546"><ele>434.0</ele><time>2026-03-22T07:27:12.122Z</time></trkpt><trkpt lat="43.9162811" lon="12.4011749"><ele>434.0</ele><time>2026-03-22T07:27:16.129Z</time></trkpt><trkpt lat="43.9162453" lon="12.4010856"><ele>434.0</ele><time>2026-03-22T07:27:21.12Z</time></trkpt><trkpt lat="43.916208" lon="12.4009962"><ele>434.0</ele><time>2026-03-22T07:27:25.157Z</time></trkpt><trkpt lat="43.9161729" lon="12.4009184"><ele>433.8333333333333</ele><time>2026-03-22T07:27:28.137Z</time></trkpt><trkpt lat="43.9161301" lon="12.4008318"><ele>433.66666666666663</ele><time>2026-03-22T07:27:31.119Z</time></trkpt><trkpt lat="43.9160757" lon="12.4007354"><ele>433.5</ele><time>2026-03-22T07:27:34.108Z</time></trkpt><trkpt lat="43.9160169" lon="12.4006553"><ele>433.33333333333337</ele><time>2026-03-22T07:27:37.127Z</time></trkpt><trkpt lat="43.9159592" lon="12.4005764"><ele>433.1666666666667</ele><time>2026-03-22T07:27:41.102Z</time></trkpt><trkpt lat="43.9159005" lon="12.4005243"><ele>433.0</ele><time>2026-03-22T07:27:45.14Z</time></trkpt><trkpt lat="43.9158284" lon="12.4004768"><ele>435.4285714285714</ele><time>2026-03-22T07:27:49.152Z</time></trkpt><trkpt lat="43.9157637" lon="12.4004392"><ele>437.8571428571429</ele><time>2026-03-22T07:27:53.121Z</time></trkpt><trkpt lat="43.915695" lon="12.4003852"><ele>440.28571428571433</ele><time>2026-03-22T07:27:57.125Z</time></trkpt><trkpt lat="43.9156461" lon="12.4003291"><ele>442.7142857142857</ele><time>2026-03-22T07:28:00.135Z</time></trkpt><trkpt lat="43.9156042" lon="12.4002582"><ele>445.14285714285717</ele><time>2026-03-22T07:28:03.108Z</time></trkpt><trkpt lat="43.915559" lon="12.4001791"><ele>447.5714285714286</ele><time>2026-03-22T07:28:06.11Z</time></trkpt><trkpt lat="43.9155075" lon="12.4001065"><ele>450.00000000000006</ele><time>2026-03-22T07:28:09.123Z</time></trkpt><trkpt lat="43.9154593" lon="12.4000378"><ele>450.0</ele><time>2026-03-22T07:28:12.147Z</time></trkpt><trkpt lat="43.9153963" lon="12.3999752"><ele>450.0</ele><time>2026-03-22T07:28:16.096Z</time></trkpt><trkpt lat="43.9153423" lon="12.3999172"><ele>450.0</ele><time>2026-03-22T07:28:20.126Z</time></trkpt><trkpt lat="43.9152773" lon="12.3998737"><ele>450.0</ele><time>2026-03-22T07:28:25.093Z</time></trkpt><trkpt lat="43.91521" lon="12.3998196"><ele>450.0</ele><time>2026-03-22T07:28:30.127Z</time></trkpt><trkpt lat="43.915146" lon="12.3997656"><ele>450.0</ele><time>2026-03-22T07:28:34.13Z</time></trkpt><trkpt lat="43.9150729" lon="12.3997121"><ele>451.57142857142867</ele><time>2026-03-22T07:28:38.093Z</time></trkpt><trkpt lat="43.9150011" lon="12.3996588"><ele>453.14285714285717</ele><time>2026-03-22T07:28:42.125Z</time></trkpt><trkpt lat="43.914942" lon="12.3996026"><ele>454.7142857142858</ele><time>2026-03-22T07:28:46.166Z</time></trkpt><trkpt lat="43.914881" lon="12.3995571"><ele>456.28571428571433</ele><time>2026-03-22T07:28:50.122Z</time></trkpt><trkpt lat="43.9148299" lon="12.399494"><ele>457.8571428571429</ele><time>2026-03-22T07:28:54.117Z</time></trkpt><trkpt lat="43.914794" lon="12.3994086"><ele>459.42857142857144</ele><time>2026-03-22T07:28:59.129Z</time></trkpt><trkpt lat="43.914724" lon="12.3993747"><ele>461.0</ele><time>2026-03-22T07:29:03.121Z</time></trkpt><trkpt lat="43.9146463" lon="12.3993846"><ele>461.0</ele><time>2026-03-22T07:29:06.14Z</time></trkpt><trkpt lat="43.9145748" lon="12.3993919"><ele>461.00000000000006</ele><time>2026-03-22T07:29:09.15Z</time></trkpt><trkpt lat="43.9145014" lon="12.3994086"><ele>461.0</ele><time>2026-03-22T07:29:12.124Z</time></trkpt><trkpt lat="43.9144201" lon="12.3994072"><ele>461.0</ele><time>2026-03-22T07:29:15.066Z</time></trkpt><trkpt lat="43.914357" lon="12.3993888"><ele>461.00000000000006</ele><time>2026-03-22T07:29:18.159Z</time></trkpt><trkpt lat="43.9142769" lon="12.3993593"><ele>461.0</ele><time>2026-03-22T07:29:22.104Z</time></trkpt><trkpt lat="43.9142091" lon="12.399337"><ele>461.0</ele><time>2026-03-22T07:29:25.11Z</time></trkpt><trkpt lat="43.9141496" lon="12.3993016"><ele>461.7142857142857</ele><time>2026-03-22T07:29:28.134Z</time></trkpt><trkpt lat="43.9140793" lon="12.3992884"><ele>462.42857142857144</ele><time>2026-03-22T07:29:32.173Z</time></trkpt><trkpt lat="43.9139983" lon="12.39927"><ele>463.14285714285717</ele><time>2026-03-22T07:29:36.13Z</time></trkpt><trkpt lat="43.91393" lon="12.3992576"><ele>463.8571428571429</ele><time>2026-03-22T07:29:39.111Z</time></trkpt><trkpt lat="43.9138626" lon="12.3992394"><ele>464.57142857142856</ele><time>2026-03-22T07:29:42.11Z</time></trkpt><trkpt lat="43.9138012" lon="12.3992159"><ele>465.28571428571433</ele><time>2026-03-22T07:29:45.122Z</time></trkpt><trkpt lat="43.9137306" lon="12.3991993"><ele>466.0</ele><time>2026-03-22T07:29:48.13Z</time></trkpt><trkpt lat="43.9136511" lon="12.39918"><ele>466.00000000000006</ele><time>2026-03-22T07:29:51.115Z</time></trkpt><trkpt lat="43.9135731" lon="12.3991726"><ele>466.0</ele><time>2026-03-22T07:29:54.119Z</time></trkpt><trkpt lat="43.913496" lon="12.3991517"><ele>466.0</ele><time>2026-03-22T07:29:57.119Z</time></trkpt><trkpt lat="43.9134132" lon="12.3991224"><ele>466.0</ele><time>2026-03-22T07:30:00.146Z</time></trkpt><trkpt lat="43.9133292" lon="12.3990966"><ele>466.00000000000006</ele><time>2026-03-22T07:30:03.142Z</time></trkpt><trkpt lat="43.9132467" lon="12.3990902"><ele>466.0</ele><time>2026-03-22T07:30:06.087Z</time></trkpt><trkpt lat="43.9131725" lon="12.3990956"><ele>467.1666666666667</ele><time>2026-03-22T07:30:09.161Z</time></trkpt><trkpt lat="43.9130993" lon="12.3991158"><ele>468.33333333333337</ele><time>2026-03-22T07:30:12.134Z</time></trkpt><trkpt lat="43.9130285" lon="12.399151"><ele>469.5</ele><time>2026-03-22T07:30:15.122Z</time></trkpt><trkpt lat="43.9129677" lon="12.3992119"><ele>470.66666666666663</ele><time>2026-03-22T07:30:18.126Z</time></trkpt><trkpt lat="43.912911" lon="12.3992955"><ele>471.8333333333333</ele><time>2026-03-22T07:30:21.119Z</time></trkpt><trkpt lat="43.9128636" lon="12.3993876"><ele>473.0</ele><time>2026-03-22T07:30:24.089Z</time></trkpt><trkpt lat="43.9128224" lon="12.3994831"><ele>473.0</ele><time>2026-03-22T07:30:27.139Z</time></trkpt><trkpt lat="43.91278" lon="12.3995772"><ele>473.0</ele><time>2026-03-22T07:30:30.132Z</time></trkpt><trkpt lat="43.9127336" lon="12.3996515"><ele>473.0</ele><time>2026-03-22T07:30:33.088Z</time></trkpt><trkpt lat="43.9126825" lon="12.3997247"><ele>473.0</ele><time>2026-03-22T07:30:36.112Z</time></trkpt><trkpt lat="43.9126326" lon="12.3997934"><ele>473.0</ele><time>2026-03-22T07:30:39.138Z</time></trkpt><trkpt lat="43.9125828" lon="12.3998692"><ele>473.0</ele><time>2026-03-22T07:30:42.116Z</time></trkpt><trkpt lat="43.9125251" lon="12.3999453"><ele>473.0</ele><time>2026-03-22T07:30:45.126Z</time></trkpt><trkpt lat="43.9124663" lon="12.400013"><ele>473.99999999999994</ele><time>2026-03-22T07:30:48.133Z</time></trkpt><trkpt lat="43.9124123" lon="12.4000877"><ele>475.0</ele><time>2026-03-22T07:30:51.084Z</time></trkpt><trkpt lat="43.9123532" lon="12.4001546"><ele>476.0</ele><time>2026-03-22T07:30:54.126Z</time></trkpt><trkpt lat="43.9122977" lon="12.4002161"><ele>477.0</ele><time>2026-03-22T07:30:57.137Z</time></trkpt><trkpt lat="43.912237" lon="12.4002787"><ele>477.99999999999994</ele><time>2026-03-22T07:31:00.145Z</time></trkpt><trkpt lat="43.9121788" lon="12.4003538"><ele>479.0</ele><time>2026-03-22T07:31:03.119Z</time></trkpt><trkpt lat="43.9121192" lon="12.4004217"><ele>478.99999999999994</ele><time>2026-03-22T07:31:06.139Z</time></trkpt><trkpt lat="43.9120556" lon="12.4004878"><ele>479.0</ele><time>2026-03-22T07:31:09.114Z</time></trkpt><trkpt lat="43.9119845" lon="12.400544"><ele>479.0</ele><time>2026-03-22T07:31:12.132Z</time></trkpt><trkpt lat="43.9119186" lon="12.4006041"><ele>479.0</ele><time>2026-03-22T07:31:15.133Z</time></trkpt><trkpt lat="43.9118487" lon="12.4006584"><ele>478.99999999999994</ele><time>2026-03-22T07:31:18.1Z</time></trkpt><trkpt lat="43.9117764" lon="12.400702"><ele>479.0</ele><time>2026-03-22T07:31:21.098Z</time></trkpt><trkpt lat="43.9116968" lon="12.4007431"><ele>480.4</ele><time>2026-03-22T07:31:24.135Z</time></trkpt><trkpt lat="43.9116068" lon="12.4007774"><ele>481.79999999999995</ele><time>2026-03-22T07:31:27.12Z</time></trkpt><trkpt lat="43.9115209" lon="12.4008108"><ele>483.20000000000005</ele><time>2026-03-22T07:31:30.096Z</time></trkpt><trkpt lat="43.9114338" lon="12.4008449"><ele>484.6</ele><time>2026-03-22T07:31:33.132Z</time></trkpt><trkpt lat="43.9113463" lon="12.4008816"><ele>486.0</ele><time>2026-03-22T07:31:36.11Z</time></trkpt><trkpt lat="43.9112585" lon="12.4009092"><ele>486.0</ele><time>2026-03-22T07:31:39.153Z</time></trkpt><trkpt lat="43.9111799" lon="12.4009357"><ele>486.0</ele><time>2026-03-22T07:31:42.12Z</time></trkpt><trkpt lat="43.9110973" lon="12.4009685"><ele>486.0</ele><time>2026-03-22T07:31:45.125Z</time></trkpt><trkpt lat="43.9110181" lon="12.4010047"><ele>486.0</ele><time>2026-03-22T07:31:48.122Z</time></trkpt><trkpt lat="43.9109402" lon="12.4010283"><ele>486.0</ele><time>2026-03-22T07:31:51.112Z</time></trkpt><trkpt lat="43.9108616" lon="12.4010635"><ele>486.0</ele><time>2026-03-22T07:31:54.133Z</time></trkpt><trkpt lat="43.9107781" lon="12.4010894"><ele>487.5</ele><time>2026-03-22T07:31:57.131Z</time></trkpt><trkpt lat="43.910698" lon="12.4011188"><ele>489.0</ele><time>2026-03-22T07:32:00.149Z</time></trkpt><trkpt lat="43.9106098" lon="12.4011354"><ele>490.5</ele><time>2026-03-22T07:32:03.145Z</time></trkpt><trkpt lat="43.9105279" lon="12.4011216"><ele>492.0</ele><time>2026-03-22T07:32:06.115Z</time></trkpt><trkpt lat="43.9104441" lon="12.4011113"><ele>493.5</ele><time>2026-03-22T07:32:09.142Z</time></trkpt><trkpt lat="43.9103525" lon="12.4011044"><ele>495.0</ele><time>2026-03-22T07:32:12.149Z</time></trkpt><trkpt lat="43.9102728" lon="12.4010986"><ele>494.99999999999994</ele><time>2026-03-22T07:32:15.143Z</time></trkpt><trkpt lat="43.9102022" lon="12.4010884"><ele>495.0</ele><time>2026-03-22T07:32:18.13Z</time></trkpt><trkpt lat="43.9101304" lon="12.401084"><ele>494.99999999999994</ele><time>2026-03-22T07:32:21.105Z</time></trkpt><trkpt lat="43.9100645" lon="12.4010742"><ele>494.99999999999994</ele><time>2026-03-22T07:32:24.136Z</time></trkpt><trkpt lat="43.9099932" lon="12.4010695"><ele>495.0</ele><time>2026-03-22T07:32:27.123Z</time></trkpt><trkpt lat="43.9099095" lon="12.4010693"><ele>494.99999999999994</ele><time>2026-03-22T07:32:30.146Z</time></trkpt><trkpt lat="43.9098265" lon="12.401062"><ele>494.99999999999994</ele><time>2026-03-22T07:32:33.158Z</time></trkpt><trkpt lat="43.9097459" lon="12.4010561"><ele>495.8333333333333</ele><time>2026-03-22T07:32:36.122Z</time></trkpt><trkpt lat="43.9096704" lon="12.4010532"><ele>496.66666666666663</ele><time>2026-03-22T07:32:39.135Z</time></trkpt><trkpt lat="43.9095917" lon="12.4010542"><ele>497.5</ele><time>2026-03-22T07:32:42.154Z</time></trkpt><trkpt lat="43.9095071" lon="12.4010558"><ele>498.3333333333333</ele><time>2026-03-22T07:32:45.118Z</time></trkpt><trkpt lat="43.9094298" lon="12.401064"><ele>499.16666666666663</ele><time>2026-03-22T07:32:48.137Z</time></trkpt><trkpt lat="43.9093452" lon="12.4010713"><ele>500.0</ele><time>2026-03-22T07:32:51.107Z</time></trkpt><trkpt lat="43.909265" lon="12.4010983"><ele>500.66666666666663</ele><time>2026-03-22T07:32:54.127Z</time></trkpt><trkpt lat="43.9091886" lon="12.4011278"><ele>501.3333333333333</ele><time>2026-03-22T07:32:57.071Z</time></trkpt><trkpt lat="43.9091148" lon="12.4011665"><ele>502.0</ele><time>2026-03-22T07:33:00.135Z</time></trkpt><trkpt lat="43.9090513" lon="12.40122"><ele>502.66666666666663</ele><time>2026-03-22T07:33:03.092Z</time></trkpt><trkpt lat="43.9089917" lon="12.4012804"><ele>503.3333333333333</ele><time>2026-03-22T07:33:06.121Z</time></trkpt><trkpt lat="43.9089282" lon="12.4013438"><ele>504.0</ele><time>2026-03-22T07:33:09.14Z</time></trkpt><trkpt lat="43.9088753" lon="12.4014067"><ele>504.0</ele><time>2026-03-22T07:33:12.107Z</time></trkpt><trkpt lat="43.9088279" lon="12.4014918"><ele>504.0</ele><time>2026-03-22T07:33:15.134Z</time></trkpt><trkpt lat="43.9087814" lon="12.4015901"><ele>504.0</ele><time>2026-03-22T07:33:18.141Z</time></trkpt><trkpt lat="43.9087454" lon="12.4016853"><ele>504.0</ele><time>2026-03-22T07:33:21.13Z</time></trkpt><trkpt lat="43.9087141" lon="12.4017856"><ele>504.0</ele><time>2026-03-22T07:33:24.09Z</time></trkpt><trkpt lat="43.9086934" lon="12.4018834"><ele>504.0</ele><time>2026-03-22T07:33:27.147Z</time></trkpt><trkpt lat="43.9086754" lon="12.4019878"><ele>504.0</ele><time>2026-03-22T07:33:30.138Z</time></trkpt><trkpt lat="43.9086512" lon="12.4020994"><ele>504.0</ele><time>2026-03-22T07:33:33.071Z</time></trkpt><trkpt lat="43.9086428" lon="12.402215"><ele>504.0</ele><time>2026-03-22T07:33:36.15Z</time></trkpt><trkpt lat="43.9086262" lon="12.4023227"><ele>504.0</ele><time>2026-03-22T07:33:39.094Z</time></trkpt><trkpt lat="43.908611" lon="12.4024299"><ele>504.0</ele><time>2026-03-22T07:33:42.125Z</time></trkpt><trkpt lat="43.9085857" lon="12.4025361"><ele>504.0</ele><time>2026-03-22T07:33:45.124Z</time></trkpt><trkpt lat="43.9085568" lon="12.4026358"><ele>503.6666666666667</ele><time>2026-03-22T07:33:48.109Z</time></trkpt><trkpt lat="43.9085177" lon="12.4027331"><ele>503.33333333333337</ele><time>2026-03-22T07:33:51.125Z</time></trkpt><trkpt lat="43.9084813" lon="12.4028309"><ele>503.0</ele><time>2026-03-22T07:33:54.083Z</time></trkpt><trkpt lat="43.9084519" lon="12.4029482"><ele>502.6666666666667</ele><time>2026-03-22T07:33:57.137Z</time></trkpt><trkpt lat="43.9084264" lon="12.4030606"><ele>502.33333333333337</ele><time>2026-03-22T07:34:00.146Z</time></trkpt><trkpt lat="43.9084022" lon="12.4031739"><ele>502.0</ele><time>2026-03-22T07:34:03.101Z</time></trkpt><trkpt lat="43.9083809" lon="12.4032762"><ele>505.33333333333337</ele><time>2026-03-22T07:34:06.126Z</time></trkpt><trkpt lat="43.9083638" lon="12.4033878"><ele>508.6666666666667</ele><time>2026-03-22T07:34:09.144Z</time></trkpt><trkpt lat="43.9083545" lon="12.4035165"><ele>512.0</ele><time>2026-03-22T07:34:12.138Z</time></trkpt><trkpt lat="43.9083478" lon="12.4036363"><ele>515.3333333333334</ele><time>2026-03-22T07:34:15.131Z</time></trkpt><trkpt lat="43.9083521" lon="12.4037505"><ele>518.6666666666666</ele><time>2026-03-22T07:34:18.122Z</time></trkpt><trkpt lat="43.908356" lon="12.4038706"><ele>522.0</ele><time>2026-03-22T07:34:21.132Z</time></trkpt><trkpt lat="43.908361" lon="12.4039832"><ele>522.0</ele><time>2026-03-22T07:34:24.124Z</time></trkpt><trkpt lat="43.9083711" lon="12.4040943"><ele>522.0</ele><time>2026-03-22T07:34:27.141Z</time></trkpt><trkpt lat="43.9083608" lon="12.4042222"><ele>522.0</ele><time>2026-03-22T07:34:30.127Z</time></trkpt><trkpt lat="43.9083381" lon="12.4043478"><ele>522.0</ele><time>2026-03-22T07:34:33.134Z</time></trkpt><trkpt lat="43.9082973" lon="12.4044193"><ele>522.0</ele><time>2026-03-22T07:34:35.129Z</time></trkpt><trkpt lat="43.9082406" lon="12.4044735"><ele>522.0</ele><time>2026-03-22T07:34:37.138Z</time></trkpt><trkpt lat="43.9081699" lon="12.4045544"><ele>522.0</ele><time>2026-03-22T07:34:40.102Z</time></trkpt><trkpt lat="43.9081132" lon="12.4045963"><ele>522.0</ele><time>2026-03-22T07:34:42.106Z</time></trkpt><trkpt lat="43.9080386" lon="12.4046638"><ele>522.0</ele><time>2026-03-22T07:34:45.148Z</time></trkpt><trkpt lat="43.9079797" lon="12.4046963"><ele>522.0</ele><time>2026-03-22T07:34:47.117Z</time></trkpt><trkpt lat="43.9078891" lon="12.4047303"><ele>522.0</ele><time>2026-03-22T07:34:50.143Z</time></trkpt><trkpt lat="43.9078219" lon="12.4047532"><ele>522.0</ele><time>2026-03-22T07:34:52.076Z</time></trkpt><trkpt lat="43.9077416" lon="12.4047794"><ele>521.3333333333334</ele><time>2026-03-22T07:34:54.131Z</time></trkpt><trkpt lat="43.9076755" lon="12.4048149"><ele>520.6666666666666</ele><time>2026-03-22T07:34:56.128Z</time></trkpt><trkpt lat="43.9075936" lon="12.4048528"><ele>520.0</ele><time>2026-03-22T07:34:58.131Z</time></trkpt><trkpt lat="43.9075219" lon="12.4049193"><ele>519.3333333333333</ele><time>2026-03-22T07:35:00.095Z</time></trkpt><trkpt lat="43.9074587" lon="12.4049181"><ele>518.6666666666666</ele><time>2026-03-22T07:35:02.093Z</time></trkpt><trkpt lat="43.9073852" lon="12.4048795"><ele>518.0</ele><time>2026-03-22T07:35:04.143Z</time></trkpt><trkpt lat="43.907322" lon="12.4048255"><ele>518.0</ele><time>2026-03-22T07:35:05.12Z</time></trkpt><trkpt lat="43.9072194" lon="12.4047402"><ele>518.0</ele><time>2026-03-22T07:35:07.1Z</time></trkpt><trkpt lat="43.9071623" lon="12.4046735"><ele>518.0</ele><time>2026-03-22T07:35:08.102Z</time></trkpt><trkpt lat="43.9071038" lon="12.4045947"><ele>518.0</ele><time>2026-03-22T07:35:09.136Z</time></trkpt><trkpt lat="43.9070282" lon="12.4045113"><ele>518.0</ele><time>2026-03-22T07:35:10.134Z</time></trkpt><trkpt lat="43.9069587" lon="12.4044043"><ele>517.6</ele><time>2026-03-22T07:35:11.123Z</time></trkpt><trkpt lat="43.906891" lon="12.4042933"><ele>517.1999999999999</ele><time>2026-03-22T07:35:12.094Z</time></trkpt><trkpt lat="43.9068244" lon="12.4041671"><ele>516.8</ele><time>2026-03-22T07:35:13.127Z</time></trkpt><trkpt lat="43.906776" lon="12.4040545"><ele>516.4</ele><time>2026-03-22T07:35:14.134Z</time></trkpt><trkpt lat="43.9067218" lon="12.4039539"><ele>516.0</ele><time>2026-03-22T07:35:15.127Z</time></trkpt><trkpt lat="43.9066789" lon="12.403875"><ele>516.0</ele><time>2026-03-22T07:35:16.16Z</time></trkpt><trkpt lat="43.9065206" lon="12.4039467"><ele>516.0</ele><time>2026-03-22T07:35:18.109Z</time></trkpt><trkpt lat="43.9064609" lon="12.4040323"><ele>516.0</ele><time>2026-03-22T07:35:19.147Z</time></trkpt><trkpt lat="43.9064177" lon="12.4041214"><ele>516.0</ele><time>2026-03-22T07:35:20.127Z</time></trkpt><trkpt lat="43.9063946" lon="12.4042167"><ele>516.0</ele><time>2026-03-22T07:35:21.121Z</time></trkpt><trkpt lat="43.9063714" lon="12.4043377"><ele>516.0</ele><time>2026-03-22T07:35:22.12Z</time></trkpt><trkpt lat="43.9063589" lon="12.4044684"><ele>516.0</ele><time>2026-03-22T07:35:23.123Z</time></trkpt><trkpt lat="43.9063497" lon="12.4046193"><ele>516.0</ele><time>2026-03-22T07:35:24.116Z</time></trkpt><trkpt lat="43.9063385" lon="12.4047666"><ele>516.0</ele><time>2026-03-22T07:35:25.125Z</time></trkpt><trkpt lat="43.9063123" lon="12.4049012"><ele>516.0</ele><time>2026-03-22T07:35:26.125Z</time></trkpt><trkpt lat="43.9062608" lon="12.405031"><ele>514.2</ele><time>2026-03-22T07:35:27.122Z</time></trkpt><trkpt lat="43.9061922" lon="12.4051516"><ele>512.4000000000001</ele><time>2026-03-22T07:35:28.121Z</time></trkpt><trkpt lat="43.906118" lon="12.4052607"><ele>510.6</ele><time>2026-03-22T07:35:29.142Z</time></trkpt><trkpt lat="43.9060369" lon="12.4053581"><ele>508.8</ele><time>2026-03-22T07:35:30.119Z</time></trkpt><trkpt lat="43.9059511" lon="12.4054453"><ele>507.0</ele><time>2026-03-22T07:35:31.124Z</time></trkpt><trkpt lat="43.905871" lon="12.4055252"><ele>505.0</ele><time>2026-03-22T07:35:32.123Z</time></trkpt><trkpt lat="43.9057883" lon="12.4056049"><ele>503.00000000000006</ele><time>2026-03-22T07:35:33.118Z</time></trkpt><trkpt lat="43.9057113" lon="12.4056728"><ele>501.00000000000006</ele><time>2026-03-22T07:35:34.09Z</time></trkpt><trkpt lat="43.9056261" lon="12.405742"><ele>499.0</ele><time>2026-03-22T07:35:35.124Z</time></trkpt><trkpt lat="43.9055409" lon="12.4058012"><ele>497.0</ele><time>2026-03-22T07:35:36.091Z</time></trkpt><trkpt lat="43.9054589" lon="12.4058476"><ele>497.0</ele><time>2026-03-22T07:35:37.115Z</time></trkpt><trkpt lat="43.9053733" lon="12.4058882"><ele>497.00000000000006</ele><time>2026-03-22T07:35:38.119Z</time></trkpt><trkpt lat="43.9052803" lon="12.4059168"><ele>497.00000000000006</ele><time>2026-03-22T07:35:39.134Z</time></trkpt><trkpt lat="43.9051877" lon="12.4059411"><ele>497.0</ele><time>2026-03-22T07:35:40.112Z</time></trkpt><trkpt lat="43.9050937" lon="12.4059423"><ele>497.0</ele><time>2026-03-22T07:35:41.127Z</time></trkpt><trkpt lat="43.9050086" lon="12.4059379"><ele>497.3333333333333</ele><time>2026-03-22T07:35:42.127Z</time></trkpt><trkpt lat="43.904924" lon="12.4059313"><ele>497.66666666666663</ele><time>2026-03-22T07:35:43.128Z</time></trkpt><trkpt lat="43.9048388" lon="12.405936"><ele>498.0</ele><time>2026-03-22T07:35:44.127Z</time></trkpt><trkpt lat="43.9047569" lon="12.4059311"><ele>498.33333333333337</ele><time>2026-03-22T07:35:45.12Z</time></trkpt><trkpt lat="43.9046787" lon="12.405919"><ele>498.6666666666667</ele><time>2026-03-22T07:35:46.123Z</time></trkpt><trkpt lat="43.9046026" lon="12.4059047"><ele>499.0</ele><time>2026-03-22T07:35:47.116Z</time></trkpt><trkpt lat="43.904536" lon="12.4058908"><ele>499.00000000000006</ele><time>2026-03-22T07:35:48.13Z</time></trkpt><trkpt lat="43.9044682" lon="12.40587"><ele>499.0</ele><time>2026-03-22T07:35:49.135Z</time></trkpt><trkpt lat="43.9044055" lon="12.4058524"><ele>499.0</ele><time>2026-03-22T07:35:50.127Z</time></trkpt><trkpt lat="43.9043428" lon="12.4058371"><ele>499.0</ele><time>2026-03-22T07:35:51.114Z</time></trkpt><trkpt lat="43.9042778" lon="12.4058252"><ele>499.00000000000006</ele><time>2026-03-22T07:35:52.124Z</time></trkpt><trkpt lat="43.9042074" lon="12.4058055"><ele>499.0</ele><time>2026-03-22T07:35:53.098Z</time></trkpt><trkpt lat="43.9040901" lon="12.4057751"><ele>499.6</ele><time>2026-03-22T07:35:55.132Z</time></trkpt><trkpt lat="43.903964" lon="12.4057548"><ele>500.2</ele><time>2026-03-22T07:35:57.107Z</time></trkpt><trkpt lat="43.9038946" lon="12.4057497"><ele>500.80000000000007</ele><time>2026-03-22T07:35:58.13Z</time></trkpt><trkpt lat="43.9037699" lon="12.40574"><ele>501.40000000000003</ele><time>2026-03-22T07:36:00.07Z</time></trkpt><trkpt lat="43.9037066" lon="12.4057314"><ele>502.0</ele><time>2026-03-22T07:36:01.112Z</time></trkpt><trkpt lat="43.9036407" lon="12.4057253"><ele>501.99999999999994</ele><time>2026-03-22T07:36:02.108Z</time></trkpt><trkpt lat="43.9035707" lon="12.4057287"><ele>502.0</ele><time>2026-03-22T07:36:03.135Z</time></trkpt><trkpt lat="43.9035046" lon="12.4057488"><ele>501.99999999999994</ele><time>2026-03-22T07:36:04.116Z</time></trkpt><trkpt lat="43.9034389" lon="12.4057795"><ele>501.99999999999994</ele><time>2026-03-22T07:36:05.127Z</time></trkpt><trkpt lat="43.9033759" lon="12.4058212"><ele>502.0</ele><time>2026-03-22T07:36:06.14Z</time></trkpt><trkpt lat="43.9033228" lon="12.4058997"><ele>501.99999999999994</ele><time>2026-03-22T07:36:07.137Z</time></trkpt><trkpt lat="43.9032775" lon="12.4059779"><ele>501.99999999999994</ele><time>2026-03-22T07:36:08.143Z</time></trkpt><trkpt lat="43.9032273" lon="12.4060597"><ele>502.00000000000006</ele><time>2026-03-22T07:36:09.102Z</time></trkpt><trkpt lat="43.9031786" lon="12.4061422"><ele>502.0</ele><time>2026-03-22T07:36:10.145Z</time></trkpt><trkpt lat="43.9031221" lon="12.4062193"><ele>502.0</ele><time>2026-03-22T07:36:11.117Z</time></trkpt><trkpt lat="43.9030597" lon="12.4062913"><ele>502.0</ele><time>2026-03-22T07:36:12.154Z</time></trkpt><trkpt lat="43.903002" lon="12.4063515"><ele>502.00000000000006</ele><time>2026-03-22T07:36:13.112Z</time></trkpt><trkpt lat="43.9029378" lon="12.4064208"><ele>502.0</ele><time>2026-03-22T07:36:14.11Z</time></trkpt><trkpt lat="43.9028701" lon="12.4064747"><ele>503.00000000000006</ele><time>2026-03-22T07:36:15.144Z</time></trkpt><trkpt lat="43.9028045" lon="12.4065319"><ele>504.0</ele><time>2026-03-22T07:36:16.125Z</time></trkpt><trkpt lat="43.9027415" lon="12.4065972"><ele>505.0</ele><time>2026-03-22T07:36:17.134Z</time></trkpt><trkpt lat="43.9026908" lon="12.4066758"><ele>506.0</ele><time>2026-03-22T07:36:18.147Z</time></trkpt><trkpt lat="43.9026497" lon="12.4067592"><ele>507.00000000000006</ele><time>2026-03-22T07:36:19.124Z</time></trkpt><trkpt lat="43.90261" lon="12.4068538"><ele>508.0</ele><time>2026-03-22T07:36:20.133Z</time></trkpt><trkpt lat="43.9025631" lon="12.4069576"><ele>506.00000000000006</ele><time>2026-03-22T07:36:21.136Z</time></trkpt><trkpt lat="43.9025312" lon="12.4070636"><ele>504.0</ele><time>2026-03-22T07:36:22.14Z</time></trkpt><trkpt lat="43.9024957" lon="12.4071773"><ele>502.0</ele><time>2026-03-22T07:36:23.129Z</time></trkpt><trkpt lat="43.9024704" lon="12.4072849"><ele>500.0</ele><time>2026-03-22T07:36:24.141Z</time></trkpt><trkpt lat="43.902439" lon="12.4073983"><ele>498.00000000000006</ele><time>2026-03-22T07:36:25.127Z</time></trkpt><trkpt lat="43.9024113" lon="12.4075084"><ele>496.0</ele><time>2026-03-22T07:36:26.107Z</time></trkpt><trkpt lat="43.9023781" lon="12.4076123"><ele>496.00000000000006</ele><time>2026-03-22T07:36:27.127Z</time></trkpt><trkpt lat="43.9023461" lon="12.4077209"><ele>496.0</ele><time>2026-03-22T07:36:28.132Z</time></trkpt><trkpt lat="43.9023139" lon="12.4078225"><ele>496.0</ele><time>2026-03-22T07:36:29.143Z</time></trkpt><trkpt lat="43.9022781" lon="12.4079263"><ele>496.0</ele><time>2026-03-22T07:36:30.139Z</time></trkpt><trkpt lat="43.9022503" lon="12.4080333"><ele>496.00000000000006</ele><time>2026-03-22T07:36:31.159Z</time></trkpt><trkpt lat="43.9022236" lon="12.4081334"><ele>496.0</ele><time>2026-03-22T07:36:32.132Z</time></trkpt><trkpt lat="43.9021962" lon="12.4082385"><ele>495.83333333333337</ele><time>2026-03-22T07:36:33.142Z</time></trkpt><trkpt lat="43.9021758" lon="12.4083492"><ele>495.6666666666667</ele><time>2026-03-22T07:36:34.15Z</time></trkpt><trkpt lat="43.9021521" lon="12.4084602"><ele>495.5</ele><time>2026-03-22T07:36:35.137Z</time></trkpt><trkpt lat="43.9021387" lon="12.4085726"><ele>495.33333333333337</ele><time>2026-03-22T07:36:36.154Z</time></trkpt><trkpt lat="43.90212" lon="12.4086833"><ele>495.1666666666667</ele><time>2026-03-22T07:36:37.132Z</time></trkpt><trkpt lat="43.902098" lon="12.4087965"><ele>495.0</ele><time>2026-03-22T07:36:38.13Z</time></trkpt><trkpt lat="43.9020769" lon="12.4089026"><ele>494.71428571428567</ele><time>2026-03-22T07:36:39.075Z</time></trkpt><trkpt lat="43.9020509" lon="12.4090075"><ele>494.42857142857144</ele><time>2026-03-22T07:36:40.135Z</time></trkpt><trkpt lat="43.9020242" lon="12.4091192"><ele>494.1428571428571</ele><time>2026-03-22T07:36:41.133Z</time></trkpt><trkpt lat="43.9019942" lon="12.4092142"><ele>493.85714285714283</ele><time>2026-03-22T07:36:42.114Z</time></trkpt><trkpt lat="43.9019625" lon="12.4093027"><ele>493.57142857142856</ele><time>2026-03-22T07:36:43.125Z</time></trkpt><trkpt lat="43.9019328" lon="12.4093836"><ele>493.2857142857143</ele><time>2026-03-22T07:36:44.142Z</time></trkpt><trkpt lat="43.9019029" lon="12.4094719"><ele>493.0</ele><time>2026-03-22T07:36:45.13Z</time></trkpt><trkpt lat="43.9018718" lon="12.4095565"><ele>492.25</ele><time>2026-03-22T07:36:46.103Z</time></trkpt><trkpt lat="43.9018139" lon="12.409696"><ele>491.5</ele><time>2026-03-22T07:36:48.135Z</time></trkpt><trkpt lat="43.9017497" lon="12.4098335"><ele>490.75</ele><time>2026-03-22T07:36:50.079Z</time></trkpt><trkpt lat="43.9016805" lon="12.4099729"><ele>490.0</ele><time>2026-03-22T07:36:52.142Z</time></trkpt><trkpt lat="43.9016113" lon="12.410113"><ele>490.00000000000006</ele><time>2026-03-22T07:36:54.117Z</time></trkpt><trkpt lat="43.9015231" lon="12.4102409"><ele>490.0</ele><time>2026-03-22T07:36:56.117Z</time></trkpt><trkpt lat="43.9014738" lon="12.4103082"><ele>490.0</ele><time>2026-03-22T07:36:57.123Z</time></trkpt><trkpt lat="43.9013788" lon="12.4104111"><ele>490.0</ele><time>2026-03-22T07:36:59.133Z</time></trkpt><trkpt lat="43.9013268" lon="12.41047"><ele>490.00000000000006</ele><time>2026-03-22T07:37:00.137Z</time></trkpt><trkpt lat="43.9012759" lon="12.4105231"><ele>490.0</ele><time>2026-03-22T07:37:01.123Z</time></trkpt><trkpt lat="43.9012239" lon="12.4105737"><ele>490.50000000000006</ele><time>2026-03-22T07:37:02.129Z</time></trkpt><trkpt lat="43.9011681" lon="12.4106209"><ele>491.0</ele><time>2026-03-22T07:37:03.135Z</time></trkpt><trkpt lat="43.9011093" lon="12.4106627"><ele>491.5</ele><time>2026-03-22T07:37:04.125Z</time></trkpt><trkpt lat="43.9010438" lon="12.4107037"><ele>492.0</ele><time>2026-03-22T07:37:05.124Z</time></trkpt><trkpt lat="43.9009799" lon="12.410734"><ele>492.50000000000006</ele><time>2026-03-22T07:37:06.126Z</time></trkpt><trkpt lat="43.9008545" lon="12.4107782"><ele>493.0</ele><time>2026-03-22T07:37:08.125Z</time></trkpt><trkpt lat="43.9007414" lon="12.4108244"><ele>493.0</ele><time>2026-03-22T07:37:10.143Z</time></trkpt><trkpt lat="43.9006797" lon="12.4108475"><ele>492.99999999999994</ele><time>2026-03-22T07:37:11.125Z</time></trkpt><trkpt lat="43.900567" lon="12.4109099"><ele>492.99999999999994</ele><time>2026-03-22T07:37:13.139Z</time></trkpt><trkpt lat="43.900455" lon="12.4109945"><ele>493.0</ele><time>2026-03-22T07:37:15.144Z</time></trkpt><trkpt lat="43.9003949" lon="12.4110329"><ele>493.0</ele><time>2026-03-22T07:37:16.145Z</time></trkpt><trkpt lat="43.9003001" lon="12.4111313"><ele>493.0</ele><time>2026-03-22T07:37:18.129Z</time></trkpt><trkpt lat="43.9002582" lon="12.4111975"><ele>492.99999999999994</ele><time>2026-03-22T07:37:19.151Z</time></trkpt><trkpt lat="43.9001934" lon="12.4113388"><ele>492.99999999999994</ele><time>2026-03-22T07:37:21.136Z</time></trkpt><trkpt lat="43.9001576" lon="12.4115009"><ele>493.0</ele><time>2026-03-22T07:37:23.115Z</time></trkpt><trkpt lat="43.9001585" lon="12.4115931"><ele>493.0</ele><time>2026-03-22T07:37:24.145Z</time></trkpt><trkpt lat="43.9001698" lon="12.4117703"><ele>493.0</ele><time>2026-03-22T07:37:26.129Z</time></trkpt><trkpt lat="43.9001866" lon="12.411858"><ele>493.0</ele><time>2026-03-22T07:37:27.129Z</time></trkpt><trkpt lat="43.9002107" lon="12.4119421"><ele>493.0</ele><time>2026-03-22T07:37:28.13Z</time></trkpt><trkpt lat="43.9002348" lon="12.4120285"><ele>493.0</ele><time>2026-03-22T07:37:29.137Z</time></trkpt><trkpt lat="43.9002639" lon="12.4121122"><ele>493.0</ele><time>2026-03-22T07:37:30.128Z</time></trkpt><trkpt lat="43.9002944" lon="12.4121997"><ele>493.0</ele><time>2026-03-22T07:37:31.12Z</time></trkpt><trkpt lat="43.9003307" lon="12.412289"><ele>493.0</ele><time>2026-03-22T07:37:32.065Z</time></trkpt><trkpt lat="43.9003694" lon="12.4123753"><ele>493.0</ele><time>2026-03-22T07:37:33.123Z</time></trkpt><trkpt lat="43.9004053" lon="12.4124624"><ele>493.0</ele><time>2026-03-22T07:37:34.137Z</time></trkpt><trkpt lat="43.9004381" lon="12.4125504"><ele>493.0</ele><time>2026-03-22T07:37:35.143Z</time></trkpt><trkpt lat="43.9004739" lon="12.4126324"><ele>493.0</ele><time>2026-03-22T07:37:36.141Z</time></trkpt><trkpt lat="43.9004979" lon="12.41272"><ele>493.0</ele><time>2026-03-22T07:37:37.124Z</time></trkpt><trkpt lat="43.9005119" lon="12.4128126"><ele>493.0</ele><time>2026-03-22T07:37:38.12Z</time></trkpt><trkpt lat="43.9005158" lon="12.4129094"><ele>493.0</ele><time>2026-03-22T07:37:39.123Z</time></trkpt><trkpt lat="43.9005139" lon="12.4130789"><ele>492.79999999999995</ele><time>2026-03-22T07:37:41.121Z</time></trkpt><trkpt lat="43.900487" lon="12.4132451"><ele>492.59999999999997</ele><time>2026-03-22T07:37:43.097Z</time></trkpt><trkpt lat="43.9004557" lon="12.4133844"><ele>492.40000000000003</ele><time>2026-03-22T07:37:45.126Z</time></trkpt><trkpt lat="43.9004029" lon="12.413499"><ele>492.20000000000005</ele><time>2026-03-22T07:37:47.13Z</time></trkpt><trkpt lat="43.9003392" lon="12.4135981"><ele>492.0</ele><time>2026-03-22T07:37:49.113Z</time></trkpt><trkpt lat="43.9002598" lon="12.4136857"><ele>492.0</ele><time>2026-03-22T07:37:51.135Z</time></trkpt><trkpt lat="43.9001801" lon="12.413728"><ele>492.0</ele><time>2026-03-22T07:37:53.114Z</time></trkpt><trkpt lat="43.9001028" lon="12.4137912"><ele>492.0</ele><time>2026-03-22T07:37:55.124Z</time></trkpt><trkpt lat="43.9000279" lon="12.4138273"><ele>492.0</ele><time>2026-03-22T07:37:57.129Z</time></trkpt><trkpt lat="43.8999573" lon="12.4138625"><ele>492.0</ele><time>2026-03-22T07:37:59.142Z</time></trkpt><trkpt lat="43.8998917" lon="12.4138895"><ele>492.0</ele><time>2026-03-22T07:38:01.138Z</time></trkpt><trkpt lat="43.899837" lon="12.4139345"><ele>492.4285714285715</ele><time>2026-03-22T07:38:03.14Z</time></trkpt><trkpt lat="43.8997924" lon="12.4140046"><ele>492.8571428571429</ele><time>2026-03-22T07:38:05.114Z</time></trkpt><trkpt lat="43.8997512" lon="12.414078"><ele>493.2857142857143</ele><time>2026-03-22T07:38:07.141Z</time></trkpt><trkpt lat="43.8997362" lon="12.4141811"><ele>493.7142857142857</ele><time>2026-03-22T07:38:09.125Z</time></trkpt><trkpt lat="43.8997403" lon="12.4142903"><ele>494.1428571428571</ele><time>2026-03-22T07:38:11.128Z</time></trkpt><trkpt lat="43.8997496" lon="12.414398"><ele>494.5714285714285</ele><time>2026-03-22T07:38:13.154Z</time></trkpt><trkpt lat="43.8997631" lon="12.4144977"><ele>494.99999999999994</ele><time>2026-03-22T07:38:15.144Z</time></trkpt><trkpt lat="43.8997862" lon="12.414597"><ele>495.71428571428567</ele><time>2026-03-22T07:38:17.106Z</time></trkpt><trkpt lat="43.8998037" lon="12.414696"><ele>496.42857142857144</ele><time>2026-03-22T07:38:19.128Z</time></trkpt><trkpt lat="43.8998256" lon="12.4147882"><ele>497.1428571428571</ele><time>2026-03-22T07:38:21.131Z</time></trkpt><trkpt lat="43.8998397" lon="12.4148814"><ele>497.85714285714283</ele><time>2026-03-22T07:38:23.136Z</time></trkpt><trkpt lat="43.8998577" lon="12.4149747"><ele>498.57142857142856</ele><time>2026-03-22T07:38:25.124Z</time></trkpt><trkpt lat="43.8998743" lon="12.4150701"><ele>499.2857142857143</ele><time>2026-03-22T07:38:27.131Z</time></trkpt><trkpt lat="43.8998847" lon="12.4152017"><ele>500.0</ele><time>2026-03-22T07:38:30.13Z</time></trkpt><trkpt lat="43.8998935" lon="12.4152897"><ele>500.0</ele><time>2026-03-22T07:38:32.115Z</time></trkpt><trkpt lat="43.8998951" lon="12.415417"><ele>500.0</ele><time>2026-03-22T07:38:35.121Z</time></trkpt><trkpt lat="43.8998826" lon="12.4155067"><ele>500.0</ele><time>2026-03-22T07:38:37.108Z</time></trkpt><trkpt lat="43.8998669" lon="12.415632"><ele>500.0</ele><time>2026-03-22T07:38:40.119Z</time></trkpt><trkpt lat="43.8998439" lon="12.4157191"><ele>500.0</ele><time>2026-03-22T07:38:42.132Z</time></trkpt><trkpt lat="43.8998146" lon="12.4157966"><ele>500.0</ele><time>2026-03-22T07:38:44.133Z</time></trkpt><trkpt lat="43.8997959" lon="12.4158803"><ele>500.0</ele><time>2026-03-22T07:38:46.107Z</time></trkpt><trkpt lat="43.899765" lon="12.41596"><ele>500.71428571428567</ele><time>2026-03-22T07:38:48.126Z</time></trkpt><trkpt lat="43.8997379" lon="12.4160479"><ele>501.42857142857144</ele><time>2026-03-22T07:38:50.128Z</time></trkpt><trkpt lat="43.8996962" lon="12.4161239"><ele>502.1428571428571</ele><time>2026-03-22T07:38:52.144Z</time></trkpt><trkpt lat="43.8996598" lon="12.4162048"><ele>502.85714285714283</ele><time>2026-03-22T07:38:54.133Z</time></trkpt><trkpt lat="43.8996175" lon="12.4162738"><ele>503.57142857142856</ele><time>2026-03-22T07:38:56.159Z</time></trkpt><trkpt lat="43.8995437" lon="12.4163604"><ele>504.2857142857143</ele><time>2026-03-22T07:38:59.123Z</time></trkpt><trkpt lat="43.8994926" lon="12.4164189"><ele>505.0</ele><time>2026-03-22T07:39:01.121Z</time></trkpt><trkpt lat="43.8994401" lon="12.4164687"><ele>505.6666666666667</ele><time>2026-03-22T07:39:03.146Z</time></trkpt><trkpt lat="43.8993833" lon="12.4165218"><ele>506.33333333333337</ele><time>2026-03-22T07:39:05.126Z</time></trkpt><trkpt lat="43.8993262" lon="12.4165735"><ele>507.0</ele><time>2026-03-22T07:39:07.125Z</time></trkpt><trkpt lat="43.8992602" lon="12.4166232"><ele>507.66666666666663</ele><time>2026-03-22T07:39:09.124Z</time></trkpt><trkpt lat="43.8991829" lon="12.4166781"><ele>508.3333333333333</ele><time>2026-03-22T07:39:12.125Z</time></trkpt><trkpt lat="43.8991059" lon="12.4167319"><ele>509.0</ele><time>2026-03-22T07:39:15.108Z</time></trkpt><trkpt lat="43.8990344" lon="12.4167775"><ele>508.99999999999994</ele><time>2026-03-22T07:39:18.127Z</time></trkpt><trkpt lat="43.8989649" lon="12.4168383"><ele>509.0</ele><time>2026-03-22T07:39:21.112Z</time></trkpt><trkpt lat="43.8989027" lon="12.4169046"><ele>509.0</ele><time>2026-03-22T07:39:24.138Z</time></trkpt><trkpt lat="43.8988436" lon="12.4169778"><ele>509.0</ele><time>2026-03-22T07:39:27.134Z</time></trkpt><trkpt lat="43.898794" lon="12.4170581"><ele>508.99999999999994</ele><time>2026-03-22T07:39:30.128Z</time></trkpt><trkpt lat="43.8987284" lon="12.4171382"><ele>509.0</ele><time>2026-03-22T07:39:33.113Z</time></trkpt><trkpt lat="43.8986687" lon="12.417212"><ele>510.16666666666663</ele><time>2026-03-22T07:39:36.119Z</time></trkpt><trkpt lat="43.8986079" lon="12.4172891"><ele>511.3333333333333</ele><time>2026-03-22T07:39:39.149Z</time></trkpt><trkpt lat="43.8985439" lon="12.4173692"><ele>512.5</ele><time>2026-03-22T07:39:42.095Z</time></trkpt><trkpt lat="43.8984806" lon="12.417445"><ele>513.6666666666666</ele><time>2026-03-22T07:39:45.121Z</time></trkpt><trkpt lat="43.8984159" lon="12.4175047"><ele>514.8333333333334</ele><time>2026-03-22T07:39:48.136Z</time></trkpt><trkpt lat="43.8983478" lon="12.4175508"><ele>516.0</ele><time>2026-03-22T07:39:51.122Z</time></trkpt><trkpt lat="43.8982705" lon="12.4175999"><ele>516.0</ele><time>2026-03-22T07:39:54.135Z</time></trkpt><trkpt lat="43.898199" lon="12.4176405"><ele>516.0</ele><time>2026-03-22T07:39:57.125Z</time></trkpt><trkpt lat="43.898121" lon="12.4176747"><ele>516.0</ele><time>2026-03-22T07:40:00.134Z</time></trkpt><trkpt lat="43.8980424" lon="12.4177019"><ele>516.0</ele><time>2026-03-22T07:40:03.135Z</time></trkpt><trkpt lat="43.8979594" lon="12.4177194"><ele>516.0</ele><time>2026-03-22T07:40:06.143Z</time></trkpt><trkpt lat="43.8978776" lon="12.4177456"><ele>516.0</ele><time>2026-03-22T07:40:09.132Z</time></trkpt><trkpt lat="43.8977986" lon="12.417786"><ele>516.0</ele><time>2026-03-22T07:40:12.121Z</time></trkpt><trkpt lat="43.8977171" lon="12.4178251"><ele>516.0</ele><time>2026-03-22T07:40:15.131Z</time></trkpt><trkpt lat="43.8976347" lon="12.4178807"><ele>516.0</ele><time>2026-03-22T07:40:18.132Z</time></trkpt><trkpt lat="43.8975527" lon="12.4179347"><ele>516.0</ele><time>2026-03-22T07:40:21.139Z</time></trkpt><trkpt lat="43.8974741" lon="12.4179822"><ele>516.0</ele><time>2026-03-22T07:40:24.132Z</time></trkpt><trkpt lat="43.8973966" lon="12.4180269"><ele>516.0</ele><time>2026-03-22T07:40:27.109Z</time></trkpt><trkpt lat="43.897335" lon="12.4180682"><ele>517.1666666666666</ele><time>2026-03-22T07:40:30.162Z</time></trkpt><trkpt lat="43.897268" lon="12.4181239"><ele>518.3333333333334</ele><time>2026-03-22T07:40:33.133Z</time></trkpt><trkpt lat="43.8971948" lon="12.4181651"><ele>519.5</ele><time>2026-03-22T07:40:36.117Z</time></trkpt><trkpt lat="43.8971115" lon="12.4182133"><ele>520.6666666666667</ele><time>2026-03-22T07:40:39.091Z</time></trkpt><trkpt lat="43.8970254" lon="12.4182612"><ele>521.8333333333334</ele><time>2026-03-22T07:40:42.126Z</time></trkpt><trkpt lat="43.8969618" lon="12.4182937"><ele>523.0</ele><time>2026-03-22T07:40:44.152Z</time></trkpt><trkpt lat="43.8968939" lon="12.4183258"><ele>523.0</ele><time>2026-03-22T07:40:46.105Z</time></trkpt><trkpt lat="43.8968187" lon="12.4183439"><ele>523.0</ele><time>2026-03-22T07:40:48.141Z</time></trkpt><trkpt lat="43.8967417" lon="12.4183398"><ele>523.0</ele><time>2026-03-22T07:40:50.149Z</time></trkpt><trkpt lat="43.8966449" lon="12.4183218"><ele>523.0</ele><time>2026-03-22T07:40:52.146Z</time></trkpt><trkpt lat="43.8965514" lon="12.4182873"><ele>523.0</ele><time>2026-03-22T07:40:54.136Z</time></trkpt><trkpt lat="43.8964686" lon="12.4182113"><ele>523.0</ele><time>2026-03-22T07:40:56.154Z</time></trkpt><trkpt lat="43.8963991" lon="12.4181074"><ele>521.6</ele><time>2026-03-22T07:40:58.137Z</time></trkpt><trkpt lat="43.896355" lon="12.4179818"><ele>520.1999999999999</ele><time>2026-03-22T07:41:00.126Z</time></trkpt><trkpt lat="43.8963227" lon="12.4178498"><ele>518.8</ele><time>2026-03-22T07:41:02.134Z</time></trkpt><trkpt lat="43.8962972" lon="12.4177236"><ele>517.4</ele><time>2026-03-22T07:41:04.129Z</time></trkpt><trkpt lat="43.8962626" lon="12.4175866"><ele>516.0</ele><time>2026-03-22T07:41:06.126Z</time></trkpt><trkpt lat="43.8962166" lon="12.417443"><ele>516.0</ele><time>2026-03-22T07:41:08.13Z</time></trkpt><trkpt lat="43.8961461" lon="12.4173289"><ele>516.0</ele><time>2026-03-22T07:41:10.118Z</time></trkpt><trkpt lat="43.8960597" lon="12.4172415"><ele>516.0</ele><time>2026-03-22T07:41:12.162Z</time></trkpt><trkpt lat="43.89595" lon="12.4172191"><ele>516.0</ele><time>2026-03-22T07:41:14.123Z</time></trkpt><trkpt lat="43.8958828" lon="12.417228"><ele>516.0</ele><time>2026-03-22T07:41:15.126Z</time></trkpt><trkpt lat="43.8957602" lon="12.4172421"><ele>517.3333333333334</ele><time>2026-03-22T07:41:17.125Z</time></trkpt><trkpt lat="43.895639" lon="12.4172678"><ele>518.6666666666666</ele><time>2026-03-22T07:41:19.14Z</time></trkpt><trkpt lat="43.895575" lon="12.4172813"><ele>520.0</ele><time>2026-03-22T07:41:20.127Z</time></trkpt><trkpt lat="43.8955058" lon="12.4172892"><ele>521.3333333333333</ele><time>2026-03-22T07:41:21.132Z</time></trkpt><trkpt lat="43.8954414" lon="12.4172907"><ele>522.6666666666666</ele><time>2026-03-22T07:41:22.13Z</time></trkpt><trkpt lat="43.8953735" lon="12.4172855"><ele>524.0</ele><time>2026-03-22T07:41:23.125Z</time></trkpt><trkpt lat="43.8952992" lon="12.4172685"><ele>524.0</ele><time>2026-03-22T07:41:24.117Z</time></trkpt><trkpt lat="43.8952269" lon="12.4172431"><ele>524.0</ele><time>2026-03-22T07:41:25.133Z</time></trkpt><trkpt lat="43.8951598" lon="12.4172044"><ele>524.0</ele><time>2026-03-22T07:41:26.131Z</time></trkpt><trkpt lat="43.8950968" lon="12.4171682"><ele>524.0</ele><time>2026-03-22T07:41:27.119Z</time></trkpt><trkpt lat="43.8950313" lon="12.4171341"><ele>524.0</ele><time>2026-03-22T07:41:28.133Z</time></trkpt><trkpt lat="43.8949696" lon="12.4170885"><ele>524.0</ele><time>2026-03-22T07:41:29.118Z</time></trkpt><trkpt lat="43.8949079" lon="12.4170363"><ele>524.0</ele><time>2026-03-22T07:41:30.122Z</time></trkpt><trkpt lat="43.8948466" lon="12.4169819"><ele>522.1666666666666</ele><time>2026-03-22T07:41:31.126Z</time></trkpt><trkpt lat="43.8947802" lon="12.4169412"><ele>520.3333333333333</ele><time>2026-03-22T07:41:32.142Z</time></trkpt><trkpt lat="43.8947136" lon="12.4168881"><ele>518.5</ele><time>2026-03-22T07:41:33.149Z</time></trkpt><trkpt lat="43.8946514" lon="12.4168263"><ele>516.6666666666666</ele><time>2026-03-22T07:41:34.124Z</time></trkpt><trkpt lat="43.8945906" lon="12.4167643"><ele>514.8333333333334</ele><time>2026-03-22T07:41:35.121Z</time></trkpt><trkpt lat="43.8945368" lon="12.4166883"><ele>513.0</ele><time>2026-03-22T07:41:36.136Z</time></trkpt><trkpt lat="43.8944841" lon="12.4165993"><ele>513.0000000000001</ele><time>2026-03-22T07:41:37.114Z</time></trkpt><trkpt lat="43.8944381" lon="12.416509"><ele>513.0</ele><time>2026-03-22T07:41:38.137Z</time></trkpt><trkpt lat="43.8943952" lon="12.4164231"><ele>513.0</ele><time>2026-03-22T07:41:39.14Z</time></trkpt><trkpt lat="43.8943527" lon="12.4163544"><ele>513.0</ele><time>2026-03-22T07:41:40.137Z</time></trkpt><trkpt lat="43.8943101" lon="12.4162864"><ele>513.0</ele><time>2026-03-22T07:41:41.137Z</time></trkpt><trkpt lat="43.8942606" lon="12.4162222"><ele>513.0000000000001</ele><time>2026-03-22T07:41:42.131Z</time></trkpt><trkpt lat="43.8942111" lon="12.4161604"><ele>513.0</ele><time>2026-03-22T07:41:43.122Z</time></trkpt><trkpt lat="43.8941549" lon="12.416092"><ele>513.1428571428572</ele><time>2026-03-22T07:41:44.137Z</time></trkpt><trkpt lat="43.8941054" lon="12.416034"><ele>513.2857142857143</ele><time>2026-03-22T07:41:45.144Z</time></trkpt><trkpt lat="43.8940585" lon="12.4159728"><ele>513.4285714285714</ele><time>2026-03-22T07:41:46.135Z</time></trkpt><trkpt lat="43.8940089" lon="12.4159018"><ele>513.5714285714287</ele><time>2026-03-22T07:41:47.129Z</time></trkpt><trkpt lat="43.8939623" lon="12.4158295"><ele>513.7142857142858</ele><time>2026-03-22T07:41:48.138Z</time></trkpt><trkpt lat="43.893907" lon="12.415753"><ele>513.8571428571429</ele><time>2026-03-22T07:41:49.124Z</time></trkpt><trkpt lat="43.8938497" lon="12.4156769"><ele>514.0</ele><time>2026-03-22T07:41:50.127Z</time></trkpt><trkpt lat="43.8937858" lon="12.4156049"><ele>514.0</ele><time>2026-03-22T07:41:51.143Z</time></trkpt><trkpt lat="43.8937266" lon="12.4155314"><ele>514.0</ele><time>2026-03-22T07:41:52.133Z</time></trkpt><trkpt lat="43.8936597" lon="12.4154553"><ele>514.0</ele><time>2026-03-22T07:41:53.134Z</time></trkpt><trkpt lat="43.8935891" lon="12.4153951"><ele>514.0</ele><time>2026-03-22T07:41:54.112Z</time></trkpt><trkpt lat="43.8935233" lon="12.4153344"><ele>514.0</ele><time>2026-03-22T07:41:55.127Z</time></trkpt><trkpt lat="43.8934625" lon="12.415277"><ele>514.0</ele><time>2026-03-22T07:41:56.09Z</time></trkpt><trkpt lat="43.8933997" lon="12.4152086"><ele>513.8333333333334</ele><time>2026-03-22T07:41:57.076Z</time></trkpt><trkpt lat="43.8933304" lon="12.415132"><ele>513.6666666666667</ele><time>2026-03-22T07:41:58.102Z</time></trkpt><trkpt lat="43.893272" lon="12.4150509"><ele>513.5</ele><time>2026-03-22T07:41:59.113Z</time></trkpt><trkpt lat="43.8932263" lon="12.4149628"><ele>513.3333333333334</ele><time>2026-03-22T07:42:00.127Z</time></trkpt><trkpt lat="43.8931754" lon="12.4148793"><ele>513.1666666666666</ele><time>2026-03-22T07:42:01.136Z</time></trkpt><trkpt lat="43.8931279" lon="12.4147939"><ele>513.0</ele><time>2026-03-22T07:42:02.153Z</time></trkpt><trkpt lat="43.8930753" lon="12.4147126"><ele>511.1666666666667</ele><time>2026-03-22T07:42:03.142Z</time></trkpt><trkpt lat="43.8930227" lon="12.4146307"><ele>509.33333333333337</ele><time>2026-03-22T07:42:04.096Z</time></trkpt><trkpt lat="43.892956" lon="12.4145556"><ele>507.5</ele><time>2026-03-22T07:42:05.133Z</time></trkpt><trkpt lat="43.8928993" lon="12.4144924"><ele>505.6666666666667</ele><time>2026-03-22T07:42:06.118Z</time></trkpt><trkpt lat="43.8928376" lon="12.4144315"><ele>503.83333333333337</ele><time>2026-03-22T07:42:07.118Z</time></trkpt><trkpt lat="43.8927813" lon="12.4143615"><ele>502.0</ele><time>2026-03-22T07:42:08.131Z</time></trkpt><trkpt lat="43.892724" lon="12.4142752"><ele>502.00000000000006</ele><time>2026-03-22T07:42:09.112Z</time></trkpt><trkpt lat="43.8926656" lon="12.414198"><ele>502.0</ele><time>2026-03-22T07:42:10.084Z</time></trkpt><trkpt lat="43.8926138" lon="12.4141202"><ele>502.0</ele><time>2026-03-22T07:42:11.134Z</time></trkpt><trkpt lat="43.892568" lon="12.4140371"><ele>502.0</ele><time>2026-03-22T07:42:12.129Z</time></trkpt><trkpt lat="43.8925202" lon="12.4139559"><ele>502.00000000000006</ele><time>2026-03-22T07:42:13.133Z</time></trkpt><trkpt lat="43.8924697" lon="12.4138736"><ele>502.0</ele><time>2026-03-22T07:42:14.085Z</time></trkpt><trkpt lat="43.8924118" lon="12.4138087"><ele>501.50000000000006</ele><time>2026-03-22T07:42:15.114Z</time></trkpt><trkpt lat="43.8923506" lon="12.413762"><ele>501.0</ele><time>2026-03-22T07:42:16.117Z</time></trkpt><trkpt lat="43.892284" lon="12.4137207"><ele>500.5</ele><time>2026-03-22T07:42:17.125Z</time></trkpt><trkpt lat="43.8922055" lon="12.413699"><ele>500.0</ele><time>2026-03-22T07:42:18.124Z</time></trkpt><trkpt lat="43.8921287" lon="12.4136904"><ele>499.50000000000006</ele><time>2026-03-22T07:42:19.128Z</time></trkpt><trkpt lat="43.8920518" lon="12.413694"><ele>499.0</ele><time>2026-03-22T07:42:20.142Z</time></trkpt><trkpt lat="43.8919738" lon="12.4137061"><ele>499.00000000000006</ele><time>2026-03-22T07:42:21.131Z</time></trkpt><trkpt lat="43.8918871" lon="12.4137235"><ele>499.0</ele><time>2026-03-22T07:42:22.132Z</time></trkpt><trkpt lat="43.8918042" lon="12.4137359"><ele>499.0</ele><time>2026-03-22T07:42:23.128Z</time></trkpt><trkpt lat="43.89172" lon="12.4137269"><ele>499.0</ele><time>2026-03-22T07:42:24.116Z</time></trkpt><trkpt lat="43.8916452" lon="12.4136688"><ele>499.00000000000006</ele><time>2026-03-22T07:42:25.114Z</time></trkpt><trkpt lat="43.8916001" lon="12.4135792"><ele>499.0</ele><time>2026-03-22T07:42:26.09Z</time></trkpt><trkpt lat="43.8915802" lon="12.4134659"><ele>499.50000000000006</ele><time>2026-03-22T07:42:27.123Z</time></trkpt><trkpt lat="43.8915804" lon="12.4133452"><ele>500.0</ele><time>2026-03-22T07:42:28.113Z</time></trkpt><trkpt lat="43.8915939" lon="12.4132325"><ele>500.5</ele><time>2026-03-22T07:42:29.119Z</time></trkpt><trkpt lat="43.8915954" lon="12.4131194"><ele>501.0</ele><time>2026-03-22T07:42:30.122Z</time></trkpt><trkpt lat="43.8915962" lon="12.4130104"><ele>501.50000000000006</ele><time>2026-03-22T07:42:31.12Z</time></trkpt><trkpt lat="43.8915845" lon="12.4129041"><ele>502.0</ele><time>2026-03-22T07:42:32.126Z</time></trkpt><trkpt lat="43.8915598" lon="12.4128132"><ele>502.00000000000006</ele><time>2026-03-22T07:42:33.131Z</time></trkpt><trkpt lat="43.8915261" lon="12.412719"><ele>502.0</ele><time>2026-03-22T07:42:34.135Z</time></trkpt><trkpt lat="43.8914906" lon="12.4126195"><ele>502.0</ele><time>2026-03-22T07:42:35.121Z</time></trkpt><trkpt lat="43.8914406" lon="12.4125337"><ele>502.0</ele><time>2026-03-22T07:42:36.133Z</time></trkpt><trkpt lat="43.8913794" lon="12.4124477"><ele>502.00000000000006</ele><time>2026-03-22T07:42:37.098Z</time></trkpt><trkpt lat="43.8913387" lon="12.4123573"><ele>502.0</ele><time>2026-03-22T07:42:38.125Z</time></trkpt><trkpt lat="43.8912934" lon="12.4122829"><ele>502.00000000000006</ele><time>2026-03-22T07:42:39.131Z</time></trkpt><trkpt lat="43.89124" lon="12.4121971"><ele>502.0</ele><time>2026-03-22T07:42:40.099Z</time></trkpt><trkpt lat="43.891189" lon="12.4121218"><ele>502.0</ele><time>2026-03-22T07:42:41.132Z</time></trkpt><trkpt lat="43.8911485" lon="12.4120417"><ele>502.0</ele><time>2026-03-22T07:42:42.119Z</time></trkpt><trkpt lat="43.8911211" lon="12.4119523"><ele>502.00000000000006</ele><time>2026-03-22T07:42:43.111Z</time></trkpt><trkpt lat="43.8911047" lon="12.4118479"><ele>502.0</ele><time>2026-03-22T07:42:44.127Z</time></trkpt><trkpt lat="43.8910925" lon="12.4117369"><ele>502.00000000000006</ele><time>2026-03-22T07:42:45.13Z</time></trkpt><trkpt lat="43.8910949" lon="12.4116184"><ele>502.0</ele><time>2026-03-22T07:42:46.109Z</time></trkpt><trkpt lat="43.8911044" lon="12.4115088"><ele>502.0</ele><time>2026-03-22T07:42:47.129Z</time></trkpt><trkpt lat="43.8911147" lon="12.4113989"><ele>502.0</ele><time>2026-03-22T07:42:48.089Z</time></trkpt><trkpt lat="43.8911352" lon="12.4112911"><ele>502.00000000000006</ele><time>2026-03-22T07:42:49.117Z</time></trkpt><trkpt lat="43.8911475" lon="12.4111876"><ele>502.0</ele><time>2026-03-22T07:42:50.133Z</time></trkpt><trkpt lat="43.8911716" lon="12.4110919"><ele>500.6666666666667</ele><time>2026-03-22T07:42:51.123Z</time></trkpt><trkpt lat="43.8912017" lon="12.4110078"><ele>499.33333333333337</ele><time>2026-03-22T07:42:52.097Z</time></trkpt><trkpt lat="43.8912462" lon="12.4109357"><ele>498.0</ele><time>2026-03-22T07:42:53.1Z</time></trkpt><trkpt lat="43.8913637" lon="12.4108852"><ele>496.66666666666663</ele><time>2026-03-22T07:42:55.117Z</time></trkpt><trkpt lat="43.8914381" lon="12.4108674"><ele>495.3333333333333</ele><time>2026-03-22T07:42:56.121Z</time></trkpt><trkpt lat="43.891501" lon="12.4108509"><ele>494.0</ele><time>2026-03-22T07:42:57.118Z</time></trkpt><trkpt lat="43.8915562" lon="12.4108005"><ele>494.0</ele><time>2026-03-22T07:42:58.114Z</time></trkpt><trkpt lat="43.8915897" lon="12.4106854"><ele>494.0</ele><time>2026-03-22T07:42:59.133Z</time></trkpt><trkpt lat="43.8915907" lon="12.4105396"><ele>494.0</ele><time>2026-03-22T07:43:00.121Z</time></trkpt><trkpt lat="43.8915949" lon="12.4104072"><ele>494.0</ele><time>2026-03-22T07:43:01.119Z</time></trkpt><trkpt lat="43.8916093" lon="12.4102763"><ele>494.0</ele><time>2026-03-22T07:43:02.146Z</time></trkpt><trkpt lat="43.8916245" lon="12.4101434"><ele>492.0</ele><time>2026-03-22T07:43:03.129Z</time></trkpt><trkpt lat="43.8916445" lon="12.4099976"><ele>490.0</ele><time>2026-03-22T07:43:04.122Z</time></trkpt><trkpt lat="43.8916653" lon="12.4098512"><ele>488.0</ele><time>2026-03-22T07:43:05.106Z</time></trkpt><trkpt lat="43.891695" lon="12.409712"><ele>486.0</ele><time>2026-03-22T07:43:06.134Z</time></trkpt><trkpt lat="43.8917373" lon="12.4095801"><ele>484.0</ele><time>2026-03-22T07:43:07.122Z</time></trkpt><trkpt lat="43.8917931" lon="12.4094601"><ele>477.79999999999995</ele><time>2026-03-22T07:43:08.134Z</time></trkpt><trkpt lat="43.8918443" lon="12.4093405"><ele>471.59999999999997</ele><time>2026-03-22T07:43:09.131Z</time></trkpt><trkpt lat="43.8918848" lon="12.4091986"><ele>465.4</ele><time>2026-03-22T07:43:10.117Z</time></trkpt><trkpt lat="43.8919221" lon="12.4090516"><ele>459.2</ele><time>2026-03-22T07:43:11.132Z</time></trkpt><trkpt lat="43.8919476" lon="12.408898"><ele>453.0</ele><time>2026-03-22T07:43:12.141Z</time></trkpt><trkpt lat="43.8919754" lon="12.408746"><ele>450.79999999999995</ele><time>2026-03-22T07:43:13.144Z</time></trkpt><trkpt lat="43.8919984" lon="12.4085859"><ele>448.59999999999997</ele><time>2026-03-22T07:43:14.121Z</time></trkpt><trkpt lat="43.8920085" lon="12.4084306"><ele>446.40000000000003</ele><time>2026-03-22T07:43:15.124Z</time></trkpt><trkpt lat="43.8920032" lon="12.4082838"><ele>444.20000000000005</ele><time>2026-03-22T07:43:16.157Z</time></trkpt><trkpt lat="43.8919734" lon="12.4081539"><ele>442.0</ele><time>2026-03-22T07:43:17.132Z</time></trkpt><trkpt lat="43.8919381" lon="12.4080404"><ele>440.6</ele><time>2026-03-22T07:43:18.13Z</time></trkpt><trkpt lat="43.8918857" lon="12.4079204"><ele>439.20000000000005</ele><time>2026-03-22T07:43:19.128Z</time></trkpt><trkpt lat="43.891823" lon="12.4078479"><ele>437.8</ele><time>2026-03-22T07:43:20.132Z</time></trkpt><trkpt lat="43.8917172" lon="12.4078204"><ele>436.4</ele><time>2026-03-22T07:43:22.127Z</time></trkpt><trkpt lat="43.8915967" lon="12.4078825"><ele>435.0</ele><time>2026-03-22T07:43:24.126Z</time></trkpt><trkpt lat="43.8915282" lon="12.4079203"><ele>438.0</ele><time>2026-03-22T07:43:25.096Z</time></trkpt><trkpt lat="43.8914521" lon="12.4079557"><ele>441.0</ele><time>2026-03-22T07:43:26.126Z</time></trkpt><trkpt lat="43.8913698" lon="12.4079971"><ele>444.0</ele><time>2026-03-22T07:43:27.11Z</time></trkpt><trkpt lat="43.8912842" lon="12.4080427"><ele>447.0</ele><time>2026-03-22T07:43:28.134Z</time></trkpt><trkpt lat="43.8911878" lon="12.408078"><ele>450.0</ele><time>2026-03-22T07:43:29.112Z</time></trkpt><trkpt lat="43.8910783" lon="12.4081033"><ele>450.1666666666667</ele><time>2026-03-22T07:43:30.134Z</time></trkpt><trkpt lat="43.8909751" lon="12.4081225"><ele>450.33333333333337</ele><time>2026-03-22T07:43:31.12Z</time></trkpt><trkpt lat="43.8908857" lon="12.4081478"><ele>450.5</ele><time>2026-03-22T07:43:32.111Z</time></trkpt><trkpt lat="43.8908039" lon="12.4081474"><ele>450.6666666666667</ele><time>2026-03-22T07:43:33.109Z</time></trkpt><trkpt lat="43.8907291" lon="12.4081291"><ele>450.83333333333337</ele><time>2026-03-22T07:43:34.074Z</time></trkpt><trkpt lat="43.8906754" lon="12.4080624"><ele>451.0</ele><time>2026-03-22T07:43:35.095Z</time></trkpt><trkpt lat="43.8906512" lon="12.4079734"><ele>448.8</ele><time>2026-03-22T07:43:36.123Z</time></trkpt><trkpt lat="43.8906485" lon="12.4078752"><ele>446.6</ele><time>2026-03-22T07:43:37.108Z</time></trkpt><trkpt lat="43.890649" lon="12.4077583"><ele>444.4</ele><time>2026-03-22T07:43:38.116Z</time></trkpt><trkpt lat="43.8906642" lon="12.4076204"><ele>442.2</ele><time>2026-03-22T07:43:39.095Z</time></trkpt><trkpt lat="43.8906909" lon="12.4074533"><ele>440.0</ele><time>2026-03-22T07:43:40.092Z</time></trkpt><trkpt lat="43.8907321" lon="12.4072835"><ele>437.75</ele><time>2026-03-22T07:43:41.114Z</time></trkpt><trkpt lat="43.8907831" lon="12.4071189"><ele>435.5</ele><time>2026-03-22T07:43:42.11Z</time></trkpt><trkpt lat="43.8908371" lon="12.4069564"><ele>433.25</ele><time>2026-03-22T07:43:43.104Z</time></trkpt><trkpt lat="43.8908933" lon="12.4067916"><ele>431.0</ele><time>2026-03-22T07:43:44.105Z</time></trkpt><trkpt lat="43.8909574" lon="12.4066451"><ele>431.0</ele><time>2026-03-22T07:43:45.103Z</time></trkpt><trkpt lat="43.891015" lon="12.4065078"><ele>431.0</ele><time>2026-03-22T07:43:46.106Z</time></trkpt><trkpt lat="43.8910678" lon="12.4063865"><ele>431.0</ele><time>2026-03-22T07:43:47.127Z</time></trkpt><trkpt lat="43.8911004" lon="12.4062872"><ele>431.0</ele><time>2026-03-22T07:43:48.126Z</time></trkpt><trkpt lat="43.8910974" lon="12.4061982"><ele>431.0</ele><time>2026-03-22T07:43:49.124Z</time></trkpt><trkpt lat="43.8909766" lon="12.406099"><ele>426.3333333333333</ele><time>2026-03-22T07:43:51.109Z</time></trkpt><trkpt lat="43.8909" lon="12.4060949"><ele>421.66666666666663</ele><time>2026-03-22T07:43:52.121Z</time></trkpt><trkpt lat="43.8908249" lon="12.4061113"><ele>417.0</ele><time>2026-03-22T07:43:53.122Z</time></trkpt><trkpt lat="43.8907536" lon="12.4061508"><ele>412.33333333333337</ele><time>2026-03-22T07:43:54.138Z</time></trkpt><trkpt lat="43.8906907" lon="12.4061845"><ele>407.6666666666667</ele><time>2026-03-22T07:43:55.091Z</time></trkpt><trkpt lat="43.8905901" lon="12.4061867"><ele>403.0</ele><time>2026-03-22T07:43:57.111Z</time></trkpt><trkpt lat="43.8905397" lon="12.4060483"><ele>403.00000000000006</ele><time>2026-03-22T07:43:59.107Z</time></trkpt><trkpt lat="43.8905441" lon="12.4059287"><ele>403.0</ele><time>2026-03-22T07:44:00.111Z</time></trkpt><trkpt lat="43.8905816" lon="12.4058181"><ele>403.0</ele><time>2026-03-22T07:44:01.106Z</time></trkpt><trkpt lat="43.8906255" lon="12.4057105"><ele>403.0</ele><time>2026-03-22T07:44:02.113Z</time></trkpt><trkpt lat="43.890654" lon="12.4056256"><ele>403.00000000000006</ele><time>2026-03-22T07:44:03.117Z</time></trkpt><trkpt lat="43.8906784" lon="12.4054828"><ele>403.0</ele><time>2026-03-22T07:44:05.114Z</time></trkpt><trkpt lat="43.8905993" lon="12.4054282"><ele>403.0</ele><time>2026-03-22T07:44:07.089Z</time></trkpt><trkpt lat="43.8905249" lon="12.4054298"><ele>403.0</ele><time>2026-03-22T07:44:08.113Z</time></trkpt><trkpt lat="43.8904362" lon="12.4054719"><ele>403.0</ele><time>2026-03-22T07:44:09.11Z</time></trkpt><trkpt lat="43.8903411" lon="12.4055457"><ele>403.0</ele><time>2026-03-22T07:44:10.117Z</time></trkpt><trkpt lat="43.8902656" lon="12.4056376"><ele>403.0</ele><time>2026-03-22T07:44:11.109Z</time></trkpt><trkpt lat="43.8901882" lon="12.4057206"><ele>403.00000000000006</ele><time>2026-03-22T07:44:12.088Z</time></trkpt><trkpt lat="43.8901039" lon="12.4057912"><ele>403.0</ele><time>2026-03-22T07:44:13.087Z</time></trkpt><trkpt lat="43.890035" lon="12.4058378"><ele>403.0</ele><time>2026-03-22T07:44:14.085Z</time></trkpt><trkpt lat="43.8899596" lon="12.405853"><ele>403.0</ele><time>2026-03-22T07:44:15.085Z</time></trkpt><trkpt lat="43.8898927" lon="12.4058306"><ele>403.00000000000006</ele><time>2026-03-22T07:44:16.092Z</time></trkpt><trkpt lat="43.8898443" lon="12.4057706"><ele>403.0</ele><time>2026-03-22T07:44:17.09Z</time></trkpt><trkpt lat="43.8898273" lon="12.4055907"><ele>398.2</ele><time>2026-03-22T07:44:19.109Z</time></trkpt><trkpt lat="43.8898514" lon="12.4054819"><ele>393.4</ele><time>2026-03-22T07:44:20.08Z</time></trkpt><trkpt lat="43.8898778" lon="12.4053583"><ele>388.59999999999997</ele><time>2026-03-22T07:44:21.112Z</time></trkpt><trkpt lat="43.8898976" lon="12.4052164"><ele>383.79999999999995</ele><time>2026-03-22T07:44:22.106Z</time></trkpt><trkpt lat="43.8899131" lon="12.4050662"><ele>379.0</ele><time>2026-03-22T07:44:23.091Z</time></trkpt><trkpt lat="43.8899279" lon="12.4049263"><ele>379.0</ele><time>2026-03-22T07:44:24.111Z</time></trkpt><trkpt lat="43.8899449" lon="12.4047854"><ele>379.0</ele><time>2026-03-22T07:44:25.091Z</time></trkpt><trkpt lat="43.8899372" lon="12.4046801"><ele>379.0</ele><time>2026-03-22T07:44:26.109Z</time></trkpt><trkpt lat="43.8898931" lon="12.4046113"><ele>379.0</ele><time>2026-03-22T07:44:27.11Z</time></trkpt><trkpt lat="43.8898329" lon="12.4045585"><ele>379.0</ele><time>2026-03-22T07:44:28.094Z</time></trkpt><trkpt lat="43.8897638" lon="12.4045206"><ele>379.0</ele><time>2026-03-22T07:44:29.12Z</time></trkpt><trkpt lat="43.889686" lon="12.4045237"><ele>379.0</ele><time>2026-03-22T07:44:30.12Z</time></trkpt><trkpt lat="43.8896114" lon="12.4045396"><ele>379.0</ele><time>2026-03-22T07:44:31.113Z</time></trkpt><trkpt lat="43.8895391" lon="12.4045623"><ele>379.0</ele><time>2026-03-22T07:44:32.084Z</time></trkpt><trkpt lat="43.8894738" lon="12.4045896"><ele>379.0</ele><time>2026-03-22T07:44:33.13Z</time></trkpt><trkpt lat="43.8893696" lon="12.4046345"><ele>379.0</ele><time>2026-03-22T07:44:35.107Z</time></trkpt><trkpt lat="43.8892844" lon="12.4046679"><ele>379.0</ele><time>2026-03-22T07:44:37.119Z</time></trkpt><trkpt lat="43.8892116" lon="12.4046844"><ele>378.79999999999995</ele><time>2026-03-22T07:44:40.119Z</time></trkpt><trkpt lat="43.8891423" lon="12.4046839"><ele>378.59999999999997</ele><time>2026-03-22T07:44:43.116Z</time></trkpt><trkpt lat="43.8890518" lon="12.4046912"><ele>378.4</ele><time>2026-03-22T07:44:46.105Z</time></trkpt><trkpt lat="43.888967" lon="12.4047045"><ele>378.2</ele><time>2026-03-22T07:44:48.136Z</time></trkpt><trkpt lat="43.8888429" lon="12.4046765"><ele>378.0</ele><time>2026-03-22T07:44:50.128Z</time></trkpt><trkpt lat="43.8887539" lon="12.4046566"><ele>375.79999999999995</ele><time>2026-03-22T07:44:51.115Z</time></trkpt><trkpt lat="43.8886561" lon="12.4046479"><ele>373.6</ele><time>2026-03-22T07:44:52.131Z</time></trkpt><trkpt lat="43.8885493" lon="12.4046218"><ele>371.4</ele><time>2026-03-22T07:44:53.118Z</time></trkpt><trkpt lat="43.8884576" lon="12.4046018"><ele>369.20000000000005</ele><time>2026-03-22T07:44:54.101Z</time></trkpt><trkpt lat="43.8883622" lon="12.4045857"><ele>367.0</ele><time>2026-03-22T07:44:55.108Z</time></trkpt><trkpt lat="43.8882788" lon="12.4045531"><ele>366.57142857142856</ele><time>2026-03-22T07:44:56.126Z</time></trkpt><trkpt lat="43.8882112" lon="12.4045161"><ele>366.14285714285717</ele><time>2026-03-22T07:44:57.089Z</time></trkpt><trkpt lat="43.8881447" lon="12.4044811"><ele>365.7142857142857</ele><time>2026-03-22T07:44:58.122Z</time></trkpt><trkpt lat="43.8880725" lon="12.404445"><ele>365.2857142857143</ele><time>2026-03-22T07:44:59.117Z</time></trkpt><trkpt lat="43.8880048" lon="12.4044031"><ele>364.8571428571429</ele><time>2026-03-22T07:45:00.119Z</time></trkpt><trkpt lat="43.8879353" lon="12.4043472"><ele>364.42857142857144</ele><time>2026-03-22T07:45:01.116Z</time></trkpt><trkpt lat="43.8878727" lon="12.4042927"><ele>364.0</ele><time>2026-03-22T07:45:02.077Z</time></trkpt><trkpt lat="43.8878048" lon="12.4042455"><ele>364.0</ele><time>2026-03-22T07:45:03.133Z</time></trkpt><trkpt lat="43.8877371" lon="12.4042116"><ele>364.0</ele><time>2026-03-22T07:45:04.131Z</time></trkpt><trkpt lat="43.8876254" lon="12.4041919"><ele>364.0</ele><time>2026-03-22T07:45:06.119Z</time></trkpt><trkpt lat="43.8875237" lon="12.4041599"><ele>364.0</ele><time>2026-03-22T07:45:08.118Z</time></trkpt><trkpt lat="43.8874062" lon="12.4041246"><ele>364.0</ele><time>2026-03-22T07:45:10.118Z</time></trkpt><trkpt lat="43.8873392" lon="12.4041016"><ele>364.3333333333333</ele><time>2026-03-22T07:45:11.126Z</time></trkpt><trkpt lat="43.8872718" lon="12.4040911"><ele>364.66666666666663</ele><time>2026-03-22T07:45:12.117Z</time></trkpt><trkpt lat="43.8871995" lon="12.4040551"><ele>365.0</ele><time>2026-03-22T07:45:13.109Z</time></trkpt><trkpt lat="43.887113" lon="12.4039191"><ele>365.3333333333333</ele><time>2026-03-22T07:45:15.095Z</time></trkpt><trkpt lat="43.8871059" lon="12.4038186"><ele>365.6666666666667</ele><time>2026-03-22T07:45:16.103Z</time></trkpt><trkpt lat="43.8871211" lon="12.4037214"><ele>366.0</ele><time>2026-03-22T07:45:17.125Z</time></trkpt><trkpt lat="43.8871442" lon="12.4036194"><ele>363.6</ele><time>2026-03-22T07:45:18.107Z</time></trkpt><trkpt lat="43.887168" lon="12.403522"><ele>361.20000000000005</ele><time>2026-03-22T07:45:19.122Z</time></trkpt><trkpt lat="43.8872032" lon="12.4034096"><ele>358.79999999999995</ele><time>2026-03-22T07:45:20.072Z</time></trkpt><trkpt lat="43.8872381" lon="12.4032901"><ele>356.4</ele><time>2026-03-22T07:45:21.102Z</time></trkpt><trkpt lat="43.8872824" lon="12.403166"><ele>354.0</ele><time>2026-03-22T07:45:22.081Z</time></trkpt><trkpt lat="43.8873425" lon="12.4030314"><ele>351.79999999999995</ele><time>2026-03-22T07:45:23.08Z</time></trkpt><trkpt lat="43.8874126" lon="12.4028882"><ele>349.59999999999997</ele><time>2026-03-22T07:45:24.123Z</time></trkpt><trkpt lat="43.8874634" lon="12.4027443"><ele>347.4</ele><time>2026-03-22T07:45:25.095Z</time></trkpt><trkpt lat="43.8875025" lon="12.4026115"><ele>345.2</ele><time>2026-03-22T07:45:26.126Z</time></trkpt><trkpt lat="43.8875282" lon="12.4024763"><ele>343.0</ele><time>2026-03-22T07:45:27.1Z</time></trkpt><trkpt lat="43.8875324" lon="12.4023457"><ele>343.0</ele><time>2026-03-22T07:45:28.126Z</time></trkpt><trkpt lat="43.8875137" lon="12.4022012"><ele>343.0</ele><time>2026-03-22T07:45:29.112Z</time></trkpt><trkpt lat="43.887486" lon="12.4020599"><ele>343.0</ele><time>2026-03-22T07:45:30.122Z</time></trkpt><trkpt lat="43.8874441" lon="12.4019193"><ele>343.0</ele><time>2026-03-22T07:45:31.138Z</time></trkpt><trkpt lat="43.8873975" lon="12.4017852"><ele>343.0</ele><time>2026-03-22T07:45:32.122Z</time></trkpt><trkpt lat="43.8873555" lon="12.4016564"><ele>341.5</ele><time>2026-03-22T07:45:33.107Z</time></trkpt><trkpt lat="43.8873139" lon="12.4015375"><ele>340.0</ele><time>2026-03-22T07:45:34.126Z</time></trkpt><trkpt lat="43.887277" lon="12.4014193"><ele>338.5</ele><time>2026-03-22T07:45:35.093Z</time></trkpt><trkpt lat="43.8872482" lon="12.4013037"><ele>337.0</ele><time>2026-03-22T07:45:36.105Z</time></trkpt><trkpt lat="43.8872217" lon="12.4012011"><ele>335.5</ele><time>2026-03-22T07:45:37.127Z</time></trkpt><trkpt lat="43.8871943" lon="12.4010984"><ele>334.0</ele><time>2026-03-22T07:45:38.12Z</time></trkpt><trkpt lat="43.8871617" lon="12.4009983"><ele>333.8333333333333</ele><time>2026-03-22T07:45:39.104Z</time></trkpt><trkpt lat="43.8871338" lon="12.4009"><ele>333.66666666666663</ele><time>2026-03-22T07:45:40.108Z</time></trkpt><trkpt lat="43.8871026" lon="12.4008118"><ele>333.5</ele><time>2026-03-22T07:45:41.13Z</time></trkpt><trkpt lat="43.8870389" lon="12.4006745"><ele>333.3333333333333</ele><time>2026-03-22T07:45:43.096Z</time></trkpt><trkpt lat="43.8869743" lon="12.4006204"><ele>333.1666666666667</ele><time>2026-03-22T07:45:45.112Z</time></trkpt><trkpt lat="43.8868966" lon="12.4006306"><ele>333.0</ele><time>2026-03-22T07:45:49.119Z</time></trkpt><trkpt lat="43.8868234" lon="12.400635"><ele>333.8571428571429</ele><time>2026-03-22T07:45:53.105Z</time></trkpt><trkpt lat="43.8867525" lon="12.4006491"><ele>334.71428571428567</ele><time>2026-03-22T07:45:57.11Z</time></trkpt><trkpt lat="43.8866845" lon="12.400659"><ele>335.57142857142856</ele><time>2026-03-22T07:46:01.125Z</time></trkpt><trkpt lat="43.886617" lon="12.4006635"><ele>336.42857142857144</ele><time>2026-03-22T07:46:05.138Z</time></trkpt><trkpt lat="43.8865553" lon="12.4006259"><ele>337.28571428571433</ele><time>2026-03-22T07:46:09.115Z</time></trkpt><trkpt lat="43.8865072" lon="12.4005377"><ele>338.1428571428571</ele><time>2026-03-22T07:46:14.122Z</time></trkpt><trkpt lat="43.8864901" lon="12.400452"><ele>339.0</ele><time>2026-03-22T07:46:18.123Z</time></trkpt><trkpt lat="43.8865006" lon="12.4003575"><ele>339.0</ele><time>2026-03-22T07:46:23.117Z</time></trkpt><trkpt lat="43.8865434" lon="12.4002861"><ele>339.0</ele><time>2026-03-22T07:46:27.123Z</time></trkpt><trkpt lat="43.8866176" lon="12.4002449"><ele>339.0</ele><time>2026-03-22T07:46:31.129Z</time></trkpt><trkpt lat="43.8866926" lon="12.4002537"><ele>339.0</ele><time>2026-03-22T07:46:34.081Z</time></trkpt><trkpt lat="43.8867635" lon="12.4002881"><ele>339.0</ele><time>2026-03-22T07:46:38.133Z</time></trkpt><trkpt lat="43.8865553" lon="12.4006259"><ele>339.0</ele><time>2026-03-22T07:46:09.115Z</time></trkpt><trkpt lat="43.8865072" lon="12.4005377"><ele>339.0</ele><time>2026-03-22T07:46:14.122Z</time></trkpt><trkpt lat="43.8864901" lon="12.400452"><ele>339.0</ele><time>2026-03-22T07:46:18.123Z</time></trkpt><trkpt lat="43.8865006" lon="12.4003575"><ele>339.0</ele><time>2026-03-22T07:46:23.117Z</time></trkpt><trkpt lat="43.8865434" lon="12.4002861"><ele>339.0</ele><time>2026-03-22T07:46:27.123Z</time></trkpt><trkpt lat="43.8866176" lon="12.4002449"><ele>339.0</ele><time>2026-03-22T07:46:31.129Z</time></trkpt><trkpt lat="43.8866926" lon="12.4002537"><ele>339.0</ele><time>2026-03-22T07:46:34.081Z</time></trkpt><trkpt lat="43.8867635" lon="12.4002881"><ele>340.0</ele><time>2026-03-22T07:46:38.133Z</time></trkpt><trkpt lat="43.886847" lon="12.4002819"><ele>341.0</ele><time>2026-03-22T07:46:42.116Z</time></trkpt><trkpt lat="43.8869172" lon="12.4002607"><ele>342.0</ele><time>2026-03-22T07:46:46.121Z</time></trkpt><trkpt lat="43.8869883" lon="12.4002303"><ele>343.0</ele><time>2026-03-22T07:46:51.1Z</time></trkpt><trkpt lat="43.8870585" lon="12.4001827"><ele>344.0</ele><time>2026-03-22T07:46:56.113Z</time></trkpt><trkpt lat="43.887094" lon="12.4001016"><ele>345.0</ele><time>2026-03-22T07:47:00.115Z</time></trkpt><trkpt lat="43.8871076" lon="12.4000096"><ele>346.0</ele><time>2026-03-22T07:47:04.127Z</time></trkpt><trkpt lat="43.887074" lon="12.3999171"><ele>346.0</ele><time>2026-03-22T07:47:10.086Z</time></trkpt><trkpt lat="43.8870035" lon="12.3998635"><ele>346.0</ele><time>2026-03-22T07:47:15.113Z</time></trkpt><trkpt lat="43.8869253" lon="12.3998204"><ele>346.0</ele><time>2026-03-22T07:47:19.114Z</time></trkpt><trkpt lat="43.8868668" lon="12.3997791"><ele>346.0</ele><time>2026-03-22T07:47:22.115Z</time></trkpt><trkpt lat="43.8868105" lon="12.3997191"><ele>346.0</ele><time>2026-03-22T07:47:26.113Z</time></trkpt><trkpt lat="43.8867565" lon="12.3996512"><ele>346.0</ele><time>2026-03-22T07:47:31.107Z</time></trkpt><trkpt lat="43.8867462" lon="12.3995637"><ele>346.0</ele><time>2026-03-22T07:47:37.11Z</time></trkpt><trkpt lat="43.8867608" lon="12.399461"><ele>348.4285714285714</ele><time>2026-03-22T07:47:43.118Z</time></trkpt><trkpt lat="43.8868089" lon="12.3993893"><ele>350.8571428571429</ele><time>2026-03-22T07:47:48.116Z</time></trkpt><trkpt lat="43.8868675" lon="12.3993572"><ele>353.2857142857143</ele><time>2026-03-22T07:47:53.128Z</time></trkpt><trkpt lat="43.8869354" lon="12.3993311"><ele>355.71428571428567</ele><time>2026-03-22T07:47:58.114Z</time></trkpt><trkpt lat="43.8870004" lon="12.3992936"><ele>358.1428571428571</ele><time>2026-03-22T07:48:02.064Z</time></trkpt><trkpt lat="43.8870808" lon="12.3992708"><ele>360.57142857142856</ele><time>2026-03-22T07:48:06.118Z</time></trkpt><trkpt lat="43.8871514" lon="12.3992385"><ele>363.0</ele><time>2026-03-22T07:48:09.125Z</time></trkpt><trkpt lat="43.8872165" lon="12.3992129"><ele>362.99999999999994</ele><time>2026-03-22T07:48:12.107Z</time></trkpt><trkpt lat="43.8872815" lon="12.399198"><ele>363.0</ele><time>2026-03-22T07:48:15.099Z</time></trkpt><trkpt lat="43.8873538" lon="12.3991773"><ele>363.0</ele><time>2026-03-22T07:48:18.12Z</time></trkpt><trkpt lat="43.8874324" lon="12.3991434"><ele>363.0</ele><time>2026-03-22T07:48:22.133Z</time></trkpt><trkpt lat="43.8874813" lon="12.3990862"><ele>363.0</ele><time>2026-03-22T07:48:25.118Z</time></trkpt><trkpt lat="43.8875186" lon="12.3990151"><ele>362.99999999999994</ele><time>2026-03-22T07:48:28.123Z</time></trkpt><trkpt lat="43.8875511" lon="12.3989117"><ele>363.0</ele><time>2026-03-22T07:48:32.119Z</time></trkpt><trkpt lat="43.8875589" lon="12.3988199"><ele>364.99999999999994</ele><time>2026-03-22T07:48:36.115Z</time></trkpt><trkpt lat="43.8875587" lon="12.3987183"><ele>367.0</ele><time>2026-03-22T07:48:41.125Z</time></trkpt><trkpt lat="43.8875679" lon="12.3986238"><ele>369.0</ele><time>2026-03-22T07:48:45.137Z</time></trkpt><trkpt lat="43.8875577" lon="12.3985273"><ele>371.0</ele><time>2026-03-22T07:48:50.12Z</time></trkpt><trkpt lat="43.8875551" lon="12.3984225"><ele>373.0</ele><time>2026-03-22T07:48:55.13Z</time></trkpt><trkpt lat="43.8875354" lon="12.3983284"><ele>374.99999999999994</ele><time>2026-03-22T07:49:01.13Z</time></trkpt><trkpt lat="43.8875053" lon="12.3982442"><ele>377.0</ele><time>2026-03-22T07:49:06.086Z</time></trkpt><trkpt lat="43.8874974" lon="12.3981547"><ele>376.99999999999994</ele><time>2026-03-22T07:49:12.133Z</time></trkpt><trkpt lat="43.8874901" lon="12.3980575"><ele>377.0</ele><time>2026-03-22T07:49:18.119Z</time></trkpt><trkpt lat="43.8874703" lon="12.3979714"><ele>377.0</ele><time>2026-03-22T07:49:23.085Z</time></trkpt><trkpt lat="43.887465" lon="12.3978682"><ele>377.0</ele><time>2026-03-22T07:49:29.135Z</time></trkpt><trkpt lat="43.8874597" lon="12.3977732"><ele>377.0</ele><time>2026-03-22T07:49:33.096Z</time></trkpt><trkpt lat="43.8874637" lon="12.3976783"><ele>376.99999999999994</ele><time>2026-03-22T07:49:38.129Z</time></trkpt><trkpt lat="43.8874901" lon="12.3975961"><ele>377.0</ele><time>2026-03-22T07:49:43.12Z</time></trkpt><trkpt lat="43.8875153" lon="12.3975006"><ele>378.71428571428567</ele><time>2026-03-22T07:49:48.138Z</time></trkpt><trkpt lat="43.8875214" lon="12.3974046"><ele>380.42857142857144</ele><time>2026-03-22T07:49:54.11Z</time></trkpt><trkpt lat="43.8874841" lon="12.3973312"><ele>382.1428571428571</ele><time>2026-03-22T07:49:58.104Z</time></trkpt><trkpt lat="43.8874255" lon="12.3972741"><ele>383.85714285714283</ele><time>2026-03-22T07:50:04.134Z</time></trkpt><trkpt lat="43.8873577" lon="12.3972403"><ele>385.57142857142856</ele><time>2026-03-22T07:50:09.123Z</time></trkpt><trkpt lat="43.8872802" lon="12.3972272"><ele>387.2857142857143</ele><time>2026-03-22T07:50:14.128Z</time></trkpt><trkpt lat="43.8872132" lon="12.3972133"><ele>389.0</ele><time>2026-03-22T07:50:18.119Z</time></trkpt><trkpt lat="43.8871409" lon="12.3972002"><ele>389.0</ele><time>2026-03-22T07:50:22.113Z</time></trkpt><trkpt lat="43.8870752" lon="12.3971808"><ele>389.0</ele><time>2026-03-22T07:50:26.122Z</time></trkpt><trkpt lat="43.8870116" lon="12.3971502"><ele>389.0</ele><time>2026-03-22T07:50:31.126Z</time></trkpt><trkpt lat="43.886947" lon="12.3971353"><ele>389.0</ele><time>2026-03-22T07:50:36.14Z</time></trkpt><trkpt lat="43.8868851" lon="12.3971124"><ele>389.0</ele><time>2026-03-22T07:50:41.137Z</time></trkpt><trkpt lat="43.8868109" lon="12.3970972"><ele>389.0</ele><time>2026-03-22T07:50:46.142Z</time></trkpt><trkpt lat="43.886737" lon="12.3970863"><ele>389.0</ele><time>2026-03-22T07:50:51.123Z</time></trkpt><trkpt lat="43.8866738" lon="12.3970734"><ele>391.0</ele><time>2026-03-22T07:50:55.14Z</time></trkpt><trkpt lat="43.8866085" lon="12.3970647"><ele>393.0</ele><time>2026-03-22T07:50:59.116Z</time></trkpt><trkpt lat="43.8865461" lon="12.3970505"><ele>395.0</ele><time>2026-03-22T07:51:03.123Z</time></trkpt><trkpt lat="43.8864779" lon="12.3970186"><ele>397.0</ele><time>2026-03-22T07:51:08.141Z</time></trkpt><trkpt lat="43.8864111" lon="12.3969965"><ele>399.0</ele><time>2026-03-22T07:51:13.119Z</time></trkpt><trkpt lat="43.8863398" lon="12.3969878"><ele>401.0</ele><time>2026-03-22T07:51:18.129Z</time></trkpt><trkpt lat="43.8862657" lon="12.3969668"><ele>403.0</ele><time>2026-03-22T07:51:23.123Z</time></trkpt><trkpt lat="43.8862019" lon="12.3969506"><ele>403.0</ele><time>2026-03-22T07:51:27.123Z</time></trkpt><trkpt lat="43.886131" lon="12.3969338"><ele>403.0</ele><time>2026-03-22T07:51:32.137Z</time></trkpt><trkpt lat="43.8860577" lon="12.3969248"><ele>403.0</ele><time>2026-03-22T07:51:38.15Z</time></trkpt><trkpt lat="43.8859767" lon="12.3969153"><ele>403.0</ele><time>2026-03-22T07:51:43.104Z</time></trkpt><trkpt lat="43.8859115" lon="12.3969106"><ele>403.0</ele><time>2026-03-22T07:51:47.125Z</time></trkpt><trkpt lat="43.8858313" lon="12.3969088"><ele>403.0</ele><time>2026-03-22T07:51:51.13Z</time></trkpt><trkpt lat="43.8857627" lon="12.3969011"><ele>403.0</ele><time>2026-03-22T07:51:54.141Z</time></trkpt><trkpt lat="43.8856942" lon="12.3968896"><ele>404.33333333333337</ele><time>2026-03-22T07:51:57.089Z</time></trkpt><trkpt lat="43.8856178" lon="12.396874"><ele>405.6666666666667</ele><time>2026-03-22T07:52:00.123Z</time></trkpt><trkpt lat="43.8855266" lon="12.3968328"><ele>407.0</ele><time>2026-03-22T07:52:03.094Z</time></trkpt><trkpt lat="43.8854575" lon="12.3967935"><ele>408.33333333333337</ele><time>2026-03-22T07:52:05.077Z</time></trkpt><trkpt lat="43.8853822" lon="12.3967304"><ele>409.6666666666667</ele><time>2026-03-22T07:52:07.08Z</time></trkpt><trkpt lat="43.8852985" lon="12.3966822"><ele>411.0</ele><time>2026-03-22T07:52:09.121Z</time></trkpt><trkpt lat="43.885218" lon="12.3966314"><ele>411.0</ele><time>2026-03-22T07:52:11.095Z</time></trkpt><trkpt lat="43.8851271" lon="12.396622"><ele>411.0</ele><time>2026-03-22T07:52:13.128Z</time></trkpt><trkpt lat="43.8850383" lon="12.3965985"><ele>411.0</ele><time>2026-03-22T07:52:15.118Z</time></trkpt><trkpt lat="43.8849589" lon="12.396582"><ele>411.0</ele><time>2026-03-22T07:52:17.127Z</time></trkpt><trkpt lat="43.8848613" lon="12.3965649"><ele>411.0</ele><time>2026-03-22T07:52:19.126Z</time></trkpt><trkpt lat="43.8847537" lon="12.3965254"><ele>411.1666666666667</ele><time>2026-03-22T07:52:21.109Z</time></trkpt><trkpt lat="43.8846548" lon="12.396481"><ele>411.33333333333337</ele><time>2026-03-22T07:52:23.117Z</time></trkpt><trkpt lat="43.8845696" lon="12.3964179"><ele>411.5</ele><time>2026-03-22T07:52:25.074Z</time></trkpt><trkpt lat="43.8845029" lon="12.3963393"><ele>411.6666666666667</ele><time>2026-03-22T07:52:27.086Z</time></trkpt><trkpt lat="43.884438" lon="12.3962665"><ele>411.83333333333337</ele><time>2026-03-22T07:52:29.121Z</time></trkpt><trkpt lat="43.8843906" lon="12.396205"><ele>412.0</ele><time>2026-03-22T07:52:31.098Z</time></trkpt><trkpt lat="43.8843343" lon="12.396129"><ele>412.85714285714283</ele><time>2026-03-22T07:52:34.12Z</time></trkpt><trkpt lat="43.8842878" lon="12.3960585"><ele>413.7142857142857</ele><time>2026-03-22T07:52:38.101Z</time></trkpt><trkpt lat="43.8842485" lon="12.3959885"><ele>414.57142857142856</ele><time>2026-03-22T07:52:42.141Z</time></trkpt><trkpt lat="43.8842034" lon="12.395924"><ele>415.42857142857144</ele><time>2026-03-22T07:52:46.119Z</time></trkpt><trkpt lat="43.8841457" lon="12.3958667"><ele>416.2857142857143</ele><time>2026-03-22T07:52:50.115Z</time></trkpt><trkpt lat="43.8840915" lon="12.3957982"><ele>417.1428571428571</ele><time>2026-03-22T07:52:54.128Z</time></trkpt><trkpt lat="43.8840426" lon="12.395736"><ele>418.0</ele><time>2026-03-22T07:52:58.098Z</time></trkpt><trkpt lat="43.8839894" lon="12.3956612"><ele>418.1428571428571</ele><time>2026-03-22T07:53:03.129Z</time></trkpt><trkpt lat="43.883933" lon="12.3956016"><ele>418.2857142857143</ele><time>2026-03-22T07:53:08.123Z</time></trkpt><trkpt lat="43.8838902" lon="12.3955238"><ele>418.42857142857144</ele><time>2026-03-22T07:53:14.103Z</time></trkpt><trkpt lat="43.8838383" lon="12.3954706"><ele>418.57142857142856</ele><time>2026-03-22T07:53:19.152Z</time></trkpt><trkpt lat="43.8837891" lon="12.3954128"><ele>418.7142857142857</ele><time>2026-03-22T07:53:24.127Z</time></trkpt><trkpt lat="43.883744" lon="12.3953447"><ele>418.85714285714283</ele><time>2026-03-22T07:53:29.125Z</time></trkpt><trkpt lat="43.8836871" lon="12.3952806"><ele>419.0</ele><time>2026-03-22T07:53:35.141Z</time></trkpt><trkpt lat="43.883634" lon="12.3952312"><ele>420.71428571428567</ele><time>2026-03-22T07:53:40.1Z</time></trkpt><trkpt lat="43.8835869" lon="12.3951596"><ele>422.42857142857144</ele><time>2026-03-22T07:53:45.121Z</time></trkpt><trkpt lat="43.883522" lon="12.3950878"><ele>424.1428571428571</ele><time>2026-03-22T07:53:51.123Z</time></trkpt><trkpt lat="43.8834635" lon="12.395041"><ele>425.85714285714283</ele><time>2026-03-22T07:53:56.129Z</time></trkpt><trkpt lat="43.883417" lon="12.3949747"><ele>427.57142857142856</ele><time>2026-03-22T07:54:02.146Z</time></trkpt><trkpt lat="43.883363" lon="12.3949241"><ele>429.2857142857143</ele><time>2026-03-22T07:54:07.128Z</time></trkpt><trkpt lat="43.8833065" lon="12.3948606"><ele>431.0</ele><time>2026-03-22T07:54:12.115Z</time></trkpt><trkpt lat="43.8832481" lon="12.3948023"><ele>431.5714285714286</ele><time>2026-03-22T07:54:18.13Z</time></trkpt><trkpt lat="43.8831955" lon="12.3947533"><ele>432.1428571428571</ele><time>2026-03-22T07:54:24.13Z</time></trkpt><trkpt lat="43.8831459" lon="12.3946952"><ele>432.7142857142857</ele><time>2026-03-22T07:54:28.104Z</time></trkpt><trkpt lat="43.8830851" lon="12.3946301"><ele>433.28571428571433</ele><time>2026-03-22T07:54:33.133Z</time></trkpt><trkpt lat="43.8830376" lon="12.3945671"><ele>433.8571428571429</ele><time>2026-03-22T07:54:38.148Z</time></trkpt><trkpt lat="43.8830055" lon="12.3944913"><ele>434.42857142857144</ele><time>2026-03-22T07:54:42.136Z</time></trkpt><trkpt lat="43.8830075" lon="12.3943876"><ele>435.0</ele><time>2026-03-22T07:54:46.134Z</time></trkpt><trkpt lat="43.8830899" lon="12.3943113"><ele>435.8571428571429</ele><time>2026-03-22T07:54:49.137Z</time></trkpt><trkpt lat="43.8831482" lon="12.3942634"><ele>436.7142857142857</ele><time>2026-03-22T07:54:51.167Z</time></trkpt><trkpt lat="43.8832113" lon="12.394214"><ele>437.57142857142856</ele><time>2026-03-22T07:54:53.135Z</time></trkpt><trkpt lat="43.8832816" lon="12.3941763"><ele>438.42857142857144</ele><time>2026-03-22T07:54:55.123Z</time></trkpt><trkpt lat="43.8833473" lon="12.3941361"><ele>439.2857142857143</ele><time>2026-03-22T07:54:57.122Z</time></trkpt><trkpt lat="43.8834116" lon="12.3941124"><ele>440.14285714285717</ele><time>2026-03-22T07:54:59.139Z</time></trkpt><trkpt lat="43.8834898" lon="12.3940779"><ele>441.0</ele><time>2026-03-22T07:55:02.131Z</time></trkpt><trkpt lat="43.8835709" lon="12.3940472"><ele>441.0</ele><time>2026-03-22T07:55:05.152Z</time></trkpt><trkpt lat="43.8836397" lon="12.3940318"><ele>441.0</ele><time>2026-03-22T07:55:08.138Z</time></trkpt><trkpt lat="43.8837198" lon="12.3940144"><ele>441.0</ele><time>2026-03-22T07:55:11.117Z</time></trkpt><trkpt lat="43.8838016" lon="12.393983"><ele>441.0</ele><time>2026-03-22T07:55:14.14Z</time></trkpt><trkpt lat="43.883871" lon="12.393959"><ele>441.0</ele><time>2026-03-22T07:55:16.126Z</time></trkpt><trkpt lat="43.8839758" lon="12.3938982"><ele>441.0</ele><time>2026-03-22T07:55:18.15Z</time></trkpt><trkpt lat="43.8840672" lon="12.3938377"><ele>441.8</ele><time>2026-03-22T07:55:20.134Z</time></trkpt><trkpt lat="43.8841585" lon="12.3937838"><ele>442.6</ele><time>2026-03-22T07:55:22.137Z</time></trkpt><trkpt lat="43.8842208" lon="12.3937434"><ele>443.4</ele><time>2026-03-22T07:55:24.121Z</time></trkpt><trkpt lat="43.8842986" lon="12.3935902"><ele>444.2</ele><time>2026-03-22T07:55:27.079Z</time></trkpt><trkpt lat="43.8843599" lon="12.393427"><ele>445.0</ele><time>2026-03-22T07:55:29.126Z</time></trkpt><trkpt lat="43.8843938" lon="12.3932727"><ele>443.2</ele><time>2026-03-22T07:55:31.129Z</time></trkpt><trkpt lat="43.8844344" lon="12.3931097"><ele>441.4</ele><time>2026-03-22T07:55:33.141Z</time></trkpt><trkpt lat="43.8844621" lon="12.3929358"><ele>439.6</ele><time>2026-03-22T07:55:35.131Z</time></trkpt><trkpt lat="43.8844502" lon="12.3927601"><ele>437.8</ele><time>2026-03-22T07:55:37.129Z</time></trkpt><trkpt lat="43.8844326" lon="12.3926711"><ele>436.0</ele><time>2026-03-22T07:55:38.136Z</time></trkpt><trkpt lat="43.8844172" lon="12.3925676"><ele>434.1666666666667</ele><time>2026-03-22T07:55:39.125Z</time></trkpt><trkpt lat="43.8844127" lon="12.3924616"><ele>432.33333333333337</ele><time>2026-03-22T07:55:40.13Z</time></trkpt><trkpt lat="43.8844017" lon="12.3923411"><ele>430.5</ele><time>2026-03-22T07:55:41.127Z</time></trkpt><trkpt lat="43.884387" lon="12.3922286"><ele>428.66666666666663</ele><time>2026-03-22T07:55:42.081Z</time></trkpt><trkpt lat="43.8843748" lon="12.3921014"><ele>426.8333333333333</ele><time>2026-03-22T07:55:43.13Z</time></trkpt><trkpt lat="43.8843736" lon="12.3919742"><ele>425.0</ele><time>2026-03-22T07:55:44.121Z</time></trkpt><trkpt lat="43.8843853" lon="12.3918329"><ele>424.4</ele><time>2026-03-22T07:55:45.125Z</time></trkpt><trkpt lat="43.8843878" lon="12.3916944"><ele>423.8</ele><time>2026-03-22T07:55:46.132Z</time></trkpt><trkpt lat="43.8843806" lon="12.3915686"><ele>423.20000000000005</ele><time>2026-03-22T07:55:47.129Z</time></trkpt><trkpt lat="43.8843676" lon="12.3914387"><ele>422.6</ele><time>2026-03-22T07:55:48.137Z</time></trkpt><trkpt lat="43.8843548" lon="12.391329"><ele>422.0</ele><time>2026-03-22T07:55:49.129Z</time></trkpt><trkpt lat="43.8843419" lon="12.391208"><ele>421.16666666666663</ele><time>2026-03-22T07:55:50.119Z</time></trkpt><trkpt lat="43.8843213" lon="12.3910908"><ele>420.3333333333333</ele><time>2026-03-22T07:55:51.139Z</time></trkpt><trkpt lat="43.8843026" lon="12.3909766"><ele>419.5</ele><time>2026-03-22T07:55:52.152Z</time></trkpt><trkpt lat="43.8842848" lon="12.3908764"><ele>418.66666666666663</ele><time>2026-03-22T07:55:53.134Z</time></trkpt><trkpt lat="43.8842582" lon="12.3907757"><ele>417.8333333333333</ele><time>2026-03-22T07:55:54.122Z</time></trkpt><trkpt lat="43.8842232" lon="12.3906676"><ele>417.0</ele><time>2026-03-22T07:55:55.105Z</time></trkpt><trkpt lat="43.8841865" lon="12.3905546"><ele>418.0</ele><time>2026-03-22T07:55:56.125Z</time></trkpt><trkpt lat="43.8841551" lon="12.3904373"><ele>419.0</ele><time>2026-03-22T07:55:57.105Z</time></trkpt><trkpt lat="43.8841178" lon="12.3903082"><ele>420.0</ele><time>2026-03-22T07:55:58.112Z</time></trkpt><trkpt lat="43.8840959" lon="12.3901645"><ele>421.0</ele><time>2026-03-22T07:55:59.102Z</time></trkpt><trkpt lat="43.884081" lon="12.3900107"><ele>422.0</ele><time>2026-03-22T07:56:00.103Z</time></trkpt><trkpt lat="43.8840615" lon="12.3898507"><ele>422.0</ele><time>2026-03-22T07:56:01.102Z</time></trkpt><trkpt lat="43.8840352" lon="12.3897019"><ele>422.0</ele><time>2026-03-22T07:56:02.116Z</time></trkpt><trkpt lat="43.8840007" lon="12.3895744"><ele>422.0</ele><time>2026-03-22T07:56:03.118Z</time></trkpt><trkpt lat="43.8839664" lon="12.3894424"><ele>422.0</ele><time>2026-03-22T07:56:04.117Z</time></trkpt><trkpt lat="43.8839305" lon="12.3893139"><ele>422.0</ele><time>2026-03-22T07:56:05.117Z</time></trkpt><trkpt lat="43.8838885" lon="12.3891983"><ele>419.66666666666663</ele><time>2026-03-22T07:56:06.103Z</time></trkpt><trkpt lat="43.8838592" lon="12.3890925"><ele>417.3333333333333</ele><time>2026-03-22T07:56:07.122Z</time></trkpt><trkpt lat="43.8837798" lon="12.3889595"><ele>415.0</ele><time>2026-03-22T07:56:09.129Z</time></trkpt><trkpt lat="43.8837243" lon="12.388897"><ele>412.66666666666663</ele><time>2026-03-22T07:56:10.121Z</time></trkpt><trkpt lat="43.883673" lon="12.3888431"><ele>410.3333333333333</ele><time>2026-03-22T07:56:11.126Z</time></trkpt><trkpt lat="43.8836032" lon="12.3887383"><ele>408.0</ele><time>2026-03-22T07:56:13.14Z</time></trkpt><trkpt lat="43.8835991" lon="12.3886419"><ele>406.3333333333333</ele><time>2026-03-22T07:56:14.112Z</time></trkpt><trkpt lat="43.8836108" lon="12.3885327"><ele>404.66666666666663</ele><time>2026-03-22T07:56:15.119Z</time></trkpt><trkpt lat="43.8836353" lon="12.3884255"><ele>403.0</ele><time>2026-03-22T07:56:16.121Z</time></trkpt><trkpt lat="43.883654" lon="12.3883016"><ele>401.3333333333333</ele><time>2026-03-22T07:56:17.128Z</time></trkpt><trkpt lat="43.8836525" lon="12.3881908"><ele>399.66666666666663</ele><time>2026-03-22T07:56:18.119Z</time></trkpt><trkpt lat="43.8836209" lon="12.3880759"><ele>398.0</ele><time>2026-03-22T07:56:19.123Z</time></trkpt><trkpt lat="43.8835755" lon="12.3879635"><ele>397.99999999999994</ele><time>2026-03-22T07:56:20.1Z</time></trkpt><trkpt lat="43.8835236" lon="12.3878661"><ele>398.0</ele><time>2026-03-22T07:56:21.117Z</time></trkpt><trkpt lat="43.8834915" lon="12.3877771"><ele>398.0</ele><time>2026-03-22T07:56:22.114Z</time></trkpt><trkpt lat="43.8835101" lon="12.3876177"><ele>398.0</ele><time>2026-03-22T07:56:24.138Z</time></trkpt><trkpt lat="43.8835716" lon="12.3875284"><ele>397.99999999999994</ele><time>2026-03-22T07:56:26.15Z</time></trkpt><trkpt lat="43.8836344" lon="12.387489"><ele>398.0</ele><time>2026-03-22T07:56:29.128Z</time></trkpt><trkpt lat="43.8836973" lon="12.3874533"><ele>397.99999999999994</ele><time>2026-03-22T07:56:33.126Z</time></trkpt><trkpt lat="43.8837548" lon="12.3874107"><ele>398.0</ele><time>2026-03-22T07:56:37.122Z</time></trkpt><trkpt lat="43.8838057" lon="12.3873394"><ele>398.0</ele><time>2026-03-22T07:56:43.116Z</time></trkpt><trkpt lat="43.8838166" lon="12.3872352"><ele>398.0</ele><time>2026-03-22T07:56:47.131Z</time></trkpt><trkpt lat="43.8837963" lon="12.3871267"><ele>398.0</ele><time>2026-03-22T07:56:51.124Z</time></trkpt><trkpt lat="43.883737" lon="12.3870763"><ele>397.99999999999994</ele><time>2026-03-22T07:56:55.125Z</time></trkpt><trkpt lat="43.8836769" lon="12.3870318"><ele>398.0</ele><time>2026-03-22T07:56:59.126Z</time></trkpt><trkpt lat="43.883617" lon="12.3869953"><ele>399.71428571428567</ele><time>2026-03-22T07:57:03.118Z</time></trkpt><trkpt lat="43.8835582" lon="12.3869545"><ele>401.42857142857144</ele><time>2026-03-22T07:57:07.087Z</time></trkpt><trkpt lat="43.8835009" lon="12.3869035"><ele>403.1428571428571</ele><time>2026-03-22T07:57:12.135Z</time></trkpt><trkpt lat="43.8834373" lon="12.3868488"><ele>404.85714285714283</ele><time>2026-03-22T07:57:18.133Z</time></trkpt><trkpt lat="43.8833828" lon="12.3867823"><ele>406.57142857142856</ele><time>2026-03-22T07:57:23.127Z</time></trkpt><trkpt lat="43.8833357" lon="12.3867214"><ele>408.2857142857143</ele><time>2026-03-22T07:57:28.119Z</time></trkpt><trkpt lat="43.883279" lon="12.3866558"><ele>410.0</ele><time>2026-03-22T07:57:33.143Z</time></trkpt><trkpt lat="43.8832254" lon="12.3866004"><ele>410.0</ele><time>2026-03-22T07:57:37.112Z</time></trkpt><trkpt lat="43.8831648" lon="12.3865318"><ele>410.0</ele><time>2026-03-22T07:57:42.125Z</time></trkpt><trkpt lat="43.8831172" lon="12.3864633"><ele>410.0</ele><time>2026-03-22T07:57:46.128Z</time></trkpt><trkpt lat="43.8830737" lon="12.386389"><ele>410.0</ele><time>2026-03-22T07:57:50.135Z</time></trkpt><trkpt lat="43.8830145" lon="12.3863134"><ele>410.0</ele><time>2026-03-22T07:57:54.126Z</time></trkpt><trkpt lat="43.8829612" lon="12.3862384"><ele>410.0</ele><time>2026-03-22T07:57:58.14Z</time></trkpt><trkpt lat="43.8829067" lon="12.386163"><ele>410.0</ele><time>2026-03-22T07:58:03.134Z</time></trkpt><trkpt lat="43.8828599" lon="12.3861"><ele>411.42857142857144</ele><time>2026-03-22T07:58:08.115Z</time></trkpt><trkpt lat="43.8828018" lon="12.3860376"><ele>412.85714285714283</ele><time>2026-03-22T07:58:13.123Z</time></trkpt><trkpt lat="43.8827453" lon="12.385977"><ele>414.2857142857143</ele><time>2026-03-22T07:58:17.12Z</time></trkpt><trkpt lat="43.8826735" lon="12.3859128"><ele>415.7142857142857</ele><time>2026-03-22T07:58:21.129Z</time></trkpt><trkpt lat="43.8826199" lon="12.3858666"><ele>417.1428571428571</ele><time>2026-03-22T07:58:24.13Z</time></trkpt><trkpt lat="43.8825649" lon="12.3857895"><ele>418.57142857142856</ele><time>2026-03-22T07:58:28.149Z</time></trkpt><trkpt lat="43.8825229" lon="12.3857141"><ele>420.0</ele><time>2026-03-22T07:58:32.133Z</time></trkpt><trkpt lat="43.8824692" lon="12.385633"><ele>420.0</ele><time>2026-03-22T07:58:36.138Z</time></trkpt><trkpt lat="43.8824462" lon="12.3855443"><ele>420.0</ele><time>2026-03-22T07:58:40.134Z</time></trkpt><trkpt lat="43.8824181" lon="12.3854519"><ele>420.0</ele><time>2026-03-22T07:58:44.114Z</time></trkpt><trkpt lat="43.8823975" lon="12.385368"><ele>420.0</ele><time>2026-03-22T07:58:47.131Z</time></trkpt><trkpt lat="43.8823671" lon="12.385278"><ele>420.0</ele><time>2026-03-22T07:58:51.119Z</time></trkpt><trkpt lat="43.882343" lon="12.3851835"><ele>420.0</ele><time>2026-03-22T07:58:55.135Z</time></trkpt><trkpt lat="43.8823106" lon="12.3850937"><ele>420.0</ele><time>2026-03-22T07:58:59.13Z</time></trkpt><trkpt lat="43.882283" lon="12.3850114"><ele>421.2857142857143</ele><time>2026-03-22T07:59:02.136Z</time></trkpt><trkpt lat="43.8822548" lon="12.3849309"><ele>422.57142857142856</ele><time>2026-03-22T07:59:05.126Z</time></trkpt><trkpt lat="43.882242" lon="12.384817"><ele>423.8571428571429</ele><time>2026-03-22T07:59:09.083Z</time></trkpt><trkpt lat="43.8822365" lon="12.3847205"><ele>425.1428571428571</ele><time>2026-03-22T07:59:12.115Z</time></trkpt><trkpt lat="43.8822409" lon="12.3846222"><ele>426.42857142857144</ele><time>2026-03-22T07:59:15.133Z</time></trkpt><trkpt lat="43.8822524" lon="12.3845338"><ele>427.7142857142857</ele><time>2026-03-22T07:59:18.141Z</time></trkpt><trkpt lat="43.8822777" lon="12.3844459"><ele>429.0</ele><time>2026-03-22T07:59:21.107Z</time></trkpt><trkpt lat="43.8823013" lon="12.3843573"><ele>430.0</ele><time>2026-03-22T07:59:24.153Z</time></trkpt><trkpt lat="43.8823445" lon="12.3842581"><ele>431.0</ele><time>2026-03-22T07:59:28.117Z</time></trkpt><trkpt lat="43.8823839" lon="12.3841596"><ele>432.0</ele><time>2026-03-22T07:59:32.151Z</time></trkpt><trkpt lat="43.8824364" lon="12.3840742"><ele>433.0</ele><time>2026-03-22T07:59:36.114Z</time></trkpt><trkpt lat="43.8824895" lon="12.3840228"><ele>434.0</ele><time>2026-03-22T07:59:40.126Z</time></trkpt><trkpt lat="43.882559" lon="12.3840004"><ele>435.0</ele><time>2026-03-22T07:59:44.132Z</time></trkpt><trkpt lat="43.8826277" lon="12.384024"><ele>436.8571428571429</ele><time>2026-03-22T07:59:48.15Z</time></trkpt><trkpt lat="43.8826888" lon="12.3840725"><ele>438.7142857142857</ele><time>2026-03-22T07:59:52.137Z</time></trkpt><trkpt lat="43.8827556" lon="12.3841213"><ele>440.57142857142856</ele><time>2026-03-22T07:59:56.138Z</time></trkpt><trkpt lat="43.8828244" lon="12.3841663"><ele>442.42857142857144</ele><time>2026-03-22T08:00:00.147Z</time></trkpt><trkpt lat="43.8828856" lon="12.3842137"><ele>444.2857142857143</ele><time>2026-03-22T08:00:04.123Z</time></trkpt><trkpt lat="43.882944" lon="12.3842471"><ele>446.14285714285717</ele><time>2026-03-22T08:00:07.121Z</time></trkpt><trkpt lat="43.8830045" lon="12.3842878"><ele>448.0</ele><time>2026-03-22T08:00:10.123Z</time></trkpt><trkpt lat="43.8830651" lon="12.3843225"><ele>448.0</ele><time>2026-03-22T08:00:13.116Z</time></trkpt><trkpt lat="43.8831293" lon="12.3843622"><ele>448.0</ele><time>2026-03-22T08:00:17.11Z</time></trkpt><trkpt lat="43.8831933" lon="12.3843946"><ele>448.0</ele><time>2026-03-22T08:00:21.118Z</time></trkpt><trkpt lat="43.8832565" lon="12.3844279"><ele>448.0</ele><time>2026-03-22T08:00:25.118Z</time></trkpt><trkpt lat="43.8833142" lon="12.3844666"><ele>448.0</ele><time>2026-03-22T08:00:30.103Z</time></trkpt><trkpt lat="43.8833764" lon="12.3845029"><ele>448.0</ele><time>2026-03-22T08:00:35.127Z</time></trkpt><trkpt lat="43.8834466" lon="12.3845296"><ele>448.0</ele><time>2026-03-22T08:00:40.12Z</time></trkpt><trkpt lat="43.8835159" lon="12.384559"><ele>449.2857142857143</ele><time>2026-03-22T08:00:45.112Z</time></trkpt><trkpt lat="43.883588" lon="12.3845841"><ele>450.57142857142856</ele><time>2026-03-22T08:00:49.114Z</time></trkpt><trkpt lat="43.8836623" lon="12.3846071"><ele>451.8571428571429</ele><time>2026-03-22T08:00:53.12Z</time></trkpt><trkpt lat="43.8837377" lon="12.3845742"><ele>453.14285714285717</ele><time>2026-03-22T08:00:57.079Z</time></trkpt><trkpt lat="43.8838118" lon="12.3845322"><ele>454.42857142857144</ele><time>2026-03-22T08:01:01.09Z</time></trkpt><trkpt lat="43.8838683" lon="12.3844828"><ele>455.7142857142858</ele><time>2026-03-22T08:01:05.141Z</time></trkpt><trkpt lat="43.8839277" lon="12.3844249"><ele>457.00000000000006</ele><time>2026-03-22T08:01:09.136Z</time></trkpt><trkpt lat="43.8839975" lon="12.3843825"><ele>457.00000000000006</ele><time>2026-03-22T08:01:13.138Z</time></trkpt><trkpt lat="43.8840593" lon="12.3843478"><ele>457.0</ele><time>2026-03-22T08:01:17.123Z</time></trkpt><trkpt lat="43.8841197" lon="12.3843227"><ele>457.00000000000006</ele><time>2026-03-22T08:01:20.086Z</time></trkpt><trkpt lat="43.8841912" lon="12.3842807"><ele>457.00000000000006</ele><time>2026-03-22T08:01:24.128Z</time></trkpt><trkpt lat="43.8842577" lon="12.3842216"><ele>457.0</ele><time>2026-03-22T08:01:28.133Z</time></trkpt><trkpt lat="43.8843241" lon="12.3841634"><ele>457.00000000000006</ele><time>2026-03-22T08:01:33.119Z</time></trkpt><trkpt lat="43.8843808" lon="12.3841226"><ele>457.00000000000006</ele><time>2026-03-22T08:01:37.114Z</time></trkpt><trkpt lat="43.8844516" lon="12.3840913"><ele>456.7142857142858</ele><time>2026-03-22T08:01:42.123Z</time></trkpt><trkpt lat="43.8845206" lon="12.384055"><ele>456.42857142857144</ele><time>2026-03-22T08:01:47.149Z</time></trkpt><trkpt lat="43.8845923" lon="12.3840154"><ele>456.14285714285717</ele><time>2026-03-22T08:01:52.126Z</time></trkpt><trkpt lat="43.8846458" lon="12.3839672"><ele>455.8571428571429</ele><time>2026-03-22T08:01:56.112Z</time></trkpt><trkpt lat="43.8847059" lon="12.3839244"><ele>455.57142857142856</ele><time>2026-03-22T08:02:00.124Z</time></trkpt><trkpt lat="43.8847635" lon="12.3838629"><ele>455.2857142857143</ele><time>2026-03-22T08:02:04.105Z</time></trkpt><trkpt lat="43.8848113" lon="12.3837848"><ele>455.0</ele><time>2026-03-22T08:02:07.126Z</time></trkpt><trkpt lat="43.8848792" lon="12.3836773"><ele>454.99999999999994</ele><time>2026-03-22T08:02:09.095Z</time></trkpt><trkpt lat="43.8849322" lon="12.3836"><ele>455.0</ele><time>2026-03-22T08:02:10.141Z</time></trkpt><trkpt lat="43.8849861" lon="12.3835202"><ele>455.0</ele><time>2026-03-22T08:02:11.13Z</time></trkpt><trkpt lat="43.8850548" lon="12.3834396"><ele>455.0</ele><time>2026-03-22T08:02:12.118Z</time></trkpt><trkpt lat="43.8851202" lon="12.3833631"><ele>454.99999999999994</ele><time>2026-03-22T08:02:13.134Z</time></trkpt><trkpt lat="43.8851806" lon="12.3832746"><ele>455.0</ele><time>2026-03-22T08:02:14.139Z</time></trkpt><trkpt lat="43.8852272" lon="12.3831797"><ele>455.0</ele><time>2026-03-22T08:02:15.118Z</time></trkpt><trkpt lat="43.8852662" lon="12.3831015"><ele>455.0</ele><time>2026-03-22T08:02:16.107Z</time></trkpt><trkpt lat="43.8853204" lon="12.3829783"><ele>455.0</ele><time>2026-03-22T08:02:18.145Z</time></trkpt><trkpt lat="43.8853616" lon="12.3829026"><ele>455.0</ele><time>2026-03-22T08:02:20.133Z</time></trkpt><trkpt lat="43.8853955" lon="12.3828279"><ele>455.0</ele><time>2026-03-22T08:02:23.13Z</time></trkpt><trkpt lat="43.8854375" lon="12.3827519"><ele>455.0</ele><time>2026-03-22T08:02:26.126Z</time></trkpt><trkpt lat="43.8854828" lon="12.3826781"><ele>455.0</ele><time>2026-03-22T08:02:29.093Z</time></trkpt><trkpt lat="43.88553" lon="12.3826018"><ele>456.42857142857144</ele><time>2026-03-22T08:02:32.07Z</time></trkpt><trkpt lat="43.8855735" lon="12.3825318"><ele>457.8571428571429</ele><time>2026-03-22T08:02:35.063Z</time></trkpt><trkpt lat="43.8856131" lon="12.3824628"><ele>459.2857142857143</ele><time>2026-03-22T08:02:38.116Z</time></trkpt><trkpt lat="43.8856423" lon="12.3823821"><ele>460.7142857142857</ele><time>2026-03-22T08:02:41.12Z</time></trkpt><trkpt lat="43.8856901" lon="12.3823108"><ele>462.14285714285717</ele><time>2026-03-22T08:02:45.143Z</time></trkpt><trkpt lat="43.8857492" lon="12.3822794"><ele>463.57142857142856</ele><time>2026-03-22T08:02:50.134Z</time></trkpt><trkpt lat="43.885821" lon="12.3823105"><ele>465.0</ele><time>2026-03-22T08:02:56.124Z</time></trkpt><trkpt lat="43.8858851" lon="12.3823643"><ele>464.8333333333333</ele><time>2026-03-22T08:03:02.123Z</time></trkpt><trkpt lat="43.8859494" lon="12.3824155"><ele>464.66666666666663</ele><time>2026-03-22T08:03:07.124Z</time></trkpt><trkpt lat="43.886019" lon="12.3824642"><ele>464.5</ele><time>2026-03-22T08:03:12.132Z</time></trkpt><trkpt lat="43.8860837" lon="12.3825077"><ele>464.3333333333333</ele><time>2026-03-22T08:03:16.131Z</time></trkpt><trkpt lat="43.8861548" lon="12.3825639"><ele>464.16666666666663</ele><time>2026-03-22T08:03:20.134Z</time></trkpt><trkpt lat="43.8862051" lon="12.3826326"><ele>464.0</ele><time>2026-03-22T08:03:23.088Z</time></trkpt><trkpt lat="43.886256" lon="12.3827281"><ele>463.99999999999994</ele><time>2026-03-22T08:03:26.127Z</time></trkpt><trkpt lat="43.8863037" lon="12.3828043"><ele>464.0</ele><time>2026-03-22T08:03:28.127Z</time></trkpt><trkpt lat="43.8863582" lon="12.3829083"><ele>464.0</ele><time>2026-03-22T08:03:30.126Z</time></trkpt><trkpt lat="43.8864289" lon="12.3830478"><ele>464.0</ele><time>2026-03-22T08:03:32.146Z</time></trkpt><trkpt lat="43.8864805" lon="12.3831147"><ele>463.99999999999994</ele><time>2026-03-22T08:03:33.09Z</time></trkpt><trkpt lat="43.8865397" lon="12.3831943"><ele>464.0</ele><time>2026-03-22T08:03:34.141Z</time></trkpt><trkpt lat="43.8866035" lon="12.3832865"><ele>462.6</ele><time>2026-03-22T08:03:35.102Z</time></trkpt><trkpt lat="43.8866724" lon="12.3833806"><ele>461.2</ele><time>2026-03-22T08:03:36.107Z</time></trkpt><trkpt lat="43.8867271" lon="12.3834837"><ele>459.80000000000007</ele><time>2026-03-22T08:03:37.138Z</time></trkpt><trkpt lat="43.8867783" lon="12.3836066"><ele>458.40000000000003</ele><time>2026-03-22T08:03:38.121Z</time></trkpt><trkpt lat="43.8868123" lon="12.3837388"><ele>457.0</ele><time>2026-03-22T08:03:39.13Z</time></trkpt><trkpt lat="43.8868392" lon="12.3838783"><ele>454.6666666666667</ele><time>2026-03-22T08:03:40.133Z</time></trkpt><trkpt lat="43.8868682" lon="12.3840117"><ele>452.33333333333337</ele><time>2026-03-22T08:03:41.118Z</time></trkpt><trkpt lat="43.8869014" lon="12.3841251"><ele>450.0</ele><time>2026-03-22T08:03:42.103Z</time></trkpt><trkpt lat="43.8869361" lon="12.384222"><ele>447.66666666666663</ele><time>2026-03-22T08:03:43.09Z</time></trkpt><trkpt lat="43.8869784" lon="12.3843088"><ele>445.3333333333333</ele><time>2026-03-22T08:03:44.126Z</time></trkpt><trkpt lat="43.8870665" lon="12.3843831"><ele>443.0</ele><time>2026-03-22T08:03:46.133Z</time></trkpt><trkpt lat="43.8871527" lon="12.3843482"><ele>442.99999999999994</ele><time>2026-03-22T08:03:48.119Z</time></trkpt><trkpt lat="43.8872049" lon="12.3842903"><ele>443.0</ele><time>2026-03-22T08:03:49.117Z</time></trkpt><trkpt lat="43.8872622" lon="12.384216"><ele>443.0</ele><time>2026-03-22T08:03:50.131Z</time></trkpt><trkpt lat="43.8873292" lon="12.3841516"><ele>443.0</ele><time>2026-03-22T08:03:51.088Z</time></trkpt><trkpt lat="43.8873972" lon="12.3840941"><ele>442.99999999999994</ele><time>2026-03-22T08:03:52.13Z</time></trkpt><trkpt lat="43.8874682" lon="12.3840476"><ele>443.0</ele><time>2026-03-22T08:03:53.129Z</time></trkpt><trkpt lat="43.8875517" lon="12.3840212"><ele>442.49999999999994</ele><time>2026-03-22T08:03:54.128Z</time></trkpt><trkpt lat="43.8876228" lon="12.3840023"><ele>442.0</ele><time>2026-03-22T08:03:55.118Z</time></trkpt><trkpt lat="43.8876896" lon="12.383965"><ele>441.5</ele><time>2026-03-22T08:03:56.116Z</time></trkpt><trkpt lat="43.8877567" lon="12.3839302"><ele>441.0</ele><time>2026-03-22T08:03:57.118Z</time></trkpt><trkpt lat="43.8878227" lon="12.3838698"><ele>440.49999999999994</ele><time>2026-03-22T08:03:58.154Z</time></trkpt><trkpt lat="43.887881" lon="12.383829"><ele>440.0</ele><time>2026-03-22T08:03:59.131Z</time></trkpt><trkpt lat="43.8879629" lon="12.3837364"><ele>441.4285714285714</ele><time>2026-03-22T08:04:01.132Z</time></trkpt><trkpt lat="43.8880052" lon="12.3836626"><ele>442.8571428571429</ele><time>2026-03-22T08:04:03.116Z</time></trkpt><trkpt lat="43.8880613" lon="12.3835964"><ele>444.28571428571433</ele><time>2026-03-22T08:04:07.128Z</time></trkpt><trkpt lat="43.8881236" lon="12.3835356"><ele>445.7142857142857</ele><time>2026-03-22T08:04:12.122Z</time></trkpt><trkpt lat="43.8881901" lon="12.3834835"><ele>447.14285714285717</ele><time>2026-03-22T08:04:17.122Z</time></trkpt><trkpt lat="43.8882578" lon="12.3834599"><ele>448.5714285714286</ele><time>2026-03-22T08:04:22.124Z</time></trkpt><trkpt lat="43.8883166" lon="12.3834033"><ele>450.00000000000006</ele><time>2026-03-22T08:04:27.114Z</time></trkpt><trkpt lat="43.8883778" lon="12.3833662"><ele>450.28571428571433</ele><time>2026-03-22T08:04:33.127Z</time></trkpt><trkpt lat="43.8884275" lon="12.383312"><ele>450.57142857142856</ele><time>2026-03-22T08:04:38.13Z</time></trkpt><trkpt lat="43.8884757" lon="12.3832413"><ele>450.8571428571429</ele><time>2026-03-22T08:04:43.096Z</time></trkpt><trkpt lat="43.8885271" lon="12.3831607"><ele>451.14285714285717</ele><time>2026-03-22T08:04:48.11Z</time></trkpt><trkpt lat="43.8885761" lon="12.3830831"><ele>451.42857142857144</ele><time>2026-03-22T08:04:53.118Z</time></trkpt><trkpt lat="43.8886247" lon="12.3830136"><ele>451.7142857142857</ele><time>2026-03-22T08:04:57.11Z</time></trkpt><trkpt lat="43.8886679" lon="12.3829443"><ele>452.0</ele><time>2026-03-22T08:05:01.118Z</time></trkpt><trkpt lat="43.8887133" lon="12.3828754"><ele>454.14285714285717</ele><time>2026-03-22T08:05:05.082Z</time></trkpt><trkpt lat="43.8887633" lon="12.3828141"><ele>456.2857142857142</ele><time>2026-03-22T08:05:09.117Z</time></trkpt><trkpt lat="43.8888108" lon="12.3827401"><ele>458.4285714285714</ele><time>2026-03-22T08:05:13.118Z</time></trkpt><trkpt lat="43.888873" lon="12.3826872"><ele>460.57142857142856</ele><time>2026-03-22T08:05:17.14Z</time></trkpt><trkpt lat="43.8889433" lon="12.38264"><ele>462.71428571428567</ele><time>2026-03-22T08:05:21.126Z</time></trkpt><trkpt lat="43.8890156" lon="12.3826004"><ele>464.8571428571428</ele><time>2026-03-22T08:05:25.127Z</time></trkpt><trkpt lat="43.8890854" lon="12.3825603"><ele>466.99999999999994</ele><time>2026-03-22T08:05:29.123Z</time></trkpt><trkpt lat="43.8891489" lon="12.382526"><ele>467.0</ele><time>2026-03-22T08:05:32.126Z</time></trkpt><trkpt lat="43.8892221" lon="12.3824834"><ele>467.00000000000006</ele><time>2026-03-22T08:05:35.102Z</time></trkpt><trkpt lat="43.8893006" lon="12.3824447"><ele>467.00000000000006</ele><time>2026-03-22T08:05:38.111Z</time></trkpt><trkpt lat="43.8893936" lon="12.3824457"><ele>467.0</ele><time>2026-03-22T08:05:41.128Z</time></trkpt><trkpt lat="43.8894941" lon="12.3824713"><ele>467.0</ele><time>2026-03-22T08:05:43.123Z</time></trkpt><trkpt lat="43.8895909" lon="12.3825208"><ele>467.16666666666663</ele><time>2026-03-22T08:05:45.13Z</time></trkpt><trkpt lat="43.8896753" lon="12.3825607"><ele>467.3333333333333</ele><time>2026-03-22T08:05:47.083Z</time></trkpt><trkpt lat="43.8897442" lon="12.3826209"><ele>467.5</ele><time>2026-03-22T08:05:49.119Z</time></trkpt><trkpt lat="43.8897925" lon="12.3826928"><ele>467.66666666666663</ele><time>2026-03-22T08:05:51.126Z</time></trkpt><trkpt lat="43.8898531" lon="12.3827876"><ele>467.8333333333333</ele><time>2026-03-22T08:05:53.126Z</time></trkpt><trkpt lat="43.889919" lon="12.3828886"><ele>468.0</ele><time>2026-03-22T08:05:55.126Z</time></trkpt><trkpt lat="43.8899842" lon="12.3829979"><ele>469.2</ele><time>2026-03-22T08:05:57.097Z</time></trkpt><trkpt lat="43.8900447" lon="12.3831044"><ele>470.4</ele><time>2026-03-22T08:05:59.107Z</time></trkpt><trkpt lat="43.8901015" lon="12.3832061"><ele>471.59999999999997</ele><time>2026-03-22T08:06:01.123Z</time></trkpt><trkpt lat="43.8901634" lon="12.3833038"><ele>472.79999999999995</ele><time>2026-03-22T08:06:03.131Z</time></trkpt><trkpt lat="43.8902232" lon="12.3833969"><ele>474.0</ele><time>2026-03-22T08:06:05.131Z</time></trkpt><trkpt lat="43.8902718" lon="12.3834888"><ele>473.99999999999994</ele><time>2026-03-22T08:06:07.125Z</time></trkpt><trkpt lat="43.8903152" lon="12.3835608"><ele>474.0</ele><time>2026-03-22T08:06:09.13Z</time></trkpt><trkpt lat="43.8903608" lon="12.3836422"><ele>473.99999999999994</ele><time>2026-03-22T08:06:12.11Z</time></trkpt><trkpt lat="43.890405" lon="12.3837287"><ele>473.99999999999994</ele><time>2026-03-22T08:06:16.125Z</time></trkpt><trkpt lat="43.8904401" lon="12.383803"><ele>474.0</ele><time>2026-03-22T08:06:19.115Z</time></trkpt><trkpt lat="43.8904963" lon="12.3838919"><ele>473.99999999999994</ele><time>2026-03-22T08:06:23.115Z</time></trkpt><trkpt lat="43.8905472" lon="12.3839645"><ele>473.99999999999994</ele><time>2026-03-22T08:06:26.117Z</time></trkpt><trkpt lat="43.8905949" lon="12.3840349"><ele>472.99999999999994</ele><time>2026-03-22T08:06:29.126Z</time></trkpt><trkpt lat="43.89066" lon="12.3840735"><ele>472.0</ele><time>2026-03-22T08:06:32.066Z</time></trkpt><trkpt lat="43.890726" lon="12.3841002"><ele>470.99999999999994</ele><time>2026-03-22T08:06:35.126Z</time></trkpt><trkpt lat="43.8907969" lon="12.3841145"><ele>469.99999999999994</ele><time>2026-03-22T08:06:39.135Z</time></trkpt><trkpt lat="43.89086" lon="12.384088"><ele>469.0</ele><time>2026-03-22T08:06:44.125Z</time></trkpt><trkpt lat="43.8909054" lon="12.3840242"><ele>467.99999999999994</ele><time>2026-03-22T08:06:49.127Z</time></trkpt><trkpt lat="43.8909397" lon="12.3839428"><ele>466.99999999999994</ele><time>2026-03-22T08:06:53.103Z</time></trkpt><trkpt lat="43.8909593" lon="12.3838484"><ele>468.8571428571428</ele><time>2026-03-22T08:06:57.124Z</time></trkpt><trkpt lat="43.8909874" lon="12.383756"><ele>470.71428571428567</ele><time>2026-03-22T08:07:02.126Z</time></trkpt><trkpt lat="43.8910222" lon="12.3836677"><ele>472.57142857142856</ele><time>2026-03-22T08:07:07.125Z</time></trkpt><trkpt lat="43.8910583" lon="12.3835805"><ele>474.4285714285714</ele><time>2026-03-22T08:07:12.138Z</time></trkpt><trkpt lat="43.8910966" lon="12.3835051"><ele>476.2857142857142</ele><time>2026-03-22T08:07:17.147Z</time></trkpt><trkpt lat="43.891132" lon="12.383431"><ele>478.14285714285717</ele><time>2026-03-22T08:07:21.134Z</time></trkpt><trkpt lat="43.8911847" lon="12.3833538"><ele>480.0</ele><time>2026-03-22T08:07:26.135Z</time></trkpt><trkpt lat="43.8912283" lon="12.3832724"><ele>480.0</ele><time>2026-03-22T08:07:31.136Z</time></trkpt><trkpt lat="43.8912854" lon="12.3832095"><ele>480.0</ele><time>2026-03-22T08:07:36.13Z</time></trkpt><trkpt lat="43.8913457" lon="12.3831346"><ele>480.0</ele><time>2026-03-22T08:07:41.128Z</time></trkpt><trkpt lat="43.891386" lon="12.3830565"><ele>480.0</ele><time>2026-03-22T08:07:45.139Z</time></trkpt><trkpt lat="43.8914346" lon="12.3829788"><ele>480.0</ele><time>2026-03-22T08:07:50.123Z</time></trkpt><trkpt lat="43.891485" lon="12.3829211"><ele>480.0</ele><time>2026-03-22T08:07:54.134Z</time></trkpt><trkpt lat="43.8915324" lon="12.3828459"><ele>480.0</ele><time>2026-03-22T08:07:59.128Z</time></trkpt><trkpt lat="43.8915804" lon="12.3827866"><ele>481.28571428571433</ele><time>2026-03-22T08:08:03.129Z</time></trkpt><trkpt lat="43.8916241" lon="12.3827197"><ele>482.57142857142856</ele><time>2026-03-22T08:08:07.111Z</time></trkpt><trkpt lat="43.8916682" lon="12.3826552"><ele>483.8571428571429</ele><time>2026-03-22T08:08:12.146Z</time></trkpt><trkpt lat="43.8917161" lon="12.3825763"><ele>485.14285714285717</ele><time>2026-03-22T08:08:17.118Z</time></trkpt><trkpt lat="43.8917633" lon="12.3825142"><ele>486.42857142857144</ele><time>2026-03-22T08:08:22.122Z</time></trkpt><trkpt lat="43.8918098" lon="12.3824497"><ele>487.7142857142857</ele><time>2026-03-22T08:08:26.11Z</time></trkpt><trkpt lat="43.8918497" lon="12.3823812"><ele>489.0</ele><time>2026-03-22T08:08:31.118Z</time></trkpt><trkpt lat="43.8918938" lon="12.3823142"><ele>489.28571428571433</ele><time>2026-03-22T08:08:36.143Z</time></trkpt><trkpt lat="43.8919394" lon="12.3822513"><ele>489.5714285714286</ele><time>2026-03-22T08:08:41.12Z</time></trkpt><trkpt lat="43.8919826" lon="12.3821814"><ele>489.8571428571429</ele><time>2026-03-22T08:08:46.131Z</time></trkpt><trkpt lat="43.8920341" lon="12.3821116"><ele>490.1428571428571</ele><time>2026-03-22T08:08:51.152Z</time></trkpt><trkpt lat="43.8920798" lon="12.3820406"><ele>490.4285714285714</ele><time>2026-03-22T08:08:56.126Z</time></trkpt><trkpt lat="43.892132" lon="12.3819711"><ele>490.71428571428567</ele><time>2026-03-22T08:09:01.148Z</time></trkpt><trkpt lat="43.892187" lon="12.3819041"><ele>491.0</ele><time>2026-03-22T08:09:07.119Z</time></trkpt><trkpt lat="43.8922323" lon="12.3818355"><ele>492.1428571428571</ele><time>2026-03-22T08:09:11.141Z</time></trkpt><trkpt lat="43.8922587" lon="12.3817511"><ele>493.2857142857142</ele><time>2026-03-22T08:09:14.127Z</time></trkpt><trkpt lat="43.892324" lon="12.3816811"><ele>494.42857142857144</ele><time>2026-03-22T08:09:18.15Z</time></trkpt><trkpt lat="43.8923779" lon="12.3816193"><ele>495.57142857142856</ele><time>2026-03-22T08:09:21.123Z</time></trkpt><trkpt lat="43.8924324" lon="12.38157"><ele>496.7142857142857</ele><time>2026-03-22T08:09:24.125Z</time></trkpt><trkpt lat="43.8924841" lon="12.381519"><ele>497.8571428571429</ele><time>2026-03-22T08:09:27.129Z</time></trkpt><trkpt lat="43.8925361" lon="12.3814667"><ele>499.00000000000006</ele><time>2026-03-22T08:09:30.141Z</time></trkpt><trkpt lat="43.8925938" lon="12.3814037"><ele>501.1428571428572</ele><time>2026-03-22T08:09:34.14Z</time></trkpt><trkpt lat="43.8926445" lon="12.3813395"><ele>503.28571428571433</ele><time>2026-03-22T08:09:39.131Z</time></trkpt><trkpt lat="43.8926947" lon="12.3812583"><ele>505.42857142857144</ele><time>2026-03-22T08:09:44.138Z</time></trkpt><trkpt lat="43.8927455" lon="12.3812001"><ele>507.5714285714286</ele><time>2026-03-22T08:09:48.115Z</time></trkpt><trkpt lat="43.8927953" lon="12.3811457"><ele>509.7142857142858</ele><time>2026-03-22T08:09:52.11Z</time></trkpt><trkpt lat="43.8928489" lon="12.3810916"><ele>511.85714285714283</ele><time>2026-03-22T08:09:56.135Z</time></trkpt><trkpt lat="43.8929027" lon="12.3810403"><ele>514.0</ele><time>2026-03-22T08:10:00.098Z</time></trkpt><trkpt lat="43.8929541" lon="12.3809894"><ele>514.0</ele><time>2026-03-22T08:10:04.172Z</time></trkpt><trkpt lat="43.8930186" lon="12.3809339"><ele>514.0</ele><time>2026-03-22T08:10:08.12Z</time></trkpt><trkpt lat="43.8930813" lon="12.3808734"><ele>514.0</ele><time>2026-03-22T08:10:12.129Z</time></trkpt><trkpt lat="43.8931413" lon="12.3808076"><ele>514.0</ele><time>2026-03-22T08:10:16.125Z</time></trkpt><trkpt lat="43.8932097" lon="12.3807469"><ele>514.0</ele><time>2026-03-22T08:10:20.115Z</time></trkpt><trkpt lat="43.8932788" lon="12.3806843"><ele>514.0</ele><time>2026-03-22T08:10:23.135Z</time></trkpt><trkpt lat="43.8933346" lon="12.3806301"><ele>514.0</ele><time>2026-03-22T08:10:26.134Z</time></trkpt><trkpt lat="43.8933936" lon="12.3805866"><ele>514.0</ele><time>2026-03-22T08:10:29.118Z</time></trkpt><trkpt lat="43.8934625" lon="12.3805425"><ele>514.0</ele><time>2026-03-22T08:10:33.123Z</time></trkpt><trkpt lat="43.8935313" lon="12.3804923"><ele>514.0</ele><time>2026-03-22T08:10:37.163Z</time></trkpt><trkpt lat="43.8936012" lon="12.3804344"><ele>514.0</ele><time>2026-03-22T08:10:42.146Z</time></trkpt><trkpt lat="43.8936743" lon="12.3803717"><ele>514.0</ele><time>2026-03-22T08:10:46.12Z</time></trkpt><trkpt lat="43.893743" lon="12.3803077"><ele>515.2857142857142</ele><time>2026-03-22T08:10:49.116Z</time></trkpt><trkpt lat="43.8938204" lon="12.3802503"><ele>516.5714285714286</ele><time>2026-03-22T08:10:52.127Z</time></trkpt><trkpt lat="43.8938861" lon="12.3802013"><ele>517.8571428571429</ele><time>2026-03-22T08:10:55.15Z</time></trkpt><trkpt lat="43.8939488" lon="12.3801488"><ele>519.1428571428571</ele><time>2026-03-22T08:10:59.133Z</time></trkpt><trkpt lat="43.8940049" lon="12.3800954"><ele>520.4285714285714</ele><time>2026-03-22T08:11:03.131Z</time></trkpt><trkpt lat="43.8940598" lon="12.3800365"><ele>521.7142857142857</ele><time>2026-03-22T08:11:07.134Z</time></trkpt><trkpt lat="43.894125" lon="12.3799931"><ele>523.0</ele><time>2026-03-22T08:11:12.104Z</time></trkpt><trkpt lat="43.8941739" lon="12.379938"><ele>522.9999999999999</ele><time>2026-03-22T08:11:16.133Z</time></trkpt><trkpt lat="43.8942355" lon="12.3798806"><ele>523.0</ele><time>2026-03-22T08:11:21.127Z</time></trkpt><trkpt lat="43.8942861" lon="12.379822"><ele>523.0</ele><time>2026-03-22T08:11:25.146Z</time></trkpt><trkpt lat="43.8943189" lon="12.3797369"><ele>523.0</ele><time>2026-03-22T08:11:29.126Z</time></trkpt><trkpt lat="43.8943421" lon="12.3796543"><ele>523.0</ele><time>2026-03-22T08:11:33.142Z</time></trkpt><trkpt lat="43.8943197" lon="12.3795471"><ele>522.9999999999999</ele><time>2026-03-22T08:11:37.13Z</time></trkpt><trkpt lat="43.8942685" lon="12.3794819"><ele>523.0</ele><time>2026-03-22T08:11:41.132Z</time></trkpt><trkpt lat="43.8941918" lon="12.3794717"><ele>523.4285714285713</ele><time>2026-03-22T08:11:46.127Z</time></trkpt><trkpt lat="43.8941203" lon="12.379488"><ele>523.8571428571429</ele><time>2026-03-22T08:11:50.133Z</time></trkpt><trkpt lat="43.8940477" lon="12.3794936"><ele>524.2857142857142</ele><time>2026-03-22T08:11:53.098Z</time></trkpt><trkpt lat="43.893983" lon="12.3794792"><ele>524.7142857142857</ele><time>2026-03-22T08:11:56.13Z</time></trkpt><trkpt lat="43.8939125" lon="12.3794506"><ele>525.1428571428571</ele><time>2026-03-22T08:12:00.109Z</time></trkpt><trkpt lat="43.8938404" lon="12.3794546"><ele>525.5714285714286</ele><time>2026-03-22T08:12:05.105Z</time></trkpt><trkpt lat="43.8937654" lon="12.3794661"><ele>526.0</ele><time>2026-03-22T08:12:10.147Z</time></trkpt><trkpt lat="43.8937032" lon="12.3794889"><ele>526.0</ele><time>2026-03-22T08:12:14.12Z</time></trkpt><trkpt lat="43.8936255" lon="12.3794811"><ele>526.0</ele><time>2026-03-22T08:12:19.123Z</time></trkpt><trkpt lat="43.8935532" lon="12.3794543"><ele>526.0</ele><time>2026-03-22T08:12:25.116Z</time></trkpt><trkpt lat="43.8934864" lon="12.3794249"><ele>526.0</ele><time>2026-03-22T08:12:31.137Z</time></trkpt><trkpt lat="43.8934269" lon="12.3793883"><ele>526.0</ele><time>2026-03-22T08:12:36.102Z</time></trkpt><trkpt lat="43.8933803" lon="12.3793294"><ele>526.0</ele><time>2026-03-22T08:12:41.123Z</time></trkpt><trkpt lat="43.893334" lon="12.379255"><ele>526.0</ele><time>2026-03-22T08:12:47.099Z</time></trkpt><trkpt lat="43.8932994" lon="12.3791813"><ele>527.0</ele><time>2026-03-22T08:12:52.144Z</time></trkpt><trkpt lat="43.8932713" lon="12.379097"><ele>528.0</ele><time>2026-03-22T08:12:56.133Z</time></trkpt><trkpt lat="43.8932263" lon="12.3790193"><ele>529.0</ele><time>2026-03-22T08:13:00.123Z</time></trkpt><trkpt lat="43.8931801" lon="12.3789404"><ele>530.0</ele><time>2026-03-22T08:13:03.139Z</time></trkpt><trkpt lat="43.8931347" lon="12.3788597"><ele>531.0</ele><time>2026-03-22T08:13:06.136Z</time></trkpt><trkpt lat="43.8930804" lon="12.3787841"><ele>532.0</ele><time>2026-03-22T08:13:09.117Z</time></trkpt><trkpt lat="43.8930367" lon="12.3787116"><ele>533.0</ele><time>2026-03-22T08:13:11.114Z</time></trkpt><trkpt lat="43.892978" lon="12.3786179"><ele>533.0</ele><time>2026-03-22T08:13:13.125Z</time></trkpt><trkpt lat="43.8929486" lon="12.3784972"><ele>533.0</ele><time>2026-03-22T08:13:15.133Z</time></trkpt><trkpt lat="43.8929136" lon="12.3783648"><ele>533.0</ele><time>2026-03-22T08:13:17.136Z</time></trkpt><trkpt lat="43.8928806" lon="12.3782411"><ele>533.0</ele><time>2026-03-22T08:13:19.137Z</time></trkpt><trkpt lat="43.8928668" lon="12.3781198"><ele>533.0</ele><time>2026-03-22T08:13:22.143Z</time></trkpt><trkpt lat="43.8928476" lon="12.3780339"><ele>533.0</ele><time>2026-03-22T08:13:25.112Z</time></trkpt><trkpt lat="43.8928244" lon="12.3779391"><ele>534.0</ele><time>2026-03-22T08:13:29.133Z</time></trkpt><trkpt lat="43.8927991" lon="12.3778425"><ele>535.0</ele><time>2026-03-22T08:13:33.146Z</time></trkpt><trkpt lat="43.8927667" lon="12.3777645"><ele>536.0</ele><time>2026-03-22T08:13:37.118Z</time></trkpt><trkpt lat="43.8927255" lon="12.3776851"><ele>537.0</ele><time>2026-03-22T08:13:41.131Z</time></trkpt><trkpt lat="43.892672" lon="12.3776276"><ele>538.0</ele><time>2026-03-22T08:13:45.117Z</time></trkpt><trkpt lat="43.8926083" lon="12.3776014"><ele>539.0</ele><time>2026-03-22T08:13:49.146Z</time></trkpt><trkpt lat="43.8925413" lon="12.3775567"><ele>540.0</ele><time>2026-03-22T08:13:53.126Z</time></trkpt><trkpt lat="43.8924788" lon="12.3775322"><ele>542.2857142857142</ele><time>2026-03-22T08:13:56.137Z</time></trkpt><trkpt lat="43.8924162" lon="12.3774753"><ele>544.5714285714286</ele><time>2026-03-22T08:14:00.137Z</time></trkpt><trkpt lat="43.8923677" lon="12.3773973"><ele>546.8571428571429</ele><time>2026-03-22T08:14:04.094Z</time></trkpt><trkpt lat="43.8923588" lon="12.3773099"><ele>549.1428571428571</ele><time>2026-03-22T08:14:08.117Z</time></trkpt><trkpt lat="43.8924045" lon="12.3772281"><ele>551.4285714285714</ele><time>2026-03-22T08:14:13.093Z</time></trkpt><trkpt lat="43.8924623" lon="12.3771734"><ele>553.7142857142857</ele><time>2026-03-22T08:14:18.1Z</time></trkpt><trkpt lat="43.8925261" lon="12.3771211"><ele>556.0</ele><time>2026-03-22T08:14:24.13Z</time></trkpt><trkpt lat="43.8925853" lon="12.377073"><ele>555.8571428571429</ele><time>2026-03-22T08:14:30.156Z</time></trkpt><trkpt lat="43.8926452" lon="12.377029"><ele>555.7142857142858</ele><time>2026-03-22T08:14:37.143Z</time></trkpt><trkpt lat="43.8926977" lon="12.3769661"><ele>555.5714285714287</ele><time>2026-03-22T08:14:44.091Z</time></trkpt><trkpt lat="43.8927555" lon="12.3769237"><ele>555.4285714285714</ele><time>2026-03-22T08:14:50.142Z</time></trkpt><trkpt lat="43.8928083" lon="12.3768523"><ele>555.2857142857143</ele><time>2026-03-22T08:14:57.101Z</time></trkpt><trkpt lat="43.8928399" lon="12.3767734"><ele>555.1428571428572</ele><time>2026-03-22T08:15:02.142Z</time></trkpt><trkpt lat="43.8928609" lon="12.3766818"><ele>555.0</ele><time>2026-03-22T08:15:07.138Z</time></trkpt><trkpt lat="43.8928695" lon="12.3765808"><ele>555.0000000000001</ele><time>2026-03-22T08:15:12.136Z</time></trkpt><trkpt lat="43.8928693" lon="12.3764852"><ele>555.0</ele><time>2026-03-22T08:15:18.119Z</time></trkpt><trkpt lat="43.8928839" lon="12.3763874"><ele>555.0</ele><time>2026-03-22T08:15:25.126Z</time></trkpt><trkpt lat="43.89291" lon="12.3762927"><ele>555.0</ele><time>2026-03-22T08:15:32.122Z</time></trkpt><trkpt lat="43.8929545" lon="12.3762076"><ele>555.0</ele><time>2026-03-22T08:15:39.148Z</time></trkpt><trkpt lat="43.8929721" lon="12.3761198"><ele>555.0000000000001</ele><time>2026-03-22T08:15:45.136Z</time></trkpt><trkpt lat="43.8929888" lon="12.3760322"><ele>555.0</ele><time>2026-03-22T08:15:50.11Z</time></trkpt><trkpt lat="43.8929824" lon="12.375929"><ele>556.7142857142858</ele><time>2026-03-22T08:15:56.133Z</time></trkpt><trkpt lat="43.8929518" lon="12.3758386"><ele>558.4285714285714</ele><time>2026-03-22T08:16:02.13Z</time></trkpt><trkpt lat="43.8928968" lon="12.3757774"><ele>560.1428571428571</ele><time>2026-03-22T08:16:08.123Z</time></trkpt><trkpt lat="43.8928446" lon="12.3757168"><ele>561.8571428571429</ele><time>2026-03-22T08:16:14.122Z</time></trkpt><trkpt lat="43.8927881" lon="12.3756778"><ele>563.5714285714286</ele><time>2026-03-22T08:16:19.123Z</time></trkpt><trkpt lat="43.8927267" lon="12.3756311"><ele>565.2857142857143</ele><time>2026-03-22T08:16:25.11Z</time></trkpt><trkpt lat="43.8926666" lon="12.3755963"><ele>567.0</ele><time>2026-03-22T08:16:32.138Z</time></trkpt><trkpt lat="43.8926058" lon="12.3755608"><ele>569.8571428571429</ele><time>2026-03-22T08:16:38.124Z</time></trkpt><trkpt lat="43.8925345" lon="12.3755269"><ele>572.7142857142858</ele><time>2026-03-22T08:16:46.138Z</time></trkpt><trkpt lat="43.8924715" lon="12.3754949"><ele>575.5714285714286</ele><time>2026-03-22T08:16:53.116Z</time></trkpt><trkpt lat="43.8924113" lon="12.3754676"><ele>578.4285714285714</ele><time>2026-03-22T08:16:58.135Z</time></trkpt><trkpt lat="43.8923504" lon="12.3754335"><ele>581.2857142857143</ele><time>2026-03-22T08:17:04.152Z</time></trkpt><trkpt lat="43.8922825" lon="12.3754087"><ele>584.1428571428571</ele><time>2026-03-22T08:17:10.124Z</time></trkpt><trkpt lat="43.8922135" lon="12.3753676"><ele>587.0</ele><time>2026-03-22T08:17:15.12Z</time></trkpt><trkpt lat="43.8921593" lon="12.375322"><ele>587.4285714285714</ele><time>2026-03-22T08:17:21.148Z</time></trkpt><trkpt lat="43.8921073" lon="12.3752687"><ele>587.8571428571429</ele><time>2026-03-22T08:17:27.136Z</time></trkpt><trkpt lat="43.89205" lon="12.375232"><ele>588.2857142857143</ele><time>2026-03-22T08:17:32.147Z</time></trkpt><trkpt lat="43.8919902" lon="12.3751824"><ele>588.7142857142858</ele><time>2026-03-22T08:17:38.147Z</time></trkpt><trkpt lat="43.891923" lon="12.3751455"><ele>589.1428571428571</ele><time>2026-03-22T08:17:44.071Z</time></trkpt><trkpt lat="43.8918616" lon="12.3751008"><ele>589.5714285714287</ele><time>2026-03-22T08:17:49.134Z</time></trkpt><trkpt lat="43.8917985" lon="12.37506"><ele>590.0</ele><time>2026-03-22T08:17:55.122Z</time></trkpt><trkpt lat="43.8917331" lon="12.3750099"><ele>592.2857142857143</ele><time>2026-03-22T08:18:01.13Z</time></trkpt><trkpt lat="43.89166" lon="12.3749845"><ele>594.5714285714286</ele><time>2026-03-22T08:18:07.143Z</time></trkpt><trkpt lat="43.8916043" lon="12.3749398"><ele>596.8571428571429</ele><time>2026-03-22T08:18:12.127Z</time></trkpt><trkpt lat="43.8915467" lon="12.3748878"><ele>599.1428571428571</ele><time>2026-03-22T08:18:17.141Z</time></trkpt><trkpt lat="43.8914901" lon="12.3748129"><ele>601.4285714285714</ele><time>2026-03-22T08:18:23.142Z</time></trkpt><trkpt lat="43.8914275" lon="12.3747664"><ele>603.7142857142858</ele><time>2026-03-22T08:18:28.123Z</time></trkpt><trkpt lat="43.8913717" lon="12.3747147"><ele>606.0</ele><time>2026-03-22T08:18:33.12Z</time></trkpt><trkpt lat="43.8912982" lon="12.3747144"><ele>606.0</ele><time>2026-03-22T08:18:39.123Z</time></trkpt><trkpt lat="43.8912295" lon="12.3747166"><ele>606.0</ele><time>2026-03-22T08:18:45.122Z</time></trkpt><trkpt lat="43.8911475" lon="12.374735"><ele>606.0</ele><time>2026-03-22T08:18:50.075Z</time></trkpt><trkpt lat="43.8910793" lon="12.3747665"><ele>606.0</ele><time>2026-03-22T08:18:54.068Z</time></trkpt><trkpt lat="43.8910104" lon="12.3748053"><ele>606.0</ele><time>2026-03-22T08:18:57.112Z</time></trkpt><trkpt lat="43.8909303" lon="12.374861"><ele>606.0</ele><time>2026-03-22T08:19:00.091Z</time></trkpt><trkpt lat="43.8908443" lon="12.3748995"><ele>605.8</ele><time>2026-03-22T08:19:02.114Z</time></trkpt><trkpt lat="43.890727" lon="12.3749155"><ele>605.6</ele><time>2026-03-22T08:19:04.133Z</time></trkpt><trkpt lat="43.8905957" lon="12.3748552"><ele>605.4</ele><time>2026-03-22T08:19:06.124Z</time></trkpt><trkpt lat="43.8905285" lon="12.3747946"><ele>605.2</ele><time>2026-03-22T08:19:07.088Z</time></trkpt><trkpt lat="43.8904616" lon="12.3747151"><ele>605.0</ele><time>2026-03-22T08:19:08.133Z</time></trkpt><trkpt lat="43.8903853" lon="12.3746301"><ele>605.0</ele><time>2026-03-22T08:19:09.128Z</time></trkpt><trkpt lat="43.8903018" lon="12.374522"><ele>605.0</ele><time>2026-03-22T08:19:10.126Z</time></trkpt><trkpt lat="43.8902208" lon="12.3744065"><ele>605.0</ele><time>2026-03-22T08:19:11.096Z</time></trkpt><trkpt lat="43.8901281" lon="12.374298"><ele>605.0</ele><time>2026-03-22T08:19:12.135Z</time></trkpt><trkpt lat="43.8900413" lon="12.3741929"><ele>604.75</ele><time>2026-03-22T08:19:13.125Z</time></trkpt><trkpt lat="43.8899559" lon="12.3740824"><ele>604.5</ele><time>2026-03-22T08:19:14.137Z</time></trkpt><trkpt lat="43.8898723" lon="12.3739737"><ele>604.25</ele><time>2026-03-22T08:19:15.13Z</time></trkpt><trkpt lat="43.889786" lon="12.3738714"><ele>604.0</ele><time>2026-03-22T08:19:16.114Z</time></trkpt><trkpt lat="43.8896995" lon="12.3737753"><ele>602.5</ele><time>2026-03-22T08:19:17.124Z</time></trkpt><trkpt lat="43.8896276" lon="12.3736789"><ele>601.0</ele><time>2026-03-22T08:19:18.135Z</time></trkpt><trkpt lat="43.8895539" lon="12.3735895"><ele>599.5</ele><time>2026-03-22T08:19:19.122Z</time></trkpt><trkpt lat="43.8894855" lon="12.3735074"><ele>598.0</ele><time>2026-03-22T08:19:20.134Z</time></trkpt><trkpt lat="43.8894318" lon="12.373434"><ele>596.5</ele><time>2026-03-22T08:19:21.091Z</time></trkpt><trkpt lat="43.8893859" lon="12.3733688"><ele>595.0</ele><time>2026-03-22T08:19:22.131Z</time></trkpt><trkpt lat="43.8893198" lon="12.3732977"><ele>595.0</ele><time>2026-03-22T08:19:24.129Z</time></trkpt><trkpt lat="43.8892691" lon="12.3732444"><ele>595.0</ele><time>2026-03-22T08:19:26.128Z</time></trkpt><trkpt lat="43.8892065" lon="12.3731692"><ele>595.0</ele><time>2026-03-22T08:19:29.127Z</time></trkpt><trkpt lat="43.8891514" lon="12.3730902"><ele>595.0</ele><time>2026-03-22T08:19:33.137Z</time></trkpt><trkpt lat="43.8890902" lon="12.3730235"><ele>595.0</ele><time>2026-03-22T08:19:37.12Z</time></trkpt><trkpt lat="43.8890418" lon="12.3729647"><ele>595.0</ele><time>2026-03-22T08:19:41.119Z</time></trkpt><trkpt lat="43.888978" lon="12.3729046"><ele>595.0</ele><time>2026-03-22T08:19:47.118Z</time></trkpt><trkpt lat="43.8889213" lon="12.3728659"><ele>596.4285714285714</ele><time>2026-03-22T08:19:51.125Z</time></trkpt><trkpt lat="43.8888536" lon="12.3728403"><ele>597.8571428571429</ele><time>2026-03-22T08:19:56.096Z</time></trkpt><trkpt lat="43.8887923" lon="12.3728141"><ele>599.2857142857142</ele><time>2026-03-22T08:20:00.128Z</time></trkpt><trkpt lat="43.8887242" lon="12.3727864"><ele>600.7142857142858</ele><time>2026-03-22T08:20:04.135Z</time></trkpt><trkpt lat="43.8886493" lon="12.3727728"><ele>602.1428571428571</ele><time>2026-03-22T08:20:08.133Z</time></trkpt><trkpt lat="43.888578" lon="12.3727636"><ele>603.5714285714286</ele><time>2026-03-22T08:20:12.127Z</time></trkpt><trkpt lat="43.8885095" lon="12.3727577"><ele>605.0</ele><time>2026-03-22T08:20:16.13Z</time></trkpt><trkpt lat="43.8884378" lon="12.3727499"><ele>608.1428571428571</ele><time>2026-03-22T08:20:20.149Z</time></trkpt><trkpt lat="43.8883665" lon="12.3727605"><ele>611.2857142857143</ele><time>2026-03-22T08:20:24.127Z</time></trkpt><trkpt lat="43.8883026" lon="12.3727614"><ele>614.4285714285714</ele><time>2026-03-22T08:20:27.125Z</time></trkpt><trkpt lat="43.8882249" lon="12.3727662"><ele>617.5714285714286</ele><time>2026-03-22T08:20:31.133Z</time></trkpt><trkpt lat="43.8881486" lon="12.3727731"><ele>620.7142857142857</ele><time>2026-03-22T08:20:35.124Z</time></trkpt><trkpt lat="43.8880772" lon="12.3727994"><ele>623.8571428571429</ele><time>2026-03-22T08:20:39.133Z</time></trkpt><trkpt lat="43.8880046" lon="12.3728221"><ele>627.0</ele><time>2026-03-22T08:20:43.128Z</time></trkpt><trkpt lat="43.887945" lon="12.3728525"><ele>627.0</ele><time>2026-03-22T08:20:46.119Z</time></trkpt><trkpt lat="43.8878686" lon="12.3728918"><ele>627.0</ele><time>2026-03-22T08:20:50.142Z</time></trkpt><trkpt lat="43.8878057" lon="12.3729241"><ele>627.0</ele><time>2026-03-22T08:20:54.12Z</time></trkpt><trkpt lat="43.887744" lon="12.372968"><ele>627.0</ele><time>2026-03-22T08:20:58.14Z</time></trkpt><trkpt lat="43.8876828" lon="12.3730026"><ele>627.0</ele><time>2026-03-22T08:21:02.132Z</time></trkpt><trkpt lat="43.8876202" lon="12.3729793"><ele>627.0</ele><time>2026-03-22T08:21:07.129Z</time></trkpt><trkpt lat="43.8876185" lon="12.3728781"><ele>627.0</ele><time>2026-03-22T08:21:12.114Z</time></trkpt><trkpt lat="43.8876612" lon="12.3727988"><ele>627.0</ele><time>2026-03-22T08:21:17.134Z</time></trkpt><trkpt lat="43.8877244" lon="12.3727377"><ele>627.0</ele><time>2026-03-22T08:21:22.133Z</time></trkpt><trkpt lat="43.8877798" lon="12.3726563"><ele>627.0</ele><time>2026-03-22T08:21:27.114Z</time></trkpt><trkpt lat="43.887836" lon="12.3725844"><ele>627.0</ele><time>2026-03-22T08:21:31.144Z</time></trkpt><trkpt lat="43.887893" lon="12.3725206"><ele>627.0</ele><time>2026-03-22T08:21:35.119Z</time></trkpt><trkpt lat="43.8879542" lon="12.3724675"><ele>627.0</ele><time>2026-03-22T08:21:40.134Z</time></trkpt><trkpt lat="43.8880028" lon="12.372385"><ele>627.0</ele><time>2026-03-22T08:21:44.108Z</time></trkpt><trkpt lat="43.8880447" lon="12.3722909"><ele>627.0</ele><time>2026-03-22T08:21:48.11Z</time></trkpt><trkpt lat="43.8880734" lon="12.3722046"><ele>627.0</ele><time>2026-03-22T08:21:52.129Z</time></trkpt><trkpt lat="43.888078" lon="12.3720813"><ele>627.0</ele><time>2026-03-22T08:21:56.098Z</time></trkpt><trkpt lat="43.8880356" lon="12.3719703"><ele>627.0</ele><time>2026-03-22T08:21:59.13Z</time></trkpt><trkpt lat="43.8879851" lon="12.3718747"><ele>627.0</ele><time>2026-03-22T08:22:01.093Z</time></trkpt><trkpt lat="43.8879445" lon="12.3717514"><ele>626.6666666666666</ele><time>2026-03-22T08:22:03.148Z</time></trkpt><trkpt lat="43.887913" lon="12.3716172"><ele>626.3333333333334</ele><time>2026-03-22T08:22:05.144Z</time></trkpt><trkpt lat="43.8879152" lon="12.3715271"><ele>626.0</ele><time>2026-03-22T08:22:06.084Z</time></trkpt><trkpt lat="43.8879245" lon="12.3713546"><ele>625.6666666666667</ele><time>2026-03-22T08:22:08.128Z</time></trkpt><trkpt lat="43.8879188" lon="12.371265"><ele>625.3333333333334</ele><time>2026-03-22T08:22:09.161Z</time></trkpt><trkpt lat="43.8879007" lon="12.3711717"><ele>625.0</ele><time>2026-03-22T08:22:10.139Z</time></trkpt><trkpt lat="43.8878564" lon="12.3710946"><ele>625.3333333333334</ele><time>2026-03-22T08:22:11.134Z</time></trkpt><trkpt lat="43.8878025" lon="12.3710211"><ele>625.6666666666667</ele><time>2026-03-22T08:22:12.122Z</time></trkpt><trkpt lat="43.8877499" lon="12.3709438"><ele>626.0</ele><time>2026-03-22T08:22:13.146Z</time></trkpt><trkpt lat="43.8876941" lon="12.3708785"><ele>626.3333333333334</ele><time>2026-03-22T08:22:14.142Z</time></trkpt><trkpt lat="43.8876338" lon="12.370811"><ele>626.6666666666666</ele><time>2026-03-22T08:22:15.138Z</time></trkpt><trkpt lat="43.8875693" lon="12.370745"><ele>627.0</ele><time>2026-03-22T08:22:16.139Z</time></trkpt><trkpt lat="43.8874947" lon="12.3706775"><ele>627.0</ele><time>2026-03-22T08:22:17.135Z</time></trkpt><trkpt lat="43.8874214" lon="12.3706123"><ele>627.0</ele><time>2026-03-22T08:22:18.119Z</time></trkpt><trkpt lat="43.887359" lon="12.3705522"><ele>627.0</ele><time>2026-03-22T08:22:19.139Z</time></trkpt><trkpt lat="43.8873006" lon="12.3704906"><ele>627.0</ele><time>2026-03-22T08:22:20.139Z</time></trkpt><trkpt lat="43.8872462" lon="12.370441"><ele>627.0</ele><time>2026-03-22T08:22:21.149Z</time></trkpt><trkpt lat="43.887192" lon="12.370391"><ele>627.0</ele><time>2026-03-22T08:22:22.136Z</time></trkpt><trkpt lat="43.8870906" lon="12.3703036"><ele>627.3333333333334</ele><time>2026-03-22T08:22:24.115Z</time></trkpt><trkpt lat="43.8870263" lon="12.3702191"><ele>627.6666666666666</ele><time>2026-03-22T08:22:26.13Z</time></trkpt><trkpt lat="43.8869747" lon="12.370169"><ele>628.0</ele><time>2026-03-22T08:22:28.139Z</time></trkpt><trkpt lat="43.8869057" lon="12.3701043"><ele>628.3333333333333</ele><time>2026-03-22T08:22:31.092Z</time></trkpt><trkpt lat="43.8868293" lon="12.3700194"><ele>628.6666666666666</ele><time>2026-03-22T08:22:34.134Z</time></trkpt><trkpt lat="43.8867562" lon="12.369947"><ele>629.0</ele><time>2026-03-22T08:22:37.137Z</time></trkpt><trkpt lat="43.886687" lon="12.369885"><ele>629.0</ele><time>2026-03-22T08:22:40.125Z</time></trkpt><trkpt lat="43.8866267" lon="12.3697984"><ele>629.0</ele><time>2026-03-22T08:22:44.111Z</time></trkpt><trkpt lat="43.8865834" lon="12.3697312"><ele>629.0</ele><time>2026-03-22T08:22:47.13Z</time></trkpt><trkpt lat="43.8865298" lon="12.3696772"><ele>629.0</ele><time>2026-03-22T08:22:51.098Z</time></trkpt><trkpt lat="43.8864796" lon="12.3696104"><ele>629.0</ele><time>2026-03-22T08:22:56.13Z</time></trkpt><trkpt lat="43.8864175" lon="12.3695561"><ele>629.0</ele><time>2026-03-22T08:23:01.14Z</time></trkpt><trkpt lat="43.8863654" lon="12.3695003"><ele>629.0</ele><time>2026-03-22T08:23:06.136Z</time></trkpt><trkpt lat="43.8863181" lon="12.3694401"><ele>627.5714285714286</ele><time>2026-03-22T08:23:11.152Z</time></trkpt><trkpt lat="43.8862659" lon="12.369373"><ele>626.1428571428572</ele><time>2026-03-22T08:23:17.122Z</time></trkpt><trkpt lat="43.8861933" lon="12.3693323"><ele>624.7142857142858</ele><time>2026-03-22T08:23:22.103Z</time></trkpt><trkpt lat="43.8861132" lon="12.3692993"><ele>623.2857142857142</ele><time>2026-03-22T08:23:27.095Z</time></trkpt><trkpt lat="43.8860552" lon="12.3692646"><ele>621.8571428571429</ele><time>2026-03-22T08:23:31.132Z</time></trkpt><trkpt lat="43.885997" lon="12.3692192"><ele>620.4285714285714</ele><time>2026-03-22T08:23:35.124Z</time></trkpt><trkpt lat="43.885919" lon="12.3691952"><ele>619.0</ele><time>2026-03-22T08:23:40.141Z</time></trkpt><trkpt lat="43.8858441" lon="12.3691686"><ele>623.0</ele><time>2026-03-22T08:23:44.139Z</time></trkpt><trkpt lat="43.8857654" lon="12.3691373"><ele>627.0</ele><time>2026-03-22T08:23:48.088Z</time></trkpt><trkpt lat="43.8856859" lon="12.3691215"><ele>631.0</ele><time>2026-03-22T08:23:52.129Z</time></trkpt><trkpt lat="43.8856024" lon="12.3691196"><ele>635.0</ele><time>2026-03-22T08:23:56.117Z</time></trkpt><trkpt lat="43.8855242" lon="12.369093"><ele>639.0</ele><time>2026-03-22T08:23:59.113Z</time></trkpt><trkpt lat="43.8854517" lon="12.3690635"><ele>643.0</ele><time>2026-03-22T08:24:02.121Z</time></trkpt><trkpt lat="43.885362" lon="12.369038"><ele>643.0</ele><time>2026-03-22T08:24:05.128Z</time></trkpt><trkpt lat="43.8852943" lon="12.3690098"><ele>643.0</ele><time>2026-03-22T08:24:07.124Z</time></trkpt><trkpt lat="43.8852153" lon="12.3689744"><ele>643.0</ele><time>2026-03-22T08:24:10.14Z</time></trkpt><trkpt lat="43.8851507" lon="12.3689417"><ele>643.0</ele><time>2026-03-22T08:24:13.129Z</time></trkpt><trkpt lat="43.8850739" lon="12.3688879"><ele>643.0</ele><time>2026-03-22T08:24:17.147Z</time></trkpt><trkpt lat="43.8850056" lon="12.3688506"><ele>643.0</ele><time>2026-03-22T08:24:21.146Z</time></trkpt><trkpt lat="43.88494" lon="12.368804"><ele>643.2857142857142</ele><time>2026-03-22T08:24:25.126Z</time></trkpt><trkpt lat="43.8848866" lon="12.3687482"><ele>643.5714285714287</ele><time>2026-03-22T08:24:29.133Z</time></trkpt><trkpt lat="43.8848343" lon="12.3686688"><ele>643.8571428571429</ele><time>2026-03-22T08:24:33.14Z</time></trkpt><trkpt lat="43.8847877" lon="12.3686009"><ele>644.1428571428571</ele><time>2026-03-22T08:24:37.134Z</time></trkpt><trkpt lat="43.8847422" lon="12.368515"><ele>644.4285714285713</ele><time>2026-03-22T08:24:41.132Z</time></trkpt><trkpt lat="43.8846863" lon="12.3684526"><ele>644.7142857142858</ele><time>2026-03-22T08:24:45.121Z</time></trkpt><trkpt lat="43.8846377" lon="12.3683857"><ele>645.0</ele><time>2026-03-22T08:24:49.135Z</time></trkpt><trkpt lat="43.8845774" lon="12.3683151"><ele>645.0</ele><time>2026-03-22T08:24:53.151Z</time></trkpt><trkpt lat="43.8845198" lon="12.3682668"><ele>645.0</ele><time>2026-03-22T08:24:56.124Z</time></trkpt><trkpt lat="43.8844364" lon="12.3682419"><ele>645.0</ele><time>2026-03-22T08:24:59.123Z</time></trkpt><trkpt lat="43.8843669" lon="12.3682331"><ele>645.0</ele><time>2026-03-22T08:25:01.1Z</time></trkpt><trkpt lat="43.8842865" lon="12.3682378"><ele>645.0</ele><time>2026-03-22T08:25:03.133Z</time></trkpt><trkpt lat="43.8841853" lon="12.3682416"><ele>645.0</ele><time>2026-03-22T08:25:05.138Z</time></trkpt><trkpt lat="43.8840693" lon="12.3682478"><ele>646.1666666666666</ele><time>2026-03-22T08:25:07.131Z</time></trkpt><trkpt lat="43.883995" lon="12.3682574"><ele>647.3333333333334</ele><time>2026-03-22T08:25:08.149Z</time></trkpt><trkpt lat="43.8839203" lon="12.3682649"><ele>648.5</ele><time>2026-03-22T08:25:09.144Z</time></trkpt><trkpt lat="43.8838452" lon="12.3682637"><ele>649.6666666666667</ele><time>2026-03-22T08:25:10.132Z</time></trkpt><trkpt lat="43.8837633" lon="12.3682557"><ele>650.8333333333334</ele><time>2026-03-22T08:25:11.136Z</time></trkpt><trkpt lat="43.8836806" lon="12.3682232"><ele>652.0</ele><time>2026-03-22T08:25:12.155Z</time></trkpt><trkpt lat="43.8835976" lon="12.3681656"><ele>652.0</ele><time>2026-03-22T08:25:13.142Z</time></trkpt><trkpt lat="43.8835179" lon="12.368108"><ele>652.0</ele><time>2026-03-22T08:25:14.14Z</time></trkpt><trkpt lat="43.8834533" lon="12.3680417"><ele>652.0</ele><time>2026-03-22T08:25:15.147Z</time></trkpt><trkpt lat="43.8833908" lon="12.3679644"><ele>652.0</ele><time>2026-03-22T08:25:16.135Z</time></trkpt><trkpt lat="43.8833326" lon="12.3678954"><ele>652.0</ele><time>2026-03-22T08:25:17.137Z</time></trkpt><trkpt lat="43.8832704" lon="12.3678342"><ele>652.0</ele><time>2026-03-22T08:25:18.138Z</time></trkpt><trkpt lat="43.883216" lon="12.3677781"><ele>650.8</ele><time>2026-03-22T08:25:19.128Z</time></trkpt><trkpt lat="43.8831661" lon="12.3677164"><ele>649.6</ele><time>2026-03-22T08:25:20.134Z</time></trkpt><trkpt lat="43.8830731" lon="12.367603"><ele>648.4</ele><time>2026-03-22T08:25:22.145Z</time></trkpt><trkpt lat="43.8829682" lon="12.3675371"><ele>647.1999999999999</ele><time>2026-03-22T08:25:24.13Z</time></trkpt><trkpt lat="43.8828857" lon="12.3674859"><ele>646.0</ele><time>2026-03-22T08:25:26.124Z</time></trkpt><trkpt lat="43.8828242" lon="12.3674523"><ele>646.0000000000001</ele><time>2026-03-22T08:25:28.117Z</time></trkpt><trkpt lat="43.8827355" lon="12.3674065"><ele>646.0</ele><time>2026-03-22T08:25:31.139Z</time></trkpt><trkpt lat="43.8826738" lon="12.3673851"><ele>646.0</ele><time>2026-03-22T08:25:33.124Z</time></trkpt><trkpt lat="43.8826151" lon="12.3673501"><ele>646.0</ele><time>2026-03-22T08:25:35.127Z</time></trkpt><trkpt lat="43.8825579" lon="12.3673097"><ele>646.0</ele><time>2026-03-22T08:25:37.13Z</time></trkpt><trkpt lat="43.8824936" lon="12.3672789"><ele>646.0000000000001</ele><time>2026-03-22T08:25:39.099Z</time></trkpt><trkpt lat="43.8824294" lon="12.3672466"><ele>646.0</ele><time>2026-03-22T08:25:41.118Z</time></trkpt><trkpt lat="43.8823548" lon="12.3672204"><ele>646.2857142857143</ele><time>2026-03-22T08:25:44.142Z</time></trkpt><trkpt lat="43.8822846" lon="12.3671865"><ele>646.5714285714286</ele><time>2026-03-22T08:25:47.121Z</time></trkpt><trkpt lat="43.8822124" lon="12.3671598"><ele>646.8571428571429</ele><time>2026-03-22T08:25:50.132Z</time></trkpt><trkpt lat="43.8821492" lon="12.3671375"><ele>647.1428571428571</ele><time>2026-03-22T08:25:53.136Z</time></trkpt><trkpt lat="43.8820783" lon="12.3671365"><ele>647.4285714285714</ele><time>2026-03-22T08:25:57.131Z</time></trkpt><trkpt lat="43.8820049" lon="12.3671113"><ele>647.7142857142858</ele><time>2026-03-22T08:26:01.136Z</time></trkpt><trkpt lat="43.8819304" lon="12.3670906"><ele>648.0</ele><time>2026-03-22T08:26:06.1Z</time></trkpt><trkpt lat="43.8818662" lon="12.3670837"><ele>648.0</ele><time>2026-03-22T08:26:10.132Z</time></trkpt><trkpt lat="43.8817884" lon="12.36708"><ele>648.0</ele><time>2026-03-22T08:26:15.138Z</time></trkpt><trkpt lat="43.8817213" lon="12.3670768"><ele>648.0</ele><time>2026-03-22T08:26:20.134Z</time></trkpt><trkpt lat="43.8816573" lon="12.3670844"><ele>648.0</ele><time>2026-03-22T08:26:24.13Z</time></trkpt><trkpt lat="43.881589" lon="12.3670943"><ele>648.0</ele><time>2026-03-22T08:26:29.125Z</time></trkpt><trkpt lat="43.8815149" lon="12.3671147"><ele>648.0</ele><time>2026-03-22T08:26:35.082Z</time></trkpt><trkpt lat="43.8814512" lon="12.3671446"><ele>648.0</ele><time>2026-03-22T08:26:40.114Z</time></trkpt><trkpt lat="43.8813885" lon="12.3671665"><ele>649.5714285714286</ele><time>2026-03-22T08:26:44.126Z</time></trkpt><trkpt lat="43.8813184" lon="12.367189"><ele>651.1428571428571</ele><time>2026-03-22T08:26:49.118Z</time></trkpt><trkpt lat="43.8812514" lon="12.367209"><ele>652.7142857142858</ele><time>2026-03-22T08:26:55.125Z</time></trkpt><trkpt lat="43.8811874" lon="12.3672077"><ele>654.2857142857142</ele><time>2026-03-22T08:27:00.122Z</time></trkpt><trkpt lat="43.8811142" lon="12.3672098"><ele>655.8571428571428</ele><time>2026-03-22T08:27:05.127Z</time></trkpt><trkpt lat="43.8810427" lon="12.3671856"><ele>657.4285714285714</ele><time>2026-03-22T08:27:11.133Z</time></trkpt><trkpt lat="43.8809819" lon="12.3671548"><ele>659.0</ele><time>2026-03-22T08:27:16.137Z</time></trkpt><trkpt lat="43.8809201" lon="12.3671204"><ele>660.8571428571429</ele><time>2026-03-22T08:27:21.142Z</time></trkpt><trkpt lat="43.8808549" lon="12.3670861"><ele>662.7142857142857</ele><time>2026-03-22T08:27:27.127Z</time></trkpt><trkpt lat="43.8807925" lon="12.3670574"><ele>664.5714285714286</ele><time>2026-03-22T08:27:32.125Z</time></trkpt><trkpt lat="43.8807408" lon="12.3669999"><ele>666.4285714285714</ele><time>2026-03-22T08:27:37.163Z</time></trkpt><trkpt lat="43.8806724" lon="12.3669348"><ele>668.2857142857142</ele><time>2026-03-22T08:27:42.13Z</time></trkpt><trkpt lat="43.8806233" lon="12.366879"><ele>670.1428571428571</ele><time>2026-03-22T08:27:45.136Z</time></trkpt><trkpt lat="43.8805732" lon="12.3668011"><ele>672.0</ele><time>2026-03-22T08:27:48.129Z</time></trkpt><trkpt lat="43.8805177" lon="12.3667149"><ele>672.0</ele><time>2026-03-22T08:27:51.126Z</time></trkpt><trkpt lat="43.8804787" lon="12.3666414"><ele>672.0</ele><time>2026-03-22T08:27:53.105Z</time></trkpt><trkpt lat="43.8804332" lon="12.3665678"><ele>672.0</ele><time>2026-03-22T08:27:55.129Z</time></trkpt><trkpt lat="43.8803823" lon="12.3664786"><ele>672.0</ele><time>2026-03-22T08:27:57.137Z</time></trkpt><trkpt lat="43.8803191" lon="12.3663999"><ele>672.0</ele><time>2026-03-22T08:27:59.141Z</time></trkpt><trkpt lat="43.8802722" lon="12.3663102"><ele>672.0</ele><time>2026-03-22T08:28:01.12Z</time></trkpt><trkpt lat="43.8802116" lon="12.3662378"><ele>671.3333333333334</ele><time>2026-03-22T08:28:03.143Z</time></trkpt><trkpt lat="43.8801655" lon="12.3661579"><ele>670.6666666666666</ele><time>2026-03-22T08:28:05.117Z</time></trkpt><trkpt lat="43.8801258" lon="12.3660828"><ele>670.0</ele><time>2026-03-22T08:28:07.078Z</time></trkpt><trkpt lat="43.8800896" lon="12.3659853"><ele>669.3333333333333</ele><time>2026-03-22T08:28:10.12Z</time></trkpt><trkpt lat="43.8801035" lon="12.3658808"><ele>668.6666666666666</ele><time>2026-03-22T08:28:13.102Z</time></trkpt><trkpt lat="43.8801485" lon="12.3657982"><ele>668.0</ele><time>2026-03-22T08:28:15.132Z</time></trkpt><trkpt lat="43.8802078" lon="12.3657135"><ele>668.0</ele><time>2026-03-22T08:28:17.113Z</time></trkpt><trkpt lat="43.8802627" lon="12.3656372"><ele>668.0</ele><time>2026-03-22T08:28:19.125Z</time></trkpt><trkpt lat="43.8803125" lon="12.365542"><ele>668.0</ele><time>2026-03-22T08:28:22.137Z</time></trkpt><trkpt lat="43.8803641" lon="12.3654752"><ele>668.0</ele><time>2026-03-22T08:28:25.154Z</time></trkpt><trkpt lat="43.8804222" lon="12.3654162"><ele>668.0</ele><time>2026-03-22T08:28:28.113Z</time></trkpt><trkpt lat="43.8804747" lon="12.3653577"><ele>668.0</ele><time>2026-03-22T08:28:30.139Z</time></trkpt><trkpt lat="43.8805556" lon="12.3652514"><ele>668.6666666666666</ele><time>2026-03-22T08:28:32.13Z</time></trkpt><trkpt lat="43.8806479" lon="12.3651289"><ele>669.3333333333333</ele><time>2026-03-22T08:28:34.118Z</time></trkpt><trkpt lat="43.880697" lon="12.3650588"><ele>670.0</ele><time>2026-03-22T08:28:35.149Z</time></trkpt><trkpt lat="43.880749" lon="12.3649778"><ele>670.6666666666666</ele><time>2026-03-22T08:28:36.11Z</time></trkpt><trkpt lat="43.8807964" lon="12.3649085"><ele>671.3333333333334</ele><time>2026-03-22T08:28:37.125Z</time></trkpt><trkpt lat="43.8808481" lon="12.3648345"><ele>672.0</ele><time>2026-03-22T08:28:38.147Z</time></trkpt><trkpt lat="43.8808979" lon="12.3647544"><ele>668.8333333333334</ele><time>2026-03-22T08:28:39.114Z</time></trkpt><trkpt lat="43.8809425" lon="12.3646691"><ele>665.6666666666666</ele><time>2026-03-22T08:28:40.112Z</time></trkpt><trkpt lat="43.880994" lon="12.3645727"><ele>662.5</ele><time>2026-03-22T08:28:41.139Z</time></trkpt><trkpt lat="43.8810413" lon="12.3644769"><ele>659.3333333333333</ele><time>2026-03-22T08:28:42.117Z</time></trkpt><trkpt lat="43.8810829" lon="12.3643894"><ele>656.1666666666666</ele><time>2026-03-22T08:28:43.103Z</time></trkpt><trkpt lat="43.8811219" lon="12.3642949"><ele>653.0</ele><time>2026-03-22T08:28:44.102Z</time></trkpt><trkpt lat="43.881151" lon="12.3642079"><ele>653.0</ele><time>2026-03-22T08:28:45.129Z</time></trkpt><trkpt lat="43.8811776" lon="12.3641157"><ele>653.0</ele><time>2026-03-22T08:28:46.097Z</time></trkpt><trkpt lat="43.8812197" lon="12.364016"><ele>653.0</ele><time>2026-03-22T08:28:47.129Z</time></trkpt><trkpt lat="43.881263" lon="12.3639361"><ele>653.0</ele><time>2026-03-22T08:28:48.125Z</time></trkpt><trkpt lat="43.8813352" lon="12.3638766"><ele>653.0</ele><time>2026-03-22T08:28:49.135Z</time></trkpt><trkpt lat="43.8814069" lon="12.363826"><ele>653.0</ele><time>2026-03-22T08:28:50.118Z</time></trkpt><trkpt lat="43.8814712" lon="12.3637796"><ele>652.3333333333333</ele><time>2026-03-22T08:28:51.126Z</time></trkpt><trkpt lat="43.8815393" lon="12.3637335"><ele>651.6666666666666</ele><time>2026-03-22T08:28:52.124Z</time></trkpt><trkpt lat="43.8816075" lon="12.3636837"><ele>651.0</ele><time>2026-03-22T08:28:53.108Z</time></trkpt><trkpt lat="43.8816904" lon="12.3636396"><ele>650.3333333333334</ele><time>2026-03-22T08:28:54.099Z</time></trkpt><trkpt lat="43.8817859" lon="12.3636089"><ele>649.6666666666667</ele><time>2026-03-22T08:28:55.087Z</time></trkpt><trkpt lat="43.8818777" lon="12.3635742"><ele>649.0</ele><time>2026-03-22T08:28:56.114Z</time></trkpt><trkpt lat="43.8819643" lon="12.3635409"><ele>649.0</ele><time>2026-03-22T08:28:57.099Z</time></trkpt><trkpt lat="43.8820407" lon="12.3634993"><ele>649.0</ele><time>2026-03-22T08:28:58.12Z</time></trkpt><trkpt lat="43.8821061" lon="12.3634581"><ele>649.0</ele><time>2026-03-22T08:28:59.111Z</time></trkpt><trkpt lat="43.882166" lon="12.3634189"><ele>649.0</ele><time>2026-03-22T08:29:00.121Z</time></trkpt><trkpt lat="43.8822356" lon="12.3633024"><ele>649.0</ele><time>2026-03-22T08:29:02.124Z</time></trkpt><trkpt lat="43.8822625" lon="12.3631382"><ele>649.0</ele><time>2026-03-22T08:29:04.134Z</time></trkpt><trkpt lat="43.8822803" lon="12.3630503"><ele>649.0</ele><time>2026-03-22T08:29:05.116Z</time></trkpt><trkpt lat="43.8822973" lon="12.362954"><ele>649.0</ele><time>2026-03-22T08:29:06.134Z</time></trkpt><trkpt lat="43.8823168" lon="12.3628556"><ele>649.0</ele><time>2026-03-22T08:29:07.14Z</time></trkpt><trkpt lat="43.8823427" lon="12.3627589"><ele>649.0</ele><time>2026-03-22T08:29:08.135Z</time></trkpt><trkpt lat="43.8823676" lon="12.3626519"><ele>649.0</ele><time>2026-03-22T08:29:09.148Z</time></trkpt><trkpt lat="43.8823933" lon="12.3625252"><ele>649.1666666666667</ele><time>2026-03-22T08:29:10.124Z</time></trkpt><trkpt lat="43.882406" lon="12.3624002"><ele>649.3333333333334</ele><time>2026-03-22T08:29:11.071Z</time></trkpt><trkpt lat="43.8824174" lon="12.3622682"><ele>649.5</ele><time>2026-03-22T08:29:12.12Z</time></trkpt><trkpt lat="43.8824301" lon="12.3621448"><ele>649.6666666666666</ele><time>2026-03-22T08:29:13.137Z</time></trkpt><trkpt lat="43.8824622" lon="12.3620449"><ele>649.8333333333333</ele><time>2026-03-22T08:29:14.136Z</time></trkpt><trkpt lat="43.8825077" lon="12.3619496"><ele>650.0</ele><time>2026-03-22T08:29:15.119Z</time></trkpt><trkpt lat="43.882582" lon="12.3618899"><ele>647.0</ele><time>2026-03-22T08:29:16.089Z</time></trkpt><trkpt lat="43.8826546" lon="12.3618515"><ele>644.0</ele><time>2026-03-22T08:29:17.129Z</time></trkpt><trkpt lat="43.8827454" lon="12.3618251"><ele>641.0</ele><time>2026-03-22T08:29:18.087Z</time></trkpt><trkpt lat="43.8828215" lon="12.3617911"><ele>638.0</ele><time>2026-03-22T08:29:19.123Z</time></trkpt><trkpt lat="43.8829055" lon="12.3617606"><ele>635.0</ele><time>2026-03-22T08:29:20.116Z</time></trkpt><trkpt lat="43.8829858" lon="12.3617388"><ele>632.0</ele><time>2026-03-22T08:29:21.08Z</time></trkpt><trkpt lat="43.883066" lon="12.361731"><ele>632.0</ele><time>2026-03-22T08:29:22.14Z</time></trkpt><trkpt lat="43.8831393" lon="12.361716"><ele>632.0</ele><time>2026-03-22T08:29:23.125Z</time></trkpt><trkpt lat="43.8832212" lon="12.361699"><ele>632.0</ele><time>2026-03-22T08:29:24.114Z</time></trkpt><trkpt lat="43.8833004" lon="12.3616794"><ele>632.0</ele><time>2026-03-22T08:29:25.099Z</time></trkpt><trkpt lat="43.8833827" lon="12.3616572"><ele>632.0</ele><time>2026-03-22T08:29:26.114Z</time></trkpt><trkpt lat="43.8834799" lon="12.3616173"><ele>632.0</ele><time>2026-03-22T08:29:27.115Z</time></trkpt><trkpt lat="43.8835744" lon="12.3615452"><ele>627.4</ele><time>2026-03-22T08:29:28.077Z</time></trkpt><trkpt lat="43.8836649" lon="12.3614809"><ele>622.8000000000001</ele><time>2026-03-22T08:29:29.098Z</time></trkpt><trkpt lat="43.8837589" lon="12.3614067"><ele>618.2</ele><time>2026-03-22T08:29:30.115Z</time></trkpt><trkpt lat="43.883859" lon="12.3613314"><ele>613.6</ele><time>2026-03-22T08:29:31.101Z</time></trkpt><trkpt lat="43.8839442" lon="12.3612415"><ele>609.0</ele><time>2026-03-22T08:29:32.117Z</time></trkpt><trkpt lat="43.8840146" lon="12.3611332"><ele>609.0</ele><time>2026-03-22T08:29:33.112Z</time></trkpt><trkpt lat="43.8840865" lon="12.3610312"><ele>609.0</ele><time>2026-03-22T08:29:34.121Z</time></trkpt><trkpt lat="43.8841403" lon="12.360917"><ele>609.0</ele><time>2026-03-22T08:29:35.115Z</time></trkpt><trkpt lat="43.8841763" lon="12.3607923"><ele>609.0</ele><time>2026-03-22T08:29:36.115Z</time></trkpt><trkpt lat="43.8841938" lon="12.3606643"><ele>609.0</ele><time>2026-03-22T08:29:37.133Z</time></trkpt><trkpt lat="43.8841946" lon="12.3605236"><ele>607.75</ele><time>2026-03-22T08:29:38.119Z</time></trkpt><trkpt lat="43.8841518" lon="12.3603723"><ele>606.5</ele><time>2026-03-22T08:29:39.124Z</time></trkpt><trkpt lat="43.8840946" lon="12.3602332"><ele>605.25</ele><time>2026-03-22T08:29:40.117Z</time></trkpt><trkpt lat="43.8840214" lon="12.360087"><ele>604.0</ele><time>2026-03-22T08:29:41.122Z</time></trkpt><trkpt lat="43.8839402" lon="12.3599413"><ele>604.0</ele><time>2026-03-22T08:29:42.121Z</time></trkpt><trkpt lat="43.8838705" lon="12.3598082"><ele>604.0</ele><time>2026-03-22T08:29:43.122Z</time></trkpt><trkpt lat="43.8838123" lon="12.359672"><ele>604.0</ele><time>2026-03-22T08:29:44.134Z</time></trkpt><trkpt lat="43.8837709" lon="12.3595326"><ele>604.0</ele><time>2026-03-22T08:29:45.129Z</time></trkpt><trkpt lat="43.8837517" lon="12.3594055"><ele>604.0</ele><time>2026-03-22T08:29:46.136Z</time></trkpt><trkpt lat="43.8837611" lon="12.3592819"><ele>604.3333333333334</ele><time>2026-03-22T08:29:47.131Z</time></trkpt><trkpt lat="43.8838136" lon="12.3591863"><ele>604.6666666666667</ele><time>2026-03-22T08:29:48.118Z</time></trkpt><trkpt lat="43.8838715" lon="12.359131"><ele>605.0</ele><time>2026-03-22T08:29:49.128Z</time></trkpt><trkpt lat="43.8839729" lon="12.3590732"><ele>605.3333333333334</ele><time>2026-03-22T08:29:51.123Z</time></trkpt><trkpt lat="43.8840605" lon="12.3590293"><ele>605.6666666666666</ele><time>2026-03-22T08:29:53.107Z</time></trkpt><trkpt lat="43.8841341" lon="12.3589746"><ele>606.0</ele><time>2026-03-22T08:29:55.131Z</time></trkpt><trkpt lat="43.8841946" lon="12.3589459"><ele>605.3333333333334</ele><time>2026-03-22T08:29:57.125Z</time></trkpt><trkpt lat="43.8842642" lon="12.3588902"><ele>604.6666666666666</ele><time>2026-03-22T08:30:00.135Z</time></trkpt><trkpt lat="43.8843307" lon="12.358823"><ele>604.0</ele><time>2026-03-22T08:30:04.126Z</time></trkpt><trkpt lat="43.8843912" lon="12.358768"><ele>603.3333333333333</ele><time>2026-03-22T08:30:07.108Z</time></trkpt><trkpt lat="43.8844416" lon="12.3586789"><ele>602.6666666666666</ele><time>2026-03-22T08:30:10.13Z</time></trkpt><trkpt lat="43.8844946" lon="12.3585962"><ele>602.0</ele><time>2026-03-22T08:30:13.114Z</time></trkpt><trkpt lat="43.8845524" lon="12.3585179"><ele>603.8571428571429</ele><time>2026-03-22T08:30:16.124Z</time></trkpt><trkpt lat="43.8845986" lon="12.3584507"><ele>605.7142857142858</ele><time>2026-03-22T08:30:19.138Z</time></trkpt><trkpt lat="43.8846574" lon="12.3583721"><ele>607.5714285714286</ele><time>2026-03-22T08:30:23.141Z</time></trkpt><trkpt lat="43.8847041" lon="12.358313"><ele>609.4285714285714</ele><time>2026-03-22T08:30:26.147Z</time></trkpt><trkpt lat="43.8847506" lon="12.3582377"><ele>611.2857142857143</ele><time>2026-03-22T08:30:29.134Z</time></trkpt><trkpt lat="43.8848074" lon="12.3581673"><ele>613.1428571428571</ele><time>2026-03-22T08:30:33.138Z</time></trkpt><trkpt lat="43.8848581" lon="12.3581018"><ele>615.0</ele><time>2026-03-22T08:30:37.115Z</time></trkpt><trkpt lat="43.8849056" lon="12.3580324"><ele>614.4285714285714</ele><time>2026-03-22T08:30:41.121Z</time></trkpt><trkpt lat="43.8849469" lon="12.3579594"><ele>613.8571428571429</ele><time>2026-03-22T08:30:45.132Z</time></trkpt><trkpt lat="43.8849975" lon="12.3579001"><ele>613.2857142857143</ele><time>2026-03-22T08:30:49.132Z</time></trkpt><trkpt lat="43.8850329" lon="12.3578154"><ele>612.7142857142858</ele><time>2026-03-22T08:30:53.139Z</time></trkpt><trkpt lat="43.8850755" lon="12.3577371"><ele>612.1428571428571</ele><time>2026-03-22T08:30:58.135Z</time></trkpt><trkpt lat="43.885106" lon="12.3576585"><ele>611.5714285714287</ele><time>2026-03-22T08:31:03.116Z</time></trkpt><trkpt lat="43.8851424" lon="12.3575836"><ele>611.0</ele><time>2026-03-22T08:31:08.147Z</time></trkpt><trkpt lat="43.8851742" lon="12.3575055"><ele>611.0</ele><time>2026-03-22T08:31:11.164Z</time></trkpt><trkpt lat="43.8852267" lon="12.3573941"><ele>611.0</ele><time>2026-03-22T08:31:14.131Z</time></trkpt><trkpt lat="43.8852828" lon="12.3573005"><ele>611.0</ele><time>2026-03-22T08:31:16.127Z</time></trkpt><trkpt lat="43.8853385" lon="12.357204"><ele>611.0</ele><time>2026-03-22T08:31:18.123Z</time></trkpt><trkpt lat="43.8854009" lon="12.3571001"><ele>611.0</ele><time>2026-03-22T08:31:20.142Z</time></trkpt><trkpt lat="43.8854753" lon="12.3569912"><ele>613.0</ele><time>2026-03-22T08:31:22.146Z</time></trkpt><trkpt lat="43.8855383" lon="12.3568594"><ele>615.0</ele><time>2026-03-22T08:31:24.111Z</time></trkpt><trkpt lat="43.8856069" lon="12.3567245"><ele>617.0</ele><time>2026-03-22T08:31:26.126Z</time></trkpt><trkpt lat="43.8856881" lon="12.3565899"><ele>619.0</ele><time>2026-03-22T08:31:28.136Z</time></trkpt><trkpt lat="43.8857617" lon="12.3564548"><ele>618.4</ele><time>2026-03-22T08:31:30.141Z</time></trkpt><trkpt lat="43.8858362" lon="12.356324"><ele>617.8</ele><time>2026-03-22T08:31:32.127Z</time></trkpt><trkpt lat="43.8859281" lon="12.3561948"><ele>617.2</ele><time>2026-03-22T08:31:34.139Z</time></trkpt><trkpt lat="43.8859693" lon="12.3561246"><ele>616.6</ele><time>2026-03-22T08:31:35.145Z</time></trkpt><trkpt lat="43.8860141" lon="12.3560573"><ele>616.0</ele><time>2026-03-22T08:31:36.114Z</time></trkpt><trkpt lat="43.8861015" lon="12.3559229"><ele>616.0</ele><time>2026-03-22T08:31:38.136Z</time></trkpt><trkpt lat="43.8861417" lon="12.3558533"><ele>616.0</ele><time>2026-03-22T08:31:39.132Z</time></trkpt><trkpt lat="43.8861794" lon="12.3557833"><ele>616.0</ele><time>2026-03-22T08:31:40.136Z</time></trkpt><trkpt lat="43.8862447" lon="12.3556526"><ele>616.0</ele><time>2026-03-22T08:31:42.132Z</time></trkpt><trkpt lat="43.8862882" lon="12.3555522"><ele>616.0</ele><time>2026-03-22T08:31:44.148Z</time></trkpt><trkpt lat="43.8863171" lon="12.3554702"><ele>616.0</ele><time>2026-03-22T08:31:46.157Z</time></trkpt><trkpt lat="43.8863583" lon="12.3553647"><ele>616.3333333333334</ele><time>2026-03-22T08:31:49.129Z</time></trkpt><trkpt lat="43.8863942" lon="12.3552894"><ele>616.6666666666667</ele><time>2026-03-22T08:31:51.127Z</time></trkpt><trkpt lat="43.8864317" lon="12.3551982"><ele>617.0</ele><time>2026-03-22T08:31:53.079Z</time></trkpt><trkpt lat="43.8864636" lon="12.3550978"><ele>617.3333333333334</ele><time>2026-03-22T08:31:55.117Z</time></trkpt><trkpt lat="43.886519" lon="12.3549586"><ele>617.6666666666666</ele><time>2026-03-22T08:31:57.127Z</time></trkpt><trkpt lat="43.8865423" lon="12.3548764"><ele>618.0</ele><time>2026-03-22T08:31:58.12Z</time></trkpt><trkpt lat="43.8865864" lon="12.3547109"><ele>618.1666666666666</ele><time>2026-03-22T08:32:00.125Z</time></trkpt><trkpt lat="43.8866125" lon="12.3546307"><ele>618.3333333333334</ele><time>2026-03-22T08:32:01.138Z</time></trkpt><trkpt lat="43.8866465" lon="12.3545358"><ele>618.5</ele><time>2026-03-22T08:32:02.146Z</time></trkpt><trkpt lat="43.8866909" lon="12.354431"><ele>618.6666666666667</ele><time>2026-03-22T08:32:03.138Z</time></trkpt><trkpt lat="43.8867301" lon="12.3543195"><ele>618.8333333333334</ele><time>2026-03-22T08:32:04.155Z</time></trkpt><trkpt lat="43.8867659" lon="12.3542105"><ele>619.0</ele><time>2026-03-22T08:32:05.141Z</time></trkpt><trkpt lat="43.8867951" lon="12.3541103"><ele>619.0</ele><time>2026-03-22T08:32:06.14Z</time></trkpt><trkpt lat="43.8868257" lon="12.3540057"><ele>619.0</ele><time>2026-03-22T08:32:07.093Z</time></trkpt><trkpt lat="43.8868447" lon="12.353914"><ele>619.0</ele><time>2026-03-22T08:32:08.115Z</time></trkpt><trkpt lat="43.8868571" lon="12.3537614"><ele>619.0</ele><time>2026-03-22T08:32:10.13Z</time></trkpt><trkpt lat="43.8868673" lon="12.353669"><ele>619.0</ele><time>2026-03-22T08:32:12.123Z</time></trkpt><trkpt lat="43.8868888" lon="12.3535615"><ele>619.0</ele><time>2026-03-22T08:32:16.154Z</time></trkpt><trkpt lat="43.8868992" lon="12.3534751"><ele>619.0</ele><time>2026-03-22T08:32:19.13Z</time></trkpt><trkpt lat="43.8868987" lon="12.3533784"><ele>619.0</ele><time>2026-03-22T08:32:22.137Z</time></trkpt><trkpt lat="43.8868983" lon="12.3532858"><ele>619.0</ele><time>2026-03-22T08:32:25.099Z</time></trkpt><trkpt lat="43.8868905" lon="12.3531966"><ele>619.0</ele><time>2026-03-22T08:32:28.126Z</time></trkpt><trkpt lat="43.8868965" lon="12.3531096"><ele>619.0</ele><time>2026-03-22T08:32:31.089Z</time></trkpt><trkpt lat="43.886917" lon="12.3530185"><ele>619.0</ele><time>2026-03-22T08:32:34.115Z</time></trkpt><trkpt lat="43.8869509" lon="12.3529324"><ele>619.0</ele><time>2026-03-22T08:32:37.129Z</time></trkpt><trkpt lat="43.8869948" lon="12.3528579"><ele>621.0</ele><time>2026-03-22T08:32:40.143Z</time></trkpt><trkpt lat="43.8870475" lon="12.3528042"><ele>623.0</ele><time>2026-03-22T08:32:43.132Z</time></trkpt><trkpt lat="43.8871266" lon="12.352757"><ele>625.0</ele><time>2026-03-22T08:32:47.114Z</time></trkpt><trkpt lat="43.8872252" lon="12.3528252"><ele>627.0</ele><time>2026-03-22T08:32:50.119Z</time></trkpt><trkpt lat="43.8873127" lon="12.3528995"><ele>629.0</ele><time>2026-03-22T08:32:52.125Z</time></trkpt><trkpt lat="43.8874106" lon="12.352983"><ele>629.0</ele><time>2026-03-22T08:32:54.09Z</time></trkpt><trkpt lat="43.8874785" lon="12.3530215"><ele>629.0</ele><time>2026-03-22T08:32:55.132Z</time></trkpt><trkpt lat="43.8875511" lon="12.35305"><ele>629.0</ele><time>2026-03-22T08:32:56.117Z</time></trkpt><trkpt lat="43.8876364" lon="12.3530785"><ele>629.0</ele><time>2026-03-22T08:32:57.115Z</time></trkpt><trkpt lat="43.887722" lon="12.3530987"><ele>629.0</ele><time>2026-03-22T08:32:58.083Z</time></trkpt><trkpt lat="43.8878136" lon="12.353111"><ele>629.0</ele><time>2026-03-22T08:32:59.143Z</time></trkpt><trkpt lat="43.8879036" lon="12.3531249"><ele>626.4</ele><time>2026-03-22T08:33:00.13Z</time></trkpt><trkpt lat="43.8879967" lon="12.3531196"><ele>623.8</ele><time>2026-03-22T08:33:01.13Z</time></trkpt><trkpt lat="43.888087" lon="12.3530846"><ele>621.2</ele><time>2026-03-22T08:33:02.133Z</time></trkpt><trkpt lat="43.8881764" lon="12.3530295"><ele>618.6</ele><time>2026-03-22T08:33:03.107Z</time></trkpt><trkpt lat="43.8882717" lon="12.3529666"><ele>616.0</ele><time>2026-03-22T08:33:04.133Z</time></trkpt><trkpt lat="43.8883623" lon="12.3528855"><ele>612.75</ele><time>2026-03-22T08:33:05.138Z</time></trkpt><trkpt lat="43.8884549" lon="12.3528"><ele>609.5</ele><time>2026-03-22T08:33:06.145Z</time></trkpt><trkpt lat="43.8885531" lon="12.3527091"><ele>606.25</ele><time>2026-03-22T08:33:07.125Z</time></trkpt><trkpt lat="43.8886527" lon="12.3526327"><ele>603.0</ele><time>2026-03-22T08:33:08.124Z</time></trkpt><trkpt lat="43.888756" lon="12.3525529"><ele>603.0</ele><time>2026-03-22T08:33:09.137Z</time></trkpt><trkpt lat="43.8888636" lon="12.3524776"><ele>603.0</ele><time>2026-03-22T08:33:10.084Z</time></trkpt><trkpt lat="43.888974" lon="12.3524085"><ele>603.0</ele><time>2026-03-22T08:33:11.132Z</time></trkpt><trkpt lat="43.8890949" lon="12.3523557"><ele>603.0</ele><time>2026-03-22T08:33:12.089Z</time></trkpt><trkpt lat="43.8892127" lon="12.3523098"><ele>600.25</ele><time>2026-03-22T08:33:13.151Z</time></trkpt><trkpt lat="43.8893341" lon="12.3522763"><ele>597.5</ele><time>2026-03-22T08:33:14.133Z</time></trkpt><trkpt lat="43.8894612" lon="12.3522606"><ele>594.75</ele><time>2026-03-22T08:33:15.093Z</time></trkpt><trkpt lat="43.8895883" lon="12.3522515"><ele>592.0</ele><time>2026-03-22T08:33:16.127Z</time></trkpt><trkpt lat="43.8897179" lon="12.3522412"><ele>592.0</ele><time>2026-03-22T08:33:17.138Z</time></trkpt><trkpt lat="43.889843" lon="12.3522342"><ele>592.0</ele><time>2026-03-22T08:33:18.131Z</time></trkpt><trkpt lat="43.8899625" lon="12.3522196"><ele>592.0</ele><time>2026-03-22T08:33:19.15Z</time></trkpt><trkpt lat="43.8900828" lon="12.3522027"><ele>592.0</ele><time>2026-03-22T08:33:20.141Z</time></trkpt><trkpt lat="43.8902078" lon="12.352194"><ele>592.4</ele><time>2026-03-22T08:33:21.133Z</time></trkpt><trkpt lat="43.8903237" lon="12.3521796"><ele>592.8000000000001</ele><time>2026-03-22T08:33:22.143Z</time></trkpt><trkpt lat="43.8904342" lon="12.3521676"><ele>593.2</ele><time>2026-03-22T08:33:23.134Z</time></trkpt><trkpt lat="43.8905439" lon="12.3521576"><ele>593.6</ele><time>2026-03-22T08:33:24.15Z</time></trkpt><trkpt lat="43.8906525" lon="12.3521381"><ele>594.0</ele><time>2026-03-22T08:33:25.131Z</time></trkpt><trkpt lat="43.8907583" lon="12.3521313"><ele>594.0</ele><time>2026-03-22T08:33:26.141Z</time></trkpt><trkpt lat="43.8908616" lon="12.3521157"><ele>594.0</ele><time>2026-03-22T08:33:27.128Z</time></trkpt><trkpt lat="43.8909658" lon="12.3521008"><ele>594.0</ele><time>2026-03-22T08:33:28.117Z</time></trkpt><trkpt lat="43.8910693" lon="12.3520867"><ele>594.0</ele><time>2026-03-22T08:33:29.13Z</time></trkpt><trkpt lat="43.8911661" lon="12.3520762"><ele>594.0</ele><time>2026-03-22T08:33:30.132Z</time></trkpt><trkpt lat="43.8912631" lon="12.3520667"><ele>593.4</ele><time>2026-03-22T08:33:31.136Z</time></trkpt><trkpt lat="43.891365" lon="12.3520571"><ele>592.8</ele><time>2026-03-22T08:33:32.138Z</time></trkpt><trkpt lat="43.891462" lon="12.3520488"><ele>592.2</ele><time>2026-03-22T08:33:33.083Z</time></trkpt><trkpt lat="43.8915545" lon="12.3520368"><ele>591.6</ele><time>2026-03-22T08:33:34.128Z</time></trkpt><trkpt lat="43.8916547" lon="12.3520313"><ele>591.0</ele><time>2026-03-22T08:33:35.138Z</time></trkpt><trkpt lat="43.8917494" lon="12.3520227"><ele>590.2</ele><time>2026-03-22T08:33:36.151Z</time></trkpt><trkpt lat="43.8918458" lon="12.3520015"><ele>589.4000000000001</ele><time>2026-03-22T08:33:37.143Z</time></trkpt><trkpt lat="43.891942" lon="12.3519862"><ele>588.6</ele><time>2026-03-22T08:33:38.164Z</time></trkpt><trkpt lat="43.8920335" lon="12.351968"><ele>587.8000000000001</ele><time>2026-03-22T08:33:39.114Z</time></trkpt><trkpt lat="43.8921276" lon="12.351955"><ele>587.0</ele><time>2026-03-22T08:33:40.144Z</time></trkpt><trkpt lat="43.8922211" lon="12.351934"><ele>587.0</ele><time>2026-03-22T08:33:41.134Z</time></trkpt><trkpt lat="43.8923175" lon="12.3519206"><ele>587.0</ele><time>2026-03-22T08:33:42.101Z</time></trkpt><trkpt lat="43.8924137" lon="12.3519178"><ele>587.0</ele><time>2026-03-22T08:33:43.086Z</time></trkpt><trkpt lat="43.8925086" lon="12.3519209"><ele>587.0</ele><time>2026-03-22T08:33:44.097Z</time></trkpt><trkpt lat="43.8925996" lon="12.3519127"><ele>587.0</ele><time>2026-03-22T08:33:45.086Z</time></trkpt><trkpt lat="43.8926884" lon="12.3519036"><ele>587.2</ele><time>2026-03-22T08:33:46.085Z</time></trkpt><trkpt lat="43.8927793" lon="12.3518879"><ele>587.4000000000001</ele><time>2026-03-22T08:33:47.089Z</time></trkpt><trkpt lat="43.8928671" lon="12.3518682"><ele>587.5999999999999</ele><time>2026-03-22T08:33:48.102Z</time></trkpt><trkpt lat="43.8929616" lon="12.3518301"><ele>587.8</ele><time>2026-03-22T08:33:49.09Z</time></trkpt><trkpt lat="43.8930586" lon="12.3517868"><ele>588.0</ele><time>2026-03-22T08:33:50.116Z</time></trkpt><trkpt lat="43.8931419" lon="12.3517464"><ele>588.0</ele><time>2026-03-22T08:33:51.155Z</time></trkpt><trkpt lat="43.8932319" lon="12.3517121"><ele>588.0</ele><time>2026-03-22T08:33:52.148Z</time></trkpt><trkpt lat="43.8933145" lon="12.3516809"><ele>588.0</ele><time>2026-03-22T08:33:53.14Z</time></trkpt><trkpt lat="43.8934035" lon="12.3516474"><ele>588.0</ele><time>2026-03-22T08:33:54.144Z</time></trkpt><trkpt lat="43.8934855" lon="12.3516064"><ele>588.0</ele><time>2026-03-22T08:33:55.151Z</time></trkpt><trkpt lat="43.8935725" lon="12.3515766"><ele>588.0</ele><time>2026-03-22T08:33:56.104Z</time></trkpt><trkpt lat="43.8936548" lon="12.3515439"><ele>587.1666666666666</ele><time>2026-03-22T08:33:57.123Z</time></trkpt><trkpt lat="43.8937429" lon="12.351504"><ele>586.3333333333334</ele><time>2026-03-22T08:33:58.131Z</time></trkpt><trkpt lat="43.8938278" lon="12.3514658"><ele>585.5</ele><time>2026-03-22T08:33:59.152Z</time></trkpt><trkpt lat="43.8939062" lon="12.3514332"><ele>584.6666666666667</ele><time>2026-03-22T08:34:00.115Z</time></trkpt><trkpt lat="43.8939865" lon="12.3513976"><ele>583.8333333333334</ele><time>2026-03-22T08:34:01.12Z</time></trkpt><trkpt lat="43.894064" lon="12.3513674"><ele>583.0</ele><time>2026-03-22T08:34:02.119Z</time></trkpt><trkpt lat="43.8941361" lon="12.3513299"><ele>583.0</ele><time>2026-03-22T08:34:03.133Z</time></trkpt><trkpt lat="43.8942135" lon="12.3512922"><ele>583.0</ele><time>2026-03-22T08:34:04.147Z</time></trkpt><trkpt lat="43.8942814" lon="12.3512593"><ele>583.0</ele><time>2026-03-22T08:34:05.141Z</time></trkpt><trkpt lat="43.8943487" lon="12.3512204"><ele>583.0</ele><time>2026-03-22T08:34:06.131Z</time></trkpt><trkpt lat="43.8944104" lon="12.3511662"><ele>583.0</ele><time>2026-03-22T08:34:07.151Z</time></trkpt><trkpt lat="43.8944749" lon="12.3511099"><ele>583.0</ele><time>2026-03-22T08:34:08.131Z</time></trkpt><trkpt lat="43.8945341" lon="12.3510452"><ele>584.0</ele><time>2026-03-22T08:34:09.147Z</time></trkpt><trkpt lat="43.8945883" lon="12.3509618"><ele>585.0</ele><time>2026-03-22T08:34:10.13Z</time></trkpt><trkpt lat="43.8946442" lon="12.3508881"><ele>586.0</ele><time>2026-03-22T08:34:11.145Z</time></trkpt><trkpt lat="43.8946916" lon="12.3508084"><ele>587.0</ele><time>2026-03-22T08:34:12.131Z</time></trkpt><trkpt lat="43.8947389" lon="12.3507254"><ele>588.0</ele><time>2026-03-22T08:34:13.153Z</time></trkpt><trkpt lat="43.8947721" lon="12.3506396"><ele>589.0</ele><time>2026-03-22T08:34:14.131Z</time></trkpt><trkpt lat="43.8948091" lon="12.3505468"><ele>589.2857142857142</ele><time>2026-03-22T08:34:15.122Z</time></trkpt><trkpt lat="43.8948396" lon="12.3504529"><ele>589.5714285714286</ele><time>2026-03-22T08:34:16.108Z</time></trkpt><trkpt lat="43.8948661" lon="12.3503623"><ele>589.8571428571429</ele><time>2026-03-22T08:34:17.133Z</time></trkpt><trkpt lat="43.8948912" lon="12.3502706"><ele>590.1428571428571</ele><time>2026-03-22T08:34:18.128Z</time></trkpt><trkpt lat="43.8949159" lon="12.3501857"><ele>590.4285714285714</ele><time>2026-03-22T08:34:19.073Z</time></trkpt><trkpt lat="43.8949388" lon="12.3500935"><ele>590.7142857142857</ele><time>2026-03-22T08:34:20.099Z</time></trkpt><trkpt lat="43.8949548" lon="12.3499947"><ele>591.0</ele><time>2026-03-22T08:34:21.127Z</time></trkpt><trkpt lat="43.8949575" lon="12.3499006"><ele>591.0</ele><time>2026-03-22T08:34:22.13Z</time></trkpt><trkpt lat="43.894965" lon="12.349797"><ele>591.0</ele><time>2026-03-22T08:34:23.131Z</time></trkpt><trkpt lat="43.8949654" lon="12.3497015"><ele>591.0</ele><time>2026-03-22T08:34:24.125Z</time></trkpt><trkpt lat="43.8949567" lon="12.349614"><ele>591.0</ele><time>2026-03-22T08:34:25.122Z</time></trkpt><trkpt lat="43.894939" lon="12.3495246"><ele>591.0</ele><time>2026-03-22T08:34:26.127Z</time></trkpt><trkpt lat="43.8949072" lon="12.3494337"><ele>591.0</ele><time>2026-03-22T08:34:27.106Z</time></trkpt><trkpt lat="43.8948804" lon="12.3493407"><ele>591.0</ele><time>2026-03-22T08:34:28.103Z</time></trkpt><trkpt lat="43.8948469" lon="12.3492499"><ele>591.3333333333334</ele><time>2026-03-22T08:34:29.13Z</time></trkpt><trkpt lat="43.8948156" lon="12.3491531"><ele>591.6666666666666</ele><time>2026-03-22T08:34:30.127Z</time></trkpt><trkpt lat="43.8947793" lon="12.3490574"><ele>592.0</ele><time>2026-03-22T08:34:31.121Z</time></trkpt><trkpt lat="43.8947438" lon="12.3489628"><ele>592.3333333333333</ele><time>2026-03-22T08:34:32.131Z</time></trkpt><trkpt lat="43.8947212" lon="12.3488658"><ele>592.6666666666666</ele><time>2026-03-22T08:34:33.124Z</time></trkpt><trkpt lat="43.8947105" lon="12.3487645"><ele>593.0</ele><time>2026-03-22T08:34:34.114Z</time></trkpt><trkpt lat="43.8947102" lon="12.3486652"><ele>593.0</ele><time>2026-03-22T08:34:35.114Z</time></trkpt><trkpt lat="43.8947127" lon="12.34856"><ele>593.0</ele><time>2026-03-22T08:34:36.121Z</time></trkpt><trkpt lat="43.8947169" lon="12.3484511"><ele>593.0</ele><time>2026-03-22T08:34:37.112Z</time></trkpt><trkpt lat="43.8947165" lon="12.348345"><ele>593.0</ele><time>2026-03-22T08:34:38.131Z</time></trkpt><trkpt lat="43.8947192" lon="12.3482419"><ele>593.0</ele><time>2026-03-22T08:34:39.121Z</time></trkpt><trkpt lat="43.8947221" lon="12.3481397"><ele>593.0</ele><time>2026-03-22T08:34:40.13Z</time></trkpt><trkpt lat="43.8947286" lon="12.3480309"><ele>590.1428571428571</ele><time>2026-03-22T08:34:41.152Z</time></trkpt><trkpt lat="43.8947336" lon="12.347934"><ele>587.2857142857142</ele><time>2026-03-22T08:34:42.127Z</time></trkpt><trkpt lat="43.8947504" lon="12.3478321"><ele>584.4285714285714</ele><time>2026-03-22T08:34:43.154Z</time></trkpt><trkpt lat="43.8947775" lon="12.3477333"><ele>581.5714285714286</ele><time>2026-03-22T08:34:44.121Z</time></trkpt><trkpt lat="43.8948147" lon="12.3476524"><ele>578.7142857142858</ele><time>2026-03-22T08:34:45.12Z</time></trkpt><trkpt lat="43.8948726" lon="12.347598"><ele>575.8571428571429</ele><time>2026-03-22T08:34:46.128Z</time></trkpt><trkpt lat="43.8949493" lon="12.3475803"><ele>573.0</ele><time>2026-03-22T08:34:47.13Z</time></trkpt><trkpt lat="43.8950271" lon="12.3475872"><ele>573.5</ele><time>2026-03-22T08:34:48.121Z</time></trkpt><trkpt lat="43.8950953" lon="12.3476054"><ele>574.0</ele><time>2026-03-22T08:34:49.11Z</time></trkpt><trkpt lat="43.8951599" lon="12.347636"><ele>574.5</ele><time>2026-03-22T08:34:50.096Z</time></trkpt><trkpt lat="43.895236" lon="12.3476749"><ele>575.0</ele><time>2026-03-22T08:34:51.119Z</time></trkpt><trkpt lat="43.895312" lon="12.3477282"><ele>575.5</ele><time>2026-03-22T08:34:52.124Z</time></trkpt><trkpt lat="43.8953819" lon="12.3477732"><ele>576.0</ele><time>2026-03-22T08:34:53.125Z</time></trkpt><trkpt lat="43.8954525" lon="12.3478192"><ele>576.0</ele><time>2026-03-22T08:34:54.144Z</time></trkpt><trkpt lat="43.8955211" lon="12.3478582"><ele>576.0</ele><time>2026-03-22T08:34:55.142Z</time></trkpt><trkpt lat="43.8955912" lon="12.3478994"><ele>576.0</ele><time>2026-03-22T08:34:56.09Z</time></trkpt><trkpt lat="43.8956651" lon="12.3479302"><ele>576.0</ele><time>2026-03-22T08:34:57.141Z</time></trkpt><trkpt lat="43.8957431" lon="12.3479442"><ele>576.0</ele><time>2026-03-22T08:34:58.12Z</time></trkpt><trkpt lat="43.8958182" lon="12.3479522"><ele>576.0</ele><time>2026-03-22T08:34:59.118Z</time></trkpt><trkpt lat="43.8958947" lon="12.3479535"><ele>575.5</ele><time>2026-03-22T08:35:00.118Z</time></trkpt><trkpt lat="43.8959659" lon="12.3479578"><ele>575.0</ele><time>2026-03-22T08:35:01.129Z</time></trkpt><trkpt lat="43.8960377" lon="12.3479645"><ele>574.5</ele><time>2026-03-22T08:35:02.121Z</time></trkpt><trkpt lat="43.8961216" lon="12.3479814"><ele>574.0</ele><time>2026-03-22T08:35:03.13Z</time></trkpt><trkpt lat="43.8961948" lon="12.3480088"><ele>573.5</ele><time>2026-03-22T08:35:04.121Z</time></trkpt><trkpt lat="43.8962576" lon="12.3480522"><ele>573.0</ele><time>2026-03-22T08:35:05.122Z</time></trkpt><trkpt lat="43.8963611" lon="12.3481591"><ele>573.0</ele><time>2026-03-22T08:35:07.117Z</time></trkpt><trkpt lat="43.8964738" lon="12.3482048"><ele>573.0</ele><time>2026-03-22T08:35:09.119Z</time></trkpt><trkpt lat="43.8965945" lon="12.3482644"><ele>573.0</ele><time>2026-03-22T08:35:11.121Z</time></trkpt><trkpt lat="43.8966634" lon="12.3482981"><ele>573.0</ele><time>2026-03-22T08:35:12.117Z</time></trkpt><trkpt lat="43.8967246" lon="12.3483633"><ele>573.0</ele><time>2026-03-22T08:35:13.126Z</time></trkpt><trkpt lat="43.8967612" lon="12.3484549"><ele>573.0</ele><time>2026-03-22T08:35:14.099Z</time></trkpt><trkpt lat="43.8967782" lon="12.3485649"><ele>573.0</ele><time>2026-03-22T08:35:15.128Z</time></trkpt><trkpt lat="43.8967716" lon="12.3486838"><ele>573.0</ele><time>2026-03-22T08:35:16.109Z</time></trkpt><trkpt lat="43.896749" lon="12.3488086"><ele>573.0</ele><time>2026-03-22T08:35:17.13Z</time></trkpt><trkpt lat="43.896725" lon="12.3489376"><ele>573.0</ele><time>2026-03-22T08:35:18.07Z</time></trkpt><trkpt lat="43.8967148" lon="12.3490607"><ele>573.0</ele><time>2026-03-22T08:35:19.123Z</time></trkpt><trkpt lat="43.8967468" lon="12.3491901"><ele>569.0</ele><time>2026-03-22T08:35:20.151Z</time></trkpt><trkpt lat="43.896815" lon="12.3492952"><ele>565.0</ele><time>2026-03-22T08:35:21.127Z</time></trkpt><trkpt lat="43.8968962" lon="12.3493898"><ele>561.0</ele><time>2026-03-22T08:35:22.141Z</time></trkpt><trkpt lat="43.8969817" lon="12.3494946"><ele>557.0</ele><time>2026-03-22T08:35:23.112Z</time></trkpt><trkpt lat="43.8970642" lon="12.3495953"><ele>553.0</ele><time>2026-03-22T08:35:24.132Z</time></trkpt><trkpt lat="43.8971408" lon="12.3496831"><ele>552.6</ele><time>2026-03-22T08:35:25.14Z</time></trkpt><trkpt lat="43.8972193" lon="12.3497771"><ele>552.1999999999999</ele><time>2026-03-22T08:35:26.133Z</time></trkpt><trkpt lat="43.8972964" lon="12.3498505"><ele>551.8</ele><time>2026-03-22T08:35:27.162Z</time></trkpt><trkpt lat="43.8973948" lon="12.3498771"><ele>551.4</ele><time>2026-03-22T08:35:28.144Z</time></trkpt><trkpt lat="43.89751" lon="12.3498851"><ele>551.0</ele><time>2026-03-22T08:35:29.12Z</time></trkpt><trkpt lat="43.8976162" lon="12.3498738"><ele>551.0</ele><time>2026-03-22T08:35:30.092Z</time></trkpt><trkpt lat="43.8977163" lon="12.3498632"><ele>551.0</ele><time>2026-03-22T08:35:31.1Z</time></trkpt><trkpt lat="43.8978367" lon="12.3498602"><ele>551.0</ele><time>2026-03-22T08:35:32.132Z</time></trkpt><trkpt lat="43.8979475" lon="12.3498549"><ele>551.0</ele><time>2026-03-22T08:35:33.132Z</time></trkpt><trkpt lat="43.8980622" lon="12.3498457"><ele>551.0</ele><time>2026-03-22T08:35:34.145Z</time></trkpt><trkpt lat="43.8981805" lon="12.3498277"><ele>551.0</ele><time>2026-03-22T08:35:35.121Z</time></trkpt><trkpt lat="43.898285" lon="12.3498044"><ele>551.0</ele><time>2026-03-22T08:35:36.13Z</time></trkpt><trkpt lat="43.8983751" lon="12.3497415"><ele>551.0</ele><time>2026-03-22T08:35:37.113Z</time></trkpt><trkpt lat="43.8984464" lon="12.3496566"><ele>551.0</ele><time>2026-03-22T08:35:38.15Z</time></trkpt><trkpt lat="43.898492" lon="12.3495324"><ele>551.0</ele><time>2026-03-22T08:35:39.143Z</time></trkpt><trkpt lat="43.8985232" lon="12.3494047"><ele>548.2</ele><time>2026-03-22T08:35:40.125Z</time></trkpt><trkpt lat="43.8985576" lon="12.3492672"><ele>545.4000000000001</ele><time>2026-03-22T08:35:41.138Z</time></trkpt><trkpt lat="43.8985918" lon="12.349137"><ele>542.6</ele><time>2026-03-22T08:35:42.141Z</time></trkpt><trkpt lat="43.8986318" lon="12.3490354"><ele>539.8000000000001</ele><time>2026-03-22T08:35:43.147Z</time></trkpt><trkpt lat="43.898697" lon="12.348949"><ele>537.0</ele><time>2026-03-22T08:35:44.127Z</time></trkpt><trkpt lat="43.8987709" lon="12.3489212"><ele>537.0</ele><time>2026-03-22T08:35:45.146Z</time></trkpt><trkpt lat="43.898847" lon="12.3489531"><ele>537.0</ele><time>2026-03-22T08:35:46.122Z</time></trkpt><trkpt lat="43.8989155" lon="12.3490073"><ele>537.0</ele><time>2026-03-22T08:35:47.129Z</time></trkpt><trkpt lat="43.8989871" lon="12.3490985"><ele>537.0</ele><time>2026-03-22T08:35:48.139Z</time></trkpt><trkpt lat="43.8990443" lon="12.3491934"><ele>537.0</ele><time>2026-03-22T08:35:49.126Z</time></trkpt><trkpt lat="43.8991089" lon="12.3492902"><ele>537.0</ele><time>2026-03-22T08:35:50.131Z</time></trkpt><trkpt lat="43.8991642" lon="12.349392"><ele>537.0</ele><time>2026-03-22T08:35:51.125Z</time></trkpt><trkpt lat="43.8992254" lon="12.3494853"><ele>537.0</ele><time>2026-03-22T08:35:52.092Z</time></trkpt><trkpt lat="43.8992977" lon="12.3495806"><ele>537.0</ele><time>2026-03-22T08:35:53.12Z</time></trkpt><trkpt lat="43.8993766" lon="12.3496619"><ele>537.0</ele><time>2026-03-22T08:35:54.147Z</time></trkpt><trkpt lat="43.8994663" lon="12.3497572"><ele>537.0</ele><time>2026-03-22T08:35:55.158Z</time></trkpt><trkpt lat="43.899552" lon="12.3498427"><ele>536.0</ele><time>2026-03-22T08:35:56.157Z</time></trkpt><trkpt lat="43.899645" lon="12.3499212"><ele>535.0</ele><time>2026-03-22T08:35:57.123Z</time></trkpt><trkpt lat="43.8997435" lon="12.3500012"><ele>534.0</ele><time>2026-03-22T08:35:58.136Z</time></trkpt><trkpt lat="43.8998417" lon="12.350063"><ele>533.0</ele><time>2026-03-22T08:35:59.112Z</time></trkpt><trkpt lat="43.8999394" lon="12.3501183"><ele>532.0</ele><time>2026-03-22T08:36:00.129Z</time></trkpt><trkpt lat="43.9000283" lon="12.3501518"><ele>534.4</ele><time>2026-03-22T08:36:01.143Z</time></trkpt><trkpt lat="43.9001111" lon="12.3501695"><ele>536.8000000000001</ele><time>2026-03-22T08:36:02.139Z</time></trkpt><trkpt lat="43.9001932" lon="12.3501343"><ele>539.2</ele><time>2026-03-22T08:36:03.13Z</time></trkpt><trkpt lat="43.9002707" lon="12.3500483"><ele>541.6</ele><time>2026-03-22T08:36:04.11Z</time></trkpt><trkpt lat="43.9003308" lon="12.3499425"><ele>544.0</ele><time>2026-03-22T08:36:05.165Z</time></trkpt><trkpt lat="43.9003765" lon="12.3498314"><ele>541.4</ele><time>2026-03-22T08:36:06.133Z</time></trkpt><trkpt lat="43.9004162" lon="12.3497059"><ele>538.8</ele><time>2026-03-22T08:36:07.123Z</time></trkpt><trkpt lat="43.9004564" lon="12.3495732"><ele>536.2</ele><time>2026-03-22T08:36:08.145Z</time></trkpt><trkpt lat="43.9005067" lon="12.3494436"><ele>533.6</ele><time>2026-03-22T08:36:09.142Z</time></trkpt><trkpt lat="43.9005576" lon="12.3493146"><ele>531.0</ele><time>2026-03-22T08:36:10.126Z</time></trkpt><trkpt lat="43.9006155" lon="12.3492031"><ele>531.0</ele><time>2026-03-22T08:36:11.138Z</time></trkpt><trkpt lat="43.9006758" lon="12.3490831"><ele>531.0</ele><time>2026-03-22T08:36:12.153Z</time></trkpt><trkpt lat="43.9007289" lon="12.3489585"><ele>531.0</ele><time>2026-03-22T08:36:13.149Z</time></trkpt><trkpt lat="43.9007865" lon="12.3488342"><ele>531.0</ele><time>2026-03-22T08:36:14.12Z</time></trkpt><trkpt lat="43.900847" lon="12.3487176"><ele>531.0</ele><time>2026-03-22T08:36:15.135Z</time></trkpt><trkpt lat="43.9009087" lon="12.3485911"><ele>529.4</ele><time>2026-03-22T08:36:16.127Z</time></trkpt><trkpt lat="43.9009717" lon="12.3484617"><ele>527.8</ele><time>2026-03-22T08:36:17.139Z</time></trkpt><trkpt lat="43.9010263" lon="12.3483341"><ele>526.1999999999999</ele><time>2026-03-22T08:36:18.094Z</time></trkpt><trkpt lat="43.9010868" lon="12.3482018"><ele>524.6</ele><time>2026-03-22T08:36:19.141Z</time></trkpt><trkpt lat="43.9011511" lon="12.3480749"><ele>523.0</ele><time>2026-03-22T08:36:20.125Z</time></trkpt><trkpt lat="43.9012207" lon="12.3479433"><ele>523.0</ele><time>2026-03-22T08:36:21.137Z</time></trkpt><trkpt lat="43.9012915" lon="12.3478239"><ele>523.0</ele><time>2026-03-22T08:36:22.142Z</time></trkpt><trkpt lat="43.901364" lon="12.3476996"><ele>523.0</ele><time>2026-03-22T08:36:23.128Z</time></trkpt><trkpt lat="43.9014395" lon="12.3475745"><ele>523.0</ele><time>2026-03-22T08:36:24.123Z</time></trkpt><trkpt lat="43.9015197" lon="12.3474552"><ele>523.0</ele><time>2026-03-22T08:36:25.123Z</time></trkpt><trkpt lat="43.9016059" lon="12.3473423"><ele>523.0</ele><time>2026-03-22T08:36:26.084Z</time></trkpt><trkpt lat="43.9016808" lon="12.3472435"><ele>523.0</ele><time>2026-03-22T08:36:27.13Z</time></trkpt><trkpt lat="43.9017515" lon="12.3471395"><ele>523.0</ele><time>2026-03-22T08:36:28.135Z</time></trkpt><trkpt lat="43.9018131" lon="12.3470402"><ele>523.0</ele><time>2026-03-22T08:36:29.128Z</time></trkpt><trkpt lat="43.9018767" lon="12.3469484"><ele>522.5</ele><time>2026-03-22T08:36:30.125Z</time></trkpt><trkpt lat="43.9019206" lon="12.3468586"><ele>522.0</ele><time>2026-03-22T08:36:31.117Z</time></trkpt><trkpt lat="43.9019701" lon="12.3467729"><ele>521.5</ele><time>2026-03-22T08:36:32.144Z</time></trkpt><trkpt lat="43.9020154" lon="12.3466957"><ele>521.0</ele><time>2026-03-22T08:36:33.111Z</time></trkpt><trkpt lat="43.9020785" lon="12.3465686"><ele>520.5</ele><time>2026-03-22T08:36:35.13Z</time></trkpt><trkpt lat="43.9021268" lon="12.3464549"><ele>520.0</ele><time>2026-03-22T08:36:37.114Z</time></trkpt><trkpt lat="43.9021678" lon="12.3463637"><ele>520.0000000000001</ele><time>2026-03-22T08:36:39.121Z</time></trkpt><trkpt lat="43.9021981" lon="12.3462819"><ele>520.0</ele><time>2026-03-22T08:36:41.132Z</time></trkpt><trkpt lat="43.9022317" lon="12.3462063"><ele>520.0</ele><time>2026-03-22T08:36:43.119Z</time></trkpt><trkpt lat="43.9022883" lon="12.346112"><ele>520.0</ele><time>2026-03-22T08:36:46.148Z</time></trkpt><trkpt lat="43.9023379" lon="12.3460203"><ele>520.0</ele><time>2026-03-22T08:36:49.125Z</time></trkpt><trkpt lat="43.9023896" lon="12.3459396"><ele>520.0000000000001</ele><time>2026-03-22T08:36:52.134Z</time></trkpt><trkpt lat="43.9024422" lon="12.3458844"><ele>520.0</ele><time>2026-03-22T08:36:54.137Z</time></trkpt><trkpt lat="43.9024987" lon="12.3457952"><ele>520.0</ele><time>2026-03-22T08:36:57.132Z</time></trkpt><trkpt lat="43.9025565" lon="12.3457059"><ele>520.0</ele><time>2026-03-22T08:37:00.121Z</time></trkpt><trkpt lat="43.9026082" lon="12.3456169"><ele>520.0</ele><time>2026-03-22T08:37:03.107Z</time></trkpt><trkpt lat="43.9026538" lon="12.3455318"><ele>520.0</ele><time>2026-03-22T08:37:06.134Z</time></trkpt><trkpt lat="43.9027181" lon="12.3454597"><ele>520.0</ele><time>2026-03-22T08:37:10.138Z</time></trkpt><trkpt lat="43.9027903" lon="12.3454331"><ele>520.0</ele><time>2026-03-22T08:37:14.085Z</time></trkpt><trkpt lat="43.9028693" lon="12.3454152"><ele>519.8333333333334</ele><time>2026-03-22T08:37:18.078Z</time></trkpt><trkpt lat="43.9029433" lon="12.3454248"><ele>519.6666666666667</ele><time>2026-03-22T08:37:22.089Z</time></trkpt><trkpt lat="43.9030103" lon="12.3454602"><ele>519.5</ele><time>2026-03-22T08:37:26.11Z</time></trkpt><trkpt lat="43.9030818" lon="12.345516"><ele>519.3333333333334</ele><time>2026-03-22T08:37:29.106Z</time></trkpt><trkpt lat="43.9031628" lon="12.345585"><ele>519.1666666666666</ele><time>2026-03-22T08:37:31.149Z</time></trkpt><trkpt lat="43.903218" lon="12.3456313"><ele>519.0</ele><time>2026-03-22T08:37:32.143Z</time></trkpt><trkpt lat="43.9032727" lon="12.3456936"><ele>519.0</ele><time>2026-03-22T08:37:33.136Z</time></trkpt><trkpt lat="43.9033331" lon="12.3457784"><ele>519.0</ele><time>2026-03-22T08:37:34.143Z</time></trkpt><trkpt lat="43.9033865" lon="12.3458838"><ele>519.0</ele><time>2026-03-22T08:37:35.134Z</time></trkpt><trkpt lat="43.9034369" lon="12.3459967"><ele>519.0</ele><time>2026-03-22T08:37:36.128Z</time></trkpt><trkpt lat="43.9034728" lon="12.3461146"><ele>519.0</ele><time>2026-03-22T08:37:37.125Z</time></trkpt><trkpt lat="43.9035141" lon="12.3462364"><ele>514.8</ele><time>2026-03-22T08:37:38.134Z</time></trkpt><trkpt lat="43.9035492" lon="12.3463667"><ele>510.59999999999997</ele><time>2026-03-22T08:37:39.113Z</time></trkpt><trkpt lat="43.9035788" lon="12.3464865"><ele>506.4</ele><time>2026-03-22T08:37:40.153Z</time></trkpt><trkpt lat="43.9036113" lon="12.3466081"><ele>502.2</ele><time>2026-03-22T08:37:41.131Z</time></trkpt><trkpt lat="43.9036421" lon="12.3467274"><ele>498.0</ele><time>2026-03-22T08:37:42.129Z</time></trkpt><trkpt lat="43.9036855" lon="12.3468363"><ele>498.0</ele><time>2026-03-22T08:37:43.12Z</time></trkpt><trkpt lat="43.9037231" lon="12.3469518"><ele>497.99999999999994</ele><time>2026-03-22T08:37:44.117Z</time></trkpt><trkpt lat="43.9037472" lon="12.3470734"><ele>497.99999999999994</ele><time>2026-03-22T08:37:45.129Z</time></trkpt><trkpt lat="43.9037706" lon="12.3472019"><ele>498.0</ele><time>2026-03-22T08:37:46.134Z</time></trkpt><trkpt lat="43.9037785" lon="12.34734"><ele>498.0</ele><time>2026-03-22T08:37:47.133Z</time></trkpt><trkpt lat="43.9037633" lon="12.3474728"><ele>498.79999999999995</ele><time>2026-03-22T08:37:48.14Z</time></trkpt><trkpt lat="43.9037275" lon="12.3475997"><ele>499.59999999999997</ele><time>2026-03-22T08:37:49.138Z</time></trkpt><trkpt lat="43.9036787" lon="12.3477054"><ele>500.40000000000003</ele><time>2026-03-22T08:37:50.133Z</time></trkpt><trkpt lat="43.9036238" lon="12.3478111"><ele>501.20000000000005</ele><time>2026-03-22T08:37:51.136Z</time></trkpt><trkpt lat="43.9035705" lon="12.3479172"><ele>502.0</ele><time>2026-03-22T08:37:52.119Z</time></trkpt><trkpt lat="43.9035425" lon="12.34803"><ele>503.00000000000006</ele><time>2026-03-22T08:37:53.115Z</time></trkpt><trkpt lat="43.9035428" lon="12.348131"><ele>504.0</ele><time>2026-03-22T08:37:54.097Z</time></trkpt><trkpt lat="43.9035549" lon="12.348284"><ele>505.0</ele><time>2026-03-22T08:37:56.117Z</time></trkpt><trkpt lat="43.9035765" lon="12.3483792"><ele>506.0</ele><time>2026-03-22T08:37:58.12Z</time></trkpt><trkpt lat="43.9036031" lon="12.3484614"><ele>507.00000000000006</ele><time>2026-03-22T08:38:01.149Z</time></trkpt><trkpt lat="43.9036302" lon="12.3485601"><ele>508.0</ele><time>2026-03-22T08:38:06.12Z</time></trkpt><trkpt lat="43.9036404" lon="12.3486528"><ele>508.00000000000006</ele><time>2026-03-22T08:38:10.096Z</time></trkpt><trkpt lat="43.9036604" lon="12.3487635"><ele>508.0</ele><time>2026-03-22T08:38:14.101Z</time></trkpt><trkpt lat="43.9036793" lon="12.3488707"><ele>508.0</ele><time>2026-03-22T08:38:18.125Z</time></trkpt><trkpt lat="43.9037024" lon="12.3489652"><ele>508.0</ele><time>2026-03-22T08:38:21.133Z</time></trkpt><trkpt lat="43.9037432" lon="12.3490757"><ele>508.00000000000006</ele><time>2026-03-22T08:38:24.142Z</time></trkpt><trkpt lat="43.903793" lon="12.3491784"><ele>508.0</ele><time>2026-03-22T08:38:27.128Z</time></trkpt><trkpt lat="43.903857" lon="12.3492581"><ele>509.7142857142857</ele><time>2026-03-22T08:38:30.146Z</time></trkpt><trkpt lat="43.9039182" lon="12.3493416"><ele>511.42857142857144</ele><time>2026-03-22T08:38:33.112Z</time></trkpt><trkpt lat="43.9039619" lon="12.3494264"><ele>513.1428571428571</ele><time>2026-03-22T08:38:36.118Z</time></trkpt><trkpt lat="43.9040079" lon="12.3494974"><ele>514.8571428571429</ele><time>2026-03-22T08:38:39.122Z</time></trkpt><trkpt lat="43.9040506" lon="12.3495883"><ele>516.5714285714286</ele><time>2026-03-22T08:38:43.114Z</time></trkpt><trkpt lat="43.9040801" lon="12.3496697"><ele>518.2857142857143</ele><time>2026-03-22T08:38:47.113Z</time></trkpt><trkpt lat="43.9041146" lon="12.3497631"><ele>520.0</ele><time>2026-03-22T08:38:52.105Z</time></trkpt><trkpt lat="43.9041442" lon="12.3498447"><ele>520.7142857142858</ele><time>2026-03-22T08:38:57.123Z</time></trkpt><trkpt lat="43.90418" lon="12.3499348"><ele>521.4285714285714</ele><time>2026-03-22T08:39:04.139Z</time></trkpt><trkpt lat="43.9042068" lon="12.3500152"><ele>522.1428571428571</ele><time>2026-03-22T08:39:08.117Z</time></trkpt><trkpt lat="43.9042516" lon="12.3500885"><ele>522.8571428571429</ele><time>2026-03-22T08:39:12.117Z</time></trkpt><trkpt lat="43.9043064" lon="12.3501696"><ele>523.5714285714286</ele><time>2026-03-22T08:39:16.123Z</time></trkpt><trkpt lat="43.9043474" lon="12.3502417"><ele>524.2857142857143</ele><time>2026-03-22T08:39:20.121Z</time></trkpt><trkpt lat="43.9044076" lon="12.3503105"><ele>525.0</ele><time>2026-03-22T08:39:24.122Z</time></trkpt><trkpt lat="43.9044655" lon="12.3503681"><ele>525.0</ele><time>2026-03-22T08:39:27.128Z</time></trkpt><trkpt lat="43.9045324" lon="12.3504119"><ele>525.0</ele><time>2026-03-22T08:39:30.128Z</time></trkpt><trkpt lat="43.9046192" lon="12.3504545"><ele>525.0</ele><time>2026-03-22T08:39:33.123Z</time></trkpt><trkpt lat="43.9046916" lon="12.3504974"><ele>525.0</ele><time>2026-03-22T08:39:36.134Z</time></trkpt><trkpt lat="43.9047696" lon="12.350532"><ele>525.0</ele><time>2026-03-22T08:39:40.115Z</time></trkpt><trkpt lat="43.9048349" lon="12.3505567"><ele>525.0</ele><time>2026-03-22T08:39:43.144Z</time></trkpt><trkpt lat="43.9049023" lon="12.3505743"><ele>524.1428571428571</ele><time>2026-03-22T08:39:46.123Z</time></trkpt><trkpt lat="43.9049752" lon="12.350583"><ele>523.2857142857142</ele><time>2026-03-22T08:39:49.106Z</time></trkpt><trkpt lat="43.9050409" lon="12.3506033"><ele>522.4285714285714</ele><time>2026-03-22T08:39:52.135Z</time></trkpt><trkpt lat="43.9051077" lon="12.3506233"><ele>521.5714285714286</ele><time>2026-03-22T08:39:55.134Z</time></trkpt><trkpt lat="43.9051684" lon="12.3506492"><ele>520.7142857142857</ele><time>2026-03-22T08:39:58.137Z</time></trkpt><trkpt lat="43.9052266" lon="12.3506861"><ele>519.8571428571429</ele><time>2026-03-22T08:40:01.121Z</time></trkpt><trkpt lat="43.9052995" lon="12.3507135"><ele>519.0</ele><time>2026-03-22T08:40:04.148Z</time></trkpt><trkpt lat="43.9053631" lon="12.3507779"><ele>519.0</ele><time>2026-03-22T08:40:07.121Z</time></trkpt><trkpt lat="43.9054287" lon="12.3508769"><ele>519.0</ele><time>2026-03-22T08:40:10.127Z</time></trkpt><trkpt lat="43.9054998" lon="12.3509491"><ele>519.0</ele><time>2026-03-22T08:40:12.1Z</time></trkpt><trkpt lat="43.9055543" lon="12.3510593"><ele>519.0</ele><time>2026-03-22T08:40:14.129Z</time></trkpt><trkpt lat="43.9056114" lon="12.3512012"><ele>519.0</ele><time>2026-03-22T08:40:16.141Z</time></trkpt><trkpt lat="43.9056465" lon="12.3512822"><ele>519.0</ele><time>2026-03-22T08:40:17.123Z</time></trkpt><trkpt lat="43.9056788" lon="12.3513734"><ele>519.0</ele><time>2026-03-22T08:40:18.143Z</time></trkpt><trkpt lat="43.9057168" lon="12.3514641"><ele>519.0</ele><time>2026-03-22T08:40:19.136Z</time></trkpt><trkpt lat="43.9057531" lon="12.3515529"><ele>519.0</ele><time>2026-03-22T08:40:20.134Z</time></trkpt><trkpt lat="43.9057859" lon="12.3516376"><ele>519.0</ele><time>2026-03-22T08:40:21.127Z</time></trkpt><trkpt lat="43.905807" lon="12.3517228"><ele>519.0</ele><time>2026-03-22T08:40:22.143Z</time></trkpt><trkpt lat="43.9058764" lon="12.3518698"><ele>519.0</ele><time>2026-03-22T08:40:24.091Z</time></trkpt><trkpt lat="43.9059225" lon="12.3519431"><ele>519.0</ele><time>2026-03-22T08:40:25.115Z</time></trkpt><trkpt lat="43.9059724" lon="12.3520196"><ele>519.0</ele><time>2026-03-22T08:40:26.123Z</time></trkpt><trkpt lat="43.9060187" lon="12.3521093"><ele>519.0</ele><time>2026-03-22T08:40:27.128Z</time></trkpt><trkpt lat="43.9060817" lon="12.3522056"><ele>519.0</ele><time>2026-03-22T08:40:28.119Z</time></trkpt><trkpt lat="43.906144" lon="12.3523006"><ele>519.0</ele><time>2026-03-22T08:40:29.125Z</time></trkpt><trkpt lat="43.906204" lon="12.3523949"><ele>519.0</ele><time>2026-03-22T08:40:30.14Z</time></trkpt><trkpt lat="43.9062694" lon="12.3524945"><ele>519.0</ele><time>2026-03-22T08:40:31.129Z</time></trkpt><trkpt lat="43.9063318" lon="12.3525862"><ele>519.0</ele><time>2026-03-22T08:40:32.144Z</time></trkpt><trkpt lat="43.9064048" lon="12.3526807"><ele>519.0</ele><time>2026-03-22T08:40:33.134Z</time></trkpt><trkpt lat="43.9064783" lon="12.3527712"><ele>519.0</ele><time>2026-03-22T08:40:34.119Z</time></trkpt><trkpt lat="43.906553" lon="12.3528396"><ele>519.0</ele><time>2026-03-22T08:40:35.13Z</time></trkpt><trkpt lat="43.9066349" lon="12.3528681"><ele>519.0</ele><time>2026-03-22T08:40:36.142Z</time></trkpt><trkpt lat="43.9067076" lon="12.3528777"><ele>519.0</ele><time>2026-03-22T08:40:37.129Z</time></trkpt><trkpt lat="43.906811" lon="12.352918"><ele>519.0</ele><time>2026-03-22T08:40:39.141Z</time></trkpt><trkpt lat="43.9069001" lon="12.3529882"><ele>519.0</ele><time>2026-03-22T08:40:41.126Z</time></trkpt><trkpt lat="43.9069863" lon="12.3530246"><ele>516.75</ele><time>2026-03-22T08:40:43.1Z</time></trkpt><trkpt lat="43.9071005" lon="12.3529912"><ele>514.5</ele><time>2026-03-22T08:40:45.137Z</time></trkpt><trkpt lat="43.9072081" lon="12.3529841"><ele>512.25</ele><time>2026-03-22T08:40:47.129Z</time></trkpt><trkpt lat="43.9073224" lon="12.3529836"><ele>510.0</ele><time>2026-03-22T08:40:49.139Z</time></trkpt><trkpt lat="43.9074345" lon="12.3529898"><ele>510.0</ele><time>2026-03-22T08:40:51.139Z</time></trkpt><trkpt lat="43.9075548" lon="12.3529973"><ele>510.0</ele><time>2026-03-22T08:40:53.133Z</time></trkpt><trkpt lat="43.907679" lon="12.3529978"><ele>510.0</ele><time>2026-03-22T08:40:55.071Z</time></trkpt><trkpt lat="43.9077976" lon="12.3529813"><ele>510.0</ele><time>2026-03-22T08:40:57.134Z</time></trkpt><trkpt lat="43.9079187" lon="12.3529673"><ele>507.0</ele><time>2026-03-22T08:40:59.136Z</time></trkpt><trkpt lat="43.9080337" lon="12.3529168"><ele>504.0</ele><time>2026-03-22T08:41:01.117Z</time></trkpt><trkpt lat="43.9081468" lon="12.3529032"><ele>501.0</ele><time>2026-03-22T08:41:03.139Z</time></trkpt><trkpt lat="43.9082804" lon="12.3529054"><ele>498.0</ele><time>2026-03-22T08:41:05.07Z</time></trkpt><trkpt lat="43.9083634" lon="12.3529159"><ele>496.0</ele><time>2026-03-22T08:41:06.153Z</time></trkpt><trkpt lat="43.9084414" lon="12.3529311"><ele>494.0</ele><time>2026-03-22T08:41:07.083Z</time></trkpt><trkpt lat="43.9085153" lon="12.3529541"><ele>492.0</ele><time>2026-03-22T08:41:08.081Z</time></trkpt><trkpt lat="43.9085915" lon="12.3529807"><ele>490.0</ele><time>2026-03-22T08:41:09.082Z</time></trkpt><trkpt lat="43.9086716" lon="12.3530081"><ele>488.0</ele><time>2026-03-22T08:41:10.088Z</time></trkpt><trkpt lat="43.9087541" lon="12.3530239"><ele>486.0</ele><time>2026-03-22T08:41:11.091Z</time></trkpt><trkpt lat="43.9088387" lon="12.3530352"><ele>487.6666666666667</ele><time>2026-03-22T08:41:12.118Z</time></trkpt><trkpt lat="43.9089254" lon="12.3530495"><ele>489.33333333333337</ele><time>2026-03-22T08:41:13.129Z</time></trkpt><trkpt lat="43.9090052" lon="12.3530792"><ele>491.0</ele><time>2026-03-22T08:41:14.091Z</time></trkpt><trkpt lat="43.909076" lon="12.353136"><ele>492.6666666666667</ele><time>2026-03-22T08:41:15.092Z</time></trkpt><trkpt lat="43.9091352" lon="12.3532101"><ele>494.33333333333337</ele><time>2026-03-22T08:41:16.151Z</time></trkpt><trkpt lat="43.9091906" lon="12.3532803"><ele>496.0</ele><time>2026-03-22T08:41:17.14Z</time></trkpt><trkpt lat="43.9092454" lon="12.3533632"><ele>496.00000000000006</ele><time>2026-03-22T08:41:18.138Z</time></trkpt><trkpt lat="43.9092972" lon="12.3534285"><ele>496.0</ele><time>2026-03-22T08:41:19.123Z</time></trkpt><trkpt lat="43.9093456" lon="12.353498"><ele>496.0</ele><time>2026-03-22T08:41:20.099Z</time></trkpt><trkpt lat="43.9093908" lon="12.3535624"><ele>496.0</ele><time>2026-03-22T08:41:21.13Z</time></trkpt><trkpt lat="43.9094325" lon="12.3536299"><ele>496.00000000000006</ele><time>2026-03-22T08:41:22.158Z</time></trkpt><trkpt lat="43.909512" lon="12.3537506"><ele>496.0</ele><time>2026-03-22T08:41:24.126Z</time></trkpt><trkpt lat="43.9095983" lon="12.3538398"><ele>499.1666666666667</ele><time>2026-03-22T08:41:26.132Z</time></trkpt><trkpt lat="43.9096576" lon="12.3539197"><ele>502.33333333333337</ele><time>2026-03-22T08:41:29.12Z</time></trkpt><trkpt lat="43.9097127" lon="12.3539856"><ele>505.5</ele><time>2026-03-22T08:41:32.126Z</time></trkpt><trkpt lat="43.9097699" lon="12.3540667"><ele>508.66666666666663</ele><time>2026-03-22T08:41:35.118Z</time></trkpt><trkpt lat="43.9098387" lon="12.3541272"><ele>511.8333333333333</ele><time>2026-03-22T08:41:39.086Z</time></trkpt><trkpt lat="43.9099015" lon="12.3541771"><ele>515.0</ele><time>2026-03-22T08:41:43.108Z</time></trkpt><trkpt lat="43.9099537" lon="12.354249"><ele>515.0</ele><time>2026-03-22T08:41:46.123Z</time></trkpt><trkpt lat="43.9100207" lon="12.3542996"><ele>515.0</ele><time>2026-03-22T08:41:50.13Z</time></trkpt><trkpt lat="43.9100902" lon="12.354344"><ele>515.0</ele><time>2026-03-22T08:41:54.128Z</time></trkpt><trkpt lat="43.9101634" lon="12.3543735"><ele>515.0</ele><time>2026-03-22T08:41:58.11Z</time></trkpt><trkpt lat="43.9102336" lon="12.354398"><ele>515.0</ele><time>2026-03-22T08:42:03.117Z</time></trkpt><trkpt lat="43.9103168" lon="12.3544102"><ele>515.0</ele><time>2026-03-22T08:42:07.11Z</time></trkpt><trkpt lat="43.9103844" lon="12.3544189"><ele>514.1428571428571</ele><time>2026-03-22T08:42:10.104Z</time></trkpt><trkpt lat="43.9104587" lon="12.3544404"><ele>513.2857142857142</ele><time>2026-03-22T08:42:13.093Z</time></trkpt><trkpt lat="43.9105216" lon="12.3544344"><ele>512.4285714285713</ele><time>2026-03-22T08:42:16.119Z</time></trkpt><trkpt lat="43.9105847" lon="12.3544203"><ele>511.57142857142856</ele><time>2026-03-22T08:42:19.147Z</time></trkpt><trkpt lat="43.9106554" lon="12.3544148"><ele>510.71428571428567</ele><time>2026-03-22T08:42:22.136Z</time></trkpt><trkpt lat="43.9107406" lon="12.3543989"><ele>509.8571428571428</ele><time>2026-03-22T08:42:25.121Z</time></trkpt><trkpt lat="43.9108163" lon="12.3543976"><ele>508.99999999999994</ele><time>2026-03-22T08:42:28.13Z</time></trkpt><trkpt lat="43.9109084" lon="12.3544139"><ele>507.99999999999994</ele><time>2026-03-22T08:42:31.136Z</time></trkpt><trkpt lat="43.9109902" lon="12.3544563"><ele>507.0</ele><time>2026-03-22T08:42:34.153Z</time></trkpt><trkpt lat="43.9110594" lon="12.3545044"><ele>506.0</ele><time>2026-03-22T08:42:37.13Z</time></trkpt><trkpt lat="43.9111291" lon="12.3545835"><ele>505.0</ele><time>2026-03-22T08:42:40.106Z</time></trkpt><trkpt lat="43.9111755" lon="12.3546511"><ele>503.99999999999994</ele><time>2026-03-22T08:42:42.133Z</time></trkpt><trkpt lat="43.9112147" lon="12.3547233"><ele>503.0</ele><time>2026-03-22T08:42:44.134Z</time></trkpt><trkpt lat="43.911258" lon="12.3547922"><ele>503.0</ele><time>2026-03-22T08:42:46.135Z</time></trkpt><trkpt lat="43.9113057" lon="12.3548793"><ele>502.99999999999994</ele><time>2026-03-22T08:42:48.103Z</time></trkpt><trkpt lat="43.9113547" lon="12.3549633"><ele>502.99999999999994</ele><time>2026-03-22T08:42:50.124Z</time></trkpt><trkpt lat="43.9113963" lon="12.3550337"><ele>503.0</ele><time>2026-03-22T08:42:51.089Z</time></trkpt><trkpt lat="43.91146" lon="12.3551539"><ele>503.0</ele><time>2026-03-22T08:42:53.144Z</time></trkpt><trkpt lat="43.9115312" lon="12.3552905"><ele>503.0</ele><time>2026-03-22T08:42:55.105Z</time></trkpt><trkpt lat="43.9115787" lon="12.355362"><ele>503.00000000000006</ele><time>2026-03-22T08:42:56.117Z</time></trkpt><trkpt lat="43.9116222" lon="12.3554476"><ele>503.0</ele><time>2026-03-22T08:42:57.129Z</time></trkpt><trkpt lat="43.9116634" lon="12.3555304"><ele>503.0</ele><time>2026-03-22T08:42:58.123Z</time></trkpt><trkpt lat="43.9117054" lon="12.3556154"><ele>503.00000000000006</ele><time>2026-03-22T08:42:59.125Z</time></trkpt><trkpt lat="43.9117505" lon="12.3557036"><ele>503.0</ele><time>2026-03-22T08:43:00.12Z</time></trkpt><trkpt lat="43.9117898" lon="12.3557775"><ele>503.0</ele><time>2026-03-22T08:43:01.127Z</time></trkpt><trkpt lat="43.9118667" lon="12.355897"><ele>503.66666666666663</ele><time>2026-03-22T08:43:03.123Z</time></trkpt><trkpt lat="43.9119054" lon="12.3559949"><ele>504.3333333333333</ele><time>2026-03-22T08:43:05.115Z</time></trkpt><trkpt lat="43.9119271" lon="12.3560775"><ele>505.0</ele><time>2026-03-22T08:43:07.117Z</time></trkpt><trkpt lat="43.911946" lon="12.3561618"><ele>505.66666666666663</ele><time>2026-03-22T08:43:09.112Z</time></trkpt><trkpt lat="43.9120005" lon="12.3562605"><ele>506.3333333333333</ele><time>2026-03-22T08:43:11.139Z</time></trkpt><trkpt lat="43.9120654" lon="12.3563834"><ele>507.0</ele><time>2026-03-22T08:43:13.142Z</time></trkpt><trkpt lat="43.9121375" lon="12.3565121"><ele>507.0</ele><time>2026-03-22T08:43:15.145Z</time></trkpt><trkpt lat="43.9121928" lon="12.3565606"><ele>507.00000000000006</ele><time>2026-03-22T08:43:17.133Z</time></trkpt><trkpt lat="43.9122574" lon="12.3565602"><ele>507.00000000000006</ele><time>2026-03-22T08:43:20.133Z</time></trkpt><trkpt lat="43.9123547" lon="12.3565297"><ele>507.0</ele><time>2026-03-22T08:43:23.131Z</time></trkpt><trkpt lat="43.912465" lon="12.3564716"><ele>507.0</ele><time>2026-03-22T08:43:25.133Z</time></trkpt><trkpt lat="43.9125665" lon="12.3564271"><ele>507.0</ele><time>2026-03-22T08:43:27.137Z</time></trkpt><trkpt lat="43.9126618" lon="12.3563848"><ele>507.0</ele><time>2026-03-22T08:43:29.142Z</time></trkpt><trkpt lat="43.9127597" lon="12.3563345"><ele>507.0</ele><time>2026-03-22T08:43:31.102Z</time></trkpt><trkpt lat="43.9128711" lon="12.3562684"><ele>507.0</ele><time>2026-03-22T08:43:33.128Z</time></trkpt><trkpt lat="43.9129806" lon="12.3561834"><ele>507.0</ele><time>2026-03-22T08:43:35.129Z</time></trkpt><trkpt lat="43.9130359" lon="12.3561373"><ele>507.00000000000006</ele><time>2026-03-22T08:43:36.129Z</time></trkpt><trkpt lat="43.9131395" lon="12.3560509"><ele>507.00000000000006</ele><time>2026-03-22T08:43:38.134Z</time></trkpt><trkpt lat="43.9132354" lon="12.355963"><ele>507.0</ele><time>2026-03-22T08:43:40.132Z</time></trkpt><trkpt lat="43.9133353" lon="12.3558965"><ele>507.0</ele><time>2026-03-22T08:43:42.122Z</time></trkpt><trkpt lat="43.9134525" lon="12.3559174"><ele>503.0</ele><time>2026-03-22T08:43:44.133Z</time></trkpt><trkpt lat="43.913516" lon="12.3559402"><ele>499.0</ele><time>2026-03-22T08:43:45.141Z</time></trkpt><trkpt lat="43.9135786" lon="12.355978"><ele>495.0</ele><time>2026-03-22T08:43:46.117Z</time></trkpt><trkpt lat="43.9136416" lon="12.3560207"><ele>491.0</ele><time>2026-03-22T08:43:47.095Z</time></trkpt><trkpt lat="43.9137224" lon="12.3560755"><ele>487.0</ele><time>2026-03-22T08:43:48.131Z</time></trkpt><trkpt lat="43.913782" lon="12.3561205"><ele>483.0</ele><time>2026-03-22T08:43:49.131Z</time></trkpt><trkpt lat="43.9138451" lon="12.3561687"><ele>479.0</ele><time>2026-03-22T08:43:50.143Z</time></trkpt><trkpt lat="43.9139105" lon="12.3562257"><ele>479.0</ele><time>2026-03-22T08:43:51.134Z</time></trkpt><trkpt lat="43.9139863" lon="12.356286"><ele>479.0</ele><time>2026-03-22T08:43:52.094Z</time></trkpt><trkpt lat="43.91407" lon="12.3563498"><ele>479.0</ele><time>2026-03-22T08:43:53.139Z</time></trkpt><trkpt lat="43.9141573" lon="12.3564176"><ele>479.0</ele><time>2026-03-22T08:43:54.13Z</time></trkpt><trkpt lat="43.9142377" lon="12.3564966"><ele>479.0</ele><time>2026-03-22T08:43:55.114Z</time></trkpt><trkpt lat="43.9143145" lon="12.3565794"><ele>479.2</ele><time>2026-03-22T08:43:56.126Z</time></trkpt><trkpt lat="43.9143936" lon="12.3566611"><ele>479.4</ele><time>2026-03-22T08:43:57.128Z</time></trkpt><trkpt lat="43.9144701" lon="12.3567427"><ele>479.6</ele><time>2026-03-22T08:43:58.122Z</time></trkpt><trkpt lat="43.9145421" lon="12.3568284"><ele>479.8</ele><time>2026-03-22T08:43:59.118Z</time></trkpt><trkpt lat="43.9146172" lon="12.3569063"><ele>480.0</ele><time>2026-03-22T08:44:00.125Z</time></trkpt><trkpt lat="43.9146887" lon="12.35697"><ele>480.0</ele><time>2026-03-22T08:44:01.094Z</time></trkpt><trkpt lat="43.9147654" lon="12.3570382"><ele>480.0</ele><time>2026-03-22T08:44:02.118Z</time></trkpt><trkpt lat="43.9148477" lon="12.3570964"><ele>480.0</ele><time>2026-03-22T08:44:03.122Z</time></trkpt><trkpt lat="43.9149337" lon="12.3571544"><ele>480.0</ele><time>2026-03-22T08:44:04.125Z</time></trkpt><trkpt lat="43.915027" lon="12.3572194"><ele>480.0</ele><time>2026-03-22T08:44:05.127Z</time></trkpt><trkpt lat="43.9151169" lon="12.3572857"><ele>483.2</ele><time>2026-03-22T08:44:06.067Z</time></trkpt><trkpt lat="43.9152017" lon="12.3573515"><ele>486.4</ele><time>2026-03-22T08:44:07.113Z</time></trkpt><trkpt lat="43.9152885" lon="12.3574066"><ele>489.6</ele><time>2026-03-22T08:44:08.1Z</time></trkpt><trkpt lat="43.9153788" lon="12.3574385"><ele>492.8</ele><time>2026-03-22T08:44:09.111Z</time></trkpt><trkpt lat="43.9154719" lon="12.3574558"><ele>496.0</ele><time>2026-03-22T08:44:10.117Z</time></trkpt><trkpt lat="43.9155782" lon="12.3574494"><ele>496.0</ele><time>2026-03-22T08:44:11.113Z</time></trkpt><trkpt lat="43.9156819" lon="12.357436"><ele>496.0</ele><time>2026-03-22T08:44:12.102Z</time></trkpt><trkpt lat="43.9157782" lon="12.3574082"><ele>496.0</ele><time>2026-03-22T08:44:13.103Z</time></trkpt><trkpt lat="43.9158723" lon="12.3573722"><ele>496.0</ele><time>2026-03-22T08:44:14.127Z</time></trkpt><trkpt lat="43.9159676" lon="12.3573195"><ele>496.0</ele><time>2026-03-22T08:44:15.119Z</time></trkpt><trkpt lat="43.9160581" lon="12.3572594"><ele>493.20000000000005</ele><time>2026-03-22T08:44:16.116Z</time></trkpt><trkpt lat="43.9161473" lon="12.3572049"><ele>490.40000000000003</ele><time>2026-03-22T08:44:17.087Z</time></trkpt><trkpt lat="43.9162431" lon="12.3571769"><ele>487.6</ele><time>2026-03-22T08:44:18.089Z</time></trkpt><trkpt lat="43.9163511" lon="12.3571815"><ele>484.8</ele><time>2026-03-22T08:44:19.135Z</time></trkpt><trkpt lat="43.9164629" lon="12.3571948"><ele>482.0</ele><time>2026-03-22T08:44:20.127Z</time></trkpt><trkpt lat="43.9165697" lon="12.3572281"><ele>482.0</ele><time>2026-03-22T08:44:21.128Z</time></trkpt><trkpt lat="43.9166564" lon="12.3572892"><ele>482.00000000000006</ele><time>2026-03-22T08:44:22.106Z</time></trkpt><trkpt lat="43.9167307" lon="12.3573737"><ele>482.00000000000006</ele><time>2026-03-22T08:44:23.123Z</time></trkpt><trkpt lat="43.9167971" lon="12.3574658"><ele>482.0</ele><time>2026-03-22T08:44:24.136Z</time></trkpt><trkpt lat="43.916856" lon="12.3575584"><ele>482.0</ele><time>2026-03-22T08:44:25.119Z</time></trkpt><trkpt lat="43.9169033" lon="12.3576671"><ele>483.3333333333333</ele><time>2026-03-22T08:44:26.13Z</time></trkpt><trkpt lat="43.9169274" lon="12.3577805"><ele>484.66666666666663</ele><time>2026-03-22T08:44:27.102Z</time></trkpt><trkpt lat="43.9169462" lon="12.357896"><ele>486.0</ele><time>2026-03-22T08:44:28.112Z</time></trkpt><trkpt lat="43.9169713" lon="12.357998"><ele>487.33333333333337</ele><time>2026-03-22T08:44:29.095Z</time></trkpt><trkpt lat="43.917012" lon="12.3580944"><ele>488.6666666666667</ele><time>2026-03-22T08:44:30.071Z</time></trkpt><trkpt lat="43.9170617" lon="12.3581883"><ele>490.0</ele><time>2026-03-22T08:44:31.13Z</time></trkpt><trkpt lat="43.9171205" lon="12.3582503"><ele>490.00000000000006</ele><time>2026-03-22T08:44:32.098Z</time></trkpt><trkpt lat="43.9171878" lon="12.3582841"><ele>490.0</ele><time>2026-03-22T08:44:33.124Z</time></trkpt><trkpt lat="43.9172572" lon="12.3582855"><ele>490.0</ele><time>2026-03-22T08:44:34.128Z</time></trkpt><trkpt lat="43.9173253" lon="12.3582907"><ele>490.0</ele><time>2026-03-22T08:44:35.124Z</time></trkpt><trkpt lat="43.9174416" lon="12.3582723"><ele>490.00000000000006</ele><time>2026-03-22T08:44:37.145Z</time></trkpt><trkpt lat="43.917547" lon="12.358214"><ele>490.0</ele><time>2026-03-22T08:44:39.105Z</time></trkpt><trkpt lat="43.9176477" lon="12.3581306"><ele>488.6</ele><time>2026-03-22T08:44:41.134Z</time></trkpt><trkpt lat="43.9177777" lon="12.3580752"><ele>487.2</ele><time>2026-03-22T08:44:43.113Z</time></trkpt><trkpt lat="43.9178453" lon="12.3580832"><ele>485.79999999999995</ele><time>2026-03-22T08:44:44.139Z</time></trkpt><trkpt lat="43.9179163" lon="12.3580872"><ele>484.4</ele><time>2026-03-22T08:44:45.126Z</time></trkpt><trkpt lat="43.9180271" lon="12.35812"><ele>483.0</ele><time>2026-03-22T08:44:47.123Z</time></trkpt><trkpt lat="43.9181325" lon="12.3581651"><ele>483.0</ele><time>2026-03-22T08:44:49.125Z</time></trkpt><trkpt lat="43.9182362" lon="12.3582437"><ele>483.0</ele><time>2026-03-22T08:44:51.133Z</time></trkpt><trkpt lat="43.9182849" lon="12.3583018"><ele>483.0</ele><time>2026-03-22T08:44:52.131Z</time></trkpt><trkpt lat="43.9183418" lon="12.3583577"><ele>483.0</ele><time>2026-03-22T08:44:53.137Z</time></trkpt><trkpt lat="43.9183983" lon="12.3584194"><ele>483.0</ele><time>2026-03-22T08:44:54.127Z</time></trkpt><trkpt lat="43.9184625" lon="12.3584886"><ele>483.0</ele><time>2026-03-22T08:44:55.114Z</time></trkpt><trkpt lat="43.918527" lon="12.3585525"><ele>482.8333333333333</ele><time>2026-03-22T08:44:56.122Z</time></trkpt><trkpt lat="43.9185905" lon="12.358615"><ele>482.66666666666663</ele><time>2026-03-22T08:44:57.129Z</time></trkpt><trkpt lat="43.9186573" lon="12.3586806"><ele>482.5</ele><time>2026-03-22T08:44:58.134Z</time></trkpt><trkpt lat="43.9187201" lon="12.3587508"><ele>482.3333333333333</ele><time>2026-03-22T08:44:59.129Z</time></trkpt><trkpt lat="43.9187874" lon="12.3588326"><ele>482.16666666666663</ele><time>2026-03-22T08:45:00.13Z</time></trkpt><trkpt lat="43.9188676" lon="12.3588974"><ele>482.0</ele><time>2026-03-22T08:45:01.135Z</time></trkpt><trkpt lat="43.9189473" lon="12.3589414"><ele>482.0</ele><time>2026-03-22T08:45:02.127Z</time></trkpt><trkpt lat="43.919022" lon="12.3589681"><ele>482.00000000000006</ele><time>2026-03-22T08:45:03.126Z</time></trkpt><trkpt lat="43.919118" lon="12.3589448"><ele>482.00000000000006</ele><time>2026-03-22T08:45:04.121Z</time></trkpt><trkpt lat="43.9192174" lon="12.3589196"><ele>482.0</ele><time>2026-03-22T08:45:05.092Z</time></trkpt><trkpt lat="43.919315" lon="12.3588989"><ele>482.0</ele><time>2026-03-22T08:45:06.109Z</time></trkpt><trkpt lat="43.919408" lon="12.3588851"><ele>478.40000000000003</ele><time>2026-03-22T08:45:07.123Z</time></trkpt><trkpt lat="43.9195128" lon="12.3588803"><ele>474.80000000000007</ele><time>2026-03-22T08:45:08.123Z</time></trkpt><trkpt lat="43.9196129" lon="12.3588686"><ele>471.2</ele><time>2026-03-22T08:45:09.122Z</time></trkpt><trkpt lat="43.919707" lon="12.35884"><ele>467.6</ele><time>2026-03-22T08:45:10.13Z</time></trkpt><trkpt lat="43.9198138" lon="12.358793"><ele>464.0</ele><time>2026-03-22T08:45:11.117Z</time></trkpt><trkpt lat="43.9199144" lon="12.3587481"><ele>462.2</ele><time>2026-03-22T08:45:12.115Z</time></trkpt><trkpt lat="43.9200222" lon="12.3587057"><ele>460.4</ele><time>2026-03-22T08:45:13.111Z</time></trkpt><trkpt lat="43.9201323" lon="12.3586566"><ele>458.6</ele><time>2026-03-22T08:45:14.133Z</time></trkpt><trkpt lat="43.9202331" lon="12.3585914"><ele>456.8</ele><time>2026-03-22T08:45:15.146Z</time></trkpt><trkpt lat="43.9203296" lon="12.3585231"><ele>455.0</ele><time>2026-03-22T08:45:16.129Z</time></trkpt><trkpt lat="43.9204162" lon="12.3584569"><ele>453.8333333333333</ele><time>2026-03-22T08:45:17.134Z</time></trkpt><trkpt lat="43.9204771" lon="12.3584279"><ele>452.66666666666663</ele><time>2026-03-22T08:45:18.15Z</time></trkpt><trkpt lat="43.9205514" lon="12.3585018"><ele>451.5</ele><time>2026-03-22T08:45:20.126Z</time></trkpt><trkpt lat="43.9205268" lon="12.3586631"><ele>450.33333333333337</ele><time>2026-03-22T08:45:22.139Z</time></trkpt><trkpt lat="43.9204938" lon="12.3587457"><ele>449.1666666666667</ele><time>2026-03-22T08:45:23.103Z</time></trkpt><trkpt lat="43.9204677" lon="12.3588447"><ele>448.0</ele><time>2026-03-22T08:45:24.131Z</time></trkpt><trkpt lat="43.9204454" lon="12.3589441"><ele>447.1666666666667</ele><time>2026-03-22T08:45:25.1Z</time></trkpt><trkpt lat="43.9204193" lon="12.3590539"><ele>446.33333333333337</ele><time>2026-03-22T08:45:26.101Z</time></trkpt><trkpt lat="43.9203921" lon="12.3591587"><ele>445.5</ele><time>2026-03-22T08:45:27.135Z</time></trkpt><trkpt lat="43.9203654" lon="12.359271"><ele>444.66666666666663</ele><time>2026-03-22T08:45:28.133Z</time></trkpt><trkpt lat="43.92033" lon="12.3593835"><ele>443.8333333333333</ele><time>2026-03-22T08:45:29.14Z</time></trkpt><trkpt lat="43.9203022" lon="12.359497"><ele>443.0</ele><time>2026-03-22T08:45:30.12Z</time></trkpt><trkpt lat="43.9203082" lon="12.3596205"><ele>444.8333333333333</ele><time>2026-03-22T08:45:31.129Z</time></trkpt><trkpt lat="43.9203345" lon="12.3597455"><ele>446.66666666666663</ele><time>2026-03-22T08:45:32.126Z</time></trkpt><trkpt lat="43.9204043" lon="12.3598459"><ele>448.5</ele><time>2026-03-22T08:45:33.128Z</time></trkpt><trkpt lat="43.9204774" lon="12.3599075"><ele>450.33333333333337</ele><time>2026-03-22T08:45:34.136Z</time></trkpt><trkpt lat="43.920555" lon="12.3599412"><ele>452.1666666666667</ele><time>2026-03-22T08:45:35.121Z</time></trkpt><trkpt lat="43.9206315" lon="12.3599724"><ele>454.0</ele><time>2026-03-22T08:45:36.116Z</time></trkpt><trkpt lat="43.9207151" lon="12.3600069"><ele>454.0</ele><time>2026-03-22T08:45:37.119Z</time></trkpt><trkpt lat="43.9207832" lon="12.3600328"><ele>454.00000000000006</ele><time>2026-03-22T08:45:38.143Z</time></trkpt><trkpt lat="43.9208543" lon="12.3600598"><ele>454.0</ele><time>2026-03-22T08:45:39.146Z</time></trkpt><trkpt lat="43.9209231" lon="12.3600861"><ele>454.0</ele><time>2026-03-22T08:45:40.118Z</time></trkpt><trkpt lat="43.9209927" lon="12.3601101"><ele>454.00000000000006</ele><time>2026-03-22T08:45:41.125Z</time></trkpt><trkpt lat="43.9210551" lon="12.3601315"><ele>454.0</ele><time>2026-03-22T08:45:42.117Z</time></trkpt><trkpt lat="43.9211217" lon="12.360138"><ele>454.0</ele><time>2026-03-22T08:45:43.122Z</time></trkpt><trkpt lat="43.9211921" lon="12.3601367"><ele>454.6</ele><time>2026-03-22T08:45:44.13Z</time></trkpt><trkpt lat="43.9212671" lon="12.3601493"><ele>455.2</ele><time>2026-03-22T08:45:45.129Z</time></trkpt><trkpt lat="43.9213699" lon="12.360239"><ele>455.80000000000007</ele><time>2026-03-22T08:45:47.1Z</time></trkpt><trkpt lat="43.9214532" lon="12.3603707"><ele>456.40000000000003</ele><time>2026-03-22T08:45:49.093Z</time></trkpt><trkpt lat="43.9214945" lon="12.3604411"><ele>457.0</ele><time>2026-03-22T08:45:50.127Z</time></trkpt><trkpt lat="43.9215709" lon="12.3605723"><ele>457.0</ele><time>2026-03-22T08:45:52.1Z</time></trkpt><trkpt lat="43.9216519" lon="12.3606853"><ele>457.00000000000006</ele><time>2026-03-22T08:45:54.136Z</time></trkpt><trkpt lat="43.9217437" lon="12.3607935"><ele>457.00000000000006</ele><time>2026-03-22T08:45:56.129Z</time></trkpt><trkpt lat="43.9218006" lon="12.3608545"><ele>457.0</ele><time>2026-03-22T08:45:57.125Z</time></trkpt><trkpt lat="43.9218572" lon="12.3609117"><ele>457.0</ele><time>2026-03-22T08:45:58.102Z</time></trkpt><trkpt lat="43.9219221" lon="12.3609594"><ele>455.1666666666667</ele><time>2026-03-22T08:45:59.103Z</time></trkpt><trkpt lat="43.92199" lon="12.3609825"><ele>453.33333333333337</ele><time>2026-03-22T08:46:00.119Z</time></trkpt><trkpt lat="43.9220727" lon="12.3609732"><ele>451.5</ele><time>2026-03-22T08:46:01.121Z</time></trkpt><trkpt lat="43.9221673" lon="12.3609366"><ele>449.66666666666663</ele><time>2026-03-22T08:46:02.13Z</time></trkpt><trkpt lat="43.922254" lon="12.3608986"><ele>447.8333333333333</ele><time>2026-03-22T08:46:03.121Z</time></trkpt><trkpt lat="43.9223321" lon="12.3608581"><ele>446.0</ele><time>2026-03-22T08:46:04.122Z</time></trkpt><trkpt lat="43.9224159" lon="12.3608573"><ele>446.0</ele><time>2026-03-22T08:46:05.128Z</time></trkpt><trkpt lat="43.922495" lon="12.3608875"><ele>446.0</ele><time>2026-03-22T08:46:06.128Z</time></trkpt><trkpt lat="43.9225807" lon="12.3609374"><ele>446.0</ele><time>2026-03-22T08:46:07.117Z</time></trkpt><trkpt lat="43.9226648" lon="12.3609747"><ele>446.0</ele><time>2026-03-22T08:46:08.115Z</time></trkpt><trkpt lat="43.9227581" lon="12.3609981"><ele>446.0</ele><time>2026-03-22T08:46:09.095Z</time></trkpt><trkpt lat="43.9228525" lon="12.3610265"><ele>443.0</ele><time>2026-03-22T08:46:10.095Z</time></trkpt><trkpt lat="43.922951" lon="12.3610659"><ele>440.0</ele><time>2026-03-22T08:46:11.104Z</time></trkpt><trkpt lat="43.9230534" lon="12.3611371"><ele>437.0</ele><time>2026-03-22T08:46:12.128Z</time></trkpt><trkpt lat="43.9231527" lon="12.3612029"><ele>434.0</ele><time>2026-03-22T08:46:13.121Z</time></trkpt><trkpt lat="43.9232458" lon="12.3612549"><ele>431.0</ele><time>2026-03-22T08:46:14.141Z</time></trkpt><trkpt lat="43.9233485" lon="12.3613001"><ele>427.6</ele><time>2026-03-22T08:46:15.125Z</time></trkpt><trkpt lat="43.9234508" lon="12.3613298"><ele>424.20000000000005</ele><time>2026-03-22T08:46:16.143Z</time></trkpt><trkpt lat="43.9235472" lon="12.3613515"><ele>420.79999999999995</ele><time>2026-03-22T08:46:17.139Z</time></trkpt><trkpt lat="43.9236473" lon="12.3613582"><ele>417.4</ele><time>2026-03-22T08:46:18.124Z</time></trkpt><trkpt lat="43.9237437" lon="12.3613548"><ele>414.0</ele><time>2026-03-22T08:46:19.12Z</time></trkpt><trkpt lat="43.9238404" lon="12.3613362"><ele>414.0</ele><time>2026-03-22T08:46:20.146Z</time></trkpt><trkpt lat="43.9239415" lon="12.3613196"><ele>414.0</ele><time>2026-03-22T08:46:21.109Z</time></trkpt><trkpt lat="43.924046" lon="12.3613197"><ele>414.0</ele><time>2026-03-22T08:46:22.124Z</time></trkpt><trkpt lat="43.9241473" lon="12.3613411"><ele>414.0</ele><time>2026-03-22T08:46:23.113Z</time></trkpt><trkpt lat="43.9242411" lon="12.3613756"><ele>414.0</ele><time>2026-03-22T08:46:24.096Z</time></trkpt><trkpt lat="43.9243411" lon="12.3614236"><ele>418.6</ele><time>2026-03-22T08:46:25.129Z</time></trkpt><trkpt lat="43.9244326" lon="12.361465"><ele>423.2</ele><time>2026-03-22T08:46:26.131Z</time></trkpt><trkpt lat="43.9245242" lon="12.361477"><ele>427.80000000000007</ele><time>2026-03-22T08:46:27.086Z</time></trkpt><trkpt lat="43.924635" lon="12.3614812"><ele>432.40000000000003</ele><time>2026-03-22T08:46:28.118Z</time></trkpt><trkpt lat="43.9247347" lon="12.3614856"><ele>437.0</ele><time>2026-03-22T08:46:29.114Z</time></trkpt><trkpt lat="43.9248372" lon="12.3615095"><ele>437.0</ele><time>2026-03-22T08:46:30.138Z</time></trkpt><trkpt lat="43.9249368" lon="12.3615398"><ele>437.00000000000006</ele><time>2026-03-22T08:46:31.118Z</time></trkpt><trkpt lat="43.9250259" lon="12.3615903"><ele>437.00000000000006</ele><time>2026-03-22T08:46:32.125Z</time></trkpt><trkpt lat="43.9251097" lon="12.3616509"><ele>437.0</ele><time>2026-03-22T08:46:33.12Z</time></trkpt><trkpt lat="43.9251876" lon="12.3616982"><ele>437.0</ele><time>2026-03-22T08:46:34.077Z</time></trkpt><trkpt lat="43.9252587" lon="12.3617332"><ele>438.16666666666663</ele><time>2026-03-22T08:46:35.123Z</time></trkpt><trkpt lat="43.9253362" lon="12.3617291"><ele>439.3333333333333</ele><time>2026-03-22T08:46:36.118Z</time></trkpt><trkpt lat="43.9254229" lon="12.3616799"><ele>440.5</ele><time>2026-03-22T08:46:37.121Z</time></trkpt><trkpt lat="43.9254976" lon="12.3616054"><ele>441.66666666666663</ele><time>2026-03-22T08:46:38.117Z</time></trkpt><trkpt lat="43.9255432" lon="12.3615299"><ele>442.8333333333333</ele><time>2026-03-22T08:46:39.111Z</time></trkpt><trkpt lat="43.925586" lon="12.3614396"><ele>444.0</ele><time>2026-03-22T08:46:40.122Z</time></trkpt><trkpt lat="43.9256181" lon="12.3613414"><ele>439.8333333333333</ele><time>2026-03-22T08:46:41.127Z</time></trkpt><trkpt lat="43.9256494" lon="12.3612038"><ele>435.66666666666663</ele><time>2026-03-22T08:46:43.129Z</time></trkpt><trkpt lat="43.9256882" lon="12.3611064"><ele>431.5</ele><time>2026-03-22T08:46:45.136Z</time></trkpt><trkpt lat="43.9257726" lon="12.3610743"><ele>427.3333333333333</ele><time>2026-03-22T08:46:48.144Z</time></trkpt><trkpt lat="43.9258434" lon="12.3611047"><ele>423.16666666666663</ele><time>2026-03-22T08:46:50.115Z</time></trkpt><trkpt lat="43.9259158" lon="12.3611417"><ele>419.0</ele><time>2026-03-22T08:46:52.133Z</time></trkpt><trkpt lat="43.9259863" lon="12.3611794"><ele>418.49999999999994</ele><time>2026-03-22T08:46:54.122Z</time></trkpt><trkpt lat="43.9260538" lon="12.3612117"><ele>418.0</ele><time>2026-03-22T08:46:56.125Z</time></trkpt><trkpt lat="43.9261275" lon="12.3612617"><ele>417.5</ele><time>2026-03-22T08:46:58.12Z</time></trkpt><trkpt lat="43.9262066" lon="12.3613171"><ele>417.0</ele><time>2026-03-22T08:47:00.121Z</time></trkpt><trkpt lat="43.9262791" lon="12.3613648"><ele>416.49999999999994</ele><time>2026-03-22T08:47:02.114Z</time></trkpt><trkpt lat="43.9263587" lon="12.3614169"><ele>416.0</ele><time>2026-03-22T08:47:04.111Z</time></trkpt><trkpt lat="43.9264411" lon="12.3614575"><ele>418.0</ele><time>2026-03-22T08:47:06.137Z</time></trkpt><trkpt lat="43.9265122" lon="12.3614994"><ele>420.0</ele><time>2026-03-22T08:47:08.128Z</time></trkpt><trkpt lat="43.9265926" lon="12.3615361"><ele>422.0</ele><time>2026-03-22T08:47:10.12Z</time></trkpt><trkpt lat="43.9266784" lon="12.3615926"><ele>424.0</ele><time>2026-03-22T08:47:12.135Z</time></trkpt><trkpt lat="43.9267631" lon="12.3616652"><ele>426.0</ele><time>2026-03-22T08:47:14.094Z</time></trkpt><trkpt lat="43.9268517" lon="12.3617346"><ele>426.0</ele><time>2026-03-22T08:47:16.125Z</time></trkpt><trkpt lat="43.9269128" lon="12.3617908"><ele>426.0</ele><time>2026-03-22T08:47:18.135Z</time></trkpt><trkpt lat="43.9269869" lon="12.3618471"><ele>426.0</ele><time>2026-03-22T08:47:20.135Z</time></trkpt><trkpt lat="43.9270693" lon="12.3619173"><ele>426.0</ele><time>2026-03-22T08:47:22.113Z</time></trkpt><trkpt lat="43.9271383" lon="12.3619734"><ele>426.0</ele><time>2026-03-22T08:47:24.132Z</time></trkpt><trkpt lat="43.9272353" lon="12.362029"><ele>426.0</ele><time>2026-03-22T08:47:26.145Z</time></trkpt><trkpt lat="43.9272971" lon="12.3620653"><ele>426.0</ele><time>2026-03-22T08:47:27.142Z</time></trkpt><trkpt lat="43.9273647" lon="12.3620931"><ele>426.0</ele><time>2026-03-22T08:47:28.135Z</time></trkpt><trkpt lat="43.9274403" lon="12.3621214"><ele>426.0</ele><time>2026-03-22T08:47:29.123Z</time></trkpt><trkpt lat="43.9275157" lon="12.362138"><ele>426.0</ele><time>2026-03-22T08:47:30.147Z</time></trkpt><trkpt lat="43.9275925" lon="12.3621454"><ele>426.0</ele><time>2026-03-22T08:47:31.124Z</time></trkpt><trkpt lat="43.9276692" lon="12.3621189"><ele>426.0</ele><time>2026-03-22T08:47:32.126Z</time></trkpt><trkpt lat="43.9277566" lon="12.362062"><ele>426.8</ele><time>2026-03-22T08:47:33.125Z</time></trkpt><trkpt lat="43.9278416" lon="12.3619892"><ele>427.6</ele><time>2026-03-22T08:47:34.12Z</time></trkpt><trkpt lat="43.9279229" lon="12.3619022"><ele>428.4</ele><time>2026-03-22T08:47:35.127Z</time></trkpt><trkpt lat="43.9279983" lon="12.3618015"><ele>429.2</ele><time>2026-03-22T08:47:36.143Z</time></trkpt><trkpt lat="43.9280662" lon="12.3616952"><ele>430.0</ele><time>2026-03-22T08:47:37.126Z</time></trkpt><trkpt lat="43.9281405" lon="12.3616125"><ele>430.0</ele><time>2026-03-22T08:47:38.136Z</time></trkpt><trkpt lat="43.928233" lon="12.361556"><ele>430.0</ele><time>2026-03-22T08:47:39.12Z</time></trkpt><trkpt lat="43.9283354" lon="12.361516"><ele>430.0</ele><time>2026-03-22T08:47:40.139Z</time></trkpt><trkpt lat="43.9284287" lon="12.3614641"><ele>430.0</ele><time>2026-03-22T08:47:41.111Z</time></trkpt><trkpt lat="43.9285176" lon="12.3613717"><ele>430.0</ele><time>2026-03-22T08:47:42.105Z</time></trkpt><trkpt lat="43.9285928" lon="12.3612324"><ele>427.0</ele><time>2026-03-22T08:47:43.109Z</time></trkpt><trkpt lat="43.9286631" lon="12.3610816"><ele>424.0</ele><time>2026-03-22T08:47:44.105Z</time></trkpt><trkpt lat="43.92873" lon="12.3609218"><ele>421.0</ele><time>2026-03-22T08:47:45.103Z</time></trkpt><trkpt lat="43.9288007" lon="12.3607698"><ele>418.0</ele><time>2026-03-22T08:47:46.106Z</time></trkpt><trkpt lat="43.9288656" lon="12.3606173"><ele>415.4</ele><time>2026-03-22T08:47:47.118Z</time></trkpt><trkpt lat="43.9289378" lon="12.3604904"><ele>412.79999999999995</ele><time>2026-03-22T08:47:48.114Z</time></trkpt><trkpt lat="43.9290167" lon="12.360378"><ele>410.2</ele><time>2026-03-22T08:47:49.125Z</time></trkpt><trkpt lat="43.9291028" lon="12.3603172"><ele>407.6</ele><time>2026-03-22T08:47:50.137Z</time></trkpt><trkpt lat="43.9291858" lon="12.3602809"><ele>405.0</ele><time>2026-03-22T08:47:51.111Z</time></trkpt><trkpt lat="43.9292881" lon="12.3602692"><ele>405.0</ele><time>2026-03-22T08:47:52.121Z</time></trkpt><trkpt lat="43.9293732" lon="12.3602505"><ele>405.0</ele><time>2026-03-22T08:47:53.084Z</time></trkpt><trkpt lat="43.9294751" lon="12.3602111"><ele>405.0</ele><time>2026-03-22T08:47:54.12Z</time></trkpt><trkpt lat="43.9295715" lon="12.3601049"><ele>405.0</ele><time>2026-03-22T08:47:55.117Z</time></trkpt><trkpt lat="43.9296596" lon="12.3599682"><ele>405.0</ele><time>2026-03-22T08:47:56.126Z</time></trkpt><trkpt lat="43.9297359" lon="12.3598227"><ele>401.0</ele><time>2026-03-22T08:47:57.13Z</time></trkpt><trkpt lat="43.9298031" lon="12.3596878"><ele>397.0</ele><time>2026-03-22T08:47:58.126Z</time></trkpt><trkpt lat="43.9298777" lon="12.3595476"><ele>393.0</ele><time>2026-03-22T08:47:59.111Z</time></trkpt><trkpt lat="43.9299619" lon="12.3594285"><ele>389.0</ele><time>2026-03-22T08:48:00.123Z</time></trkpt><trkpt lat="43.9300474" lon="12.3592976"><ele>388.0</ele><time>2026-03-22T08:48:01.11Z</time></trkpt><trkpt lat="43.9301264" lon="12.3591597"><ele>387.0</ele><time>2026-03-22T08:48:02.118Z</time></trkpt><trkpt lat="43.9301978" lon="12.3590253"><ele>386.0</ele><time>2026-03-22T08:48:03.127Z</time></trkpt><trkpt lat="43.9302651" lon="12.3589048"><ele>385.0</ele><time>2026-03-22T08:48:04.122Z</time></trkpt><trkpt lat="43.9303464" lon="12.3588156"><ele>385.0</ele><time>2026-03-22T08:48:05.121Z</time></trkpt><trkpt lat="43.9304297" lon="12.3587502"><ele>385.0</ele><time>2026-03-22T08:48:06.068Z</time></trkpt><trkpt lat="43.9305328" lon="12.3587214"><ele>385.0</ele><time>2026-03-22T08:48:07.123Z</time></trkpt><trkpt lat="43.9306266" lon="12.3586836"><ele>385.0</ele><time>2026-03-22T08:48:08.131Z</time></trkpt><trkpt lat="43.9307129" lon="12.3586154"><ele>385.0</ele><time>2026-03-22T08:48:09.115Z</time></trkpt><trkpt lat="43.930787" lon="12.3585201"><ele>385.00000000000006</ele><time>2026-03-22T08:48:10.144Z</time></trkpt><trkpt lat="43.9308527" lon="12.3584064"><ele>385.0</ele><time>2026-03-22T08:48:11.08Z</time></trkpt><trkpt lat="43.9309238" lon="12.3583021"><ele>385.0</ele><time>2026-03-22T08:48:12.143Z</time></trkpt><trkpt lat="43.9309829" lon="12.3582071"><ele>385.0</ele><time>2026-03-22T08:48:13.136Z</time></trkpt><trkpt lat="43.9310347" lon="12.3581332"><ele>385.00000000000006</ele><time>2026-03-22T08:48:14.138Z</time></trkpt><trkpt lat="43.9311086" lon="12.3581588"><ele>385.0</ele><time>2026-03-22T08:48:17.12Z</time></trkpt><trkpt lat="43.9310659" lon="12.3583144"><ele>379.00000000000006</ele><time>2026-03-22T08:48:19.124Z</time></trkpt><trkpt lat="43.9310373" lon="12.3584007"><ele>373.0</ele><time>2026-03-22T08:48:20.131Z</time></trkpt><trkpt lat="43.9310076" lon="12.3584911"><ele>367.0</ele><time>2026-03-22T08:48:21.075Z</time></trkpt><trkpt lat="43.9309833" lon="12.3585908"><ele>361.0</ele><time>2026-03-22T08:48:22.082Z</time></trkpt><trkpt lat="43.9309636" lon="12.3586984"><ele>355.0</ele><time>2026-03-22T08:48:23.081Z</time></trkpt><trkpt lat="43.9309605" lon="12.3588278"><ele>349.0</ele><time>2026-03-22T08:48:24.116Z</time></trkpt><trkpt lat="43.9309677" lon="12.3589681"><ele>346.79999999999995</ele><time>2026-03-22T08:48:25.081Z</time></trkpt><trkpt lat="43.9309859" lon="12.359106"><ele>344.59999999999997</ele><time>2026-03-22T08:48:26.126Z</time></trkpt><trkpt lat="43.9310016" lon="12.3592556"><ele>342.4</ele><time>2026-03-22T08:48:27.095Z</time></trkpt><trkpt lat="43.9310232" lon="12.3594026"><ele>340.2</ele><time>2026-03-22T08:48:28.13Z</time></trkpt><trkpt lat="43.9310502" lon="12.3595116"><ele>338.0</ele><time>2026-03-22T08:48:29.127Z</time></trkpt><trkpt lat="43.9310921" lon="12.3595907"><ele>338.0</ele><time>2026-03-22T08:48:30.116Z</time></trkpt><trkpt lat="43.9311908" lon="12.3595429"><ele>338.0</ele><time>2026-03-22T08:48:32.109Z</time></trkpt><trkpt lat="43.9311903" lon="12.3593498"><ele>338.0</ele><time>2026-03-22T08:48:34.12Z</time></trkpt><trkpt lat="43.931182" lon="12.3592425"><ele>338.0</ele><time>2026-03-22T08:48:35.122Z</time></trkpt><trkpt lat="43.9311757" lon="12.3591227"><ele>338.0</ele><time>2026-03-22T08:48:36.133Z</time></trkpt><trkpt lat="43.9311729" lon="12.3590033"><ele>340.2</ele><time>2026-03-22T08:48:37.128Z</time></trkpt><trkpt lat="43.9311784" lon="12.358866"><ele>342.4</ele><time>2026-03-22T08:48:38.139Z</time></trkpt><trkpt lat="43.9312063" lon="12.3587323"><ele>344.59999999999997</ele><time>2026-03-22T08:48:39.129Z</time></trkpt><trkpt lat="43.9312427" lon="12.358597"><ele>346.79999999999995</ele><time>2026-03-22T08:48:40.137Z</time></trkpt><trkpt lat="43.9312791" lon="12.3584686"><ele>349.0</ele><time>2026-03-22T08:48:41.115Z</time></trkpt><trkpt lat="43.9313389" lon="12.3583461"><ele>349.0</ele><time>2026-03-22T08:48:42.114Z</time></trkpt><trkpt lat="43.9314055" lon="12.3582435"><ele>349.0</ele><time>2026-03-22T08:48:43.131Z</time></trkpt><trkpt lat="43.9314783" lon="12.3581687"><ele>349.0</ele><time>2026-03-22T08:48:44.095Z</time></trkpt><trkpt lat="43.9315429" lon="12.3581332"><ele>349.0</ele><time>2026-03-22T08:48:45.1Z</time></trkpt><trkpt lat="43.9316074" lon="12.3581486"><ele>349.0</ele><time>2026-03-22T08:48:48.13Z</time></trkpt><trkpt lat="43.9316727" lon="12.358136"><ele>349.0</ele><time>2026-03-22T08:48:52.114Z</time></trkpt><trkpt lat="43.9317547" lon="12.3581255"><ele>349.0</ele><time>2026-03-22T08:48:54.08Z</time></trkpt><trkpt lat="43.9316887" lon="12.3582305"><ele>349.0</ele><time>2026-03-22T08:48:58.144Z</time></trkpt><trkpt lat="43.9316186" lon="12.3582742"><ele>349.0</ele><time>2026-03-22T08:48:59.123Z</time></trkpt><trkpt lat="43.9315482" lon="12.3583249"><ele>349.0</ele><time>2026-03-22T08:49:00.121Z</time></trkpt><trkpt lat="43.9315039" lon="12.3584089"><ele>349.0</ele><time>2026-03-22T08:49:01.108Z</time></trkpt><trkpt lat="43.9314607" lon="12.3585093"><ele>349.0</ele><time>2026-03-22T08:49:02.12Z</time></trkpt><trkpt lat="43.9314242" lon="12.3586255"><ele>349.0</ele><time>2026-03-22T08:49:03.141Z</time></trkpt><trkpt lat="43.9314008" lon="12.3587482"><ele>349.0</ele><time>2026-03-22T08:49:04.108Z</time></trkpt><trkpt lat="43.9313876" lon="12.3589033"><ele>349.0</ele><time>2026-03-22T08:49:05.116Z</time></trkpt><trkpt lat="43.9313889" lon="12.3590665"><ele>349.0</ele><time>2026-03-22T08:49:06.123Z</time></trkpt><trkpt lat="43.9313877" lon="12.3592318"><ele>349.0</ele><time>2026-03-22T08:49:07.137Z</time></trkpt><trkpt lat="43.931376" lon="12.3593725"><ele>347.16666666666663</ele><time>2026-03-22T08:49:08.13Z</time></trkpt><trkpt lat="43.9313661" lon="12.3595046"><ele>345.3333333333333</ele><time>2026-03-22T08:49:09.128Z</time></trkpt><trkpt lat="43.9313679" lon="12.3596113"><ele>343.5</ele><time>2026-03-22T08:49:10.119Z</time></trkpt><trkpt lat="43.9314128" lon="12.3597057"><ele>341.6666666666667</ele><time>2026-03-22T08:49:11.129Z</time></trkpt><trkpt lat="43.9314904" lon="12.35978"><ele>339.83333333333337</ele><time>2026-03-22T08:49:12.089Z</time></trkpt><trkpt lat="43.9315697" lon="12.3598243"><ele>338.0</ele><time>2026-03-22T08:49:13.124Z</time></trkpt><trkpt lat="43.9316692" lon="12.3598717"><ele>333.75</ele><time>2026-03-22T08:49:14.135Z</time></trkpt><trkpt lat="43.9317799" lon="12.3599087"><ele>329.5</ele><time>2026-03-22T08:49:15.11Z</time></trkpt><trkpt lat="43.9318826" lon="12.3599463"><ele>325.25</ele><time>2026-03-22T08:49:16.13Z</time></trkpt><trkpt lat="43.931999" lon="12.359985"><ele>321.0</ele><time>2026-03-22T08:49:17.134Z</time></trkpt><trkpt lat="43.9321299" lon="12.3600257"><ele>321.0</ele><time>2026-03-22T08:49:18.135Z</time></trkpt><trkpt lat="43.9322426" lon="12.3600606"><ele>321.0</ele><time>2026-03-22T08:49:19.123Z</time></trkpt><trkpt lat="43.9323574" lon="12.3601104"><ele>321.0</ele><time>2026-03-22T08:49:20.125Z</time></trkpt><trkpt lat="43.9324697" lon="12.3601684"><ele>321.0</ele><time>2026-03-22T08:49:21.128Z</time></trkpt><trkpt lat="43.9325809" lon="12.3602351"><ele>317.5</ele><time>2026-03-22T08:49:22.131Z</time></trkpt><trkpt lat="43.9326943" lon="12.3603024"><ele>314.0</ele><time>2026-03-22T08:49:23.141Z</time></trkpt><trkpt lat="43.9328057" lon="12.3603654"><ele>310.5</ele><time>2026-03-22T08:49:24.115Z</time></trkpt><trkpt lat="43.9329209" lon="12.3604307"><ele>307.0</ele><time>2026-03-22T08:49:25.128Z</time></trkpt><trkpt lat="43.9330357" lon="12.3604916"><ele>306.0</ele><time>2026-03-22T08:49:26.14Z</time></trkpt><trkpt lat="43.9331542" lon="12.3605516"><ele>305.0</ele><time>2026-03-22T08:49:27.119Z</time></trkpt><trkpt lat="43.9332718" lon="12.3606252"><ele>304.0</ele><time>2026-03-22T08:49:28.121Z</time></trkpt><trkpt lat="43.9333899" lon="12.3606972"><ele>303.0</ele><time>2026-03-22T08:49:29.126Z</time></trkpt><trkpt lat="43.9335141" lon="12.3607742"><ele>303.0</ele><time>2026-03-22T08:49:30.121Z</time></trkpt><trkpt lat="43.9336366" lon="12.3608512"><ele>303.0</ele><time>2026-03-22T08:49:31.131Z</time></trkpt><trkpt lat="43.9337645" lon="12.3609264"><ele>303.0</ele><time>2026-03-22T08:49:32.12Z</time></trkpt><trkpt lat="43.9338857" lon="12.3609964"><ele>303.0</ele><time>2026-03-22T08:49:33.13Z</time></trkpt><trkpt lat="43.9340102" lon="12.3610602"><ele>303.0</ele><time>2026-03-22T08:49:34.133Z</time></trkpt><trkpt lat="43.9341338" lon="12.3611026"><ele>303.0</ele><time>2026-03-22T08:49:35.109Z</time></trkpt><trkpt lat="43.9342674" lon="12.3611201"><ele>303.0</ele><time>2026-03-22T08:49:36.134Z</time></trkpt><trkpt lat="43.9343941" lon="12.3611312"><ele>303.0</ele><time>2026-03-22T08:49:37.149Z</time></trkpt><trkpt lat="43.9345126" lon="12.361131"><ele>303.8</ele><time>2026-03-22T08:49:38.102Z</time></trkpt><trkpt lat="43.9346291" lon="12.3611369"><ele>304.6</ele><time>2026-03-22T08:49:39.137Z</time></trkpt><trkpt lat="43.934743" lon="12.3611648"><ele>305.4</ele><time>2026-03-22T08:49:40.148Z</time></trkpt><trkpt lat="43.9348336" lon="12.3612149"><ele>306.2</ele><time>2026-03-22T08:49:41.145Z</time></trkpt><trkpt lat="43.934902" lon="12.3612874"><ele>307.0</ele><time>2026-03-22T08:49:42.137Z</time></trkpt><trkpt lat="43.9349582" lon="12.3613726"><ele>307.0</ele><time>2026-03-22T08:49:43.142Z</time></trkpt><trkpt lat="43.9350068" lon="12.3614383"><ele>307.0</ele><time>2026-03-22T08:49:44.155Z</time></trkpt><trkpt lat="43.9351052" lon="12.3615198"><ele>307.0</ele><time>2026-03-22T08:49:46.131Z</time></trkpt><trkpt lat="43.9352201" lon="12.3615162"><ele>307.0</ele><time>2026-03-22T08:49:48.149Z</time></trkpt><trkpt lat="43.9352936" lon="12.3615005"><ele>307.0</ele><time>2026-03-22T08:49:49.127Z</time></trkpt><trkpt lat="43.9353696" lon="12.3615226"><ele>307.0</ele><time>2026-03-22T08:49:50.129Z</time></trkpt><trkpt lat="43.9354485" lon="12.361587"><ele>304.8</ele><time>2026-03-22T08:49:51.142Z</time></trkpt><trkpt lat="43.9355059" lon="12.361678"><ele>302.6</ele><time>2026-03-22T08:49:52.11Z</time></trkpt><trkpt lat="43.9355446" lon="12.3617983"><ele>300.40000000000003</ele><time>2026-03-22T08:49:53.145Z</time></trkpt><trkpt lat="43.9355889" lon="12.3619165"><ele>298.2</ele><time>2026-03-22T08:49:54.14Z</time></trkpt><trkpt lat="43.9356501" lon="12.3620133"><ele>296.0</ele><time>2026-03-22T08:49:55.125Z</time></trkpt><trkpt lat="43.9357299" lon="12.3620693"><ele>296.0</ele><time>2026-03-22T08:49:56.141Z</time></trkpt><trkpt lat="43.935821" lon="12.3621024"><ele>296.0</ele><time>2026-03-22T08:49:57.127Z</time></trkpt><trkpt lat="43.9359195" lon="12.3621466"><ele>296.0</ele><time>2026-03-22T08:49:58.142Z</time></trkpt><trkpt lat="43.9359969" lon="12.3622302"><ele>296.0</ele><time>2026-03-22T08:49:59.127Z</time></trkpt><trkpt lat="43.9360532" lon="12.3623543"><ele>296.0</ele><time>2026-03-22T08:50:00.137Z</time></trkpt><trkpt lat="43.9360914" lon="12.3624547"><ele>296.0</ele><time>2026-03-22T08:50:01.12Z</time></trkpt><trkpt lat="43.9361336" lon="12.3625225"><ele>296.0</ele><time>2026-03-22T08:50:02.143Z</time></trkpt><trkpt lat="43.9361805" lon="12.3625907"><ele>296.0</ele><time>2026-03-22T08:50:03.146Z</time></trkpt><trkpt lat="43.9362345" lon="12.362652"><ele>296.0</ele><time>2026-03-22T08:50:05.142Z</time></trkpt><trkpt lat="43.9362986" lon="12.3626697"><ele>296.0</ele><time>2026-03-22T08:50:07.124Z</time></trkpt><trkpt lat="43.9363628" lon="12.3626761"><ele>296.0</ele><time>2026-03-22T08:50:09.14Z</time></trkpt><trkpt lat="43.9364397" lon="12.362663"><ele>296.0</ele><time>2026-03-22T08:50:11.149Z</time></trkpt><trkpt lat="43.9365084" lon="12.3626635"><ele>296.0</ele><time>2026-03-22T08:50:13.126Z</time></trkpt><trkpt lat="43.9365717" lon="12.3626686"><ele>296.0</ele><time>2026-03-22T08:50:15.129Z</time></trkpt><trkpt lat="43.9366602" lon="12.3626748"><ele>296.0</ele><time>2026-03-22T08:50:18.145Z</time></trkpt><trkpt lat="43.9367474" lon="12.3626915"><ele>296.0</ele><time>2026-03-22T08:50:21.129Z</time></trkpt><trkpt lat="43.9368337" lon="12.3627075"><ele>296.0</ele><time>2026-03-22T08:50:24.133Z</time></trkpt><trkpt lat="43.9369077" lon="12.3627125"><ele>296.0</ele><time>2026-03-22T08:50:27.104Z</time></trkpt><trkpt lat="43.936986" lon="12.3627094"><ele>296.33333333333337</ele><time>2026-03-22T08:50:31.126Z</time></trkpt><trkpt lat="43.9370583" lon="12.3627221"><ele>296.6666666666667</ele><time>2026-03-22T08:50:35.144Z</time></trkpt><trkpt lat="43.9371352" lon="12.3627373"><ele>297.0</ele><time>2026-03-22T08:50:39.098Z</time></trkpt><trkpt lat="43.9371977" lon="12.3627706"><ele>297.3333333333333</ele><time>2026-03-22T08:50:42.127Z</time></trkpt><trkpt lat="43.9372709" lon="12.3628255"><ele>297.66666666666663</ele><time>2026-03-22T08:50:45.108Z</time></trkpt><trkpt lat="43.937346" lon="12.3628898"><ele>298.0</ele><time>2026-03-22T08:50:48.14Z</time></trkpt><trkpt lat="43.9373994" lon="12.3629487"><ele>298.0</ele><time>2026-03-22T08:50:50.143Z</time></trkpt><trkpt lat="43.9374534" lon="12.3630258"><ele>298.0</ele><time>2026-03-22T08:50:52.141Z</time></trkpt><trkpt lat="43.9375167" lon="12.3631285"><ele>298.0</ele><time>2026-03-22T08:50:54.141Z</time></trkpt><trkpt lat="43.9375845" lon="12.3632392"><ele>298.0</ele><time>2026-03-22T08:50:56.154Z</time></trkpt><trkpt lat="43.9376626" lon="12.3633523"><ele>298.0</ele><time>2026-03-22T08:50:58.13Z</time></trkpt><trkpt lat="43.9377353" lon="12.3634655"><ele>297.6</ele><time>2026-03-22T08:51:00.136Z</time></trkpt><trkpt lat="43.9377831" lon="12.3635272"><ele>297.20000000000005</ele><time>2026-03-22T08:51:01.122Z</time></trkpt><trkpt lat="43.9378309" lon="12.3635849"><ele>296.8</ele><time>2026-03-22T08:51:02.166Z</time></trkpt><trkpt lat="43.9379232" lon="12.3636965"><ele>296.40000000000003</ele><time>2026-03-22T08:51:04.092Z</time></trkpt><trkpt lat="43.938001" lon="12.3638016"><ele>296.0</ele><time>2026-03-22T08:51:06.099Z</time></trkpt><trkpt lat="43.9380967" lon="12.3638877"><ele>296.6666666666667</ele><time>2026-03-22T08:51:08.139Z</time></trkpt><trkpt lat="43.9382064" lon="12.3639483"><ele>297.33333333333337</ele><time>2026-03-22T08:51:10.128Z</time></trkpt><trkpt lat="43.9382746" lon="12.363969"><ele>298.0</ele><time>2026-03-22T08:51:11.125Z</time></trkpt><trkpt lat="43.9383415" lon="12.3639855"><ele>298.6666666666667</ele><time>2026-03-22T08:51:12.109Z</time></trkpt><trkpt lat="43.9384559" lon="12.3639649"><ele>299.3333333333333</ele><time>2026-03-22T08:51:14.122Z</time></trkpt><trkpt lat="43.9385193" lon="12.363921"><ele>300.0</ele><time>2026-03-22T08:51:15.13Z</time></trkpt><trkpt lat="43.93859" lon="12.3638868"><ele>298.3333333333333</ele><time>2026-03-22T08:51:16.102Z</time></trkpt><trkpt lat="43.9386623" lon="12.3638834"><ele>296.6666666666667</ele><time>2026-03-22T08:51:17.137Z</time></trkpt><trkpt lat="43.9387265" lon="12.3639182"><ele>295.0</ele><time>2026-03-22T08:51:18.127Z</time></trkpt><trkpt lat="43.9387915" lon="12.3639662"><ele>293.33333333333337</ele><time>2026-03-22T08:51:19.127Z</time></trkpt><trkpt lat="43.9388615" lon="12.3640277"><ele>291.6666666666667</ele><time>2026-03-22T08:51:20.144Z</time></trkpt><trkpt lat="43.9389384" lon="12.3640765"><ele>290.0</ele><time>2026-03-22T08:51:21.137Z</time></trkpt><trkpt lat="43.9390158" lon="12.364146"><ele>290.0</ele><time>2026-03-22T08:51:22.12Z</time></trkpt><trkpt lat="43.939094" lon="12.3642159"><ele>290.0</ele><time>2026-03-22T08:51:23.111Z</time></trkpt><trkpt lat="43.9391651" lon="12.3643035"><ele>290.0</ele><time>2026-03-22T08:51:24.135Z</time></trkpt><trkpt lat="43.9392365" lon="12.3643859"><ele>290.0</ele><time>2026-03-22T08:51:25.119Z</time></trkpt><trkpt lat="43.9393049" lon="12.3644654"><ele>290.0</ele><time>2026-03-22T08:51:26.126Z</time></trkpt><trkpt lat="43.9393815" lon="12.3645445"><ele>287.2</ele><time>2026-03-22T08:51:27.144Z</time></trkpt><trkpt lat="43.9394678" lon="12.3646113"><ele>284.4</ele><time>2026-03-22T08:51:28.135Z</time></trkpt><trkpt lat="43.939563" lon="12.3646893"><ele>281.6</ele><time>2026-03-22T08:51:29.122Z</time></trkpt><trkpt lat="43.9396298" lon="12.3647945"><ele>278.8</ele><time>2026-03-22T08:51:30.135Z</time></trkpt><trkpt lat="43.939682" lon="12.3649137"><ele>276.0</ele><time>2026-03-22T08:51:31.124Z</time></trkpt><trkpt lat="43.9397261" lon="12.3650562"><ele>276.0</ele><time>2026-03-22T08:51:32.129Z</time></trkpt><trkpt lat="43.9397591" lon="12.3652003"><ele>276.0</ele><time>2026-03-22T08:51:33.119Z</time></trkpt><trkpt lat="43.9397911" lon="12.3653359"><ele>276.0</ele><time>2026-03-22T08:51:34.122Z</time></trkpt><trkpt lat="43.9398229" lon="12.3654607"><ele>276.0</ele><time>2026-03-22T08:51:35.125Z</time></trkpt><trkpt lat="43.939837" lon="12.3655928"><ele>276.0</ele><time>2026-03-22T08:51:36.133Z</time></trkpt><trkpt lat="43.9398434" lon="12.3657048"><ele>275.5</ele><time>2026-03-22T08:51:37.125Z</time></trkpt><trkpt lat="43.9398637" lon="12.3658058"><ele>275.0</ele><time>2026-03-22T08:51:38.129Z</time></trkpt><trkpt lat="43.9399069" lon="12.3658927"><ele>274.5</ele><time>2026-03-22T08:51:39.142Z</time></trkpt><trkpt lat="43.9399621" lon="12.3659696"><ele>274.0</ele><time>2026-03-22T08:51:40.141Z</time></trkpt><trkpt lat="43.9400267" lon="12.3660355"><ele>273.5</ele><time>2026-03-22T08:51:41.153Z</time></trkpt><trkpt lat="43.9400915" lon="12.3660896"><ele>273.0</ele><time>2026-03-22T08:51:42.139Z</time></trkpt><trkpt lat="43.9401661" lon="12.3661305"><ele>272.14285714285717</ele><time>2026-03-22T08:51:43.142Z</time></trkpt><trkpt lat="43.9402401" lon="12.3661574"><ele>271.2857142857143</ele><time>2026-03-22T08:51:44.138Z</time></trkpt><trkpt lat="43.940318" lon="12.3661539"><ele>270.42857142857144</ele><time>2026-03-22T08:51:45.139Z</time></trkpt><trkpt lat="43.94039" lon="12.3661707"><ele>269.57142857142856</ele><time>2026-03-22T08:51:46.149Z</time></trkpt><trkpt lat="43.9404609" lon="12.3661769"><ele>268.7142857142857</ele><time>2026-03-22T08:51:47.139Z</time></trkpt><trkpt lat="43.9405297" lon="12.3661946"><ele>267.8571428571429</ele><time>2026-03-22T08:51:48.151Z</time></trkpt><trkpt lat="43.940595" lon="12.3662233"><ele>267.0</ele><time>2026-03-22T08:51:49.145Z</time></trkpt><trkpt lat="43.9407071" lon="12.366276"><ele>267.0</ele><time>2026-03-22T08:51:51.118Z</time></trkpt><trkpt lat="43.940816" lon="12.3662833"><ele>267.0</ele><time>2026-03-22T08:51:53.167Z</time></trkpt><trkpt lat="43.9409253" lon="12.366268"><ele>267.0</ele><time>2026-03-22T08:51:55.155Z</time></trkpt><trkpt lat="43.9410362" lon="12.3662353"><ele>267.0</ele><time>2026-03-22T08:51:57.14Z</time></trkpt><trkpt lat="43.9410999" lon="12.3662294"><ele>267.0</ele><time>2026-03-22T08:51:58.162Z</time></trkpt><trkpt lat="43.941198" lon="12.3662091"><ele>263.8</ele><time>2026-03-22T08:52:00.132Z</time></trkpt><trkpt lat="43.9412882" lon="12.366155"><ele>260.6</ele><time>2026-03-22T08:52:02.144Z</time></trkpt><trkpt lat="43.9413686" lon="12.3660999"><ele>257.40000000000003</ele><time>2026-03-22T08:52:04.142Z</time></trkpt><trkpt lat="43.9414477" lon="12.3660497"><ele>254.20000000000002</ele><time>2026-03-22T08:52:06.124Z</time></trkpt><trkpt lat="43.9415578" lon="12.366001"><ele>251.0</ele><time>2026-03-22T08:52:08.15Z</time></trkpt><trkpt lat="43.9416241" lon="12.3659918"><ele>251.00000000000003</ele><time>2026-03-22T08:52:09.149Z</time></trkpt><trkpt lat="43.9416886" lon="12.3659994"><ele>251.0</ele><time>2026-03-22T08:52:10.161Z</time></trkpt><trkpt lat="43.9417662" lon="12.3660117"><ele>251.0</ele><time>2026-03-22T08:52:12.135Z</time></trkpt><trkpt lat="43.9418278" lon="12.365953"><ele>251.0</ele><time>2026-03-22T08:52:14.141Z</time></trkpt><trkpt lat="43.941904" lon="12.365872"><ele>251.00000000000003</ele><time>2026-03-22T08:52:16.107Z</time></trkpt><trkpt lat="43.9420229" lon="12.3658461"><ele>251.0</ele><time>2026-03-22T08:52:18.163Z</time></trkpt><trkpt lat="43.9420869" lon="12.3658293"><ele>249.4</ele><time>2026-03-22T08:52:19.158Z</time></trkpt><trkpt lat="43.9422143" lon="12.3658135"><ele>247.8</ele><time>2026-03-22T08:52:21.151Z</time></trkpt><trkpt lat="43.9423416" lon="12.3657687"><ele>246.20000000000002</ele><time>2026-03-22T08:52:23.119Z</time></trkpt><trkpt lat="43.9424034" lon="12.3657473"><ele>244.60000000000002</ele><time>2026-03-22T08:52:24.148Z</time></trkpt><trkpt lat="43.9424703" lon="12.365728"><ele>243.0</ele><time>2026-03-22T08:52:25.14Z</time></trkpt><trkpt lat="43.94254" lon="12.3656882"><ele>241.0</ele><time>2026-03-22T08:52:26.151Z</time></trkpt><trkpt lat="43.9426029" lon="12.3656508"><ele>239.0</ele><time>2026-03-22T08:52:27.156Z</time></trkpt><trkpt lat="43.9426607" lon="12.36561"><ele>237.0</ele><time>2026-03-22T08:52:28.136Z</time></trkpt><trkpt lat="43.9427341" lon="12.3655898"><ele>235.0</ele><time>2026-03-22T08:52:29.154Z</time></trkpt><trkpt lat="43.9428055" lon="12.3655957"><ele>233.0</ele><time>2026-03-22T08:52:30.093Z</time></trkpt><trkpt lat="43.9429136" lon="12.3655726"><ele>231.0</ele><time>2026-03-22T08:52:32.107Z</time></trkpt><trkpt lat="43.9429722" lon="12.365522"><ele>230.5</ele><time>2026-03-22T08:52:33.125Z</time></trkpt><trkpt lat="43.943034" lon="12.3654797"><ele>230.0</ele><time>2026-03-22T08:52:34.114Z</time></trkpt><trkpt lat="43.9431083" lon="12.3654397"><ele>229.5</ele><time>2026-03-22T08:52:35.141Z</time></trkpt><trkpt lat="43.9431822" lon="12.3654085"><ele>229.0</ele><time>2026-03-22T08:52:36.112Z</time></trkpt><trkpt lat="43.9432603" lon="12.3653967"><ele>228.5</ele><time>2026-03-22T08:52:37.123Z</time></trkpt><trkpt lat="43.9433422" lon="12.3653805"><ele>228.0</ele><time>2026-03-22T08:52:38.139Z</time></trkpt><trkpt lat="43.9434239" lon="12.3653514"><ele>225.2</ele><time>2026-03-22T08:52:39.138Z</time></trkpt><trkpt lat="43.9435066" lon="12.3652998"><ele>222.4</ele><time>2026-03-22T08:52:40.133Z</time></trkpt><trkpt lat="43.9435922" lon="12.3652482"><ele>219.59999999999997</ele><time>2026-03-22T08:52:41.149Z</time></trkpt><trkpt lat="43.9436777" lon="12.3651935"><ele>216.79999999999998</ele><time>2026-03-22T08:52:42.113Z</time></trkpt><trkpt lat="43.9437722" lon="12.3651384"><ele>214.0</ele><time>2026-03-22T08:52:43.124Z</time></trkpt><trkpt lat="43.9438704" lon="12.3651034"><ele>213.99999999999997</ele><time>2026-03-22T08:52:44.13Z</time></trkpt><trkpt lat="43.9439765" lon="12.3650713"><ele>214.0</ele><time>2026-03-22T08:52:45.142Z</time></trkpt><trkpt lat="43.944068" lon="12.3650397"><ele>214.0</ele><time>2026-03-22T08:52:46.136Z</time></trkpt><trkpt lat="43.9441476" lon="12.3649991"><ele>214.0</ele><time>2026-03-22T08:52:47.129Z</time></trkpt><trkpt lat="43.9442143" lon="12.3649775"><ele>213.99999999999997</ele><time>2026-03-22T08:52:48.118Z</time></trkpt><trkpt lat="43.9442986" lon="12.3650015"><ele>214.0</ele><time>2026-03-22T08:52:49.13Z</time></trkpt><trkpt lat="43.9443802" lon="12.36504"><ele>210.79999999999998</ele><time>2026-03-22T08:52:50.115Z</time></trkpt><trkpt lat="43.9444643" lon="12.365085"><ele>207.59999999999997</ele><time>2026-03-22T08:52:51.132Z</time></trkpt><trkpt lat="43.9445535" lon="12.3651379"><ele>204.4</ele><time>2026-03-22T08:52:52.138Z</time></trkpt><trkpt lat="43.9446437" lon="12.3651659"><ele>201.2</ele><time>2026-03-22T08:52:53.138Z</time></trkpt><trkpt lat="43.9447406" lon="12.3651687"><ele>198.0</ele><time>2026-03-22T08:52:54.139Z</time></trkpt><trkpt lat="43.9448448" lon="12.3651642"><ele>198.0</ele><time>2026-03-22T08:52:55.145Z</time></trkpt><trkpt lat="43.9449549" lon="12.3651467"><ele>198.0</ele><time>2026-03-22T08:52:56.072Z</time></trkpt><trkpt lat="43.9450713" lon="12.3651207"><ele>198.0</ele><time>2026-03-22T08:52:57.13Z</time></trkpt><trkpt lat="43.9451853" lon="12.365095"><ele>198.0</ele><time>2026-03-22T08:52:58.137Z</time></trkpt><trkpt lat="43.9453126" lon="12.3650675"><ele>195.5</ele><time>2026-03-22T08:52:59.086Z</time></trkpt><trkpt lat="43.9454333" lon="12.3650426"><ele>193.0</ele><time>2026-03-22T08:53:00.078Z</time></trkpt><trkpt lat="43.9455605" lon="12.365025"><ele>190.5</ele><time>2026-03-22T08:53:01.139Z</time></trkpt><trkpt lat="43.9456921" lon="12.3650156"><ele>188.0</ele><time>2026-03-22T08:53:02.132Z</time></trkpt><trkpt lat="43.9458113" lon="12.3650063"><ele>186.2</ele><time>2026-03-22T08:53:03.138Z</time></trkpt><trkpt lat="43.9459214" lon="12.3649983"><ele>184.4</ele><time>2026-03-22T08:53:04.126Z</time></trkpt><trkpt lat="43.946037" lon="12.3649835"><ele>182.6</ele><time>2026-03-22T08:53:05.13Z</time></trkpt><trkpt lat="43.9461423" lon="12.3649649"><ele>180.79999999999998</ele><time>2026-03-22T08:53:06.113Z</time></trkpt><trkpt lat="43.9462502" lon="12.3649364"><ele>179.0</ele><time>2026-03-22T08:53:07.125Z</time></trkpt><trkpt lat="43.9463458" lon="12.3649059"><ele>179.0</ele><time>2026-03-22T08:53:08.13Z</time></trkpt><trkpt lat="43.9464324" lon="12.3648779"><ele>179.0</ele><time>2026-03-22T08:53:09.124Z</time></trkpt><trkpt lat="43.9465235" lon="12.3648566"><ele>179.0</ele><time>2026-03-22T08:53:10.139Z</time></trkpt><trkpt lat="43.9466096" lon="12.3648295"><ele>179.0</ele><time>2026-03-22T08:53:11.084Z</time></trkpt><trkpt lat="43.9466915" lon="12.3647677"><ele>179.0</ele><time>2026-03-22T08:53:12.113Z</time></trkpt><trkpt lat="43.9467679" lon="12.3647077"><ele>178.5</ele><time>2026-03-22T08:53:13.138Z</time></trkpt><trkpt lat="43.9468386" lon="12.3646525"><ele>178.0</ele><time>2026-03-22T08:53:14.12Z</time></trkpt><trkpt lat="43.9469142" lon="12.364595"><ele>177.5</ele><time>2026-03-22T08:53:16.137Z</time></trkpt><trkpt lat="43.9469898" lon="12.3646122"><ele>177.0</ele><time>2026-03-22T08:53:19.137Z</time></trkpt><trkpt lat="43.9470576" lon="12.3646649"><ele>176.5</ele><time>2026-03-22T08:53:21.127Z</time></trkpt><trkpt lat="43.9471706" lon="12.3647258"><ele>176.0</ele><time>2026-03-22T08:53:23.138Z</time></trkpt><trkpt lat="43.9472708" lon="12.3647932"><ele>176.0</ele><time>2026-03-22T08:53:25.147Z</time></trkpt><trkpt lat="43.9473263" lon="12.3648375"><ele>176.0</ele><time>2026-03-22T08:53:26.149Z</time></trkpt><trkpt lat="43.9474355" lon="12.3649169"><ele>176.0</ele><time>2026-03-22T08:53:28.146Z</time></trkpt><trkpt lat="43.9474932" lon="12.3649531"><ele>176.0</ele><time>2026-03-22T08:53:29.126Z</time></trkpt><trkpt lat="43.9475614" lon="12.3650042"><ele>176.0</ele><time>2026-03-22T08:53:30.141Z</time></trkpt><trkpt lat="43.9476195" lon="12.3650568"><ele>176.0</ele><time>2026-03-22T08:53:31.138Z</time></trkpt><trkpt lat="43.9477212" lon="12.3651381"><ele>174.8</ele><time>2026-03-22T08:53:33.113Z</time></trkpt><trkpt lat="43.9478218" lon="12.3652103"><ele>173.60000000000002</ele><time>2026-03-22T08:53:35.141Z</time></trkpt><trkpt lat="43.9478914" lon="12.3652515"><ele>172.4</ele><time>2026-03-22T08:53:37.103Z</time></trkpt><trkpt lat="43.9478947" lon="12.3653459"><ele>171.2</ele><time>2026-03-22T08:53:40.124Z</time></trkpt><trkpt lat="43.9479505" lon="12.3654772"><ele>170.0</ele><time>2026-03-22T08:53:43.114Z</time></trkpt><trkpt lat="43.9480357" lon="12.3655886"><ele>170.0</ele><time>2026-03-22T08:53:45.144Z</time></trkpt><trkpt lat="43.9481177" lon="12.3657015"><ele>170.0</ele><time>2026-03-22T08:53:47.148Z</time></trkpt><trkpt lat="43.9481871" lon="12.3658454"><ele>170.0</ele><time>2026-03-22T08:53:49.125Z</time></trkpt><trkpt lat="43.9482327" lon="12.3659213"><ele>170.0</ele><time>2026-03-22T08:53:50.147Z</time></trkpt><trkpt lat="43.9482714" lon="12.3660041"><ele>170.0</ele><time>2026-03-22T08:53:51.089Z</time></trkpt><trkpt lat="43.9483076" lon="12.3660757"><ele>170.0</ele><time>2026-03-22T08:53:52.136Z</time></trkpt><trkpt lat="43.9483402" lon="12.3661532"><ele>170.0</ele><time>2026-03-22T08:53:53.123Z</time></trkpt><trkpt lat="43.9483756" lon="12.366232"><ele>170.0</ele><time>2026-03-22T08:53:54.129Z</time></trkpt><trkpt lat="43.948412" lon="12.3663097"><ele>170.0</ele><time>2026-03-22T08:53:55.144Z</time></trkpt><trkpt lat="43.9484524" lon="12.3663942"><ele>170.0</ele><time>2026-03-22T08:53:56.149Z</time></trkpt><trkpt lat="43.9484878" lon="12.3664811"><ele>170.0</ele><time>2026-03-22T08:53:57.158Z</time></trkpt><trkpt lat="43.9485261" lon="12.3665824"><ele>170.0</ele><time>2026-03-22T08:53:58.137Z</time></trkpt><trkpt lat="43.9485635" lon="12.3666621"><ele>170.0</ele><time>2026-03-22T08:53:59.122Z</time></trkpt><trkpt lat="43.9486011" lon="12.3667508"><ele>169.42857142857144</ele><time>2026-03-22T08:54:00.143Z</time></trkpt><trkpt lat="43.9486441" lon="12.3668307"><ele>168.85714285714283</ele><time>2026-03-22T08:54:01.139Z</time></trkpt><trkpt lat="43.9486824" lon="12.366905"><ele>168.28571428571428</ele><time>2026-03-22T08:54:02.136Z</time></trkpt><trkpt lat="43.9487206" lon="12.3669855"><ele>167.71428571428572</ele><time>2026-03-22T08:54:03.138Z</time></trkpt><trkpt lat="43.9487531" lon="12.3670691"><ele>167.14285714285717</ele><time>2026-03-22T08:54:04.124Z</time></trkpt><trkpt lat="43.9487837" lon="12.3671539"><ele>166.57142857142856</ele><time>2026-03-22T08:54:05.143Z</time></trkpt><trkpt lat="43.9488167" lon="12.3672357"><ele>166.0</ele><time>2026-03-22T08:54:06.135Z</time></trkpt><trkpt lat="43.9488507" lon="12.3673106"><ele>165.42857142857142</ele><time>2026-03-22T08:54:07.129Z</time></trkpt><trkpt lat="43.9488882" lon="12.3673991"><ele>164.85714285714286</ele><time>2026-03-22T08:54:08.144Z</time></trkpt><trkpt lat="43.948924" lon="12.3674843"><ele>164.28571428571428</ele><time>2026-03-22T08:54:09.131Z</time></trkpt><trkpt lat="43.9489624" lon="12.3675551"><ele>163.71428571428572</ele><time>2026-03-22T08:54:10.111Z</time></trkpt><trkpt lat="43.9490002" lon="12.3676352"><ele>163.14285714285714</ele><time>2026-03-22T08:54:11.132Z</time></trkpt><trkpt lat="43.9490403" lon="12.3677116"><ele>162.57142857142858</ele><time>2026-03-22T08:54:12.115Z</time></trkpt><trkpt lat="43.9490794" lon="12.3677884"><ele>162.0</ele><time>2026-03-22T08:54:13.096Z</time></trkpt><trkpt lat="43.9491449" lon="12.3679393"><ele>162.0</ele><time>2026-03-22T08:54:15.128Z</time></trkpt><trkpt lat="43.9491832" lon="12.3680171"><ele>162.0</ele><time>2026-03-22T08:54:16.132Z</time></trkpt><trkpt lat="43.9492431" lon="12.3681634"><ele>162.0</ele><time>2026-03-22T08:54:18.083Z</time></trkpt><trkpt lat="43.94928" lon="12.3682434"><ele>162.0</ele><time>2026-03-22T08:54:19.13Z</time></trkpt><trkpt lat="43.9493148" lon="12.3683196"><ele>162.0</ele><time>2026-03-22T08:54:20.125Z</time></trkpt><trkpt lat="43.9493494" lon="12.3683963"><ele>162.0</ele><time>2026-03-22T08:54:21.127Z</time></trkpt><trkpt lat="43.949429" lon="12.3685215"><ele>164.0</ele><time>2026-03-22T08:54:23.085Z</time></trkpt><trkpt lat="43.949522" lon="12.3686293"><ele>166.0</ele><time>2026-03-22T08:54:25.134Z</time></trkpt><trkpt lat="43.9496199" lon="12.3687117"><ele>168.0</ele><time>2026-03-22T08:54:27.145Z</time></trkpt><trkpt lat="43.9497443" lon="12.368744"><ele>170.0</ele><time>2026-03-22T08:54:29.084Z</time></trkpt><trkpt lat="43.9498089" lon="12.3687542"><ele>172.0</ele><time>2026-03-22T08:54:30.146Z</time></trkpt><trkpt lat="43.9499284" lon="12.3687564"><ele>172.2</ele><time>2026-03-22T08:54:32.137Z</time></trkpt><trkpt lat="43.9500442" lon="12.3687258"><ele>172.39999999999998</ele><time>2026-03-22T08:54:34.13Z</time></trkpt><trkpt lat="43.9501638" lon="12.3686858"><ele>172.60000000000002</ele><time>2026-03-22T08:54:36.125Z</time></trkpt><trkpt lat="43.950285" lon="12.3686396"><ele>172.8</ele><time>2026-03-22T08:54:38.128Z</time></trkpt><trkpt lat="43.9503493" lon="12.3686257"><ele>173.0</ele><time>2026-03-22T08:54:39.125Z</time></trkpt><trkpt lat="43.9504667" lon="12.368593"><ele>173.0</ele><time>2026-03-22T08:54:41.127Z</time></trkpt><trkpt lat="43.9505309" lon="12.368572"><ele>173.0</ele><time>2026-03-22T08:54:42.129Z</time></trkpt><trkpt lat="43.9505963" lon="12.3685565"><ele>173.0</ele><time>2026-03-22T08:54:43.104Z</time></trkpt><trkpt lat="43.9506606" lon="12.3685358"><ele>173.0</ele><time>2026-03-22T08:54:44.132Z</time></trkpt><trkpt lat="43.9507279" lon="12.3685188"><ele>173.0</ele><time>2026-03-22T08:54:45.117Z</time></trkpt><trkpt lat="43.9508498" lon="12.3684942"><ele>173.0</ele><time>2026-03-22T08:54:47.116Z</time></trkpt><trkpt lat="43.9509701" lon="12.3684532"><ele>172.28571428571428</ele><time>2026-03-22T08:54:49.129Z</time></trkpt><trkpt lat="43.9510405" lon="12.3684447"><ele>171.57142857142858</ele><time>2026-03-22T08:54:50.131Z</time></trkpt><trkpt lat="43.9511067" lon="12.3684474"><ele>170.85714285714286</ele><time>2026-03-22T08:54:51.127Z</time></trkpt><trkpt lat="43.9511704" lon="12.3684462"><ele>170.14285714285714</ele><time>2026-03-22T08:54:52.095Z</time></trkpt><trkpt lat="43.9512345" lon="12.3684537"><ele>169.42857142857144</ele><time>2026-03-22T08:54:53.137Z</time></trkpt><trkpt lat="43.9512991" lon="12.3684647"><ele>168.71428571428572</ele><time>2026-03-22T08:54:54.136Z</time></trkpt><trkpt lat="43.9513711" lon="12.3684862"><ele>168.0</ele><time>2026-03-22T08:54:55.13Z</time></trkpt><trkpt lat="43.9514406" lon="12.3685129"><ele>168.0</ele><time>2026-03-22T08:54:56.142Z</time></trkpt><trkpt lat="43.9515072" lon="12.368534"><ele>168.0</ele><time>2026-03-22T08:54:57.117Z</time></trkpt><trkpt lat="43.9515705" lon="12.3685523"><ele>168.0</ele><time>2026-03-22T08:54:58.138Z</time></trkpt><trkpt lat="43.9516311" lon="12.3685865"><ele>168.0</ele><time>2026-03-22T08:54:59.143Z</time></trkpt><trkpt lat="43.9517477" lon="12.3686377"><ele>168.0</ele><time>2026-03-22T08:55:01.131Z</time></trkpt><trkpt lat="43.9518086" lon="12.3686638"><ele>168.0</ele><time>2026-03-22T08:55:02.13Z</time></trkpt><trkpt lat="43.9519134" lon="12.3687341"><ele>167.83333333333334</ele><time>2026-03-22T08:55:04.13Z</time></trkpt><trkpt lat="43.9519977" lon="12.3688305"><ele>167.66666666666666</ele><time>2026-03-22T08:55:06.121Z</time></trkpt><trkpt lat="43.95205" lon="12.3688914"><ele>167.5</ele><time>2026-03-22T08:55:07.152Z</time></trkpt><trkpt lat="43.9520943" lon="12.3689687"><ele>167.33333333333331</ele><time>2026-03-22T08:55:08.156Z</time></trkpt><trkpt lat="43.9521385" lon="12.3690456"><ele>167.16666666666666</ele><time>2026-03-22T08:55:09.125Z</time></trkpt><trkpt lat="43.9521787" lon="12.3691168"><ele>167.0</ele><time>2026-03-22T08:55:10.125Z</time></trkpt><trkpt lat="43.9522176" lon="12.3692013"><ele>167.0</ele><time>2026-03-22T08:55:11.137Z</time></trkpt><trkpt lat="43.952258" lon="12.369299"><ele>167.0</ele><time>2026-03-22T08:55:12.133Z</time></trkpt><trkpt lat="43.9522969" lon="12.3693955"><ele>167.0</ele><time>2026-03-22T08:55:13.087Z</time></trkpt><trkpt lat="43.9523378" lon="12.3694918"><ele>167.0</ele><time>2026-03-22T08:55:14.116Z</time></trkpt><trkpt lat="43.9523752" lon="12.369584"><ele>167.0</ele><time>2026-03-22T08:55:15.123Z</time></trkpt><trkpt lat="43.9524103" lon="12.369676"><ele>167.0</ele><time>2026-03-22T08:55:16.13Z</time></trkpt><trkpt lat="43.9524414" lon="12.3697772"><ele>167.16666666666666</ele><time>2026-03-22T08:55:17.141Z</time></trkpt><trkpt lat="43.9524752" lon="12.3698749"><ele>167.33333333333331</ele><time>2026-03-22T08:55:18.135Z</time></trkpt><trkpt lat="43.9525131" lon="12.3699764"><ele>167.5</ele><time>2026-03-22T08:55:19.087Z</time></trkpt><trkpt lat="43.9525426" lon="12.3700789"><ele>167.66666666666666</ele><time>2026-03-22T08:55:20.139Z</time></trkpt><trkpt lat="43.9525738" lon="12.3701808"><ele>167.83333333333334</ele><time>2026-03-22T08:55:21.147Z</time></trkpt><trkpt lat="43.9526061" lon="12.3702909"><ele>168.0</ele><time>2026-03-22T08:55:22.142Z</time></trkpt><trkpt lat="43.9526391" lon="12.3703908"><ele>167.33333333333334</ele><time>2026-03-22T08:55:23.161Z</time></trkpt><trkpt lat="43.9526656" lon="12.3704929"><ele>166.66666666666666</ele><time>2026-03-22T08:55:24.134Z</time></trkpt><trkpt lat="43.9526863" lon="12.3705947"><ele>166.0</ele><time>2026-03-22T08:55:25.131Z</time></trkpt><trkpt lat="43.9527132" lon="12.3706933"><ele>165.33333333333331</ele><time>2026-03-22T08:55:26.135Z</time></trkpt><trkpt lat="43.9527414" lon="12.370788"><ele>164.66666666666666</ele><time>2026-03-22T08:55:27.122Z</time></trkpt><trkpt lat="43.9527674" lon="12.3708832"><ele>164.0</ele><time>2026-03-22T08:55:28.123Z</time></trkpt><trkpt lat="43.9527896" lon="12.3709794"><ele>164.0</ele><time>2026-03-22T08:55:29.142Z</time></trkpt><trkpt lat="43.9528182" lon="12.3710729"><ele>164.0</ele><time>2026-03-22T08:55:30.135Z</time></trkpt><trkpt lat="43.9528492" lon="12.3711716"><ele>164.0</ele><time>2026-03-22T08:55:31.128Z</time></trkpt><trkpt lat="43.9528793" lon="12.3712718"><ele>164.0</ele><time>2026-03-22T08:55:32.125Z</time></trkpt><trkpt lat="43.952902" lon="12.3713745"><ele>164.0</ele><time>2026-03-22T08:55:33.129Z</time></trkpt><trkpt lat="43.9529372" lon="12.3714721"><ele>164.0</ele><time>2026-03-22T08:55:34.138Z</time></trkpt><trkpt lat="43.9529607" lon="12.3715722"><ele>163.99999999999997</ele><time>2026-03-22T08:55:35.123Z</time></trkpt><trkpt lat="43.9529912" lon="12.3716683"><ele>164.0</ele><time>2026-03-22T08:55:36.121Z</time></trkpt><trkpt lat="43.9530225" lon="12.3717609"><ele>164.0</ele><time>2026-03-22T08:55:37.124Z</time></trkpt><trkpt lat="43.9530559" lon="12.3718581"><ele>164.0</ele><time>2026-03-22T08:55:38.11Z</time></trkpt><trkpt lat="43.9530818" lon="12.3719537"><ele>164.0</ele><time>2026-03-22T08:55:39.12Z</time></trkpt><trkpt lat="43.9531089" lon="12.3720526"><ele>163.99999999999997</ele><time>2026-03-22T08:55:40.136Z</time></trkpt><trkpt lat="43.9531369" lon="12.3721462"><ele>164.0</ele><time>2026-03-22T08:55:41.135Z</time></trkpt><trkpt lat="43.9531588" lon="12.3722395"><ele>164.14285714285714</ele><time>2026-03-22T08:55:42.141Z</time></trkpt><trkpt lat="43.953182" lon="12.372331"><ele>164.28571428571428</ele><time>2026-03-22T08:55:43.127Z</time></trkpt><trkpt lat="43.9532127" lon="12.3724308"><ele>164.42857142857144</ele><time>2026-03-22T08:55:44.137Z</time></trkpt><trkpt lat="43.9532382" lon="12.3725228"><ele>164.57142857142856</ele><time>2026-03-22T08:55:45.147Z</time></trkpt><trkpt lat="43.9532575" lon="12.3726109"><ele>164.71428571428572</ele><time>2026-03-22T08:55:46.134Z</time></trkpt><trkpt lat="43.9532849" lon="12.3726978"><ele>164.85714285714286</ele><time>2026-03-22T08:55:47.135Z</time></trkpt><trkpt lat="43.9533088" lon="12.3727902"><ele>165.0</ele><time>2026-03-22T08:55:48.109Z</time></trkpt><trkpt lat="43.9533022" lon="12.3728829"><ele>165.0</ele><time>2026-03-22T08:55:49.12Z</time></trkpt><trkpt lat="43.9532657" lon="12.3729662"><ele>165.0</ele><time>2026-03-22T08:55:50.124Z</time></trkpt><trkpt lat="43.9532008" lon="12.3731065"><ele>165.0</ele><time>2026-03-22T08:55:52.14Z</time></trkpt><trkpt lat="43.9531399" lon="12.3732268"><ele>165.0</ele><time>2026-03-22T08:55:54.085Z</time></trkpt><trkpt lat="43.9531031" lon="12.3733199"><ele>165.0</ele><time>2026-03-22T08:55:56.132Z</time></trkpt><trkpt lat="43.9530955" lon="12.3734203"><ele>165.0</ele><time>2026-03-22T08:55:59.117Z</time></trkpt><trkpt lat="43.9530945" lon="12.3735225"><ele>165.16666666666666</ele><time>2026-03-22T08:56:02.124Z</time></trkpt><trkpt lat="43.9530861" lon="12.3736223"><ele>165.33333333333334</ele><time>2026-03-22T08:56:05.121Z</time></trkpt><trkpt lat="43.9530671" lon="12.3737348"><ele>165.5</ele><time>2026-03-22T08:56:09.129Z</time></trkpt><trkpt lat="43.9530378" lon="12.3738401"><ele>165.66666666666669</ele><time>2026-03-22T08:56:13.134Z</time></trkpt><trkpt lat="43.9530069" lon="12.3739297"><ele>165.83333333333334</ele><time>2026-03-22T08:56:17.123Z</time></trkpt><trkpt lat="43.9529916" lon="12.3740156"><ele>166.0</ele><time>2026-03-22T08:56:21.13Z</time></trkpt><trkpt lat="43.9530035" lon="12.3741223"><ele>166.7142857142857</ele><time>2026-03-22T08:56:26.128Z</time></trkpt><trkpt lat="43.9530043" lon="12.3742275"><ele>167.42857142857144</ele><time>2026-03-22T08:56:32.131Z</time></trkpt><trkpt lat="43.9530331" lon="12.3743073"><ele>168.14285714285714</ele><time>2026-03-22T08:56:36.122Z</time></trkpt><trkpt lat="43.953052" lon="12.3744097"><ele>168.85714285714283</ele><time>2026-03-22T08:56:41.134Z</time></trkpt><trkpt lat="43.9530549" lon="12.374515"><ele>169.57142857142856</ele><time>2026-03-22T08:56:46.131Z</time></trkpt><trkpt lat="43.9530538" lon="12.374603"><ele>170.28571428571428</ele><time>2026-03-22T08:56:50.102Z</time></trkpt><trkpt lat="43.953042" lon="12.3747024"><ele>171.0</ele><time>2026-03-22T08:56:55.121Z</time></trkpt><trkpt lat="43.9530345" lon="12.3747917"><ele>172.14285714285714</ele><time>2026-03-22T08:56:59.115Z</time></trkpt><trkpt lat="43.9529919" lon="12.3748745"><ele>173.28571428571428</ele><time>2026-03-22T08:57:05.117Z</time></trkpt><trkpt lat="43.9529565" lon="12.3749552"><ele>174.42857142857144</ele><time>2026-03-22T08:57:10.14Z</time></trkpt><trkpt lat="43.9529177" lon="12.3750439"><ele>175.57142857142856</ele><time>2026-03-22T08:57:16.127Z</time></trkpt><trkpt lat="43.952882" lon="12.3751177"><ele>176.71428571428572</ele><time>2026-03-22T08:57:21.118Z</time></trkpt><trkpt lat="43.9528407" lon="12.3752044"><ele>177.85714285714286</ele><time>2026-03-22T08:57:26.14Z</time></trkpt><trkpt lat="43.9528138" lon="12.3752869"><ele>179.0</ele><time>2026-03-22T08:57:31.104Z</time></trkpt><trkpt lat="43.952795" lon="12.3753743"><ele>179.00000000000003</ele><time>2026-03-22T08:57:36.122Z</time></trkpt><trkpt lat="43.9527822" lon="12.3754634"><ele>179.0</ele><time>2026-03-22T08:57:41.125Z</time></trkpt><trkpt lat="43.9527777" lon="12.3755634"><ele>179.0</ele><time>2026-03-22T08:57:47.124Z</time></trkpt><trkpt lat="43.9527632" lon="12.3756633"><ele>179.0</ele><time>2026-03-22T08:57:54.122Z</time></trkpt><trkpt lat="43.9527727" lon="12.375767"><ele>179.0</ele><time>2026-03-22T08:57:59.119Z</time></trkpt><trkpt lat="43.9527886" lon="12.3758732"><ele>179.00000000000003</ele><time>2026-03-22T08:58:05.126Z</time></trkpt><trkpt lat="43.9527888" lon="12.3759631"><ele>179.0</ele><time>2026-03-22T08:58:10.111Z</time></trkpt><trkpt lat="43.9528002" lon="12.3760636"><ele>179.85714285714286</ele><time>2026-03-22T08:58:15.103Z</time></trkpt><trkpt lat="43.9527953" lon="12.3761514"><ele>180.71428571428572</ele><time>2026-03-22T08:58:20.108Z</time></trkpt><trkpt lat="43.9527991" lon="12.3762438"><ele>181.57142857142856</ele><time>2026-03-22T08:58:25.13Z</time></trkpt><trkpt lat="43.9528009" lon="12.3763337"><ele>182.42857142857144</ele><time>2026-03-22T08:58:30.141Z</time></trkpt><trkpt lat="43.9527934" lon="12.3764332"><ele>183.28571428571428</ele><time>2026-03-22T08:58:36.122Z</time></trkpt><trkpt lat="43.952773" lon="12.3765364"><ele>184.14285714285714</ele><time>2026-03-22T08:58:43.111Z</time></trkpt><trkpt lat="43.9527475" lon="12.3766181"><ele>185.0</ele><time>2026-03-22T08:58:48.112Z</time></trkpt><trkpt lat="43.9527244" lon="12.3767071"><ele>185.99999999999997</ele><time>2026-03-22T08:58:53.127Z</time></trkpt><trkpt lat="43.9527228" lon="12.3767996"><ele>187.0</ele><time>2026-03-22T08:58:59.131Z</time></trkpt><trkpt lat="43.9527193" lon="12.3768929"><ele>188.0</ele><time>2026-03-22T08:59:04.143Z</time></trkpt><trkpt lat="43.9526853" lon="12.3769803"><ele>189.0</ele><time>2026-03-22T08:59:10.138Z</time></trkpt><trkpt lat="43.9526789" lon="12.3770762"><ele>190.0</ele><time>2026-03-22T08:59:16.126Z</time></trkpt><trkpt lat="43.9526653" lon="12.3771766"><ele>190.99999999999997</ele><time>2026-03-22T08:59:22.132Z</time></trkpt><trkpt lat="43.95266" lon="12.3772714"><ele>192.0</ele><time>2026-03-22T08:59:27.119Z</time></trkpt><trkpt lat="43.952641" lon="12.3773583"><ele>193.28571428571428</ele><time>2026-03-22T08:59:34.138Z</time></trkpt><trkpt lat="43.9525937" lon="12.3774314"><ele>194.57142857142856</ele><time>2026-03-22T08:59:40.122Z</time></trkpt><trkpt lat="43.9525633" lon="12.3775118"><ele>195.85714285714283</ele><time>2026-03-22T08:59:46.122Z</time></trkpt><trkpt lat="43.9525386" lon="12.3776105"><ele>197.14285714285714</ele><time>2026-03-22T08:59:52.124Z</time></trkpt><trkpt lat="43.9525065" lon="12.3776875"><ele>198.42857142857144</ele><time>2026-03-22T08:59:58.128Z</time></trkpt><trkpt lat="43.9524636" lon="12.3777686"><ele>199.7142857142857</ele><time>2026-03-22T09:00:04.133Z</time></trkpt><trkpt lat="43.9524354" lon="12.3778503"><ele>201.0</ele><time>2026-03-22T09:00:09.137Z</time></trkpt><trkpt lat="43.952417" lon="12.3779349"><ele>206.14285714285714</ele><time>2026-03-22T09:00:15.083Z</time></trkpt><trkpt lat="43.9523871" lon="12.3780154"><ele>211.28571428571428</ele><time>2026-03-22T09:00:21.127Z</time></trkpt><trkpt lat="43.9523573" lon="12.3781048"><ele>216.42857142857142</ele><time>2026-03-22T09:00:28.085Z</time></trkpt><trkpt lat="43.9523115" lon="12.3781831"><ele>221.57142857142856</ele><time>2026-03-22T09:00:34.135Z</time></trkpt><trkpt lat="43.9522753" lon="12.3782641"><ele>226.71428571428572</ele><time>2026-03-22T09:00:40.135Z</time></trkpt><trkpt lat="43.9522414" lon="12.3783512"><ele>231.85714285714283</ele><time>2026-03-22T09:00:46.121Z</time></trkpt><trkpt lat="43.9522225" lon="12.3784413"><ele>236.99999999999997</ele><time>2026-03-22T09:00:52.135Z</time></trkpt><trkpt lat="43.9521865" lon="12.3785302"><ele>236.99999999999997</ele><time>2026-03-22T09:00:58.117Z</time></trkpt><trkpt lat="43.9521707" lon="12.3786227"><ele>237.0</ele><time>2026-03-22T09:01:03.142Z</time></trkpt><trkpt lat="43.9521619" lon="12.378726"><ele>236.99999999999997</ele><time>2026-03-22T09:01:09.128Z</time></trkpt><trkpt lat="43.9521712" lon="12.3788254"><ele>236.99999999999997</ele><time>2026-03-22T09:01:15.106Z</time></trkpt><trkpt lat="43.9521601" lon="12.3789244"><ele>237.0</ele><time>2026-03-22T09:01:21.113Z</time></trkpt><trkpt lat="43.9521573" lon="12.3790201"><ele>236.99999999999997</ele><time>2026-03-22T09:01:27.133Z</time></trkpt><trkpt lat="43.95217" lon="12.3791196"><ele>236.99999999999997</ele><time>2026-03-22T09:01:32.132Z</time></trkpt><trkpt lat="43.9521557" lon="12.3792135"><ele>236.99999999999997</ele><time>2026-03-22T09:01:38.128Z</time></trkpt><trkpt lat="43.9521596" lon="12.379305"><ele>237.0</ele><time>2026-03-22T09:01:44.132Z</time></trkpt><trkpt lat="43.9521638" lon="12.3793926"><ele>236.99999999999997</ele><time>2026-03-22T09:01:49.124Z</time></trkpt><trkpt lat="43.9521772" lon="12.3794852"><ele>236.99999999999997</ele><time>2026-03-22T09:01:55.121Z</time></trkpt><trkpt lat="43.952185" lon="12.3795744"><ele>237.0</ele><time>2026-03-22T09:02:01.131Z</time></trkpt><trkpt lat="43.9521898" lon="12.3796691"><ele>236.99999999999997</ele><time>2026-03-22T09:02:06.129Z</time></trkpt><trkpt lat="43.9521919" lon="12.3797574"><ele>236.99999999999997</ele><time>2026-03-22T09:02:11.112Z</time></trkpt><trkpt lat="43.9521971" lon="12.3798504"><ele>238.1428571428571</ele><time>2026-03-22T09:02:17.112Z</time></trkpt><trkpt lat="43.952188" lon="12.3799431"><ele>239.28571428571428</ele><time>2026-03-22T09:02:23.126Z</time></trkpt><trkpt lat="43.9521572" lon="12.3800218"><ele>240.42857142857142</ele><time>2026-03-22T09:02:29.132Z</time></trkpt><trkpt lat="43.9521106" lon="12.3800919"><ele>241.57142857142856</ele><time>2026-03-22T09:02:35.14Z</time></trkpt><trkpt lat="43.952063" lon="12.3801631"><ele>242.71428571428572</ele><time>2026-03-22T09:02:41.1Z</time></trkpt><trkpt lat="43.9520096" lon="12.3802348"><ele>243.85714285714286</ele><time>2026-03-22T09:02:47.098Z</time></trkpt><trkpt lat="43.9519542" lon="12.3803087"><ele>245.0</ele><time>2026-03-22T09:02:53.131Z</time></trkpt><trkpt lat="43.9518957" lon="12.3803639"><ele>245.0</ele><time>2026-03-22T09:02:58.139Z</time></trkpt><trkpt lat="43.9518417" lon="12.3804193"><ele>245.0</ele><time>2026-03-22T09:03:02.138Z</time></trkpt><trkpt lat="43.951782" lon="12.3804858"><ele>245.0</ele><time>2026-03-22T09:03:06.145Z</time></trkpt><trkpt lat="43.9517078" lon="12.3805267"><ele>245.0</ele><time>2026-03-22T09:03:10.137Z</time></trkpt><trkpt lat="43.95164" lon="12.3805288"><ele>245.0</ele><time>2026-03-22T09:03:15.129Z</time></trkpt><trkpt lat="43.9515796" lon="12.3804952"><ele>245.0</ele><time>2026-03-22T09:03:21.13Z</time></trkpt><trkpt lat="43.9515297" lon="12.3804367"><ele>245.0</ele><time>2026-03-22T09:03:26.129Z</time></trkpt><trkpt lat="43.9514812" lon="12.3803751"><ele>248.71428571428572</ele><time>2026-03-22T09:03:32.14Z</time></trkpt><trkpt lat="43.9514272" lon="12.3803122"><ele>252.42857142857144</ele><time>2026-03-22T09:04:02.137Z</time></trkpt><trkpt lat="43.9513731" lon="12.3802672"><ele>256.1428571428571</ele><time>2026-03-22T09:04:11.135Z</time></trkpt><trkpt lat="43.951312" lon="12.3802281"><ele>259.8571428571429</ele><time>2026-03-22T09:04:15.152Z</time></trkpt><trkpt lat="43.9512666" lon="12.3801638"><ele>263.57142857142856</ele><time>2026-03-22T09:04:20.148Z</time></trkpt><trkpt lat="43.9512078" lon="12.3801038"><ele>267.2857142857143</ele><time>2026-03-22T09:04:26.108Z</time></trkpt><trkpt lat="43.9511523" lon="12.3800316"><ele>271.0</ele><time>2026-03-22T09:04:32.12Z</time></trkpt><trkpt lat="43.951091" lon="12.379981"><ele>271.0</ele><time>2026-03-22T09:04:38.14Z</time></trkpt><trkpt lat="43.9510409" lon="12.3799192"><ele>271.0</ele><time>2026-03-22T09:04:43.124Z</time></trkpt><trkpt lat="43.9509869" lon="12.3798717"><ele>271.0</ele><time>2026-03-22T09:04:48.133Z</time></trkpt><trkpt lat="43.950919" lon="12.3798288"><ele>271.0</ele><time>2026-03-22T09:04:52.098Z</time></trkpt><trkpt lat="43.9508566" lon="12.3797854"><ele>271.0</ele><time>2026-03-22T09:04:56.139Z</time></trkpt><trkpt lat="43.9508008" lon="12.3797443"><ele>271.0</ele><time>2026-03-22T09:05:00.145Z</time></trkpt><trkpt lat="43.9507426" lon="12.3796995"><ele>271.0</ele><time>2026-03-22T09:05:44.162Z</time></trkpt><trkpt lat="43.9506785" lon="12.3796757"><ele>272.16666666666663</ele><time>2026-03-22T09:05:49.159Z</time></trkpt><trkpt lat="43.9506148" lon="12.3796744"><ele>273.3333333333333</ele><time>2026-03-22T09:05:51.119Z</time></trkpt><trkpt lat="43.950541" lon="12.3796917"><ele>274.5</ele><time>2026-03-22T09:05:53.133Z</time></trkpt><trkpt lat="43.950412" lon="12.3797153"><ele>275.6666666666667</ele><time>2026-03-22T09:05:55.134Z</time></trkpt><trkpt lat="43.9503501" lon="12.3797457"><ele>276.83333333333337</ele><time>2026-03-22T09:05:56.108Z</time></trkpt><trkpt lat="43.9502837" lon="12.37979"><ele>278.0</ele><time>2026-03-22T09:05:57.122Z</time></trkpt><trkpt lat="43.9502244" lon="12.3798319"><ele>278.0</ele><time>2026-03-22T09:05:58.145Z</time></trkpt><trkpt lat="43.9501296" lon="12.3799212"><ele>278.0</ele><time>2026-03-22T09:06:00.146Z</time></trkpt><trkpt lat="43.9500404" lon="12.3800058"><ele>278.0</ele><time>2026-03-22T09:06:02.138Z</time></trkpt><trkpt lat="43.9499478" lon="12.3800952"><ele>278.0</ele><time>2026-03-22T09:06:04.13Z</time></trkpt><trkpt lat="43.949876" lon="12.3801805"><ele>278.0</ele><time>2026-03-22T09:06:06.156Z</time></trkpt><trkpt lat="43.9498309" lon="12.3802506"><ele>276.2</ele><time>2026-03-22T09:06:08.087Z</time></trkpt><trkpt lat="43.9498104" lon="12.3803485"><ele>274.4</ele><time>2026-03-22T09:06:10.15Z</time></trkpt><trkpt lat="43.9498419" lon="12.3804958"><ele>272.59999999999997</ele><time>2026-03-22T09:06:12.14Z</time></trkpt><trkpt lat="43.9499065" lon="12.3806222"><ele>270.8</ele><time>2026-03-22T09:06:14.145Z</time></trkpt><trkpt lat="43.949969" lon="12.3807816"><ele>269.0</ele><time>2026-03-22T09:06:16.123Z</time></trkpt><trkpt lat="43.9500087" lon="12.3808569"><ele>268.33333333333337</ele><time>2026-03-22T09:06:17.119Z</time></trkpt><trkpt lat="43.9500363" lon="12.380959"><ele>267.6666666666667</ele><time>2026-03-22T09:06:18.138Z</time></trkpt><trkpt lat="43.9500511" lon="12.3810693"><ele>267.0</ele><time>2026-03-22T09:06:19.126Z</time></trkpt><trkpt lat="43.9500451" lon="12.3811856"><ele>266.3333333333333</ele><time>2026-03-22T09:06:20.126Z</time></trkpt><trkpt lat="43.9500185" lon="12.3813077"><ele>265.66666666666663</ele><time>2026-03-22T09:06:21.133Z</time></trkpt><trkpt lat="43.9499857" lon="12.3814225"><ele>265.0</ele><time>2026-03-22T09:06:22.131Z</time></trkpt><trkpt lat="43.949957" lon="12.3815442"><ele>263.0</ele><time>2026-03-22T09:06:23.13Z</time></trkpt><trkpt lat="43.9499168" lon="12.3816659"><ele>261.0</ele><time>2026-03-22T09:06:24.13Z</time></trkpt><trkpt lat="43.9498816" lon="12.3817868"><ele>259.0</ele><time>2026-03-22T09:06:25.147Z</time></trkpt><trkpt lat="43.949845" lon="12.3819142"><ele>257.0</ele><time>2026-03-22T09:06:26.144Z</time></trkpt><trkpt lat="43.9498064" lon="12.3820492"><ele>255.0</ele><time>2026-03-22T09:06:27.132Z</time></trkpt><trkpt lat="43.9497711" lon="12.3821856"><ele>254.2</ele><time>2026-03-22T09:06:28.149Z</time></trkpt><trkpt lat="43.9497308" lon="12.3823202"><ele>253.4</ele><time>2026-03-22T09:06:29.134Z</time></trkpt><trkpt lat="43.9496843" lon="12.3824463"><ele>252.60000000000002</ele><time>2026-03-22T09:06:30.145Z</time></trkpt><trkpt lat="43.949635" lon="12.3825758"><ele>251.8</ele><time>2026-03-22T09:06:31.14Z</time></trkpt><trkpt lat="43.9495782" lon="12.3826982"><ele>251.0</ele><time>2026-03-22T09:06:32.143Z</time></trkpt><trkpt lat="43.949512" lon="12.3828109"><ele>251.0</ele><time>2026-03-22T09:06:33.155Z</time></trkpt><trkpt lat="43.949441" lon="12.3829153"><ele>251.00000000000003</ele><time>2026-03-22T09:06:34.152Z</time></trkpt><trkpt lat="43.9493629" lon="12.3830066"><ele>251.00000000000003</ele><time>2026-03-22T09:06:35.159Z</time></trkpt><trkpt lat="43.9492819" lon="12.3830865"><ele>251.0</ele><time>2026-03-22T09:06:36.15Z</time></trkpt><trkpt lat="43.9491997" lon="12.383166"><ele>251.0</ele><time>2026-03-22T09:06:37.103Z</time></trkpt><trkpt lat="43.9491219" lon="12.3832391"><ele>251.50000000000003</ele><time>2026-03-22T09:06:38.131Z</time></trkpt><trkpt lat="43.949048" lon="12.3833068"><ele>252.0</ele><time>2026-03-22T09:06:39.143Z</time></trkpt><trkpt lat="43.9489741" lon="12.383374"><ele>252.5</ele><time>2026-03-22T09:06:40.151Z</time></trkpt><trkpt lat="43.9489105" lon="12.3834481"><ele>253.0</ele><time>2026-03-22T09:06:41.17Z</time></trkpt><trkpt lat="43.9488564" lon="12.3835227"><ele>253.50000000000003</ele><time>2026-03-22T09:06:42.148Z</time></trkpt><trkpt lat="43.9488149" lon="12.3835974"><ele>254.0</ele><time>2026-03-22T09:06:43.162Z</time></trkpt><trkpt lat="43.9487763" lon="12.3836799"><ele>254.00000000000003</ele><time>2026-03-22T09:06:44.15Z</time></trkpt><trkpt lat="43.9487468" lon="12.3837692"><ele>254.0</ele><time>2026-03-22T09:06:45.127Z</time></trkpt><trkpt lat="43.9487332" lon="12.3838583"><ele>254.0</ele><time>2026-03-22T09:06:46.15Z</time></trkpt><trkpt lat="43.9487176" lon="12.3839452"><ele>254.0</ele><time>2026-03-22T09:06:47.132Z</time></trkpt><trkpt lat="43.9487065" lon="12.3840368"><ele>254.00000000000003</ele><time>2026-03-22T09:06:48.152Z</time></trkpt><trkpt lat="43.9487012" lon="12.3841271"><ele>254.0</ele><time>2026-03-22T09:06:49.128Z</time></trkpt><trkpt lat="43.9486993" lon="12.384294"><ele>253.0</ele><time>2026-03-22T09:06:51.157Z</time></trkpt><trkpt lat="43.9487031" lon="12.3844617"><ele>251.99999999999997</ele><time>2026-03-22T09:06:53.144Z</time></trkpt><trkpt lat="43.9487107" lon="12.3846059"><ele>250.99999999999997</ele><time>2026-03-22T09:06:55.144Z</time></trkpt><trkpt lat="43.9487138" lon="12.3847505"><ele>250.0</ele><time>2026-03-22T09:06:57.139Z</time></trkpt><trkpt lat="43.948721" lon="12.3848913"><ele>249.0</ele><time>2026-03-22T09:06:59.136Z</time></trkpt><trkpt lat="43.9487254" lon="12.3850115"><ele>249.0</ele><time>2026-03-22T09:07:01.156Z</time></trkpt><trkpt lat="43.9487233" lon="12.3851232"><ele>249.0</ele><time>2026-03-22T09:07:03.133Z</time></trkpt><trkpt lat="43.9487207" lon="12.3852303"><ele>249.0</ele><time>2026-03-22T09:07:05.15Z</time></trkpt><trkpt lat="43.9487172" lon="12.385329"><ele>249.0</ele><time>2026-03-22T09:07:07.109Z</time></trkpt><trkpt lat="43.9487143" lon="12.3854193"><ele>249.0</ele><time>2026-03-22T09:07:09.121Z</time></trkpt><trkpt lat="43.9487078" lon="12.3855465"><ele>249.0</ele><time>2026-03-22T09:07:12.108Z</time></trkpt><trkpt lat="43.9487054" lon="12.3856678"><ele>249.28571428571428</ele><time>2026-03-22T09:07:15.143Z</time></trkpt><trkpt lat="43.948705" lon="12.385769"><ele>249.57142857142856</ele><time>2026-03-22T09:07:18.138Z</time></trkpt><trkpt lat="43.9487047" lon="12.3858717"><ele>249.85714285714283</ele><time>2026-03-22T09:07:21.14Z</time></trkpt><trkpt lat="43.9487002" lon="12.3859767"><ele>250.1428571428571</ele><time>2026-03-22T09:07:24.147Z</time></trkpt><trkpt lat="43.9486891" lon="12.3860749"><ele>250.42857142857142</ele><time>2026-03-22T09:07:27.149Z</time></trkpt><trkpt lat="43.9486679" lon="12.3861693"><ele>250.71428571428567</ele><time>2026-03-22T09:07:30.111Z</time></trkpt><trkpt lat="43.9486516" lon="12.3862821"><ele>250.99999999999997</ele><time>2026-03-22T09:07:33.123Z</time></trkpt><trkpt lat="43.9486217" lon="12.386388"><ele>251.16666666666669</ele><time>2026-03-22T09:07:36.147Z</time></trkpt><trkpt lat="43.9485978" lon="12.3864874"><ele>251.33333333333334</ele><time>2026-03-22T09:07:39.143Z</time></trkpt><trkpt lat="43.9485645" lon="12.3865893"><ele>251.5</ele><time>2026-03-22T09:07:42.133Z</time></trkpt><trkpt lat="43.9485358" lon="12.3866985"><ele>251.66666666666669</ele><time>2026-03-22T09:07:45.123Z</time></trkpt><trkpt lat="43.9485015" lon="12.3868075"><ele>251.83333333333334</ele><time>2026-03-22T09:07:48.133Z</time></trkpt><trkpt lat="43.9484747" lon="12.3869087"><ele>252.0</ele><time>2026-03-22T09:07:51.122Z</time></trkpt><trkpt lat="43.9484483" lon="12.3870073"><ele>252.0</ele><time>2026-03-22T09:07:54.145Z</time></trkpt><trkpt lat="43.9484152" lon="12.3870978"><ele>252.0</ele><time>2026-03-22T09:07:57.147Z</time></trkpt><trkpt lat="43.9483907" lon="12.387202"><ele>252.0</ele><time>2026-03-22T09:08:00.128Z</time></trkpt><trkpt lat="43.9483585" lon="12.3872948"><ele>252.0</ele><time>2026-03-22T09:08:03.126Z</time></trkpt><trkpt lat="43.948328" lon="12.3873865"><ele>252.0</ele><time>2026-03-22T09:08:06.164Z</time></trkpt><trkpt lat="43.9482944" lon="12.3874735"><ele>252.0</ele><time>2026-03-22T09:08:09.146Z</time></trkpt><trkpt lat="43.948256" lon="12.387576"><ele>255.5</ele><time>2026-03-22T09:08:12.151Z</time></trkpt><trkpt lat="43.9482253" lon="12.3876783"><ele>259.0</ele><time>2026-03-22T09:08:15.135Z</time></trkpt><trkpt lat="43.9482055" lon="12.3877743"><ele>262.5</ele><time>2026-03-22T09:08:18.094Z</time></trkpt><trkpt lat="43.9481673" lon="12.3878576"><ele>266.0</ele><time>2026-03-22T09:08:21.145Z</time></trkpt><trkpt lat="43.9481351" lon="12.3879499"><ele>269.5</ele><time>2026-03-22T09:08:24.131Z</time></trkpt><trkpt lat="43.9481088" lon="12.3880592"><ele>273.0</ele><time>2026-03-22T09:08:28.127Z</time></trkpt><trkpt lat="43.9481113" lon="12.3881786"><ele>273.3333333333333</ele><time>2026-03-22T09:08:32.131Z</time></trkpt><trkpt lat="43.9481504" lon="12.3882942"><ele>273.6666666666667</ele><time>2026-03-22T09:08:34.138Z</time></trkpt><trkpt lat="43.9482415" lon="12.3884282"><ele>274.0</ele><time>2026-03-22T09:08:36.109Z</time></trkpt><trkpt lat="43.9482881" lon="12.3885058"><ele>274.33333333333337</ele><time>2026-03-22T09:08:37.15Z</time></trkpt><trkpt lat="43.9483337" lon="12.3885855"><ele>274.6666666666667</ele><time>2026-03-22T09:08:38.107Z</time></trkpt><trkpt lat="43.9483734" lon="12.3886673"><ele>275.0</ele><time>2026-03-22T09:08:39.148Z</time></trkpt><trkpt lat="43.9484174" lon="12.3887419"><ele>273.0</ele><time>2026-03-22T09:08:40.171Z</time></trkpt><trkpt lat="43.9484609" lon="12.3888227"><ele>271.0</ele><time>2026-03-22T09:08:41.14Z</time></trkpt><trkpt lat="43.9484987" lon="12.3889099"><ele>269.0</ele><time>2026-03-22T09:08:42.138Z</time></trkpt><trkpt lat="43.9485757" lon="12.3890413"><ele>267.0</ele><time>2026-03-22T09:08:44.129Z</time></trkpt><trkpt lat="43.9486469" lon="12.3891529"><ele>265.0</ele><time>2026-03-22T09:08:46.127Z</time></trkpt><trkpt lat="43.9486927" lon="12.3892624"><ele>265.0</ele><time>2026-03-22T09:08:48.152Z</time></trkpt><trkpt lat="43.9487314" lon="12.3893612"><ele>265.0</ele><time>2026-03-22T09:08:50.15Z</time></trkpt><trkpt lat="43.9487769" lon="12.3894668"><ele>265.0</ele><time>2026-03-22T09:08:52.152Z</time></trkpt><trkpt lat="43.9488219" lon="12.3895766"><ele>265.0</ele><time>2026-03-22T09:08:54.108Z</time></trkpt><trkpt lat="43.9488627" lon="12.3896921"><ele>265.0</ele><time>2026-03-22T09:08:56.14Z</time></trkpt><trkpt lat="43.9488884" lon="12.3898042"><ele>265.0</ele><time>2026-03-22T09:08:58.151Z</time></trkpt><trkpt lat="43.948922" lon="12.3899214"><ele>266.6</ele><time>2026-03-22T09:09:00.14Z</time></trkpt><trkpt lat="43.9489482" lon="12.3900451"><ele>268.2</ele><time>2026-03-22T09:09:02.144Z</time></trkpt><trkpt lat="43.9489928" lon="12.390165"><ele>269.8</ele><time>2026-03-22T09:09:04.159Z</time></trkpt><trkpt lat="43.9490336" lon="12.3902847"><ele>271.4</ele><time>2026-03-22T09:09:06.128Z</time></trkpt><trkpt lat="43.9490763" lon="12.3904041"><ele>273.0</ele><time>2026-03-22T09:09:08.147Z</time></trkpt><trkpt lat="43.9491171" lon="12.3905174"><ele>273.0</ele><time>2026-03-22T09:09:10.132Z</time></trkpt><trkpt lat="43.9491514" lon="12.3906463"><ele>273.0</ele><time>2026-03-22T09:09:12.127Z</time></trkpt><trkpt lat="43.9491793" lon="12.3908168"><ele>273.0</ele><time>2026-03-22T09:09:14.135Z</time></trkpt><trkpt lat="43.9491897" lon="12.3909116"><ele>273.0</ele><time>2026-03-22T09:09:15.136Z</time></trkpt><trkpt lat="43.9492035" lon="12.3910067"><ele>273.0</ele><time>2026-03-22T09:09:16.135Z</time></trkpt><trkpt lat="43.9492183" lon="12.3911058"><ele>273.0</ele><time>2026-03-22T09:09:17.144Z</time></trkpt><trkpt lat="43.9492261" lon="12.3912187"><ele>271.0</ele><time>2026-03-22T09:09:18.14Z</time></trkpt><trkpt lat="43.9492263" lon="12.391329"><ele>269.0</ele><time>2026-03-22T09:09:19.142Z</time></trkpt><trkpt lat="43.9492366" lon="12.3914496"><ele>267.0</ele><time>2026-03-22T09:09:20.146Z</time></trkpt><trkpt lat="43.9492506" lon="12.3915791"><ele>265.0</ele><time>2026-03-22T09:09:21.13Z</time></trkpt><trkpt lat="43.9492608" lon="12.3917139"><ele>263.0</ele><time>2026-03-22T09:09:22.106Z</time></trkpt><trkpt lat="43.9492781" lon="12.3918496"><ele>263.0</ele><time>2026-03-22T09:09:23.145Z</time></trkpt><trkpt lat="43.9492881" lon="12.3919927"><ele>263.0</ele><time>2026-03-22T09:09:24.105Z</time></trkpt><trkpt lat="43.9492942" lon="12.3921404"><ele>263.0</ele><time>2026-03-22T09:09:25.12Z</time></trkpt><trkpt lat="43.9492968" lon="12.3922862"><ele>263.0</ele><time>2026-03-22T09:09:26.137Z</time></trkpt><trkpt lat="43.9493035" lon="12.3924324"><ele>263.0</ele><time>2026-03-22T09:09:27.132Z</time></trkpt><trkpt lat="43.949316" lon="12.3925698"><ele>262.0</ele><time>2026-03-22T09:09:28.143Z</time></trkpt><trkpt lat="43.9493405" lon="12.392707"><ele>261.0</ele><time>2026-03-22T09:09:29.084Z</time></trkpt><trkpt lat="43.9493739" lon="12.3928406"><ele>260.0</ele><time>2026-03-22T09:09:30.07Z</time></trkpt><trkpt lat="43.9494341" lon="12.3929747"><ele>259.0</ele><time>2026-03-22T09:09:31.105Z</time></trkpt><trkpt lat="43.9495169" lon="12.393096"><ele>258.0</ele><time>2026-03-22T09:09:32.068Z</time></trkpt><trkpt lat="43.949607" lon="12.3932263"><ele>256.0</ele><time>2026-03-22T09:09:33.078Z</time></trkpt><trkpt lat="43.9496882" lon="12.3933668"><ele>254.0</ele><time>2026-03-22T09:09:34.07Z</time></trkpt><trkpt lat="43.9497718" lon="12.393498"><ele>252.0</ele><time>2026-03-22T09:09:35.068Z</time></trkpt><trkpt lat="43.9498516" lon="12.3936299"><ele>250.0</ele><time>2026-03-22T09:09:36.09Z</time></trkpt><trkpt lat="43.9499348" lon="12.3937601"><ele>247.25</ele><time>2026-03-22T09:09:37.127Z</time></trkpt><trkpt lat="43.9500141" lon="12.3938922"><ele>244.5</ele><time>2026-03-22T09:09:38.129Z</time></trkpt><trkpt lat="43.9500991" lon="12.3940331"><ele>241.75</ele><time>2026-03-22T09:09:39.15Z</time></trkpt><trkpt lat="43.9501887" lon="12.3941555"><ele>239.0</ele><time>2026-03-22T09:09:40.096Z</time></trkpt><trkpt lat="43.9502756" lon="12.3942643"><ele>237.25</ele><time>2026-03-22T09:09:41.094Z</time></trkpt><trkpt lat="43.9503747" lon="12.3943586"><ele>235.5</ele><time>2026-03-22T09:09:42.137Z</time></trkpt><trkpt lat="43.9504816" lon="12.394453"><ele>233.75</ele><time>2026-03-22T09:09:43.152Z</time></trkpt><trkpt lat="43.9505949" lon="12.3945395"><ele>232.0</ele><time>2026-03-22T09:09:44.118Z</time></trkpt><trkpt lat="43.9507041" lon="12.3946345"><ele>232.39999999999998</ele><time>2026-03-22T09:09:45.109Z</time></trkpt><trkpt lat="43.9508088" lon="12.3947099"><ele>232.79999999999998</ele><time>2026-03-22T09:09:46.142Z</time></trkpt><trkpt lat="43.9509072" lon="12.3947702"><ele>233.2</ele><time>2026-03-22T09:09:47.134Z</time></trkpt><trkpt lat="43.9510046" lon="12.394822"><ele>233.6</ele><time>2026-03-22T09:09:48.14Z</time></trkpt><trkpt lat="43.9511013" lon="12.3948777"><ele>234.0</ele><time>2026-03-22T09:09:49.14Z</time></trkpt><trkpt lat="43.9511982" lon="12.3949353"><ele>233.0</ele><time>2026-03-22T09:09:50.104Z</time></trkpt><trkpt lat="43.9512916" lon="12.3950023"><ele>232.0</ele><time>2026-03-22T09:09:51.12Z</time></trkpt><trkpt lat="43.9513807" lon="12.3950971"><ele>231.0</ele><time>2026-03-22T09:09:52.103Z</time></trkpt><trkpt lat="43.9514762" lon="12.3952025"><ele>230.0</ele><time>2026-03-22T09:09:53.135Z</time></trkpt><trkpt lat="43.9515717" lon="12.395303"><ele>230.0</ele><time>2026-03-22T09:09:54.135Z</time></trkpt><trkpt lat="43.9516639" lon="12.3954043"><ele>230.0</ele><time>2026-03-22T09:09:55.101Z</time></trkpt><trkpt lat="43.9517655" lon="12.3955063"><ele>230.0</ele><time>2026-03-22T09:09:56.132Z</time></trkpt><trkpt lat="43.9518612" lon="12.3956024"><ele>230.0</ele><time>2026-03-22T09:09:57.133Z</time></trkpt><trkpt lat="43.9519636" lon="12.3957124"><ele>228.25</ele><time>2026-03-22T09:09:58.124Z</time></trkpt><trkpt lat="43.9520718" lon="12.3958183"><ele>226.5</ele><time>2026-03-22T09:09:59.151Z</time></trkpt><trkpt lat="43.9521762" lon="12.3959172"><ele>224.75</ele><time>2026-03-22T09:10:00.069Z</time></trkpt><trkpt lat="43.9522798" lon="12.3960252"><ele>223.0</ele><time>2026-03-22T09:10:01.135Z</time></trkpt><trkpt lat="43.952385" lon="12.3961292"><ele>223.0</ele><time>2026-03-22T09:10:02.174Z</time></trkpt><trkpt lat="43.9524969" lon="12.3962452"><ele>223.0</ele><time>2026-03-22T09:10:03.143Z</time></trkpt><trkpt lat="43.9526037" lon="12.3963505"><ele>223.0</ele><time>2026-03-22T09:10:04.14Z</time></trkpt><trkpt lat="43.9527135" lon="12.3964517"><ele>223.0</ele><time>2026-03-22T09:10:05.108Z</time></trkpt><trkpt lat="43.952815" lon="12.3965497"><ele>220.60000000000002</ele><time>2026-03-22T09:10:06.126Z</time></trkpt><trkpt lat="43.9529125" lon="12.3966507"><ele>218.20000000000002</ele><time>2026-03-22T09:10:07.092Z</time></trkpt><trkpt lat="43.9529974" lon="12.3967369"><ele>215.8</ele><time>2026-03-22T09:10:08.103Z</time></trkpt><trkpt lat="43.9530788" lon="12.3967939"><ele>213.4</ele><time>2026-03-22T09:10:09.101Z</time></trkpt><trkpt lat="43.9531562" lon="12.3968409"><ele>211.0</ele><time>2026-03-22T09:10:10.109Z</time></trkpt><trkpt lat="43.9532381" lon="12.3968281"><ele>211.0</ele><time>2026-03-22T09:10:11.119Z</time></trkpt><trkpt lat="43.9533033" lon="12.3967411"><ele>211.0</ele><time>2026-03-22T09:10:12.137Z</time></trkpt><trkpt lat="43.9533795" lon="12.3966541"><ele>211.0</ele><time>2026-03-22T09:10:13.138Z</time></trkpt><trkpt lat="43.9534564" lon="12.3965656"><ele>211.0</ele><time>2026-03-22T09:10:14.141Z</time></trkpt><trkpt lat="43.953535" lon="12.3964641"><ele>211.0</ele><time>2026-03-22T09:10:15.133Z</time></trkpt><trkpt lat="43.9536183" lon="12.3963582"><ele>206.75</ele><time>2026-03-22T09:10:16.109Z</time></trkpt><trkpt lat="43.9536943" lon="12.3962398"><ele>202.5</ele><time>2026-03-22T09:10:17.143Z</time></trkpt><trkpt lat="43.9537733" lon="12.3961195"><ele>198.25</ele><time>2026-03-22T09:10:18.147Z</time></trkpt><trkpt lat="43.9538573" lon="12.3959894"><ele>194.0</ele><time>2026-03-22T09:10:19.123Z</time></trkpt><trkpt lat="43.9539455" lon="12.3958702"><ele>194.0</ele><time>2026-03-22T09:10:20.119Z</time></trkpt><trkpt lat="43.9540293" lon="12.3957472"><ele>194.0</ele><time>2026-03-22T09:10:21.154Z</time></trkpt><trkpt lat="43.9541089" lon="12.3956404"><ele>194.0</ele><time>2026-03-22T09:10:22.12Z</time></trkpt><trkpt lat="43.9541843" lon="12.3955555"><ele>194.0</ele><time>2026-03-22T09:10:23.128Z</time></trkpt><trkpt lat="43.9542621" lon="12.3955021"><ele>194.0</ele><time>2026-03-22T09:10:24.126Z</time></trkpt><trkpt lat="43.9543324" lon="12.3954845"><ele>191.00000000000003</ele><time>2026-03-22T09:10:25.113Z</time></trkpt><trkpt lat="43.9543985" lon="12.3955037"><ele>188.0</ele><time>2026-03-22T09:10:26.151Z</time></trkpt><trkpt lat="43.9544525" lon="12.3955798"><ele>185.0</ele><time>2026-03-22T09:10:27.111Z</time></trkpt><trkpt lat="43.9544783" lon="12.3956904"><ele>182.0</ele><time>2026-03-22T09:10:28.126Z</time></trkpt><trkpt lat="43.9545085" lon="12.3958041"><ele>179.0</ele><time>2026-03-22T09:10:29.126Z</time></trkpt><trkpt lat="43.9545497" lon="12.3958725"><ele>176.0</ele><time>2026-03-22T09:10:30.081Z</time></trkpt><trkpt lat="43.9546185" lon="12.3958934"><ele>176.0</ele><time>2026-03-22T09:10:31.109Z</time></trkpt><trkpt lat="43.9547225" lon="12.3957586"><ele>176.0</ele><time>2026-03-22T09:10:33.138Z</time></trkpt><trkpt lat="43.9547492" lon="12.3956456"><ele>176.0</ele><time>2026-03-22T09:10:34.136Z</time></trkpt><trkpt lat="43.9547556" lon="12.3955192"><ele>176.0</ele><time>2026-03-22T09:10:35.13Z</time></trkpt><trkpt lat="43.9547695" lon="12.395397"><ele>176.0</ele><time>2026-03-22T09:10:36.134Z</time></trkpt><trkpt lat="43.9547866" lon="12.395276"><ele>175.20000000000002</ele><time>2026-03-22T09:10:37.133Z</time></trkpt><trkpt lat="43.9548258" lon="12.3951621"><ele>174.4</ele><time>2026-03-22T09:10:38.138Z</time></trkpt><trkpt lat="43.954893" lon="12.3950484"><ele>173.6</ele><time>2026-03-22T09:10:39.121Z</time></trkpt><trkpt lat="43.954983" lon="12.3949481"><ele>172.8</ele><time>2026-03-22T09:10:40.102Z</time></trkpt><trkpt lat="43.9550958" lon="12.3948619"><ele>172.0</ele><time>2026-03-22T09:10:41.102Z</time></trkpt><trkpt lat="43.955193" lon="12.3947604"><ele>168.0</ele><time>2026-03-22T09:10:42.127Z</time></trkpt><trkpt lat="43.955294" lon="12.3946527"><ele>164.0</ele><time>2026-03-22T09:10:43.108Z</time></trkpt><trkpt lat="43.9553936" lon="12.3945433"><ele>160.0</ele><time>2026-03-22T09:10:44.14Z</time></trkpt><trkpt lat="43.9554793" lon="12.3944183"><ele>156.0</ele><time>2026-03-22T09:10:45.121Z</time></trkpt><trkpt lat="43.9555561" lon="12.3942983"><ele>156.0</ele><time>2026-03-22T09:10:46.127Z</time></trkpt><trkpt lat="43.9556341" lon="12.3941667"><ele>156.0</ele><time>2026-03-22T09:10:47.135Z</time></trkpt><trkpt lat="43.9557375" lon="12.3940655"><ele>156.0</ele><time>2026-03-22T09:10:48.131Z</time></trkpt><trkpt lat="43.9558472" lon="12.3939907"><ele>156.0</ele><time>2026-03-22T09:10:49.125Z</time></trkpt><trkpt lat="43.9559634" lon="12.393918"><ele>154.25</ele><time>2026-03-22T09:10:50.135Z</time></trkpt><trkpt lat="43.9560811" lon="12.3938482"><ele>152.5</ele><time>2026-03-22T09:10:51.124Z</time></trkpt><trkpt lat="43.9561941" lon="12.393774"><ele>150.75</ele><time>2026-03-22T09:10:52.133Z</time></trkpt><trkpt lat="43.9563116" lon="12.3937008"><ele>149.0</ele><time>2026-03-22T09:10:53.127Z</time></trkpt><trkpt lat="43.9564289" lon="12.3936202"><ele>148.8</ele><time>2026-03-22T09:10:54.141Z</time></trkpt><trkpt lat="43.9565423" lon="12.3935688"><ele>148.60000000000002</ele><time>2026-03-22T09:10:55.136Z</time></trkpt><trkpt lat="43.956639" lon="12.3935399"><ele>148.4</ele><time>2026-03-22T09:10:56.129Z</time></trkpt><trkpt lat="43.9567312" lon="12.3935657"><ele>148.20000000000002</ele><time>2026-03-22T09:10:57.139Z</time></trkpt><trkpt lat="43.9568089" lon="12.3936287"><ele>148.0</ele><time>2026-03-22T09:10:58.145Z</time></trkpt><trkpt lat="43.9568729" lon="12.3937422"><ele>146.8</ele><time>2026-03-22T09:10:59.131Z</time></trkpt><trkpt lat="43.9569077" lon="12.3938734"><ele>145.60000000000002</ele><time>2026-03-22T09:11:00.112Z</time></trkpt><trkpt lat="43.9569363" lon="12.3940108"><ele>144.39999999999998</ele><time>2026-03-22T09:11:01.107Z</time></trkpt><trkpt lat="43.9569553" lon="12.3941481"><ele>143.2</ele><time>2026-03-22T09:11:02.14Z</time></trkpt><trkpt lat="43.9569851" lon="12.394269"><ele>142.0</ele><time>2026-03-22T09:11:03.135Z</time></trkpt><trkpt lat="43.9570194" lon="12.3943889"><ele>142.0</ele><time>2026-03-22T09:11:04.128Z</time></trkpt><trkpt lat="43.9570426" lon="12.3945143"><ele>142.0</ele><time>2026-03-22T09:11:05.119Z</time></trkpt><trkpt lat="43.9570649" lon="12.394615"><ele>142.0</ele><time>2026-03-22T09:11:06.123Z</time></trkpt><trkpt lat="43.9570953" lon="12.3947241"><ele>142.0</ele><time>2026-03-22T09:11:07.103Z</time></trkpt><trkpt lat="43.9571216" lon="12.3948312"><ele>142.0</ele><time>2026-03-22T09:11:08.133Z</time></trkpt><trkpt lat="43.9571488" lon="12.3949314"><ele>142.0</ele><time>2026-03-22T09:11:09.127Z</time></trkpt><trkpt lat="43.9571709" lon="12.3950354"><ele>142.33333333333334</ele><time>2026-03-22T09:11:10.142Z</time></trkpt><trkpt lat="43.9571955" lon="12.3951493"><ele>142.66666666666669</ele><time>2026-03-22T09:11:11.137Z</time></trkpt><trkpt lat="43.9572249" lon="12.3952479"><ele>143.0</ele><time>2026-03-22T09:11:12.095Z</time></trkpt><trkpt lat="43.9572539" lon="12.3953514"><ele>143.33333333333334</ele><time>2026-03-22T09:11:13.134Z</time></trkpt><trkpt lat="43.9572874" lon="12.395452"><ele>143.66666666666666</ele><time>2026-03-22T09:11:14.142Z</time></trkpt><trkpt lat="43.9573129" lon="12.3955539"><ele>144.0</ele><time>2026-03-22T09:11:15.151Z</time></trkpt><trkpt lat="43.9573378" lon="12.3956607"><ele>144.14285714285717</ele><time>2026-03-22T09:11:16.133Z</time></trkpt><trkpt lat="43.9573659" lon="12.3957581"><ele>144.28571428571428</ele><time>2026-03-22T09:11:17.103Z</time></trkpt><trkpt lat="43.9573919" lon="12.395856"><ele>144.42857142857144</ele><time>2026-03-22T09:11:18.13Z</time></trkpt><trkpt lat="43.9574111" lon="12.3959471"><ele>144.57142857142858</ele><time>2026-03-22T09:11:19.131Z</time></trkpt><trkpt lat="43.9574368" lon="12.3960388"><ele>144.71428571428572</ele><time>2026-03-22T09:11:20.147Z</time></trkpt><trkpt lat="43.9574613" lon="12.396138"><ele>144.85714285714286</ele><time>2026-03-22T09:11:21.142Z</time></trkpt><trkpt lat="43.9574832" lon="12.3962375"><ele>145.0</ele><time>2026-03-22T09:11:22.138Z</time></trkpt><trkpt lat="43.9575122" lon="12.3963308"><ele>144.33333333333334</ele><time>2026-03-22T09:11:23.139Z</time></trkpt><trkpt lat="43.9575429" lon="12.396426"><ele>143.66666666666669</ele><time>2026-03-22T09:11:24.125Z</time></trkpt><trkpt lat="43.9575683" lon="12.3965219"><ele>143.0</ele><time>2026-03-22T09:11:25.129Z</time></trkpt><trkpt lat="43.9575941" lon="12.3966244"><ele>142.33333333333334</ele><time>2026-03-22T09:11:26.125Z</time></trkpt><trkpt lat="43.9576195" lon="12.3967278"><ele>141.66666666666666</ele><time>2026-03-22T09:11:27.129Z</time></trkpt><trkpt lat="43.9576449" lon="12.3968323"><ele>141.0</ele><time>2026-03-22T09:11:28.124Z</time></trkpt><trkpt lat="43.9576705" lon="12.3969362"><ele>141.0</ele><time>2026-03-22T09:11:29.145Z</time></trkpt><trkpt lat="43.9576969" lon="12.3970404"><ele>141.0</ele><time>2026-03-22T09:11:30.139Z</time></trkpt><trkpt lat="43.9577274" lon="12.3971479"><ele>141.0</ele><time>2026-03-22T09:11:31.121Z</time></trkpt><trkpt lat="43.9577501" lon="12.3972618"><ele>141.0</ele><time>2026-03-22T09:11:32.135Z</time></trkpt><trkpt lat="43.9577599" lon="12.3973743"><ele>141.0</ele><time>2026-03-22T09:11:33.13Z</time></trkpt><trkpt lat="43.957764" lon="12.3974887"><ele>141.0</ele><time>2026-03-22T09:11:34.124Z</time></trkpt><trkpt lat="43.9577691" lon="12.3976117"><ele>141.16666666666666</ele><time>2026-03-22T09:11:35.104Z</time></trkpt><trkpt lat="43.9577719" lon="12.3977358"><ele>141.33333333333334</ele><time>2026-03-22T09:11:36.152Z</time></trkpt><trkpt lat="43.9577659" lon="12.3978568"><ele>141.5</ele><time>2026-03-22T09:11:37.132Z</time></trkpt><trkpt lat="43.957753" lon="12.3979795"><ele>141.66666666666669</ele><time>2026-03-22T09:11:38.138Z</time></trkpt><trkpt lat="43.9577441" lon="12.3981056"><ele>141.83333333333334</ele><time>2026-03-22T09:11:39.131Z</time></trkpt><trkpt lat="43.9577324" lon="12.3982262"><ele>142.0</ele><time>2026-03-22T09:11:40.141Z</time></trkpt><trkpt lat="43.9577133" lon="12.398341"><ele>141.5</ele><time>2026-03-22T09:11:41.136Z</time></trkpt><trkpt lat="43.9576963" lon="12.3984623"><ele>141.0</ele><time>2026-03-22T09:11:42.165Z</time></trkpt><trkpt lat="43.9576719" lon="12.3985763"><ele>140.5</ele><time>2026-03-22T09:11:43.136Z</time></trkpt><trkpt lat="43.957643" lon="12.3986962"><ele>140.0</ele><time>2026-03-22T09:11:44.148Z</time></trkpt><trkpt lat="43.9576098" lon="12.3988122"><ele>139.5</ele><time>2026-03-22T09:11:45.147Z</time></trkpt><trkpt lat="43.9575718" lon="12.3989261"><ele>139.0</ele><time>2026-03-22T09:11:46.149Z</time></trkpt><trkpt lat="43.9575232" lon="12.3990375"><ele>138.6</ele><time>2026-03-22T09:11:47.1Z</time></trkpt><trkpt lat="43.9574724" lon="12.399151"><ele>138.2</ele><time>2026-03-22T09:11:48.125Z</time></trkpt><trkpt lat="43.957424" lon="12.3992553"><ele>137.79999999999998</ele><time>2026-03-22T09:11:49.148Z</time></trkpt><trkpt lat="43.9573601" lon="12.3993499"><ele>137.4</ele><time>2026-03-22T09:11:50.09Z</time></trkpt><trkpt lat="43.957303" lon="12.3994639"><ele>137.0</ele><time>2026-03-22T09:11:51.146Z</time></trkpt><trkpt lat="43.9572522" lon="12.3995812"><ele>136.16666666666666</ele><time>2026-03-22T09:11:52.159Z</time></trkpt><trkpt lat="43.9572007" lon="12.3996894"><ele>135.33333333333331</ele><time>2026-03-22T09:11:53.136Z</time></trkpt><trkpt lat="43.957154" lon="12.3997926"><ele>134.5</ele><time>2026-03-22T09:11:54.147Z</time></trkpt><trkpt lat="43.9571046" lon="12.3998829"><ele>133.66666666666666</ele><time>2026-03-22T09:11:55.124Z</time></trkpt><trkpt lat="43.9570566" lon="12.3999753"><ele>132.83333333333334</ele><time>2026-03-22T09:11:56.134Z</time></trkpt><trkpt lat="43.9570095" lon="12.4000556"><ele>132.0</ele><time>2026-03-22T09:11:57.079Z</time></trkpt><trkpt lat="43.9569632" lon="12.4001373"><ele>132.0</ele><time>2026-03-22T09:11:58.088Z</time></trkpt><trkpt lat="43.956912" lon="12.4002119"><ele>132.0</ele><time>2026-03-22T09:11:59.116Z</time></trkpt><trkpt lat="43.9568597" lon="12.4002891"><ele>132.0</ele><time>2026-03-22T09:12:00.123Z</time></trkpt><trkpt lat="43.9568109" lon="12.4003587"><ele>132.0</ele><time>2026-03-22T09:12:01.104Z</time></trkpt><trkpt lat="43.9567371" lon="12.4004891"><ele>132.0</ele><time>2026-03-22T09:12:03.134Z</time></trkpt><trkpt lat="43.9566871" lon="12.4006257"><ele>132.79999999999998</ele><time>2026-03-22T09:12:05.08Z</time></trkpt><trkpt lat="43.9566354" lon="12.400759"><ele>133.6</ele><time>2026-03-22T09:12:07.128Z</time></trkpt><trkpt lat="43.9565899" lon="12.4008842"><ele>134.39999999999998</ele><time>2026-03-22T09:12:09.125Z</time></trkpt><trkpt lat="43.9565302" lon="12.4009891"><ele>135.2</ele><time>2026-03-22T09:12:11.135Z</time></trkpt><trkpt lat="43.9564649" lon="12.4011009"><ele>136.0</ele><time>2026-03-22T09:12:13.132Z</time></trkpt><trkpt lat="43.956422" lon="12.4011826"><ele>136.0</ele><time>2026-03-22T09:12:15.14Z</time></trkpt><trkpt lat="43.9563858" lon="12.4012857"><ele>136.0</ele><time>2026-03-22T09:12:17.12Z</time></trkpt><trkpt lat="43.9563449" lon="12.4014174"><ele>136.0</ele><time>2026-03-22T09:12:19.155Z</time></trkpt><trkpt lat="43.9563245" lon="12.4015354"><ele>136.0</ele><time>2026-03-22T09:12:21.139Z</time></trkpt><trkpt lat="43.9563119" lon="12.4016504"><ele>136.0</ele><time>2026-03-22T09:12:23.148Z</time></trkpt><trkpt lat="43.9563144" lon="12.401771"><ele>136.0</ele><time>2026-03-22T09:12:25.091Z</time></trkpt><trkpt lat="43.9563133" lon="12.401888"><ele>136.0</ele><time>2026-03-22T09:12:27.124Z</time></trkpt><trkpt lat="43.9563228" lon="12.4020063"><ele>136.0</ele><time>2026-03-22T09:12:29.13Z</time></trkpt><trkpt lat="43.9563298" lon="12.4021726"><ele>136.0</ele><time>2026-03-22T09:12:31.132Z</time></trkpt><trkpt lat="43.956328" lon="12.40231"><ele>136.0</ele><time>2026-03-22T09:12:33.125Z</time></trkpt><trkpt lat="43.9563237" lon="12.4024251"><ele>136.0</ele><time>2026-03-22T09:12:35.127Z</time></trkpt><trkpt lat="43.9563174" lon="12.402523"><ele>135.99999999999997</ele><time>2026-03-22T09:12:37.11Z</time></trkpt><trkpt lat="43.9563063" lon="12.4026098"><ele>136.0</ele><time>2026-03-22T09:12:39.138Z</time></trkpt><trkpt lat="43.9562872" lon="12.4026942"><ele>136.0</ele><time>2026-03-22T09:12:41.144Z</time></trkpt><trkpt lat="43.956251" lon="12.4028135"><ele>136.0</ele><time>2026-03-22T09:12:44.087Z</time></trkpt><trkpt lat="43.9562088" lon="12.4028855"><ele>136.0</ele><time>2026-03-22T09:12:46.147Z</time></trkpt><trkpt lat="43.9561562" lon="12.4029634"><ele>135.99999999999997</ele><time>2026-03-22T09:12:48.137Z</time></trkpt><trkpt lat="43.9561111" lon="12.4030577"><ele>136.0</ele><time>2026-03-22T09:12:50.097Z</time></trkpt><trkpt lat="43.9560353" lon="12.4031713"><ele>136.2</ele><time>2026-03-22T09:12:52.138Z</time></trkpt><trkpt lat="43.9559504" lon="12.4033087"><ele>136.39999999999998</ele><time>2026-03-22T09:12:54.153Z</time></trkpt><trkpt lat="43.9559064" lon="12.4033863"><ele>136.6</ele><time>2026-03-22T09:12:55.129Z</time></trkpt><trkpt lat="43.9558496" lon="12.4034539"><ele>136.79999999999998</ele><time>2026-03-22T09:12:56.135Z</time></trkpt><trkpt lat="43.9557931" lon="12.4035163"><ele>137.0</ele><time>2026-03-22T09:12:57.13Z</time></trkpt><trkpt lat="43.9556944" lon="12.4035575"><ele>137.42857142857144</ele><time>2026-03-22T09:12:59.119Z</time></trkpt><trkpt lat="43.9556332" lon="12.4035833"><ele>137.85714285714286</ele><time>2026-03-22T09:13:01.119Z</time></trkpt><trkpt lat="43.955587" lon="12.4036434"><ele>138.28571428571428</ele><time>2026-03-22T09:13:13.132Z</time></trkpt><trkpt lat="43.9555401" lon="12.4037046"><ele>138.71428571428572</ele><time>2026-03-22T09:13:17.099Z</time></trkpt><trkpt lat="43.9554804" lon="12.403798"><ele>139.14285714285714</ele><time>2026-03-22T09:13:20.13Z</time></trkpt><trkpt lat="43.955436" lon="12.4038755"><ele>139.57142857142858</ele><time>2026-03-22T09:13:22.149Z</time></trkpt><trkpt lat="43.9554018" lon="12.4039535"><ele>140.0</ele><time>2026-03-22T09:13:24.145Z</time></trkpt><trkpt lat="43.9553647" lon="12.4040403"><ele>138.83333333333331</ele><time>2026-03-22T09:13:26.125Z</time></trkpt><trkpt lat="43.955346" lon="12.4041431"><ele>137.66666666666666</ele><time>2026-03-22T09:13:28.107Z</time></trkpt><trkpt lat="43.9553832" lon="12.4042542"><ele>136.5</ele><time>2026-03-22T09:13:30.136Z</time></trkpt><trkpt lat="43.9554183" lon="12.4043371"><ele>135.33333333333334</ele><time>2026-03-22T09:13:31.127Z</time></trkpt><trkpt lat="43.9554984" lon="12.4044523"><ele>134.16666666666669</ele><time>2026-03-22T09:13:33.09Z</time></trkpt><trkpt lat="43.9555285" lon="12.4045433"><ele>133.0</ele><time>2026-03-22T09:13:35.128Z</time></trkpt><trkpt lat="43.9555292" lon="12.4046401"><ele>133.0</ele><time>2026-03-22T09:13:38.138Z</time></trkpt><trkpt lat="43.9555051" lon="12.4047502"><ele>133.0</ele><time>2026-03-22T09:13:42.133Z</time></trkpt><trkpt lat="43.955569" lon="12.4048011"><ele>133.0</ele><time>2026-03-22T09:13:47.113Z</time></trkpt><trkpt lat="43.955578" lon="12.4047062"><ele>133.0</ele><time>2026-03-22T09:13:51.132Z</time></trkpt><trkpt lat="43.9555774" lon="12.4046169"><ele>133.0</ele><time>2026-03-22T09:13:54.144Z</time></trkpt><trkpt lat="43.9556191" lon="12.4045419"><ele>133.0</ele><time>2026-03-22T09:15:18.134Z</time></trkpt><trkpt lat="43.9556044" lon="12.4046352"><ele>133.0</ele><time>2026-03-22T09:15:27.124Z</time></trkpt><trkpt lat="43.955644" lon="12.4047059"><ele>133.0</ele><time>2026-03-22T09:15:29.106Z</time></trkpt><trkpt lat="43.955694" lon="12.404776"><ele>133.0</ele><time>2026-03-22T09:15:31.128Z</time></trkpt><trkpt lat="43.9557435" lon="12.4048418"><ele>133.0</ele><time>2026-03-22T09:15:33.163Z</time></trkpt><trkpt lat="43.9557833" lon="12.4049168"><ele>133.0</ele><time>2026-03-22T09:15:35.137Z</time></trkpt><trkpt lat="43.9558134" lon="12.405004"><ele>133.0</ele><time>2026-03-22T09:15:38.176Z</time></trkpt><trkpt lat="43.9558934" lon="12.4050464"><ele>133.0</ele><time>2026-03-22T09:15:42.068Z</time></trkpt><trkpt lat="43.9559605" lon="12.4050515"><ele>133.0</ele><time>2026-03-22T09:15:44.13Z</time></trkpt><trkpt lat="43.9560595" lon="12.4050961"><ele>133.0</ele><time>2026-03-22T09:15:47.121Z</time></trkpt><trkpt lat="43.9561404" lon="12.405134"><ele>133.0</ele><time>2026-03-22T09:15:49.149Z</time></trkpt><trkpt lat="43.9562338" lon="12.4051303"><ele>133.0</ele><time>2026-03-22T09:15:51.147Z</time></trkpt><trkpt lat="43.9563305" lon="12.405104"><ele>133.0</ele><time>2026-03-22T09:15:53.133Z</time></trkpt><trkpt lat="43.9564363" lon="12.4050821"><ele>133.0</ele><time>2026-03-22T09:15:55.141Z</time></trkpt><trkpt lat="43.956548" lon="12.4050621"><ele>133.0</ele><time>2026-03-22T09:15:57.162Z</time></trkpt><trkpt lat="43.9566622" lon="12.4050386"><ele>133.0</ele><time>2026-03-22T09:15:59.148Z</time></trkpt><trkpt lat="43.9567714" lon="12.4050305"><ele>133.0</ele><time>2026-03-22T09:16:01.098Z</time></trkpt><trkpt lat="43.9568874" lon="12.4050131"><ele>133.0</ele><time>2026-03-22T09:16:03.15Z</time></trkpt><trkpt lat="43.9570025" lon="12.4049862"><ele>132.8</ele><time>2026-03-22T09:16:05.135Z</time></trkpt><trkpt lat="43.9571206" lon="12.4049661"><ele>132.60000000000002</ele><time>2026-03-22T09:16:07.132Z</time></trkpt><trkpt lat="43.9571835" lon="12.4049543"><ele>132.39999999999998</ele><time>2026-03-22T09:16:08.147Z</time></trkpt><trkpt lat="43.9573002" lon="12.4049281"><ele>132.2</ele><time>2026-03-22T09:16:10.126Z</time></trkpt><trkpt lat="43.957423" lon="12.4049078"><ele>132.0</ele><time>2026-03-22T09:16:12.129Z</time></trkpt><trkpt lat="43.9575453" lon="12.4048724"><ele>132.0</ele><time>2026-03-22T09:16:14.069Z</time></trkpt><trkpt lat="43.9576642" lon="12.4048288"><ele>132.0</ele><time>2026-03-22T09:16:16.122Z</time></trkpt><trkpt lat="43.9577865" lon="12.4047826"><ele>132.0</ele><time>2026-03-22T09:16:18.082Z</time></trkpt><trkpt lat="43.9578981" lon="12.4047143"><ele>132.0</ele><time>2026-03-22T09:16:20.149Z</time></trkpt><trkpt lat="43.9580151" lon="12.404642"><ele>132.0</ele><time>2026-03-22T09:16:22.125Z</time></trkpt><trkpt lat="43.9580754" lon="12.404604"><ele>132.0</ele><time>2026-03-22T09:16:23.121Z</time></trkpt><trkpt lat="43.9581303" lon="12.4045585"><ele>132.0</ele><time>2026-03-22T09:16:24.121Z</time></trkpt><trkpt lat="43.9581861" lon="12.4045064"><ele>132.0</ele><time>2026-03-22T09:16:25.13Z</time></trkpt><trkpt lat="43.9582376" lon="12.4044541"><ele>132.0</ele><time>2026-03-22T09:16:26.134Z</time></trkpt><trkpt lat="43.9583356" lon="12.4043333"><ele>132.0</ele><time>2026-03-22T09:16:28.122Z</time></trkpt><trkpt lat="43.9583881" lon="12.4042695"><ele>133.75</ele><time>2026-03-22T09:16:29.135Z</time></trkpt><trkpt lat="43.958485" lon="12.4041535"><ele>135.5</ele><time>2026-03-22T09:16:31.14Z</time></trkpt><trkpt lat="43.9585738" lon="12.4040324"><ele>137.25</ele><time>2026-03-22T09:16:33.116Z</time></trkpt><trkpt lat="43.9586581" lon="12.4039001"><ele>139.0</ele><time>2026-03-22T09:16:35.126Z</time></trkpt><trkpt lat="43.9587281" lon="12.403765"><ele>139.0</ele><time>2026-03-22T09:16:37.157Z</time></trkpt><trkpt lat="43.9588009" lon="12.4036392"><ele>139.0</ele><time>2026-03-22T09:16:39.1Z</time></trkpt><trkpt lat="43.9588594" lon="12.4035039"><ele>139.0</ele><time>2026-03-22T09:16:41.138Z</time></trkpt><trkpt lat="43.9588939" lon="12.4034299"><ele>139.0</ele><time>2026-03-22T09:16:42.119Z</time></trkpt><trkpt lat="43.9589441" lon="12.4032847"><ele>139.0</ele><time>2026-03-22T09:16:44.119Z</time></trkpt><trkpt lat="43.9589912" lon="12.4031407"><ele>139.0</ele><time>2026-03-22T09:16:46.111Z</time></trkpt><trkpt lat="43.9590379" lon="12.4029983"><ele>139.0</ele><time>2026-03-22T09:16:48.131Z</time></trkpt><trkpt lat="43.9590789" lon="12.4028621"><ele>139.0</ele><time>2026-03-22T09:16:50.133Z</time></trkpt><trkpt lat="43.959126" lon="12.4027322"><ele>139.0</ele><time>2026-03-22T09:16:52.146Z</time></trkpt><trkpt lat="43.9591632" lon="12.4025972"><ele>139.0</ele><time>2026-03-22T09:16:54.129Z</time></trkpt><trkpt lat="43.9592065" lon="12.4024632"><ele>138.8</ele><time>2026-03-22T09:16:56.113Z</time></trkpt><trkpt lat="43.9592453" lon="12.4023368"><ele>138.60000000000002</ele><time>2026-03-22T09:16:58.133Z</time></trkpt><trkpt lat="43.9592958" lon="12.4022416"><ele>138.4</ele><time>2026-03-22T09:17:00.15Z</time></trkpt><trkpt lat="43.9593761" lon="12.4021559"><ele>138.20000000000002</ele><time>2026-03-22T09:17:02.147Z</time></trkpt><trkpt lat="43.9594794" lon="12.4021111"><ele>138.0</ele><time>2026-03-22T09:17:04.133Z</time></trkpt><trkpt lat="43.959579" lon="12.402119"><ele>138.0</ele><time>2026-03-22T09:17:06.129Z</time></trkpt><trkpt lat="43.9596831" lon="12.4021554"><ele>138.0</ele><time>2026-03-22T09:17:08.131Z</time></trkpt><trkpt lat="43.9597816" lon="12.4021907"><ele>138.0</ele><time>2026-03-22T09:17:10.13Z</time></trkpt><trkpt lat="43.9598846" lon="12.4022244"><ele>138.0</ele><time>2026-03-22T09:17:12.127Z</time></trkpt><trkpt lat="43.9599825" lon="12.4022582"><ele>138.0</ele><time>2026-03-22T09:17:14.13Z</time></trkpt><trkpt lat="43.9600851" lon="12.4022729"><ele>138.4</ele><time>2026-03-22T09:17:16.133Z</time></trkpt><trkpt lat="43.9602002" lon="12.4022789"><ele>138.8</ele><time>2026-03-22T09:17:18.124Z</time></trkpt><trkpt lat="43.9603064" lon="12.4022758"><ele>139.2</ele><time>2026-03-22T09:17:20.141Z</time></trkpt><trkpt lat="43.9604175" lon="12.4022477"><ele>139.6</ele><time>2026-03-22T09:17:22.152Z</time></trkpt><trkpt lat="43.9605212" lon="12.4022204"><ele>140.0</ele><time>2026-03-22T09:17:24.157Z</time></trkpt><trkpt lat="43.9606354" lon="12.4021845"><ele>139.6</ele><time>2026-03-22T09:17:26.142Z</time></trkpt><trkpt lat="43.9607384" lon="12.4021256"><ele>139.2</ele><time>2026-03-22T09:17:28.141Z</time></trkpt><trkpt lat="43.9608461" lon="12.4020728"><ele>138.8</ele><time>2026-03-22T09:17:30.161Z</time></trkpt><trkpt lat="43.9609486" lon="12.4020386"><ele>138.4</ele><time>2026-03-22T09:17:32.145Z</time></trkpt><trkpt lat="43.9610021" lon="12.4020944"><ele>138.0</ele><time>2026-03-22T09:17:34.124Z</time></trkpt><trkpt lat="43.9610016" lon="12.4021883"><ele>138.0</ele><time>2026-03-22T09:17:37.131Z</time></trkpt><trkpt lat="43.9610015" lon="12.4022791"><ele>138.0</ele><time>2026-03-22T09:17:41.142Z</time></trkpt><trkpt lat="43.960986" lon="12.4023832"><ele>138.0</ele><time>2026-03-22T09:17:46.13Z</time></trkpt><trkpt lat="43.9609823" lon="12.4024867"><ele>138.0</ele><time>2026-03-22T09:17:51.134Z</time></trkpt><trkpt lat="43.9609555" lon="12.4025768"><ele>138.0</ele><time>2026-03-22T09:17:56.122Z</time></trkpt><trkpt lat="43.9609518" lon="12.4026686"><ele>138.0</ele><time>2026-03-22T09:18:00.127Z</time></trkpt><trkpt lat="43.9609485" lon="12.4027616"><ele>138.0</ele><time>2026-03-22T09:18:04.12Z</time></trkpt><trkpt lat="43.9609455" lon="12.4028697"><ele>138.0</ele><time>2026-03-22T09:18:08.137Z</time></trkpt><trkpt lat="43.960968" lon="12.402975"><ele>138.0</ele><time>2026-03-22T09:18:12.115Z</time></trkpt><trkpt lat="43.9609773" lon="12.4030763"><ele>138.0</ele><time>2026-03-22T09:18:16.14Z</time></trkpt><trkpt lat="43.9609879" lon="12.403178"><ele>138.0</ele><time>2026-03-22T09:18:21.155Z</time></trkpt><trkpt lat="43.9609755" lon="12.4032687"><ele>138.0</ele><time>2026-03-22T09:18:25.144Z</time></trkpt><trkpt lat="43.9609603" lon="12.4033622"><ele>138.0</ele><time>2026-03-22T09:18:29.109Z</time></trkpt><trkpt lat="43.9609409" lon="12.4034709"><ele>138.0</ele><time>2026-03-22T09:18:33.146Z</time></trkpt><trkpt lat="43.9609176" lon="12.403554"><ele>138.71428571428572</ele><time>2026-03-22T09:18:37.095Z</time></trkpt><trkpt lat="43.9609119" lon="12.4036536"><ele>139.42857142857144</ele><time>2026-03-22T09:18:41.139Z</time></trkpt><trkpt lat="43.9608987" lon="12.4037554"><ele>140.14285714285714</ele><time>2026-03-22T09:18:45.121Z</time></trkpt><trkpt lat="43.9608914" lon="12.4038566"><ele>140.85714285714286</ele><time>2026-03-22T09:18:50.138Z</time></trkpt><trkpt lat="43.9608809" lon="12.4039475"><ele>141.57142857142856</ele><time>2026-03-22T09:18:54.132Z</time></trkpt><trkpt lat="43.9608781" lon="12.4040352"><ele>142.28571428571428</ele><time>2026-03-22T09:18:58.144Z</time></trkpt><trkpt lat="43.9608642" lon="12.404133"><ele>143.0</ele><time>2026-03-22T09:19:02.128Z</time></trkpt><trkpt lat="43.9608608" lon="12.4042233"><ele>144.14285714285714</ele><time>2026-03-22T09:19:06.16Z</time></trkpt><trkpt lat="43.960865" lon="12.4043332"><ele>145.28571428571428</ele><time>2026-03-22T09:19:10.136Z</time></trkpt><trkpt lat="43.9608816" lon="12.4044279"><ele>146.42857142857144</ele><time>2026-03-22T09:19:14.141Z</time></trkpt><trkpt lat="43.9608818" lon="12.4045412"><ele>147.57142857142856</ele><time>2026-03-22T09:19:19.133Z</time></trkpt><trkpt lat="43.9608749" lon="12.4046461"><ele>148.71428571428572</ele><time>2026-03-22T09:19:23.115Z</time></trkpt><trkpt lat="43.9608732" lon="12.4047419"><ele>149.85714285714286</ele><time>2026-03-22T09:19:27.104Z</time></trkpt><trkpt lat="43.9608613" lon="12.4048418"><ele>151.0</ele><time>2026-03-22T09:19:31.124Z</time></trkpt><trkpt lat="43.9608559" lon="12.4049445"><ele>152.57142857142858</ele><time>2026-03-22T09:19:35.135Z</time></trkpt><trkpt lat="43.9608544" lon="12.4050339"><ele>154.14285714285714</ele><time>2026-03-22T09:19:39.127Z</time></trkpt><trkpt lat="43.9608526" lon="12.4051404"><ele>155.71428571428572</ele><time>2026-03-22T09:19:43.161Z</time></trkpt><trkpt lat="43.9608522" lon="12.4052457"><ele>157.28571428571428</ele><time>2026-03-22T09:19:47.148Z</time></trkpt><trkpt lat="43.9608582" lon="12.4053531"><ele>158.85714285714286</ele><time>2026-03-22T09:19:51.083Z</time></trkpt><trkpt lat="43.9608439" lon="12.4054577"><ele>160.42857142857144</ele><time>2026-03-22T09:19:55.12Z</time></trkpt><trkpt lat="43.9608448" lon="12.4055591"><ele>162.0</ele><time>2026-03-22T09:19:59.142Z</time></trkpt><trkpt lat="43.9608298" lon="12.4056531"><ele>162.71428571428572</ele><time>2026-03-22T09:20:03.143Z</time></trkpt><trkpt lat="43.9608253" lon="12.4057577"><ele>163.42857142857142</ele><time>2026-03-22T09:20:07.151Z</time></trkpt><trkpt lat="43.9608168" lon="12.4058524"><ele>164.14285714285714</ele><time>2026-03-22T09:20:11.108Z</time></trkpt><trkpt lat="43.9608133" lon="12.4059584"><ele>164.85714285714286</ele><time>2026-03-22T09:20:16.147Z</time></trkpt><trkpt lat="43.9608071" lon="12.4060582"><ele>165.57142857142858</ele><time>2026-03-22T09:20:20.122Z</time></trkpt><trkpt lat="43.9608122" lon="12.4061562"><ele>166.28571428571428</ele><time>2026-03-22T09:20:23.154Z</time></trkpt><trkpt lat="43.9608115" lon="12.4062556"><ele>167.0</ele><time>2026-03-22T09:20:26.114Z</time></trkpt><trkpt lat="43.9607857" lon="12.4063606"><ele>168.0</ele><time>2026-03-22T09:20:30.141Z</time></trkpt><trkpt lat="43.9607453" lon="12.406442"><ele>169.0</ele><time>2026-03-22T09:20:34.132Z</time></trkpt><trkpt lat="43.9607009" lon="12.4065321"><ele>170.0</ele><time>2026-03-22T09:20:38.129Z</time></trkpt><trkpt lat="43.9606678" lon="12.4066291"><ele>171.0</ele><time>2026-03-22T09:20:43.138Z</time></trkpt><trkpt lat="43.9606369" lon="12.4067075"><ele>172.0</ele><time>2026-03-22T09:20:47.137Z</time></trkpt><trkpt lat="43.9606162" lon="12.4067921"><ele>173.0</ele><time>2026-03-22T09:20:51.138Z</time></trkpt><trkpt lat="43.9606083" lon="12.4068857"><ele>174.0</ele><time>2026-03-22T09:20:55.109Z</time></trkpt><trkpt lat="43.960615" lon="12.4069927"><ele>174.0</ele><time>2026-03-22T09:20:59.118Z</time></trkpt><trkpt lat="43.9606242" lon="12.4070857"><ele>174.0</ele><time>2026-03-22T09:21:03.133Z</time></trkpt><trkpt lat="43.9606459" lon="12.4071915"><ele>174.0</ele><time>2026-03-22T09:21:08.134Z</time></trkpt><trkpt lat="43.9606637" lon="12.4072779"><ele>174.0</ele><time>2026-03-22T09:21:12.109Z</time></trkpt><trkpt lat="43.9606754" lon="12.4073651"><ele>174.0</ele><time>2026-03-22T09:21:17.131Z</time></trkpt><trkpt lat="43.9606816" lon="12.4074729"><ele>174.0</ele><time>2026-03-22T09:21:22.136Z</time></trkpt><trkpt lat="43.9606787" lon="12.4075616"><ele>174.0</ele><time>2026-03-22T09:21:29.108Z</time></trkpt><trkpt lat="43.9606597" lon="12.4076537"><ele>175.28571428571428</ele><time>2026-03-22T09:21:35.104Z</time></trkpt><trkpt lat="43.9606594" lon="12.4077553"><ele>176.57142857142858</ele><time>2026-03-22T09:21:41.139Z</time></trkpt><trkpt lat="43.9606554" lon="12.4078594"><ele>177.85714285714286</ele><time>2026-03-22T09:21:47.125Z</time></trkpt><trkpt lat="43.960665" lon="12.4079468"><ele>179.14285714285714</ele><time>2026-03-22T09:21:52.092Z</time></trkpt><trkpt lat="43.9606847" lon="12.4080391"><ele>180.42857142857144</ele><time>2026-03-22T09:21:57.131Z</time></trkpt><trkpt lat="43.9607102" lon="12.4081313"><ele>181.71428571428572</ele><time>2026-03-22T09:22:01.114Z</time></trkpt><trkpt lat="43.9607363" lon="12.4082135"><ele>183.0</ele><time>2026-03-22T09:22:05.137Z</time></trkpt><trkpt lat="43.9607704" lon="12.4083043"><ele>184.0</ele><time>2026-03-22T09:22:10.12Z</time></trkpt><trkpt lat="43.9607989" lon="12.4083904"><ele>185.0</ele><time>2026-03-22T09:22:15.109Z</time></trkpt><trkpt lat="43.9608432" lon="12.4084646"><ele>186.0</ele><time>2026-03-22T09:22:21.145Z</time></trkpt><trkpt lat="43.9608997" lon="12.4085333"><ele>187.0</ele><time>2026-03-22T09:22:26.149Z</time></trkpt><trkpt lat="43.9609375" lon="12.4086208"><ele>188.0</ele><time>2026-03-22T09:22:32.128Z</time></trkpt><trkpt lat="43.960977" lon="12.4087051"><ele>189.0</ele><time>2026-03-22T09:22:39.134Z</time></trkpt><trkpt lat="43.9609875" lon="12.4088006"><ele>190.0</ele><time>2026-03-22T09:22:45.145Z</time></trkpt><trkpt lat="43.9609924" lon="12.4088882"><ele>191.42857142857144</ele><time>2026-03-22T09:22:50.15Z</time></trkpt><trkpt lat="43.9609906" lon="12.4089821"><ele>192.85714285714286</ele><time>2026-03-22T09:22:56.154Z</time></trkpt><trkpt lat="43.9609808" lon="12.409078"><ele>194.28571428571428</ele><time>2026-03-22T09:23:02.15Z</time></trkpt><trkpt lat="43.9609905" lon="12.4091855"><ele>195.71428571428572</ele><time>2026-03-22T09:23:08.146Z</time></trkpt><trkpt lat="43.9609948" lon="12.4092762"><ele>197.14285714285714</ele><time>2026-03-22T09:23:13.123Z</time></trkpt><trkpt lat="43.9610105" lon="12.4093672"><ele>198.57142857142858</ele><time>2026-03-22T09:23:18.12Z</time></trkpt><trkpt lat="43.9610308" lon="12.409457"><ele>200.0</ele><time>2026-03-22T09:23:24.149Z</time></trkpt><trkpt lat="43.9610561" lon="12.4095551"><ele>200.00000000000003</ele><time>2026-03-22T09:23:30.137Z</time></trkpt><trkpt lat="43.9610694" lon="12.4096481"><ele>200.0</ele><time>2026-03-22T09:23:35.131Z</time></trkpt><trkpt lat="43.9610749" lon="12.4097392"><ele>200.0</ele><time>2026-03-22T09:23:39.142Z</time></trkpt><trkpt lat="43.9610715" lon="12.4098432"><ele>200.0</ele><time>2026-03-22T09:23:43.127Z</time></trkpt><trkpt lat="43.9610724" lon="12.4099463"><ele>200.0</ele><time>2026-03-22T09:23:47.131Z</time></trkpt><trkpt lat="43.9610548" lon="12.4100307"><ele>200.00000000000003</ele><time>2026-03-22T09:23:51.124Z</time></trkpt><trkpt lat="43.9610314" lon="12.4101189"><ele>200.0</ele><time>2026-03-22T09:23:55.139Z</time></trkpt><trkpt lat="43.9610129" lon="12.4102231"><ele>200.42857142857144</ele><time>2026-03-22T09:24:00.133Z</time></trkpt><trkpt lat="43.9609972" lon="12.4103207"><ele>200.85714285714286</ele><time>2026-03-22T09:24:05.092Z</time></trkpt><trkpt lat="43.9609891" lon="12.410409"><ele>201.28571428571428</ele><time>2026-03-22T09:24:10.145Z</time></trkpt><trkpt lat="43.9609879" lon="12.4105067"><ele>201.71428571428572</ele><time>2026-03-22T09:24:15.126Z</time></trkpt><trkpt lat="43.9609832" lon="12.4105982"><ele>202.14285714285714</ele><time>2026-03-22T09:24:20.133Z</time></trkpt><trkpt lat="43.9609805" lon="12.4106913"><ele>202.57142857142858</ele><time>2026-03-22T09:24:25.136Z</time></trkpt><trkpt lat="43.9609776" lon="12.4107971"><ele>203.0</ele><time>2026-03-22T09:24:30.142Z</time></trkpt><trkpt lat="43.9609846" lon="12.4109029"><ele>203.42857142857142</ele><time>2026-03-22T09:24:34.165Z</time></trkpt><trkpt lat="43.9609944" lon="12.4110017"><ele>203.85714285714286</ele><time>2026-03-22T09:24:38.106Z</time></trkpt><trkpt lat="43.9610096" lon="12.4110922"><ele>204.28571428571428</ele><time>2026-03-22T09:24:42.078Z</time></trkpt><trkpt lat="43.961002" lon="12.411198"><ele>204.71428571428572</ele><time>2026-03-22T09:24:48.076Z</time></trkpt><trkpt lat="43.9609738" lon="12.4112797"><ele>205.14285714285714</ele><time>2026-03-22T09:24:52.078Z</time></trkpt><trkpt lat="43.9609404" lon="12.4113543"><ele>205.57142857142856</ele><time>2026-03-22T09:24:55.08Z</time></trkpt><trkpt lat="43.960887" lon="12.411448"><ele>206.0</ele><time>2026-03-22T09:24:58.092Z</time></trkpt><trkpt lat="43.9608256" lon="12.4115458"><ele>208.7142857142857</ele><time>2026-03-22T09:25:01.103Z</time></trkpt><trkpt lat="43.9608111" lon="12.4116372"><ele>211.42857142857144</ele><time>2026-03-22T09:25:03.091Z</time></trkpt><trkpt lat="43.9607922" lon="12.4117255"><ele>214.14285714285717</ele><time>2026-03-22T09:25:05.082Z</time></trkpt><trkpt lat="43.9607748" lon="12.4118124"><ele>216.85714285714286</ele><time>2026-03-22T09:25:07.094Z</time></trkpt><trkpt lat="43.9607537" lon="12.4119254"><ele>219.57142857142858</ele><time>2026-03-22T09:25:10.096Z</time></trkpt><trkpt lat="43.9607433" lon="12.412027"><ele>222.2857142857143</ele><time>2026-03-22T09:25:13.092Z</time></trkpt><trkpt lat="43.9607431" lon="12.4121338"><ele>225.00000000000003</ele><time>2026-03-22T09:25:16.096Z</time></trkpt><trkpt lat="43.9607466" lon="12.4122417"><ele>225.33333333333334</ele><time>2026-03-22T09:25:19.07Z</time></trkpt><trkpt lat="43.960746" lon="12.4123583"><ele>225.66666666666669</ele><time>2026-03-22T09:25:22.092Z</time></trkpt><trkpt lat="43.9607531" lon="12.4124805"><ele>226.0</ele><time>2026-03-22T09:25:25.091Z</time></trkpt><trkpt lat="43.9607564" lon="12.4125696"><ele>226.33333333333334</ele><time>2026-03-22T09:25:27.111Z</time></trkpt><trkpt lat="43.9607404" lon="12.4126985"><ele>226.66666666666669</ele><time>2026-03-22T09:25:30.134Z</time></trkpt><trkpt lat="43.9607176" lon="12.4128152"><ele>227.0</ele><time>2026-03-22T09:25:33.13Z</time></trkpt><trkpt lat="43.9606896" lon="12.4129146"><ele>227.42857142857144</ele><time>2026-03-22T09:25:36.108Z</time></trkpt><trkpt lat="43.9606416" lon="12.4130079"><ele>227.8571428571429</ele><time>2026-03-22T09:25:40.133Z</time></trkpt><trkpt lat="43.9606114" lon="12.4131026"><ele>228.28571428571428</ele><time>2026-03-22T09:25:45.134Z</time></trkpt><trkpt lat="43.9605903" lon="12.4132016"><ele>228.71428571428572</ele><time>2026-03-22T09:25:50.127Z</time></trkpt><trkpt lat="43.9605686" lon="12.4133005"><ele>229.14285714285714</ele><time>2026-03-22T09:25:54.153Z</time></trkpt><trkpt lat="43.9605396" lon="12.4133952"><ele>229.57142857142856</ele><time>2026-03-22T09:25:58.117Z</time></trkpt><trkpt lat="43.960521" lon="12.4134791"><ele>229.99999999999997</ele><time>2026-03-22T09:26:02.145Z</time></trkpt><trkpt lat="43.9604925" lon="12.4135619"><ele>229.99999999999997</ele><time>2026-03-22T09:26:06.144Z</time></trkpt><trkpt lat="43.9604638" lon="12.4136442"><ele>230.0</ele><time>2026-03-22T09:26:10.135Z</time></trkpt><trkpt lat="43.9604299" lon="12.4137352"><ele>229.99999999999997</ele><time>2026-03-22T09:26:15.131Z</time></trkpt><trkpt lat="43.9603873" lon="12.4138123"><ele>229.99999999999997</ele><time>2026-03-22T09:26:20.089Z</time></trkpt><trkpt lat="43.9603589" lon="12.4138983"><ele>230.0</ele><time>2026-03-22T09:26:25.145Z</time></trkpt><trkpt lat="43.960328" lon="12.4139827"><ele>229.99999999999997</ele><time>2026-03-22T09:26:31.11Z</time></trkpt><trkpt lat="43.96033" lon="12.4140806"><ele>229.99999999999997</ele><time>2026-03-22T09:26:37.156Z</time></trkpt><trkpt lat="43.9603185" lon="12.414179"><ele>230.85714285714283</ele><time>2026-03-22T09:26:42.141Z</time></trkpt><trkpt lat="43.9602989" lon="12.4142645"><ele>231.71428571428572</ele><time>2026-03-22T09:26:46.14Z</time></trkpt><trkpt lat="43.9602602" lon="12.4143448"><ele>232.57142857142856</ele><time>2026-03-22T09:26:50.116Z</time></trkpt><trkpt lat="43.9602084" lon="12.4144194"><ele>233.42857142857142</ele><time>2026-03-22T09:26:55.139Z</time></trkpt><trkpt lat="43.9601627" lon="12.4145055"><ele>234.28571428571428</ele><time>2026-03-22T09:27:00.103Z</time></trkpt><trkpt lat="43.9601132" lon="12.4145658"><ele>235.14285714285714</ele><time>2026-03-22T09:27:05.124Z</time></trkpt><trkpt lat="43.9600628" lon="12.4146436"><ele>236.0</ele><time>2026-03-22T09:27:11.139Z</time></trkpt><trkpt lat="43.9600206" lon="12.4147122"><ele>239.0</ele><time>2026-03-22T09:27:15.143Z</time></trkpt><trkpt lat="43.9599832" lon="12.4147953"><ele>242.0</ele><time>2026-03-22T09:27:19.123Z</time></trkpt><trkpt lat="43.9599578" lon="12.4148871"><ele>245.0</ele><time>2026-03-22T09:27:24.148Z</time></trkpt><trkpt lat="43.9599455" lon="12.4149746"><ele>248.0</ele><time>2026-03-22T09:27:29.129Z</time></trkpt><trkpt lat="43.9599556" lon="12.4150767"><ele>251.0</ele><time>2026-03-22T09:27:34.118Z</time></trkpt><trkpt lat="43.9599708" lon="12.4151697"><ele>254.0</ele><time>2026-03-22T09:27:39.145Z</time></trkpt><trkpt lat="43.9599848" lon="12.4152646"><ele>257.0</ele><time>2026-03-22T09:27:44.121Z</time></trkpt><trkpt lat="43.9599919" lon="12.4153534"><ele>257.0</ele><time>2026-03-22T09:27:50.134Z</time></trkpt><trkpt lat="43.9600156" lon="12.4154471"><ele>257.0</ele><time>2026-03-22T09:27:55.128Z</time></trkpt><trkpt lat="43.9600326" lon="12.4155336"><ele>257.0</ele><time>2026-03-22T09:28:01.128Z</time></trkpt><trkpt lat="43.960056" lon="12.4156315"><ele>257.0</ele><time>2026-03-22T09:28:07.12Z</time></trkpt><trkpt lat="43.9600726" lon="12.4157216"><ele>257.0</ele><time>2026-03-22T09:28:12.13Z</time></trkpt><trkpt lat="43.9600915" lon="12.4158206"><ele>257.0</ele><time>2026-03-22T09:28:16.138Z</time></trkpt><trkpt lat="43.9601126" lon="12.4159249"><ele>257.0</ele><time>2026-03-22T09:28:21.139Z</time></trkpt><trkpt lat="43.9601225" lon="12.4160119"><ele>257.2857142857143</ele><time>2026-03-22T09:28:25.136Z</time></trkpt><trkpt lat="43.9601426" lon="12.4161085"><ele>257.57142857142856</ele><time>2026-03-22T09:28:29.149Z</time></trkpt><trkpt lat="43.9601641" lon="12.4161938"><ele>257.8571428571429</ele><time>2026-03-22T09:28:33.17Z</time></trkpt><trkpt lat="43.960192" lon="12.4162882"><ele>258.1428571428571</ele><time>2026-03-22T09:28:38.136Z</time></trkpt><trkpt lat="43.9602109" lon="12.416372"><ele>258.42857142857144</ele><time>2026-03-22T09:28:43.104Z</time></trkpt><trkpt lat="43.9602218" lon="12.4164655"><ele>258.7142857142857</ele><time>2026-03-22T09:28:49.144Z</time></trkpt><trkpt lat="43.9602138" lon="12.4165541"><ele>259.0</ele><time>2026-03-22T09:28:54.146Z</time></trkpt><trkpt lat="43.960178" lon="12.416637"><ele>260.0</ele><time>2026-03-22T09:29:00.153Z</time></trkpt><trkpt lat="43.9601423" lon="12.4167287"><ele>261.0</ele><time>2026-03-22T09:29:06.136Z</time></trkpt><trkpt lat="43.9601108" lon="12.4168057"><ele>262.0</ele><time>2026-03-22T09:29:10.131Z</time></trkpt><trkpt lat="43.9600718" lon="12.4168864"><ele>263.0</ele><time>2026-03-22T09:29:15.147Z</time></trkpt><trkpt lat="43.9600263" lon="12.4169512"><ele>264.0</ele><time>2026-03-22T09:29:19.13Z</time></trkpt><trkpt lat="43.9599847" lon="12.417021"><ele>265.0</ele><time>2026-03-22T09:29:23.156Z</time></trkpt><trkpt lat="43.959947" lon="12.4170938"><ele>266.0</ele><time>2026-03-22T09:29:27.138Z</time></trkpt><trkpt lat="43.9598974" lon="12.4171484"><ele>268.0</ele><time>2026-03-22T09:29:31.135Z</time></trkpt><trkpt lat="43.9598445" lon="12.4172006"><ele>270.0</ele><time>2026-03-22T09:29:35.141Z</time></trkpt><trkpt lat="43.9597873" lon="12.4172689"><ele>272.0</ele><time>2026-03-22T09:29:40.143Z</time></trkpt><trkpt lat="43.9597313" lon="12.417327"><ele>274.0</ele><time>2026-03-22T09:29:45.123Z</time></trkpt><trkpt lat="43.9596794" lon="12.417384"><ele>276.0</ele><time>2026-03-22T09:29:50.143Z</time></trkpt><trkpt lat="43.9596289" lon="12.4174695"><ele>278.0</ele><time>2026-03-22T09:29:55.131Z</time></trkpt><trkpt lat="43.9595909" lon="12.4175405"><ele>280.0</ele><time>2026-03-22T09:29:59.14Z</time></trkpt><trkpt lat="43.9595472" lon="12.417631"><ele>280.0</ele><time>2026-03-22T09:30:03.152Z</time></trkpt><trkpt lat="43.9595153" lon="12.4177236"><ele>280.0</ele><time>2026-03-22T09:30:07.161Z</time></trkpt><trkpt lat="43.9594881" lon="12.4178341"><ele>280.0</ele><time>2026-03-22T09:30:11.084Z</time></trkpt><trkpt lat="43.9594611" lon="12.4179458"><ele>280.0</ele><time>2026-03-22T09:30:15.132Z</time></trkpt><trkpt lat="43.9594345" lon="12.41803"><ele>280.0</ele><time>2026-03-22T09:30:18.152Z</time></trkpt><trkpt lat="43.9594001" lon="12.4181153"><ele>280.0</ele><time>2026-03-22T09:30:21.127Z</time></trkpt><trkpt lat="43.9593447" lon="12.4181894"><ele>280.0</ele><time>2026-03-22T09:30:24.142Z</time></trkpt><trkpt lat="43.9592845" lon="12.418263"><ele>280.0</ele><time>2026-03-22T09:30:27.126Z</time></trkpt><trkpt lat="43.9592236" lon="12.4183378"><ele>280.0</ele><time>2026-03-22T09:30:30.14Z</time></trkpt><trkpt lat="43.9591664" lon="12.4183874"><ele>280.0</ele><time>2026-03-22T09:30:33.129Z</time></trkpt><trkpt lat="43.9591078" lon="12.4184213"><ele>280.0</ele><time>2026-03-22T09:30:36.155Z</time></trkpt><trkpt lat="43.9590305" lon="12.4184556"><ele>280.0</ele><time>2026-03-22T09:30:40.139Z</time></trkpt><trkpt lat="43.9589549" lon="12.4184634"><ele>280.0</ele><time>2026-03-22T09:30:44.157Z</time></trkpt><trkpt lat="43.9588803" lon="12.4184724"><ele>281.85714285714283</ele><time>2026-03-22T09:30:48.144Z</time></trkpt><trkpt lat="43.9588198" lon="12.4185065"><ele>283.7142857142857</ele><time>2026-03-22T09:30:52.108Z</time></trkpt><trkpt lat="43.9587541" lon="12.4185629"><ele>285.57142857142856</ele><time>2026-03-22T09:30:56.115Z</time></trkpt><trkpt lat="43.9586905" lon="12.4186073"><ele>287.42857142857144</ele><time>2026-03-22T09:30:59.141Z</time></trkpt><trkpt lat="43.9586124" lon="12.4186223"><ele>289.2857142857143</ele><time>2026-03-22T09:31:02.174Z</time></trkpt><trkpt lat="43.9585427" lon="12.4186435"><ele>291.1428571428571</ele><time>2026-03-22T09:31:05.164Z</time></trkpt><trkpt lat="43.9584738" lon="12.4186527"><ele>293.0</ele><time>2026-03-22T09:31:08.162Z</time></trkpt><trkpt lat="43.9584075" lon="12.4186665"><ele>293.99999999999994</ele><time>2026-03-22T09:31:11.143Z</time></trkpt><trkpt lat="43.9583349" lon="12.4186852"><ele>295.0</ele><time>2026-03-22T09:31:14.143Z</time></trkpt><trkpt lat="43.9582646" lon="12.4187345"><ele>296.0</ele><time>2026-03-22T09:31:18.143Z</time></trkpt><trkpt lat="43.9582263" lon="12.4188135"><ele>297.0</ele><time>2026-03-22T09:31:21.095Z</time></trkpt><trkpt lat="43.9581893" lon="12.4188976"><ele>298.0</ele><time>2026-03-22T09:31:24.104Z</time></trkpt><trkpt lat="43.9581597" lon="12.4189815"><ele>298.99999999999994</ele><time>2026-03-22T09:31:27.141Z</time></trkpt><trkpt lat="43.9581296" lon="12.4190786"><ele>300.0</ele><time>2026-03-22T09:31:30.137Z</time></trkpt><trkpt lat="43.9580956" lon="12.4191763"><ele>300.0</ele><time>2026-03-22T09:31:33.138Z</time></trkpt><trkpt lat="43.9580634" lon="12.4192905"><ele>300.0</ele><time>2026-03-22T09:31:36.165Z</time></trkpt><trkpt lat="43.9580273" lon="12.4194053"><ele>300.0</ele><time>2026-03-22T09:31:39.16Z</time></trkpt><trkpt lat="43.957992" lon="12.4195033"><ele>300.0</ele><time>2026-03-22T09:31:42.174Z</time></trkpt><trkpt lat="43.9579467" lon="12.4195942"><ele>300.0</ele><time>2026-03-22T09:31:45.146Z</time></trkpt><trkpt lat="43.9579155" lon="12.4196872"><ele>300.0</ele><time>2026-03-22T09:31:48.121Z</time></trkpt><trkpt lat="43.9578781" lon="12.4197963"><ele>300.0</ele><time>2026-03-22T09:31:51.145Z</time></trkpt><trkpt lat="43.9578408" lon="12.4198947"><ele>300.0</ele><time>2026-03-22T09:31:54.142Z</time></trkpt><trkpt lat="43.9578147" lon="12.4200103"><ele>300.0</ele><time>2026-03-22T09:31:57.149Z</time></trkpt><trkpt lat="43.9577916" lon="12.420139"><ele>300.0</ele><time>2026-03-22T09:32:00.148Z</time></trkpt><trkpt lat="43.9577759" lon="12.4202263"><ele>300.0</ele><time>2026-03-22T09:32:02.165Z</time></trkpt><trkpt lat="43.9577661" lon="12.4203181"><ele>300.0</ele><time>2026-03-22T09:32:04.165Z</time></trkpt><trkpt lat="43.957753" lon="12.4204146"><ele>300.5</ele><time>2026-03-22T09:32:06.174Z</time></trkpt><trkpt lat="43.9577572" lon="12.4205135"><ele>301.0</ele><time>2026-03-22T09:32:08.164Z</time></trkpt><trkpt lat="43.9577634" lon="12.4206137"><ele>301.5</ele><time>2026-03-22T09:32:10.146Z</time></trkpt><trkpt lat="43.9577676" lon="12.4207107"><ele>302.0</ele><time>2026-03-22T09:32:12.152Z</time></trkpt><trkpt lat="43.9577768" lon="12.4208041"><ele>302.5</ele><time>2026-03-22T09:32:14.142Z</time></trkpt><trkpt lat="43.9577774" lon="12.4209365"><ele>303.0</ele><time>2026-03-22T09:32:17.148Z</time></trkpt><trkpt lat="43.9577761" lon="12.4210644"><ele>303.0</ele><time>2026-03-22T09:32:20.164Z</time></trkpt><trkpt lat="43.9577586" lon="12.4211876"><ele>303.0</ele><time>2026-03-22T09:32:23.145Z</time></trkpt><trkpt lat="43.9577388" lon="12.4212711"><ele>303.0</ele><time>2026-03-22T09:32:25.139Z</time></trkpt><trkpt lat="43.9577232" lon="12.421395"><ele>303.0</ele><time>2026-03-22T09:32:28.098Z</time></trkpt><trkpt lat="43.9577116" lon="12.4214829"><ele>303.0</ele><time>2026-03-22T09:32:30.15Z</time></trkpt><trkpt lat="43.9576951" lon="12.4216078"><ele>303.0</ele><time>2026-03-22T09:32:33.147Z</time></trkpt><trkpt lat="43.9576891" lon="12.4216959"><ele>303.0</ele><time>2026-03-22T09:32:35.147Z</time></trkpt><trkpt lat="43.9576687" lon="12.4218278"><ele>303.0</ele><time>2026-03-22T09:32:38.15Z</time></trkpt><trkpt lat="43.9576538" lon="12.4219181"><ele>303.0</ele><time>2026-03-22T09:32:40.145Z</time></trkpt><trkpt lat="43.9576401" lon="12.4220039"><ele>303.0</ele><time>2026-03-22T09:32:42.116Z</time></trkpt><trkpt lat="43.9576191" lon="12.4221356"><ele>303.0</ele><time>2026-03-22T09:32:45.143Z</time></trkpt><trkpt lat="43.9576061" lon="12.42223"><ele>303.0</ele><time>2026-03-22T09:32:47.15Z</time></trkpt><trkpt lat="43.9575943" lon="12.4223503"><ele>303.0</ele><time>2026-03-22T09:32:49.131Z</time></trkpt><trkpt lat="43.9575759" lon="12.4225117"><ele>303.0</ele><time>2026-03-22T09:32:51.137Z</time></trkpt><trkpt lat="43.9575587" lon="12.4226905"><ele>303.0</ele><time>2026-03-22T09:32:53.123Z</time></trkpt><trkpt lat="43.9575573" lon="12.4227871"><ele>303.0</ele><time>2026-03-22T09:32:54.146Z</time></trkpt><trkpt lat="43.9575546" lon="12.4228822"><ele>303.0</ele><time>2026-03-22T09:32:55.132Z</time></trkpt><trkpt lat="43.9575481" lon="12.4229864"><ele>302.1666666666667</ele><time>2026-03-22T09:32:56.127Z</time></trkpt><trkpt lat="43.957541" lon="12.4230837"><ele>301.3333333333333</ele><time>2026-03-22T09:32:57.141Z</time></trkpt><trkpt lat="43.9575272" lon="12.423186"><ele>300.5</ele><time>2026-03-22T09:32:58.134Z</time></trkpt><trkpt lat="43.957505" lon="12.4232941"><ele>299.66666666666663</ele><time>2026-03-22T09:32:59.132Z</time></trkpt><trkpt lat="43.9574874" lon="12.423405"><ele>298.8333333333333</ele><time>2026-03-22T09:33:00.157Z</time></trkpt><trkpt lat="43.9574589" lon="12.4234989"><ele>298.0</ele><time>2026-03-22T09:33:01.125Z</time></trkpt><trkpt lat="43.9574265" lon="12.4235954"><ele>299.5</ele><time>2026-03-22T09:33:02.145Z</time></trkpt><trkpt lat="43.9573958" lon="12.4236926"><ele>301.0</ele><time>2026-03-22T09:33:03.147Z</time></trkpt><trkpt lat="43.9573741" lon="12.4237958"><ele>302.5</ele><time>2026-03-22T09:33:04.111Z</time></trkpt><trkpt lat="43.9573584" lon="12.4238952"><ele>304.0</ele><time>2026-03-22T09:33:05.159Z</time></trkpt><trkpt lat="43.9573382" lon="12.4239923"><ele>305.5</ele><time>2026-03-22T09:33:06.113Z</time></trkpt><trkpt lat="43.9573175" lon="12.4240798"><ele>307.0</ele><time>2026-03-22T09:33:07.15Z</time></trkpt><trkpt lat="43.957291" lon="12.424242"><ele>307.0</ele><time>2026-03-22T09:33:09.136Z</time></trkpt><trkpt lat="43.9572743" lon="12.4243281"><ele>307.0</ele><time>2026-03-22T09:33:10.145Z</time></trkpt><trkpt lat="43.9572445" lon="12.4244815"><ele>307.0</ele><time>2026-03-22T09:33:12.127Z</time></trkpt><trkpt lat="43.9572232" lon="12.424629"><ele>307.0</ele><time>2026-03-22T09:33:14.124Z</time></trkpt><trkpt lat="43.9572014" lon="12.4247814"><ele>307.0</ele><time>2026-03-22T09:33:16.092Z</time></trkpt><trkpt lat="43.9571775" lon="12.4249288"><ele>306.2</ele><time>2026-03-22T09:33:18.117Z</time></trkpt><trkpt lat="43.9571539" lon="12.4250714"><ele>305.4</ele><time>2026-03-22T09:33:20.125Z</time></trkpt><trkpt lat="43.957134" lon="12.4252033"><ele>304.6</ele><time>2026-03-22T09:33:22.149Z</time></trkpt><trkpt lat="43.9571185" lon="12.425363"><ele>303.8</ele><time>2026-03-22T09:33:24.141Z</time></trkpt><trkpt lat="43.957094" lon="12.4255167"><ele>303.0</ele><time>2026-03-22T09:33:26.144Z</time></trkpt><trkpt lat="43.9570809" lon="12.425688"><ele>303.0</ele><time>2026-03-22T09:33:28.133Z</time></trkpt><trkpt lat="43.9570627" lon="12.4258486"><ele>303.0</ele><time>2026-03-22T09:33:30.159Z</time></trkpt><trkpt lat="43.9570591" lon="12.4260109"><ele>303.0</ele><time>2026-03-22T09:33:32.141Z</time></trkpt><trkpt lat="43.9570737" lon="12.4261786"><ele>303.0</ele><time>2026-03-22T09:33:34.147Z</time></trkpt><trkpt lat="43.9571211" lon="12.4263327"><ele>304.4</ele><time>2026-03-22T09:33:36.167Z</time></trkpt><trkpt lat="43.9571843" lon="12.4264693"><ele>305.8</ele><time>2026-03-22T09:33:38.153Z</time></trkpt><trkpt lat="43.9572506" lon="12.426594"><ele>307.2</ele><time>2026-03-22T09:33:40.143Z</time></trkpt><trkpt lat="43.9573093" lon="12.4267077"><ele>308.6</ele><time>2026-03-22T09:33:42.125Z</time></trkpt><trkpt lat="43.9573514" lon="12.4268003"><ele>310.0</ele><time>2026-03-22T09:33:44.136Z</time></trkpt><trkpt lat="43.9573981" lon="12.4268794"><ele>310.0</ele><time>2026-03-22T09:33:46.135Z</time></trkpt><trkpt lat="43.9574407" lon="12.426957"><ele>310.0</ele><time>2026-03-22T09:33:48.157Z</time></trkpt><trkpt lat="43.9574996" lon="12.4270523"><ele>310.0</ele><time>2026-03-22T09:33:51.141Z</time></trkpt><trkpt lat="43.9575648" lon="12.4271186"><ele>310.0</ele><time>2026-03-22T09:33:54.151Z</time></trkpt><trkpt lat="43.9576448" lon="12.4271629"><ele>310.0</ele><time>2026-03-22T09:33:57.133Z</time></trkpt><trkpt lat="43.9577311" lon="12.427172"><ele>310.0</ele><time>2026-03-22T09:34:00.154Z</time></trkpt><trkpt lat="43.9578177" lon="12.4271555"><ele>311.16666666666663</ele><time>2026-03-22T09:34:03.143Z</time></trkpt><trkpt lat="43.9578761" lon="12.4271179"><ele>312.3333333333333</ele><time>2026-03-22T09:34:05.112Z</time></trkpt><trkpt lat="43.9579586" lon="12.4270623"><ele>313.5</ele><time>2026-03-22T09:34:08.13Z</time></trkpt><trkpt lat="43.9580412" lon="12.4270158"><ele>314.6666666666667</ele><time>2026-03-22T09:34:11.153Z</time></trkpt><trkpt lat="43.9581203" lon="12.426956"><ele>315.83333333333337</ele><time>2026-03-22T09:34:14.148Z</time></trkpt><trkpt lat="43.9581923" lon="12.4269166"><ele>317.0</ele><time>2026-03-22T09:34:17.139Z</time></trkpt><trkpt lat="43.9582648" lon="12.4268646"><ele>317.0</ele><time>2026-03-22T09:34:20.13Z</time></trkpt><trkpt lat="43.9583378" lon="12.4268271"><ele>317.0</ele><time>2026-03-22T09:34:23.129Z</time></trkpt><trkpt lat="43.9584166" lon="12.4268081"><ele>317.0</ele><time>2026-03-22T09:34:26.134Z</time></trkpt><trkpt lat="43.9584895" lon="12.426838"><ele>317.0</ele><time>2026-03-22T09:34:29.152Z</time></trkpt><trkpt lat="43.9585085" lon="12.4269327"><ele>317.0</ele><time>2026-03-22T09:34:32.14Z</time></trkpt><trkpt lat="43.9584698" lon="12.4270308"><ele>317.0</ele><time>2026-03-22T09:34:35.157Z</time></trkpt><trkpt lat="43.9584131" lon="12.427092"><ele>317.0</ele><time>2026-03-22T09:34:38.094Z</time></trkpt><trkpt lat="43.9583412" lon="12.4271349"><ele>317.0</ele><time>2026-03-22T09:34:41.147Z</time></trkpt><trkpt lat="43.9582703" lon="12.4271969"><ele>317.0</ele><time>2026-03-22T09:34:44.144Z</time></trkpt><trkpt lat="43.9582233" lon="12.4272834"><ele>317.0</ele><time>2026-03-22T09:34:47.127Z</time></trkpt><trkpt lat="43.9582188" lon="12.4273747"><ele>317.0</ele><time>2026-03-22T09:34:50.158Z</time></trkpt><trkpt lat="43.9582645" lon="12.4274686"><ele>317.0</ele><time>2026-03-22T09:34:53.155Z</time></trkpt><trkpt lat="43.9583277" lon="12.4275106"><ele>319.0</ele><time>2026-03-22T09:34:56.156Z</time></trkpt><trkpt lat="43.9584021" lon="12.427511"><ele>321.0</ele><time>2026-03-22T09:34:59.128Z</time></trkpt><trkpt lat="43.9584775" lon="12.4275026"><ele>323.0</ele><time>2026-03-22T09:35:02.144Z</time></trkpt><trkpt lat="43.9585539" lon="12.4274838"><ele>325.0</ele><time>2026-03-22T09:35:05.143Z</time></trkpt><trkpt lat="43.9586355" lon="12.4274533"><ele>327.0</ele><time>2026-03-22T09:35:08.156Z</time></trkpt><trkpt lat="43.9587115" lon="12.4274177"><ele>329.0</ele><time>2026-03-22T09:35:11.139Z</time></trkpt><trkpt lat="43.9587902" lon="12.4273944"><ele>329.0</ele><time>2026-03-22T09:35:14.145Z</time></trkpt><trkpt lat="43.9588781" lon="12.4273996"><ele>329.0</ele><time>2026-03-22T09:35:17.146Z</time></trkpt><trkpt lat="43.9589666" lon="12.4273965"><ele>329.0</ele><time>2026-03-22T09:35:20.147Z</time></trkpt><trkpt lat="43.9590541" lon="12.4274112"><ele>329.0</ele><time>2026-03-22T09:35:23.134Z</time></trkpt><trkpt lat="43.9591366" lon="12.4274388"><ele>329.0</ele><time>2026-03-22T09:35:26.124Z</time></trkpt><trkpt lat="43.9592089" lon="12.4274935"><ele>329.0</ele><time>2026-03-22T09:35:29.146Z</time></trkpt><trkpt lat="43.9592763" lon="12.4275583"><ele>328.83333333333337</ele><time>2026-03-22T09:35:32.134Z</time></trkpt><trkpt lat="43.9593353" lon="12.4276281"><ele>328.6666666666667</ele><time>2026-03-22T09:35:35.146Z</time></trkpt><trkpt lat="43.9593891" lon="12.427694"><ele>328.5</ele><time>2026-03-22T09:35:38.149Z</time></trkpt><trkpt lat="43.9594275" lon="12.4277836"><ele>328.3333333333333</ele><time>2026-03-22T09:35:41.15Z</time></trkpt><trkpt lat="43.9594704" lon="12.4278712"><ele>328.16666666666663</ele><time>2026-03-22T09:35:44.137Z</time></trkpt><trkpt lat="43.9595015" lon="12.4279811"><ele>328.0</ele><time>2026-03-22T09:35:47.148Z</time></trkpt><trkpt lat="43.9595318" lon="12.4280596"><ele>328.0</ele><time>2026-03-22T09:35:49.159Z</time></trkpt><trkpt lat="43.9595588" lon="12.4281791"><ele>328.0</ele><time>2026-03-22T09:35:52.148Z</time></trkpt><trkpt lat="43.9595854" lon="12.4283036"><ele>328.0</ele><time>2026-03-22T09:35:55.12Z</time></trkpt><trkpt lat="43.9596088" lon="12.4283857"><ele>328.0</ele><time>2026-03-22T09:35:57.135Z</time></trkpt><trkpt lat="43.9596313" lon="12.4284763"><ele>328.0</ele><time>2026-03-22T09:35:59.127Z</time></trkpt><trkpt lat="43.9596529" lon="12.4285979"><ele>328.0</ele><time>2026-03-22T09:36:02.141Z</time></trkpt><trkpt lat="43.9596725" lon="12.4286822"><ele>328.0</ele><time>2026-03-22T09:36:04.159Z</time></trkpt><trkpt lat="43.9596957" lon="12.4288046"><ele>328.0</ele><time>2026-03-22T09:36:07.133Z</time></trkpt><trkpt lat="43.9597135" lon="12.4288905"><ele>328.0</ele><time>2026-03-22T09:36:09.133Z</time></trkpt><trkpt lat="43.9597521" lon="12.4290028"><ele>328.0</ele><time>2026-03-22T09:36:12.136Z</time></trkpt><trkpt lat="43.9597729" lon="12.4291062"><ele>328.0</ele><time>2026-03-22T09:36:15.134Z</time></trkpt><trkpt lat="43.9597705" lon="12.4291965"><ele>328.0</ele><time>2026-03-22T09:36:18.105Z</time></trkpt><trkpt lat="43.9597259" lon="12.4292752"><ele>329.2857142857143</ele><time>2026-03-22T09:36:21.132Z</time></trkpt><trkpt lat="43.9596597" lon="12.4293007"><ele>330.57142857142856</ele><time>2026-03-22T09:36:24.118Z</time></trkpt><trkpt lat="43.9595872" lon="12.4292889"><ele>331.8571428571429</ele><time>2026-03-22T09:36:27.137Z</time></trkpt><trkpt lat="43.9595371" lon="12.429232"><ele>333.1428571428571</ele><time>2026-03-22T09:36:30.134Z</time></trkpt><trkpt lat="43.9595056" lon="12.429136"><ele>334.42857142857144</ele><time>2026-03-22T09:36:33.154Z</time></trkpt><trkpt lat="43.9594752" lon="12.4290364"><ele>335.7142857142857</ele><time>2026-03-22T09:36:36.142Z</time></trkpt><trkpt lat="43.9594399" lon="12.4289253"><ele>337.0</ele><time>2026-03-22T09:36:39.144Z</time></trkpt><trkpt lat="43.9593998" lon="12.428818"><ele>337.66666666666663</ele><time>2026-03-22T09:36:42.121Z</time></trkpt><trkpt lat="43.9593604" lon="12.428717"><ele>338.3333333333333</ele><time>2026-03-22T09:36:45.148Z</time></trkpt><trkpt lat="43.9593239" lon="12.4286169"><ele>339.0</ele><time>2026-03-22T09:36:48.137Z</time></trkpt><trkpt lat="43.9592762" lon="12.4285121"><ele>339.6666666666667</ele><time>2026-03-22T09:36:51.144Z</time></trkpt><trkpt lat="43.9592169" lon="12.4284298"><ele>340.33333333333337</ele><time>2026-03-22T09:36:54.137Z</time></trkpt><trkpt lat="43.9591373" lon="12.4283668"><ele>341.0</ele><time>2026-03-22T09:36:57.134Z</time></trkpt><trkpt lat="43.9590576" lon="12.428334"><ele>341.0</ele><time>2026-03-22T09:37:00.135Z</time></trkpt><trkpt lat="43.9589745" lon="12.4283157"><ele>341.0</ele><time>2026-03-22T09:37:03.153Z</time></trkpt><trkpt lat="43.9588997" lon="12.4283445"><ele>341.0</ele><time>2026-03-22T09:37:06.122Z</time></trkpt><trkpt lat="43.9588277" lon="12.4284093"><ele>341.0</ele><time>2026-03-22T09:37:09.106Z</time></trkpt><trkpt lat="43.9587718" lon="12.4284987"><ele>341.0</ele><time>2026-03-22T09:37:12.137Z</time></trkpt><trkpt lat="43.9587442" lon="12.4285997"><ele>341.0</ele><time>2026-03-22T09:37:15.147Z</time></trkpt><trkpt lat="43.958777" lon="12.4287142"><ele>341.0</ele><time>2026-03-22T09:37:18.146Z</time></trkpt><trkpt lat="43.9588173" lon="12.4287864"><ele>341.0</ele><time>2026-03-22T09:37:20.137Z</time></trkpt><trkpt lat="43.9588586" lon="12.4288544"><ele>341.0</ele><time>2026-03-22T09:37:22.12Z</time></trkpt><trkpt lat="43.9589003" lon="12.4289226"><ele>341.0</ele><time>2026-03-22T09:37:24.151Z</time></trkpt><trkpt lat="43.9589459" lon="12.4289894"><ele>341.0</ele><time>2026-03-22T09:37:26.155Z</time></trkpt><trkpt lat="43.958986" lon="12.4290588"><ele>341.0</ele><time>2026-03-22T09:37:28.17Z</time></trkpt><trkpt lat="43.9590298" lon="12.4291385"><ele>341.0</ele><time>2026-03-22T09:37:30.158Z</time></trkpt><trkpt lat="43.9590578" lon="12.4292272"><ele>341.57142857142856</ele><time>2026-03-22T09:37:32.135Z</time></trkpt><trkpt lat="43.9590761" lon="12.4293202"><ele>342.14285714285717</ele><time>2026-03-22T09:37:34.14Z</time></trkpt><trkpt lat="43.9590909" lon="12.4294111"><ele>342.7142857142857</ele><time>2026-03-22T09:37:36.101Z</time></trkpt><trkpt lat="43.9590835" lon="12.4295323"><ele>343.2857142857143</ele><time>2026-03-22T09:37:39.136Z</time></trkpt><trkpt lat="43.9590798" lon="12.4296442"><ele>343.85714285714283</ele><time>2026-03-22T09:37:42.136Z</time></trkpt><trkpt lat="43.9590733" lon="12.4297359"><ele>344.42857142857144</ele><time>2026-03-22T09:37:45.124Z</time></trkpt><trkpt lat="43.9590618" lon="12.4298255"><ele>345.0</ele><time>2026-03-22T09:37:48.157Z</time></trkpt><trkpt lat="43.9590395" lon="12.4299125"><ele>346.42857142857144</ele><time>2026-03-22T09:37:51.146Z</time></trkpt><trkpt lat="43.9590131" lon="12.4300108"><ele>347.85714285714283</ele><time>2026-03-22T09:37:55.128Z</time></trkpt><trkpt lat="43.9590146" lon="12.4301031"><ele>349.2857142857143</ele><time>2026-03-22T09:37:59.127Z</time></trkpt><trkpt lat="43.9590466" lon="12.4301941"><ele>350.7142857142857</ele><time>2026-03-22T09:38:04.133Z</time></trkpt><trkpt lat="43.9590955" lon="12.4302727"><ele>352.14285714285717</ele><time>2026-03-22T09:38:10.143Z</time></trkpt><trkpt lat="43.9591291" lon="12.4303469"><ele>353.57142857142856</ele><time>2026-03-22T09:38:15.137Z</time></trkpt><trkpt lat="43.9591749" lon="12.4304339"><ele>355.0</ele><time>2026-03-22T09:38:20.134Z</time></trkpt><trkpt lat="43.9592269" lon="12.430523"><ele>355.5</ele><time>2026-03-22T09:38:24.135Z</time></trkpt><trkpt lat="43.9592652" lon="12.4305984"><ele>356.0</ele><time>2026-03-22T09:38:27.15Z</time></trkpt><trkpt lat="43.9593173" lon="12.4306883"><ele>356.5</ele><time>2026-03-22T09:38:30.091Z</time></trkpt><trkpt lat="43.9593768" lon="12.4307805"><ele>357.0</ele><time>2026-03-22T09:38:33.142Z</time></trkpt><trkpt lat="43.9594355" lon="12.4308741"><ele>357.5</ele><time>2026-03-22T09:38:36.151Z</time></trkpt><trkpt lat="43.9594855" lon="12.4309563"><ele>358.0</ele><time>2026-03-22T09:38:40.122Z</time></trkpt><trkpt lat="43.9595091" lon="12.4310407"><ele>358.00000000000006</ele><time>2026-03-22T09:38:46.133Z</time></trkpt><trkpt lat="43.9594439" lon="12.4310881"><ele>358.0</ele><time>2026-03-22T09:38:51.13Z</time></trkpt><trkpt lat="43.9593809" lon="12.4311149"><ele>358.0</ele><time>2026-03-22T09:38:54.144Z</time></trkpt><trkpt lat="43.9593096" lon="12.431162"><ele>358.0</ele><time>2026-03-22T09:38:58.147Z</time></trkpt><trkpt lat="43.9592441" lon="12.4312015"><ele>358.0</ele><time>2026-03-22T09:39:02.149Z</time></trkpt><trkpt lat="43.9591796" lon="12.4312339"><ele>358.00000000000006</ele><time>2026-03-22T09:39:06.149Z</time></trkpt><trkpt lat="43.9591112" lon="12.4312747"><ele>358.0</ele><time>2026-03-22T09:39:11.151Z</time></trkpt><trkpt lat="43.9590443" lon="12.4313107"><ele>360.00000000000006</ele><time>2026-03-22T09:39:16.148Z</time></trkpt><trkpt lat="43.95897" lon="12.4313483"><ele>362.0</ele><time>2026-03-22T09:39:21.137Z</time></trkpt><trkpt lat="43.9588969" lon="12.4313864"><ele>364.0</ele><time>2026-03-22T09:39:26.163Z</time></trkpt><trkpt lat="43.958836" lon="12.4314209"><ele>366.0</ele><time>2026-03-22T09:39:31.138Z</time></trkpt><trkpt lat="43.9587655" lon="12.4314648"><ele>368.0</ele><time>2026-03-22T09:39:36.15Z</time></trkpt><trkpt lat="43.9586981" lon="12.4315184"><ele>370.00000000000006</ele><time>2026-03-22T09:39:40.142Z</time></trkpt><trkpt lat="43.9586534" lon="12.4315941"><ele>372.0</ele><time>2026-03-22T09:39:43.167Z</time></trkpt><trkpt lat="43.9585977" lon="12.4316732"><ele>372.00000000000006</ele><time>2026-03-22T09:39:47.146Z</time></trkpt><trkpt lat="43.9585384" lon="12.4317484"><ele>372.0</ele><time>2026-03-22T09:39:51.087Z</time></trkpt><trkpt lat="43.9584931" lon="12.4318275"><ele>372.0</ele><time>2026-03-22T09:39:54.151Z</time></trkpt><trkpt lat="43.9584424" lon="12.4318921"><ele>372.0</ele><time>2026-03-22T09:39:57.142Z</time></trkpt><trkpt lat="43.9583939" lon="12.4319572"><ele>372.0</ele><time>2026-03-22T09:40:00.141Z</time></trkpt><trkpt lat="43.9583408" lon="12.4320317"><ele>372.00000000000006</ele><time>2026-03-22T09:40:03.14Z</time></trkpt><trkpt lat="43.9582881" lon="12.4321009"><ele>372.0</ele><time>2026-03-22T09:40:06.153Z</time></trkpt><trkpt lat="43.9582779" lon="12.4321929"><ele>373.3333333333333</ele><time>2026-03-22T09:40:09.128Z</time></trkpt><trkpt lat="43.958278" lon="12.4323028"><ele>374.6666666666667</ele><time>2026-03-22T09:40:12.125Z</time></trkpt><trkpt lat="43.9582846" lon="12.4324214"><ele>376.0</ele><time>2026-03-22T09:40:16.094Z</time></trkpt><trkpt lat="43.958277" lon="12.4325329"><ele>377.33333333333337</ele><time>2026-03-22T09:40:20.137Z</time></trkpt><trkpt lat="43.9582819" lon="12.4326357"><ele>378.6666666666667</ele><time>2026-03-22T09:40:24.104Z</time></trkpt><trkpt lat="43.9582865" lon="12.4327359"><ele>380.0</ele><time>2026-03-22T09:40:28.164Z</time></trkpt><trkpt lat="43.9583042" lon="12.4328353"><ele>380.0</ele><time>2026-03-22T09:40:32.144Z</time></trkpt><trkpt lat="43.9583202" lon="12.4329227"><ele>380.0</ele><time>2026-03-22T09:40:36.122Z</time></trkpt><trkpt lat="43.9583534" lon="12.433007"><ele>380.0</ele><time>2026-03-22T09:40:40.129Z</time></trkpt><trkpt lat="43.9583788" lon="12.4331022"><ele>380.0</ele><time>2026-03-22T09:40:44.12Z</time></trkpt><trkpt lat="43.9584135" lon="12.4331978"><ele>380.0</ele><time>2026-03-22T09:40:49.158Z</time></trkpt><trkpt lat="43.9584477" lon="12.4332761"><ele>380.0</ele><time>2026-03-22T09:40:54.123Z</time></trkpt><trkpt lat="43.958478" lon="12.4333531"><ele>380.0</ele><time>2026-03-22T09:40:58.155Z</time></trkpt><trkpt lat="43.9585111" lon="12.4334443"><ele>380.8571428571429</ele><time>2026-03-22T09:41:03.138Z</time></trkpt><trkpt lat="43.9585384" lon="12.4335386"><ele>381.7142857142857</ele><time>2026-03-22T09:41:08.133Z</time></trkpt><trkpt lat="43.9585658" lon="12.4336315"><ele>382.57142857142856</ele><time>2026-03-22T09:41:13.138Z</time></trkpt><trkpt lat="43.9586049" lon="12.4337256"><ele>383.42857142857144</ele><time>2026-03-22T09:41:18.08Z</time></trkpt><trkpt lat="43.9586256" lon="12.4338115"><ele>384.2857142857143</ele><time>2026-03-22T09:41:22.129Z</time></trkpt><trkpt lat="43.9586568" lon="12.4339099"><ele>385.14285714285717</ele><time>2026-03-22T09:41:27.142Z</time></trkpt><trkpt lat="43.9586711" lon="12.4340176"><ele>386.0</ele><time>2026-03-22T09:41:32.146Z</time></trkpt><trkpt lat="43.9586656" lon="12.4341235"><ele>386.14285714285717</ele><time>2026-03-22T09:41:37.132Z</time></trkpt><trkpt lat="43.9586399" lon="12.4342136"><ele>386.2857142857143</ele><time>2026-03-22T09:41:41.125Z</time></trkpt><trkpt lat="43.9586049" lon="12.4342895"><ele>386.42857142857144</ele><time>2026-03-22T09:41:46.135Z</time></trkpt><trkpt lat="43.9585701" lon="12.4343651"><ele>386.57142857142856</ele><time>2026-03-22T09:41:50.139Z</time></trkpt><trkpt lat="43.9585126" lon="12.4344452"><ele>386.7142857142857</ele><time>2026-03-22T09:41:55.126Z</time></trkpt><trkpt lat="43.9584692" lon="12.4345159"><ele>386.8571428571429</ele><time>2026-03-22T09:41:59.152Z</time></trkpt><trkpt lat="43.9584101" lon="12.4345741"><ele>387.0</ele><time>2026-03-22T09:42:03.144Z</time></trkpt><trkpt lat="43.9583542" lon="12.4346238"><ele>389.1666666666667</ele><time>2026-03-22T09:42:07.148Z</time></trkpt><trkpt lat="43.9582993" lon="12.4346986"><ele>391.33333333333337</ele><time>2026-03-22T09:42:11.138Z</time></trkpt><trkpt lat="43.9582341" lon="12.4347707"><ele>393.5</ele><time>2026-03-22T09:42:15.112Z</time></trkpt><trkpt lat="43.9581624" lon="12.4348419"><ele>395.6666666666667</ele><time>2026-03-22T09:42:19.135Z</time></trkpt><trkpt lat="43.9580909" lon="12.4349223"><ele>397.83333333333337</ele><time>2026-03-22T09:42:22.145Z</time></trkpt><trkpt lat="43.9580469" lon="12.4349895"><ele>400.0</ele><time>2026-03-22T09:42:24.127Z</time></trkpt><trkpt lat="43.9579879" lon="12.435073"><ele>400.0</ele><time>2026-03-22T09:42:26.146Z</time></trkpt><trkpt lat="43.957928" lon="12.4351758"><ele>400.0</ele><time>2026-03-22T09:42:28.132Z</time></trkpt><trkpt lat="43.9578442" lon="12.435263"><ele>400.0</ele><time>2026-03-22T09:42:30.133Z</time></trkpt><trkpt lat="43.9577397" lon="12.4353516"><ele>400.0</ele><time>2026-03-22T09:42:32.14Z</time></trkpt><trkpt lat="43.9576493" lon="12.4354133"><ele>400.0</ele><time>2026-03-22T09:42:34.147Z</time></trkpt><trkpt lat="43.957586" lon="12.4354655"><ele>400.0</ele><time>2026-03-22T09:42:36.153Z</time></trkpt><trkpt lat="43.9575283" lon="12.4355221"><ele>400.0</ele><time>2026-03-22T09:42:38.148Z</time></trkpt><trkpt lat="43.9574558" lon="12.4355801"><ele>400.0</ele><time>2026-03-22T09:42:40.138Z</time></trkpt><trkpt lat="43.9574199" lon="12.435678"><ele>400.0</ele><time>2026-03-22T09:42:42.105Z</time></trkpt><trkpt lat="43.9573946" lon="12.4358033"><ele>400.0</ele><time>2026-03-22T09:42:44.118Z</time></trkpt><trkpt lat="43.957371" lon="12.4359781"><ele>400.00000000000006</ele><time>2026-03-22T09:42:46.14Z</time></trkpt><trkpt lat="43.9573577" lon="12.436082"><ele>400.0</ele><time>2026-03-22T09:42:47.143Z</time></trkpt><trkpt lat="43.9573364" lon="12.4361939"><ele>400.0</ele><time>2026-03-22T09:42:48.132Z</time></trkpt><trkpt lat="43.957324" lon="12.4363168"><ele>400.0</ele><time>2026-03-22T09:42:49.134Z</time></trkpt><trkpt lat="43.9573104" lon="12.4364354"><ele>400.00000000000006</ele><time>2026-03-22T09:42:50.145Z</time></trkpt><trkpt lat="43.9572903" lon="12.4365474"><ele>400.0</ele><time>2026-03-22T09:42:51.155Z</time></trkpt><trkpt lat="43.9572689" lon="12.4366514"><ele>398.7142857142857</ele><time>2026-03-22T09:42:52.143Z</time></trkpt><trkpt lat="43.9572423" lon="12.4367462"><ele>397.42857142857144</ele><time>2026-03-22T09:42:53.153Z</time></trkpt><trkpt lat="43.9572086" lon="12.4368279"><ele>396.1428571428571</ele><time>2026-03-22T09:42:54.142Z</time></trkpt><trkpt lat="43.9571571" lon="12.4369403"><ele>394.8571428571429</ele><time>2026-03-22T09:42:56.144Z</time></trkpt><trkpt lat="43.9571353" lon="12.437032"><ele>393.57142857142856</ele><time>2026-03-22T09:42:59.157Z</time></trkpt><trkpt lat="43.9572089" lon="12.4370408"><ele>392.2857142857143</ele><time>2026-03-22T09:43:02.143Z</time></trkpt><trkpt lat="43.9572484" lon="12.436964"><ele>391.0</ele><time>2026-03-22T09:43:04.129Z</time></trkpt><trkpt lat="43.9572961" lon="12.4368819"><ele>391.0</ele><time>2026-03-22T09:43:06.111Z</time></trkpt><trkpt lat="43.9573516" lon="12.4367653"><ele>391.0</ele><time>2026-03-22T09:43:08.088Z</time></trkpt><trkpt lat="43.9574072" lon="12.4366696"><ele>391.0</ele><time>2026-03-22T09:43:10.142Z</time></trkpt><trkpt lat="43.957469" lon="12.4365706"><ele>391.0</ele><time>2026-03-22T09:43:12.161Z</time></trkpt><trkpt lat="43.957552" lon="12.4364734"><ele>391.0</ele><time>2026-03-22T09:43:14.131Z</time></trkpt><trkpt lat="43.9576493" lon="12.4363704"><ele>391.33333333333337</ele><time>2026-03-22T09:43:16.136Z</time></trkpt><trkpt lat="43.9577518" lon="12.4362969"><ele>391.6666666666667</ele><time>2026-03-22T09:43:18.143Z</time></trkpt><trkpt lat="43.9578136" lon="12.4362801"><ele>392.0</ele><time>2026-03-22T09:43:19.135Z</time></trkpt><trkpt lat="43.957882" lon="12.4362702"><ele>392.33333333333337</ele><time>2026-03-22T09:43:20.153Z</time></trkpt><trkpt lat="43.9579527" lon="12.436267"><ele>392.6666666666667</ele><time>2026-03-22T09:43:21.151Z</time></trkpt><trkpt lat="43.9580216" lon="12.4362623"><ele>393.0</ele><time>2026-03-22T09:43:22.141Z</time></trkpt><trkpt lat="43.9580922" lon="12.4362654"><ele>393.0</ele><time>2026-03-22T09:43:23.142Z</time></trkpt><trkpt lat="43.9581671" lon="12.4362667"><ele>393.0</ele><time>2026-03-22T09:43:24.14Z</time></trkpt><trkpt lat="43.9582415" lon="12.4362602"><ele>393.0</ele><time>2026-03-22T09:43:25.161Z</time></trkpt><trkpt lat="43.9583203" lon="12.4362507"><ele>393.0</ele><time>2026-03-22T09:43:26.139Z</time></trkpt><trkpt lat="43.9583939" lon="12.4362309"><ele>393.0</ele><time>2026-03-22T09:43:27.146Z</time></trkpt><trkpt lat="43.9584723" lon="12.4362022"><ele>393.0</ele><time>2026-03-22T09:43:28.145Z</time></trkpt><trkpt lat="43.9585537" lon="12.4361565"><ele>391.1666666666667</ele><time>2026-03-22T09:43:29.142Z</time></trkpt><trkpt lat="43.9586296" lon="12.4361068"><ele>389.3333333333333</ele><time>2026-03-22T09:43:30.152Z</time></trkpt><trkpt lat="43.958704" lon="12.436049"><ele>387.5</ele><time>2026-03-22T09:43:31.161Z</time></trkpt><trkpt lat="43.9587854" lon="12.4359797"><ele>385.66666666666663</ele><time>2026-03-22T09:43:32.133Z</time></trkpt><trkpt lat="43.9588644" lon="12.4359184"><ele>383.8333333333333</ele><time>2026-03-22T09:43:33.127Z</time></trkpt><trkpt lat="43.95894" lon="12.4358693"><ele>382.0</ele><time>2026-03-22T09:43:34.131Z</time></trkpt><trkpt lat="43.9590078" lon="12.435861"><ele>382.0</ele><time>2026-03-22T09:43:35.126Z</time></trkpt><trkpt lat="43.9590725" lon="12.4359069"><ele>382.0</ele><time>2026-03-22T09:43:36.106Z</time></trkpt><trkpt lat="43.959117" lon="12.4360054"><ele>382.0</ele><time>2026-03-22T09:43:37.117Z</time></trkpt><trkpt lat="43.9591347" lon="12.4361307"><ele>382.0</ele><time>2026-03-22T09:43:38.12Z</time></trkpt><trkpt lat="43.959127" lon="12.4362746"><ele>382.0</ele><time>2026-03-22T09:43:39.14Z</time></trkpt><trkpt lat="43.9590981" lon="12.4364037"><ele>382.0</ele><time>2026-03-22T09:43:40.139Z</time></trkpt><trkpt lat="43.9590579" lon="12.4365272"><ele>380.0</ele><time>2026-03-22T09:43:41.131Z</time></trkpt><trkpt lat="43.9590014" lon="12.4366481"><ele>378.0</ele><time>2026-03-22T09:43:42.148Z</time></trkpt><trkpt lat="43.9589492" lon="12.43677"><ele>376.0</ele><time>2026-03-22T09:43:43.115Z</time></trkpt><trkpt lat="43.9589046" lon="12.4368954"><ele>374.0</ele><time>2026-03-22T09:43:44.113Z</time></trkpt><trkpt lat="43.9588677" lon="12.4370414"><ele>372.0</ele><time>2026-03-22T09:43:45.148Z</time></trkpt><trkpt lat="43.9588547" lon="12.4372034"><ele>369.75</ele><time>2026-03-22T09:43:46.133Z</time></trkpt><trkpt lat="43.9588709" lon="12.4373796"><ele>367.5</ele><time>2026-03-22T09:43:47.132Z</time></trkpt><trkpt lat="43.9589118" lon="12.4375571"><ele>365.25</ele><time>2026-03-22T09:43:48.145Z</time></trkpt><trkpt lat="43.9589748" lon="12.4377168"><ele>363.0</ele><time>2026-03-22T09:43:49.128Z</time></trkpt><trkpt lat="43.9590651" lon="12.4378512"><ele>360.0</ele><time>2026-03-22T09:43:50.139Z</time></trkpt><trkpt lat="43.9591793" lon="12.4379739"><ele>357.0</ele><time>2026-03-22T09:43:51.124Z</time></trkpt><trkpt lat="43.9592907" lon="12.4381004"><ele>354.0</ele><time>2026-03-22T09:43:52.153Z</time></trkpt><trkpt lat="43.9594101" lon="12.4382322"><ele>351.0</ele><time>2026-03-22T09:43:53.131Z</time></trkpt><trkpt lat="43.9595367" lon="12.4383687"><ele>350.6666666666667</ele><time>2026-03-22T09:43:54.112Z</time></trkpt><trkpt lat="43.9596769" lon="12.4384853"><ele>350.33333333333337</ele><time>2026-03-22T09:43:55.146Z</time></trkpt><trkpt lat="43.9598287" lon="12.438584"><ele>350.0</ele><time>2026-03-22T09:43:56.147Z</time></trkpt><trkpt lat="43.9599822" lon="12.4386675"><ele>346.0</ele><time>2026-03-22T09:43:57.134Z</time></trkpt><trkpt lat="43.9601341" lon="12.438726"><ele>342.0</ele><time>2026-03-22T09:43:58.126Z</time></trkpt><trkpt lat="43.9602899" lon="12.4387845"><ele>338.0</ele><time>2026-03-22T09:43:59.145Z</time></trkpt><trkpt lat="43.9604451" lon="12.4388591"><ele>336.0</ele><time>2026-03-22T09:44:00.109Z</time></trkpt><trkpt lat="43.9606019" lon="12.4389597"><ele>334.0</ele><time>2026-03-22T09:44:01.143Z</time></trkpt><trkpt lat="43.96075" lon="12.4390676"><ele>332.0</ele><time>2026-03-22T09:44:02.164Z</time></trkpt><trkpt lat="43.9608977" lon="12.4391779"><ele>326.33333333333337</ele><time>2026-03-22T09:44:03.105Z</time></trkpt><trkpt lat="43.9610495" lon="12.439276"><ele>320.6666666666667</ele><time>2026-03-22T09:44:04.146Z</time></trkpt><trkpt lat="43.9611981" lon="12.439366"><ele>315.0</ele><time>2026-03-22T09:44:05.143Z</time></trkpt><trkpt lat="43.9613485" lon="12.4394403"><ele>315.0</ele><time>2026-03-22T09:44:06.139Z</time></trkpt><trkpt lat="43.9615038" lon="12.439518"><ele>315.0</ele><time>2026-03-22T09:44:07.106Z</time></trkpt><trkpt lat="43.961649" lon="12.439608"><ele>315.0</ele><time>2026-03-22T09:44:08.117Z</time></trkpt><trkpt lat="43.9617863" lon="12.4397172"><ele>314.0</ele><time>2026-03-22T09:44:09.149Z</time></trkpt><trkpt lat="43.9619215" lon="12.4398232"><ele>313.0</ele><time>2026-03-22T09:44:10.133Z</time></trkpt><trkpt lat="43.9620499" lon="12.4399246"><ele>312.0</ele><time>2026-03-22T09:44:11.143Z</time></trkpt><trkpt lat="43.962178" lon="12.4400225"><ele>311.0</ele><time>2026-03-22T09:44:12.153Z</time></trkpt><trkpt lat="43.9623034" lon="12.4401172"><ele>311.0</ele><time>2026-03-22T09:44:13.145Z</time></trkpt><trkpt lat="43.9624283" lon="12.4402091"><ele>311.0</ele><time>2026-03-22T09:44:14.135Z</time></trkpt><trkpt lat="43.9625561" lon="12.4402852"><ele>311.0</ele><time>2026-03-22T09:44:15.125Z</time></trkpt><trkpt lat="43.9626831" lon="12.4403175"><ele>311.0</ele><time>2026-03-22T09:44:16.149Z</time></trkpt><trkpt lat="43.9628127" lon="12.4402987"><ele>311.25</ele><time>2026-03-22T09:44:17.116Z</time></trkpt><trkpt lat="43.9629345" lon="12.4402536"><ele>311.5</ele><time>2026-03-22T09:44:18.138Z</time></trkpt><trkpt lat="43.9630547" lon="12.4402028"><ele>311.75</ele><time>2026-03-22T09:44:19.142Z</time></trkpt><trkpt lat="43.9631702" lon="12.4401733"><ele>312.0</ele><time>2026-03-22T09:44:20.134Z</time></trkpt><trkpt lat="43.9632811" lon="12.4401652"><ele>310.6</ele><time>2026-03-22T09:44:21.159Z</time></trkpt><trkpt lat="43.9633867" lon="12.4401613"><ele>309.2</ele><time>2026-03-22T09:44:22.144Z</time></trkpt><trkpt lat="43.9634946" lon="12.4401387"><ele>307.8</ele><time>2026-03-22T09:44:23.146Z</time></trkpt><trkpt lat="43.9636021" lon="12.4401031"><ele>306.4</ele><time>2026-03-22T09:44:24.153Z</time></trkpt><trkpt lat="43.963714" lon="12.4400736"><ele>305.0</ele><time>2026-03-22T09:44:25.125Z</time></trkpt><trkpt lat="43.9638263" lon="12.4400486"><ele>305.0</ele><time>2026-03-22T09:44:26.141Z</time></trkpt><trkpt lat="43.9639332" lon="12.4400415"><ele>305.0</ele><time>2026-03-22T09:44:27.134Z</time></trkpt><trkpt lat="43.9640433" lon="12.4400559"><ele>305.0</ele><time>2026-03-22T09:44:28.139Z</time></trkpt><trkpt lat="43.9641479" lon="12.4400911"><ele>305.0</ele><time>2026-03-22T09:44:29.129Z</time></trkpt><trkpt lat="43.964255" lon="12.4401315"><ele>305.0</ele><time>2026-03-22T09:44:30.133Z</time></trkpt><trkpt lat="43.9643715" lon="12.440171"><ele>303.5</ele><time>2026-03-22T09:44:31.148Z</time></trkpt><trkpt lat="43.9644807" lon="12.4402172"><ele>302.0</ele><time>2026-03-22T09:44:32.147Z</time></trkpt><trkpt lat="43.9645936" lon="12.440265"><ele>300.5</ele><time>2026-03-22T09:44:33.144Z</time></trkpt><trkpt lat="43.9647096" lon="12.4403111"><ele>299.0</ele><time>2026-03-22T09:44:34.147Z</time></trkpt><trkpt lat="43.9648189" lon="12.4403524"><ele>299.0</ele><time>2026-03-22T09:44:35.142Z</time></trkpt><trkpt lat="43.9649317" lon="12.4403992"><ele>299.0</ele><time>2026-03-22T09:44:36.145Z</time></trkpt><trkpt lat="43.9650438" lon="12.4404455"><ele>299.0</ele><time>2026-03-22T09:44:37.164Z</time></trkpt><trkpt lat="43.965157" lon="12.4404919"><ele>299.0</ele><time>2026-03-22T09:44:38.147Z</time></trkpt><trkpt lat="43.9652656" lon="12.4405427"><ele>299.0</ele><time>2026-03-22T09:44:39.139Z</time></trkpt><trkpt lat="43.965373" lon="12.4406048"><ele>299.0</ele><time>2026-03-22T09:44:40.144Z</time></trkpt><trkpt lat="43.9654758" lon="12.4406914"><ele>299.0</ele><time>2026-03-22T09:44:41.148Z</time></trkpt><trkpt lat="43.9655702" lon="12.4407892"><ele>299.0</ele><time>2026-03-22T09:44:42.145Z</time></trkpt><trkpt lat="43.9656631" lon="12.4409022"><ele>299.0</ele><time>2026-03-22T09:44:43.126Z</time></trkpt><trkpt lat="43.9657531" lon="12.4410197"><ele>299.0</ele><time>2026-03-22T09:44:44.142Z</time></trkpt><trkpt lat="43.9658455" lon="12.4411352"><ele>299.0</ele><time>2026-03-22T09:44:45.138Z</time></trkpt><trkpt lat="43.9659292" lon="12.4412401"><ele>299.0</ele><time>2026-03-22T09:44:46.137Z</time></trkpt><trkpt lat="43.9660039" lon="12.441337"><ele>298.5</ele><time>2026-03-22T09:44:47.138Z</time></trkpt><trkpt lat="43.9660668" lon="12.4414289"><ele>298.0</ele><time>2026-03-22T09:44:48.146Z</time></trkpt><trkpt lat="43.966099" lon="12.4415379"><ele>297.5</ele><time>2026-03-22T09:44:49.114Z</time></trkpt><trkpt lat="43.9660587" lon="12.4416258"><ele>297.0</ele><time>2026-03-22T09:44:50.157Z</time></trkpt><trkpt lat="43.965971" lon="12.4416804"><ele>296.5</ele><time>2026-03-22T09:44:51.142Z</time></trkpt><trkpt lat="43.9658762" lon="12.4416728"><ele>296.0</ele><time>2026-03-22T09:44:52.147Z</time></trkpt><trkpt lat="43.9657916" lon="12.4416347"><ele>294.83333333333337</ele><time>2026-03-22T09:44:53.153Z</time></trkpt><trkpt lat="43.9657159" lon="12.441595"><ele>293.6666666666667</ele><time>2026-03-22T09:44:54.138Z</time></trkpt><trkpt lat="43.965635" lon="12.4415383"><ele>292.5</ele><time>2026-03-22T09:44:55.139Z</time></trkpt><trkpt lat="43.9655568" lon="12.4414791"><ele>291.3333333333333</ele><time>2026-03-22T09:44:56.135Z</time></trkpt><trkpt lat="43.9654794" lon="12.4414388"><ele>290.16666666666663</ele><time>2026-03-22T09:44:57.156Z</time></trkpt><trkpt lat="43.9653938" lon="12.4414187"><ele>289.0</ele><time>2026-03-22T09:44:58.167Z</time></trkpt><trkpt lat="43.9653151" lon="12.4414541"><ele>289.0</ele><time>2026-03-22T09:44:59.146Z</time></trkpt><trkpt lat="43.9652889" lon="12.4415502"><ele>289.0</ele><time>2026-03-22T09:45:00.149Z</time></trkpt><trkpt lat="43.9653102" lon="12.4416828"><ele>289.0</ele><time>2026-03-22T09:45:01.151Z</time></trkpt><trkpt lat="43.9653541" lon="12.4417941"><ele>289.0</ele><time>2026-03-22T09:45:02.138Z</time></trkpt><trkpt lat="43.9654224" lon="12.4418936"><ele>289.0</ele><time>2026-03-22T09:45:03.158Z</time></trkpt><trkpt lat="43.9655004" lon="12.4419742"><ele>289.0</ele><time>2026-03-22T09:45:04.124Z</time></trkpt><trkpt lat="43.9655713" lon="12.4420547"><ele>289.0</ele><time>2026-03-22T09:45:05.107Z</time></trkpt><trkpt lat="43.9656457" lon="12.4421359"><ele>289.0</ele><time>2026-03-22T09:45:06.158Z</time></trkpt><trkpt lat="43.9657172" lon="12.4422253"><ele>289.0</ele><time>2026-03-22T09:45:07.131Z</time></trkpt><trkpt lat="43.9657868" lon="12.4423079"><ele>289.0</ele><time>2026-03-22T09:45:08.136Z</time></trkpt><trkpt lat="43.9658596" lon="12.4423942"><ele>288.0</ele><time>2026-03-22T09:45:09.141Z</time></trkpt><trkpt lat="43.9659332" lon="12.4424776"><ele>287.0</ele><time>2026-03-22T09:45:10.136Z</time></trkpt><trkpt lat="43.9660039" lon="12.4425639"><ele>286.0</ele><time>2026-03-22T09:45:11.102Z</time></trkpt><trkpt lat="43.9660728" lon="12.4426556"><ele>285.0</ele><time>2026-03-22T09:45:12.118Z</time></trkpt><trkpt lat="43.966149" lon="12.442748"><ele>284.0</ele><time>2026-03-22T09:45:13.135Z</time></trkpt><trkpt lat="43.966223" lon="12.4428458"><ele>284.0</ele><time>2026-03-22T09:45:14.133Z</time></trkpt><trkpt lat="43.9662976" lon="12.4429482"><ele>284.0</ele><time>2026-03-22T09:45:15.115Z</time></trkpt><trkpt lat="43.9663757" lon="12.4430549"><ele>284.0</ele><time>2026-03-22T09:45:16.126Z</time></trkpt><trkpt lat="43.9664535" lon="12.4431589"><ele>284.0</ele><time>2026-03-22T09:45:17.139Z</time></trkpt><trkpt lat="43.9665296" lon="12.4432713"><ele>284.0</ele><time>2026-03-22T09:45:18.14Z</time></trkpt><trkpt lat="43.9666038" lon="12.4433957"><ele>283.75</ele><time>2026-03-22T09:45:19.14Z</time></trkpt><trkpt lat="43.9666651" lon="12.4435394"><ele>283.5</ele><time>2026-03-22T09:45:20.152Z</time></trkpt><trkpt lat="43.9667059" lon="12.4437052"><ele>283.25</ele><time>2026-03-22T09:45:21.157Z</time></trkpt><trkpt lat="43.9667215" lon="12.4438765"><ele>283.0</ele><time>2026-03-22T09:45:22.137Z</time></trkpt><trkpt lat="43.9667154" lon="12.444033"><ele>283.0</ele><time>2026-03-22T09:45:23.141Z</time></trkpt><trkpt lat="43.9667093" lon="12.4441878"><ele>283.0</ele><time>2026-03-22T09:45:24.09Z</time></trkpt><trkpt lat="43.9667003" lon="12.4443252"><ele>283.0</ele><time>2026-03-22T09:45:25.115Z</time></trkpt><trkpt lat="43.9666814" lon="12.4444665"><ele>283.0</ele><time>2026-03-22T09:45:26.131Z</time></trkpt><trkpt lat="43.9666573" lon="12.4446173"><ele>283.0</ele><time>2026-03-22T09:45:27.141Z</time></trkpt><trkpt lat="43.9666341" lon="12.4447649"><ele>279.4</ele><time>2026-03-22T09:45:28.117Z</time></trkpt><trkpt lat="43.9666115" lon="12.4449157"><ele>275.8</ele><time>2026-03-22T09:45:29.118Z</time></trkpt><trkpt lat="43.9665926" lon="12.4450605"><ele>272.2</ele><time>2026-03-22T09:45:30.116Z</time></trkpt><trkpt lat="43.9665811" lon="12.4451982"><ele>268.6</ele><time>2026-03-22T09:45:31.137Z</time></trkpt><trkpt lat="43.9665657" lon="12.4453384"><ele>265.0</ele><time>2026-03-22T09:45:32.157Z</time></trkpt><trkpt lat="43.9665444" lon="12.4454649"><ele>264.16666666666663</ele><time>2026-03-22T09:45:33.158Z</time></trkpt><trkpt lat="43.9665249" lon="12.445587"><ele>263.3333333333333</ele><time>2026-03-22T09:45:34.145Z</time></trkpt><trkpt lat="43.9665113" lon="12.4457067"><ele>262.5</ele><time>2026-03-22T09:45:35.153Z</time></trkpt><trkpt lat="43.9664923" lon="12.4458222"><ele>261.6666666666667</ele><time>2026-03-22T09:45:36.148Z</time></trkpt><trkpt lat="43.9664789" lon="12.4459429"><ele>260.83333333333337</ele><time>2026-03-22T09:45:37.148Z</time></trkpt><trkpt lat="43.966471" lon="12.4460677"><ele>260.0</ele><time>2026-03-22T09:45:38.14Z</time></trkpt><trkpt lat="43.966463" lon="12.4461891"><ele>258.8</ele><time>2026-03-22T09:45:39.148Z</time></trkpt><trkpt lat="43.9664581" lon="12.4463108"><ele>257.6</ele><time>2026-03-22T09:45:40.148Z</time></trkpt><trkpt lat="43.9664521" lon="12.4464378"><ele>256.4</ele><time>2026-03-22T09:45:41.174Z</time></trkpt><trkpt lat="43.9664515" lon="12.4465685"><ele>255.2</ele><time>2026-03-22T09:45:42.156Z</time></trkpt><trkpt lat="43.966454" lon="12.4467013"><ele>254.0</ele><time>2026-03-22T09:45:43.123Z</time></trkpt><trkpt lat="43.9664569" lon="12.446839"><ele>254.0</ele><time>2026-03-22T09:45:44.148Z</time></trkpt><trkpt lat="43.9664518" lon="12.4469727"><ele>253.99999999999997</ele><time>2026-03-22T09:45:45.116Z</time></trkpt><trkpt lat="43.9664554" lon="12.4471037"><ele>253.99999999999997</ele><time>2026-03-22T09:45:46.158Z</time></trkpt><trkpt lat="43.9664606" lon="12.4472146"><ele>254.0</ele><time>2026-03-22T09:45:47.165Z</time></trkpt><trkpt lat="43.9664684" lon="12.4473114"><ele>254.0</ele><time>2026-03-22T09:45:48.135Z</time></trkpt><trkpt lat="43.9664655" lon="12.4474666"><ele>253.5</ele><time>2026-03-22T09:45:50.148Z</time></trkpt><trkpt lat="43.9664864" lon="12.4476155"><ele>253.0</ele><time>2026-03-22T09:45:52.14Z</time></trkpt><trkpt lat="43.9665367" lon="12.4477707"><ele>252.5</ele><time>2026-03-22T09:45:54.14Z</time></trkpt><trkpt lat="43.9665958" lon="12.4479156"><ele>252.0</ele><time>2026-03-22T09:45:56.149Z</time></trkpt><trkpt lat="43.9666828" lon="12.4480457"><ele>251.14285714285714</ele><time>2026-03-22T09:45:58.145Z</time></trkpt><trkpt lat="43.966729" lon="12.4481107"><ele>250.28571428571428</ele><time>2026-03-22T09:45:59.156Z</time></trkpt><trkpt lat="43.966789" lon="12.4481703"><ele>249.42857142857144</ele><time>2026-03-22T09:46:00.15Z</time></trkpt><trkpt lat="43.9668531" lon="12.4482167"><ele>248.57142857142858</ele><time>2026-03-22T09:46:01.16Z</time></trkpt><trkpt lat="43.9669134" lon="12.4482707"><ele>247.71428571428572</ele><time>2026-03-22T09:46:02.138Z</time></trkpt><trkpt lat="43.9669728" lon="12.4483189"><ele>246.8571428571429</ele><time>2026-03-22T09:46:03.171Z</time></trkpt><trkpt lat="43.9670346" lon="12.4483609"><ele>246.00000000000003</ele><time>2026-03-22T09:46:04.096Z</time></trkpt><trkpt lat="43.9671023" lon="12.4484107"><ele>246.0</ele><time>2026-03-22T09:46:05.165Z</time></trkpt><trkpt lat="43.9671734" lon="12.4484511"><ele>246.0</ele><time>2026-03-22T09:46:06.131Z</time></trkpt><trkpt lat="43.9672527" lon="12.4484917"><ele>246.0</ele><time>2026-03-22T09:46:07.153Z</time></trkpt><trkpt lat="43.9673244" lon="12.4485395"><ele>246.0</ele><time>2026-03-22T09:46:08.141Z</time></trkpt><trkpt lat="43.9674025" lon="12.4485788"><ele>246.0</ele><time>2026-03-22T09:46:09.14Z</time></trkpt><trkpt lat="43.9674808" lon="12.4486117"><ele>246.0</ele><time>2026-03-22T09:46:10.165Z</time></trkpt><trkpt lat="43.9675622" lon="12.4486427"><ele>245.60000000000002</ele><time>2026-03-22T09:46:11.151Z</time></trkpt><trkpt lat="43.9676455" lon="12.4486837"><ele>245.20000000000002</ele><time>2026-03-22T09:46:12.167Z</time></trkpt><trkpt lat="43.9677344" lon="12.4487255"><ele>244.79999999999998</ele><time>2026-03-22T09:46:13.17Z</time></trkpt><trkpt lat="43.9678236" lon="12.44876"><ele>244.39999999999998</ele><time>2026-03-22T09:46:14.15Z</time></trkpt><trkpt lat="43.9679094" lon="12.4488001"><ele>244.0</ele><time>2026-03-22T09:46:15.138Z</time></trkpt><trkpt lat="43.9679991" lon="12.4488414"><ele>244.0</ele><time>2026-03-22T09:46:16.14Z</time></trkpt><trkpt lat="43.9680905" lon="12.4488838"><ele>243.99999999999997</ele><time>2026-03-22T09:46:17.148Z</time></trkpt><trkpt lat="43.9681716" lon="12.4489247"><ele>243.99999999999997</ele><time>2026-03-22T09:46:18.176Z</time></trkpt><trkpt lat="43.9682589" lon="12.4489693"><ele>244.0</ele><time>2026-03-22T09:46:19.138Z</time></trkpt><trkpt lat="43.9683498" lon="12.4490121"><ele>244.0</ele><time>2026-03-22T09:46:20.148Z</time></trkpt><trkpt lat="43.9684434" lon="12.4490554"><ele>242.79999999999998</ele><time>2026-03-22T09:46:21.166Z</time></trkpt><trkpt lat="43.9685378" lon="12.4490956"><ele>241.59999999999997</ele><time>2026-03-22T09:46:22.145Z</time></trkpt><trkpt lat="43.9686328" lon="12.4491442"><ele>240.4</ele><time>2026-03-22T09:46:23.155Z</time></trkpt><trkpt lat="43.9687237" lon="12.4491898"><ele>239.2</ele><time>2026-03-22T09:46:24.113Z</time></trkpt><trkpt lat="43.9688172" lon="12.4492291"><ele>238.0</ele><time>2026-03-22T09:46:25.141Z</time></trkpt><trkpt lat="43.9689073" lon="12.4492724"><ele>238.0</ele><time>2026-03-22T09:46:26.131Z</time></trkpt><trkpt lat="43.9690031" lon="12.4493154"><ele>238.0</ele><time>2026-03-22T09:46:27.151Z</time></trkpt><trkpt lat="43.9690953" lon="12.4493654"><ele>238.0</ele><time>2026-03-22T09:46:28.134Z</time></trkpt><trkpt lat="43.9691887" lon="12.4494088"><ele>238.0</ele><time>2026-03-22T09:46:29.151Z</time></trkpt><trkpt lat="43.9692864" lon="12.4494549"><ele>238.0</ele><time>2026-03-22T09:46:30.069Z</time></trkpt><trkpt lat="43.9693783" lon="12.4494977"><ele>237.8</ele><time>2026-03-22T09:46:31.148Z</time></trkpt><trkpt lat="43.9694694" lon="12.4495421"><ele>237.60000000000002</ele><time>2026-03-22T09:46:32.145Z</time></trkpt><trkpt lat="43.9695587" lon="12.449589"><ele>237.39999999999998</ele><time>2026-03-22T09:46:33.147Z</time></trkpt><trkpt lat="43.9696457" lon="12.4496341"><ele>237.2</ele><time>2026-03-22T09:46:34.14Z</time></trkpt><trkpt lat="43.9697397" lon="12.4496758"><ele>237.0</ele><time>2026-03-22T09:46:35.153Z</time></trkpt><trkpt lat="43.9698278" lon="12.4497192"><ele>237.0</ele><time>2026-03-22T09:46:36.133Z</time></trkpt><trkpt lat="43.9699149" lon="12.4497633"><ele>237.0</ele><time>2026-03-22T09:46:37.132Z</time></trkpt><trkpt lat="43.9700079" lon="12.4498027"><ele>237.0</ele><time>2026-03-22T09:46:38.147Z</time></trkpt><trkpt lat="43.9700965" lon="12.4498461"><ele>237.0</ele><time>2026-03-22T09:46:39.142Z</time></trkpt><trkpt lat="43.9701864" lon="12.4498917"><ele>237.0</ele><time>2026-03-22T09:46:40.136Z</time></trkpt><trkpt lat="43.9702737" lon="12.4499363"><ele>235.39999999999998</ele><time>2026-03-22T09:46:41.149Z</time></trkpt><trkpt lat="43.9703618" lon="12.44998"><ele>233.79999999999998</ele><time>2026-03-22T09:46:42.146Z</time></trkpt><trkpt lat="43.9704555" lon="12.4500206"><ele>232.2</ele><time>2026-03-22T09:46:43.148Z</time></trkpt><trkpt lat="43.9705428" lon="12.4500666"><ele>230.6</ele><time>2026-03-22T09:46:44.142Z</time></trkpt><trkpt lat="43.9706293" lon="12.4501133"><ele>229.0</ele><time>2026-03-22T09:46:45.133Z</time></trkpt><trkpt lat="43.9707171" lon="12.4501574"><ele>229.0</ele><time>2026-03-22T09:46:46.152Z</time></trkpt><trkpt lat="43.9708062" lon="12.4502035"><ele>228.99999999999997</ele><time>2026-03-22T09:46:47.143Z</time></trkpt><trkpt lat="43.9708889" lon="12.4502594"><ele>228.99999999999997</ele><time>2026-03-22T09:46:48.145Z</time></trkpt><trkpt lat="43.9709701" lon="12.4503237"><ele>229.0</ele><time>2026-03-22T09:46:49.128Z</time></trkpt><trkpt lat="43.971047" lon="12.4504014"><ele>229.0</ele><time>2026-03-22T09:46:50.144Z</time></trkpt><trkpt lat="43.9711265" lon="12.4504662"><ele>228.83333333333331</ele><time>2026-03-22T09:46:51.142Z</time></trkpt><trkpt lat="43.9712043" lon="12.4505372"><ele>228.66666666666666</ele><time>2026-03-22T09:46:52.134Z</time></trkpt><trkpt lat="43.9712801" lon="12.4506013"><ele>228.5</ele><time>2026-03-22T09:46:53.129Z</time></trkpt><trkpt lat="43.971354" lon="12.4506611"><ele>228.33333333333331</ele><time>2026-03-22T09:46:54.126Z</time></trkpt><trkpt lat="43.9714239" lon="12.4507187"><ele>228.16666666666666</ele><time>2026-03-22T09:46:55.116Z</time></trkpt><trkpt lat="43.9714944" lon="12.4507774"><ele>228.0</ele><time>2026-03-22T09:46:56.139Z</time></trkpt><trkpt lat="43.9715678" lon="12.4508378"><ele>228.0</ele><time>2026-03-22T09:46:57.145Z</time></trkpt><trkpt lat="43.9716409" lon="12.4508992"><ele>228.0</ele><time>2026-03-22T09:46:58.156Z</time></trkpt><trkpt lat="43.9717108" lon="12.4509633"><ele>228.0</ele><time>2026-03-22T09:46:59.087Z</time></trkpt><trkpt lat="43.9717685" lon="12.4510245"><ele>228.0</ele><time>2026-03-22T09:47:00.121Z</time></trkpt><trkpt lat="43.9718303" lon="12.4510943"><ele>228.0</ele><time>2026-03-22T09:47:01.148Z</time></trkpt><trkpt lat="43.9718902" lon="12.4511597"><ele>228.0</ele><time>2026-03-22T09:47:02.14Z</time></trkpt><trkpt lat="43.9719489" lon="12.4512174"><ele>228.14285714285714</ele><time>2026-03-22T09:47:03.146Z</time></trkpt><trkpt lat="43.9720035" lon="12.4512779"><ele>228.28571428571428</ele><time>2026-03-22T09:47:04.139Z</time></trkpt><trkpt lat="43.9720557" lon="12.4513424"><ele>228.42857142857142</ele><time>2026-03-22T09:47:05.142Z</time></trkpt><trkpt lat="43.9721101" lon="12.4514125"><ele>228.57142857142856</ele><time>2026-03-22T09:47:06.16Z</time></trkpt><trkpt lat="43.9721633" lon="12.45148"><ele>228.71428571428572</ele><time>2026-03-22T09:47:07.116Z</time></trkpt><trkpt lat="43.9722164" lon="12.4515456"><ele>228.85714285714283</ele><time>2026-03-22T09:47:08.142Z</time></trkpt><trkpt lat="43.9722668" lon="12.4516146"><ele>229.0</ele><time>2026-03-22T09:47:09.125Z</time></trkpt><trkpt lat="43.9723151" lon="12.4516783"><ele>228.99999999999997</ele><time>2026-03-22T09:47:10.136Z</time></trkpt><trkpt lat="43.9723626" lon="12.4517476"><ele>229.0</ele><time>2026-03-22T09:47:11.134Z</time></trkpt><trkpt lat="43.9724174" lon="12.4518079"><ele>229.0</ele><time>2026-03-22T09:47:12.132Z</time></trkpt><trkpt lat="43.9724638" lon="12.4519546"><ele>229.0</ele><time>2026-03-22T09:47:14.141Z</time></trkpt><trkpt lat="43.9724084" lon="12.4520645"><ele>228.99999999999997</ele><time>2026-03-22T09:47:16.154Z</time></trkpt><trkpt lat="43.9723193" lon="12.4520888"><ele>229.0</ele><time>2026-03-22T09:47:19.126Z</time></trkpt><trkpt lat="43.972227" lon="12.4520999"><ele>228.99999999999997</ele><time>2026-03-22T09:47:22.125Z</time></trkpt><trkpt lat="43.9721578" lon="12.4520998"><ele>229.0</ele><time>2026-03-22T09:47:24.134Z</time></trkpt><trkpt lat="43.9720676" lon="12.4520977"><ele>229.0</ele><time>2026-03-22T09:47:27.13Z</time></trkpt><trkpt lat="43.9719807" lon="12.4521234"><ele>229.0</ele><time>2026-03-22T09:47:30.15Z</time></trkpt><trkpt lat="43.9719104" lon="12.4521681"><ele>228.99999999999997</ele><time>2026-03-22T09:47:33.134Z</time></trkpt><trkpt lat="43.9718737" lon="12.4522773"><ele>229.0</ele><time>2026-03-22T09:47:36.125Z</time></trkpt><trkpt lat="43.9718844" lon="12.4523656"><ele>230.33333333333331</ele><time>2026-03-22T09:47:38.143Z</time></trkpt><trkpt lat="43.9719548" lon="12.4524614"><ele>231.66666666666666</ele><time>2026-03-22T09:47:41.13Z</time></trkpt><trkpt lat="43.9720136" lon="12.4525123"><ele>233.0</ele><time>2026-03-22T09:47:43.165Z</time></trkpt><trkpt lat="43.9720891" lon="12.4525478"><ele>234.33333333333331</ele><time>2026-03-22T09:47:45.16Z</time></trkpt><trkpt lat="43.9721616" lon="12.4525909"><ele>235.66666666666666</ele><time>2026-03-22T09:47:47.142Z</time></trkpt><trkpt lat="43.972244" lon="12.4526243"><ele>237.0</ele><time>2026-03-22T09:47:49.135Z</time></trkpt><trkpt lat="43.9723348" lon="12.4526532"><ele>237.0</ele><time>2026-03-22T09:47:51.133Z</time></trkpt><trkpt lat="43.9724283" lon="12.4526936"><ele>237.0</ele><time>2026-03-22T09:47:53.146Z</time></trkpt><trkpt lat="43.9725166" lon="12.4527426"><ele>237.0</ele><time>2026-03-22T09:47:55.157Z</time></trkpt><trkpt lat="43.9726053" lon="12.452822"><ele>237.0</ele><time>2026-03-22T09:47:57.145Z</time></trkpt><trkpt lat="43.9726923" lon="12.4529227"><ele>237.0</ele><time>2026-03-22T09:47:59.153Z</time></trkpt><trkpt lat="43.9727487" lon="12.4530503"><ele>234.0</ele><time>2026-03-22T09:48:01.095Z</time></trkpt><trkpt lat="43.9727645" lon="12.4532067"><ele>231.0</ele><time>2026-03-22T09:48:03.154Z</time></trkpt><trkpt lat="43.972753" lon="12.4533639"><ele>228.0</ele><time>2026-03-22T09:48:05.144Z</time></trkpt><trkpt lat="43.9727117" lon="12.4535125"><ele>225.0</ele><time>2026-03-22T09:48:07.14Z</time></trkpt><trkpt lat="43.9726654" lon="12.4536568"><ele>223.83333333333334</ele><time>2026-03-22T09:48:09.152Z</time></trkpt><trkpt lat="43.9726044" lon="12.4538088"><ele>222.66666666666669</ele><time>2026-03-22T09:48:11.154Z</time></trkpt><trkpt lat="43.9725738" lon="12.4538889"><ele>221.5</ele><time>2026-03-22T09:48:12.131Z</time></trkpt><trkpt lat="43.9725471" lon="12.4539709"><ele>220.33333333333334</ele><time>2026-03-22T09:48:13.15Z</time></trkpt><trkpt lat="43.972518" lon="12.4540574"><ele>219.16666666666669</ele><time>2026-03-22T09:48:14.158Z</time></trkpt><trkpt lat="43.9724898" lon="12.4541461"><ele>218.0</ele><time>2026-03-22T09:48:15.142Z</time></trkpt><trkpt lat="43.9724659" lon="12.4542296"><ele>220.16666666666669</ele><time>2026-03-22T09:48:16.131Z</time></trkpt><trkpt lat="43.9724433" lon="12.4543191"><ele>222.33333333333334</ele><time>2026-03-22T09:48:17.14Z</time></trkpt><trkpt lat="43.9724307" lon="12.4544253"><ele>224.5</ele><time>2026-03-22T09:48:18.134Z</time></trkpt><trkpt lat="43.9724295" lon="12.4545346"><ele>226.66666666666669</ele><time>2026-03-22T09:48:19.124Z</time></trkpt><trkpt lat="43.9724375" lon="12.4546453"><ele>228.83333333333334</ele><time>2026-03-22T09:48:20.12Z</time></trkpt><trkpt lat="43.9724583" lon="12.4547546"><ele>231.0</ele><time>2026-03-22T09:48:21.141Z</time></trkpt><trkpt lat="43.9724929" lon="12.4548596"><ele>227.8</ele><time>2026-03-22T09:48:22.143Z</time></trkpt><trkpt lat="43.9725298" lon="12.4549689"><ele>224.60000000000002</ele><time>2026-03-22T09:48:23.155Z</time></trkpt><trkpt lat="43.9725684" lon="12.4550738"><ele>221.4</ele><time>2026-03-22T09:48:24.144Z</time></trkpt><trkpt lat="43.9726103" lon="12.4551857"><ele>218.2</ele><time>2026-03-22T09:48:25.152Z</time></trkpt><trkpt lat="43.972657" lon="12.455303"><ele>215.0</ele><time>2026-03-22T09:48:26.135Z</time></trkpt><trkpt lat="43.9727011" lon="12.4554201"><ele>216.2</ele><time>2026-03-22T09:48:27.158Z</time></trkpt><trkpt lat="43.9727458" lon="12.4555321"><ele>217.4</ele><time>2026-03-22T09:48:28.139Z</time></trkpt><trkpt lat="43.9727849" lon="12.4556436"><ele>218.60000000000002</ele><time>2026-03-22T09:48:29.137Z</time></trkpt><trkpt lat="43.9728242" lon="12.4557601"><ele>219.8</ele><time>2026-03-22T09:48:30.126Z</time></trkpt><trkpt lat="43.9728547" lon="12.4558804"><ele>221.0</ele><time>2026-03-22T09:48:31.143Z</time></trkpt><trkpt lat="43.9728781" lon="12.456005"><ele>221.0</ele><time>2026-03-22T09:48:32.129Z</time></trkpt><trkpt lat="43.9728811" lon="12.4561298"><ele>221.00000000000003</ele><time>2026-03-22T09:48:33.161Z</time></trkpt><trkpt lat="43.9728735" lon="12.4562547"><ele>221.00000000000003</ele><time>2026-03-22T09:48:34.181Z</time></trkpt><trkpt lat="43.9728571" lon="12.456389"><ele>221.0</ele><time>2026-03-22T09:48:35.141Z</time></trkpt><trkpt lat="43.9728314" lon="12.4565279"><ele>221.0</ele><time>2026-03-22T09:48:36.135Z</time></trkpt><trkpt lat="43.9728096" lon="12.4566605"><ele>220.60000000000002</ele><time>2026-03-22T09:48:37.151Z</time></trkpt><trkpt lat="43.9727859" lon="12.4568043"><ele>220.20000000000002</ele><time>2026-03-22T09:48:38.153Z</time></trkpt><trkpt lat="43.9727571" lon="12.456949"><ele>219.79999999999998</ele><time>2026-03-22T09:48:39.127Z</time></trkpt><trkpt lat="43.9727216" lon="12.4570868"><ele>219.39999999999998</ele><time>2026-03-22T09:48:40.108Z</time></trkpt><trkpt lat="43.9726968" lon="12.4572298"><ele>219.0</ele><time>2026-03-22T09:48:41.147Z</time></trkpt><trkpt lat="43.972688" lon="12.4573728"><ele>217.6</ele><time>2026-03-22T09:48:42.131Z</time></trkpt><trkpt lat="43.9726928" lon="12.4575198"><ele>216.2</ele><time>2026-03-22T09:48:43.133Z</time></trkpt><trkpt lat="43.972702" lon="12.457663"><ele>214.79999999999998</ele><time>2026-03-22T09:48:44.115Z</time></trkpt><trkpt lat="43.9727206" lon="12.4578097"><ele>213.39999999999998</ele><time>2026-03-22T09:48:45.115Z</time></trkpt><trkpt lat="43.9727467" lon="12.4579477"><ele>212.0</ele><time>2026-03-22T09:48:46.134Z</time></trkpt><trkpt lat="43.9727744" lon="12.4580847"><ele>211.0</ele><time>2026-03-22T09:48:47.135Z</time></trkpt><trkpt lat="43.9728001" lon="12.4582238"><ele>210.0</ele><time>2026-03-22T09:48:48.149Z</time></trkpt><trkpt lat="43.9728273" lon="12.4583591"><ele>209.0</ele><time>2026-03-22T09:48:49.136Z</time></trkpt><trkpt lat="43.9728618" lon="12.4584885"><ele>208.0</ele><time>2026-03-22T09:48:50.13Z</time></trkpt><trkpt lat="43.9728926" lon="12.4586232"><ele>207.0</ele><time>2026-03-22T09:48:51.161Z</time></trkpt><trkpt lat="43.9729244" lon="12.4587517"><ele>207.8</ele><time>2026-03-22T09:48:52.137Z</time></trkpt><trkpt lat="43.9729584" lon="12.4588709"><ele>208.6</ele><time>2026-03-22T09:48:53.147Z</time></trkpt><trkpt lat="43.9729906" lon="12.4589898"><ele>209.4</ele><time>2026-03-22T09:48:54.131Z</time></trkpt><trkpt lat="43.9730304" lon="12.4591134"><ele>210.20000000000002</ele><time>2026-03-22T09:48:55.13Z</time></trkpt><trkpt lat="43.9730679" lon="12.4592338"><ele>211.0</ele><time>2026-03-22T09:48:56.133Z</time></trkpt><trkpt lat="43.9731085" lon="12.4593507"><ele>210.99999999999997</ele><time>2026-03-22T09:48:57.109Z</time></trkpt><trkpt lat="43.9731467" lon="12.45947"><ele>211.0</ele><time>2026-03-22T09:48:58.146Z</time></trkpt><trkpt lat="43.9731882" lon="12.4595726"><ele>211.0</ele><time>2026-03-22T09:48:59.134Z</time></trkpt><trkpt lat="43.9732313" lon="12.459672"><ele>211.0</ele><time>2026-03-22T09:49:00.15Z</time></trkpt><trkpt lat="43.973276" lon="12.4597726"><ele>210.99999999999997</ele><time>2026-03-22T09:49:01.142Z</time></trkpt><trkpt lat="43.9733187" lon="12.4598789"><ele>211.0</ele><time>2026-03-22T09:49:02.145Z</time></trkpt><trkpt lat="43.9733632" lon="12.4599794"><ele>210.99999999999997</ele><time>2026-03-22T09:49:03.149Z</time></trkpt><trkpt lat="43.9733997" lon="12.4600913"><ele>211.0</ele><time>2026-03-22T09:49:04.141Z</time></trkpt><trkpt lat="43.9734397" lon="12.4602019"><ele>211.0</ele><time>2026-03-22T09:49:05.163Z</time></trkpt><trkpt lat="43.973479" lon="12.4603089"><ele>211.0</ele><time>2026-03-22T09:49:06.148Z</time></trkpt><trkpt lat="43.9735223" lon="12.4604109"><ele>210.99999999999997</ele><time>2026-03-22T09:49:07.16Z</time></trkpt><trkpt lat="43.9735635" lon="12.4605153"><ele>211.0</ele><time>2026-03-22T09:49:08.134Z</time></trkpt><trkpt lat="43.9735995" lon="12.4606086"><ele>211.0</ele><time>2026-03-22T09:49:09.145Z</time></trkpt><trkpt lat="43.9736383" lon="12.4607015"><ele>211.0</ele><time>2026-03-22T09:49:10.143Z</time></trkpt><trkpt lat="43.9736783" lon="12.4607876"><ele>211.0</ele><time>2026-03-22T09:49:11.145Z</time></trkpt><trkpt lat="43.9737152" lon="12.460877"><ele>211.0</ele><time>2026-03-22T09:49:12.145Z</time></trkpt><trkpt lat="43.9737551" lon="12.4609574"><ele>211.0</ele><time>2026-03-22T09:49:13.158Z</time></trkpt><trkpt lat="43.9737929" lon="12.4610392"><ele>211.0</ele><time>2026-03-22T09:49:14.124Z</time></trkpt><trkpt lat="43.9738261" lon="12.4611167"><ele>211.0</ele><time>2026-03-22T09:49:15.133Z</time></trkpt><trkpt lat="43.9738908" lon="12.4612598"><ele>211.8</ele><time>2026-03-22T09:49:17.139Z</time></trkpt><trkpt lat="43.9739514" lon="12.4613928"><ele>212.60000000000002</ele><time>2026-03-22T09:49:19.139Z</time></trkpt><trkpt lat="43.9740106" lon="12.4615158"><ele>213.4</ele><time>2026-03-22T09:49:21.137Z</time></trkpt><trkpt lat="43.9740552" lon="12.4616246"><ele>214.2</ele><time>2026-03-22T09:49:23.16Z</time></trkpt><trkpt lat="43.9740998" lon="12.4617268"><ele>215.0</ele><time>2026-03-22T09:49:25.137Z</time></trkpt><trkpt lat="43.974146" lon="12.4618297"><ele>215.00000000000003</ele><time>2026-03-22T09:49:27.137Z</time></trkpt><trkpt lat="43.9741813" lon="12.4619264"><ele>215.0</ele><time>2026-03-22T09:49:29.144Z</time></trkpt><trkpt lat="43.9742201" lon="12.4620255"><ele>215.0</ele><time>2026-03-22T09:49:31.079Z</time></trkpt><trkpt lat="43.9742534" lon="12.4621188"><ele>215.0</ele><time>2026-03-22T09:49:33.182Z</time></trkpt><trkpt lat="43.9742888" lon="12.4622187"><ele>215.00000000000003</ele><time>2026-03-22T09:49:35.161Z</time></trkpt><trkpt lat="43.9743249" lon="12.4623099"><ele>215.0</ele><time>2026-03-22T09:49:37.145Z</time></trkpt><trkpt lat="43.974369" lon="12.4624"><ele>215.57142857142856</ele><time>2026-03-22T09:49:39.142Z</time></trkpt><trkpt lat="43.9744045" lon="12.4624887"><ele>216.14285714285717</ele><time>2026-03-22T09:49:41.143Z</time></trkpt><trkpt lat="43.9744487" lon="12.4625693"><ele>216.71428571428572</ele><time>2026-03-22T09:49:43.115Z</time></trkpt><trkpt lat="43.9744947" lon="12.462649"><ele>217.28571428571428</ele><time>2026-03-22T09:49:45.145Z</time></trkpt><trkpt lat="43.9745423" lon="12.4627305"><ele>217.85714285714283</ele><time>2026-03-22T09:49:47.17Z</time></trkpt><trkpt lat="43.9745988" lon="12.4627877"><ele>218.42857142857144</ele><time>2026-03-22T09:49:49.148Z</time></trkpt><trkpt lat="43.9746681" lon="12.4628414"><ele>219.0</ele><time>2026-03-22T09:49:51.146Z</time></trkpt><trkpt lat="43.9747403" lon="12.4628878"><ele>219.0</ele><time>2026-03-22T09:49:53.131Z</time></trkpt><trkpt lat="43.9748191" lon="12.4629201"><ele>218.99999999999997</ele><time>2026-03-22T09:49:55.167Z</time></trkpt><trkpt lat="43.9749114" lon="12.4629528"><ele>218.99999999999997</ele><time>2026-03-22T09:49:57.148Z</time></trkpt><trkpt lat="43.9749927" lon="12.4629792"><ele>219.0</ele><time>2026-03-22T09:49:59.133Z</time></trkpt><trkpt lat="43.975086" lon="12.4630116"><ele>219.0</ele><time>2026-03-22T09:50:01.139Z</time></trkpt><trkpt lat="43.9751836" lon="12.4630696"><ele>219.2</ele><time>2026-03-22T09:50:03.119Z</time></trkpt><trkpt lat="43.9752391" lon="12.4632055"><ele>219.39999999999998</ele><time>2026-03-22T09:50:05.145Z</time></trkpt><trkpt lat="43.9751962" lon="12.4633615"><ele>219.6</ele><time>2026-03-22T09:50:07.162Z</time></trkpt><trkpt lat="43.9751222" lon="12.463445"><ele>219.8</ele><time>2026-03-22T09:50:09.159Z</time></trkpt><trkpt lat="43.9750452" lon="12.4634919"><ele>220.0</ele><time>2026-03-22T09:50:11.149Z</time></trkpt><trkpt lat="43.9749737" lon="12.4635682"><ele>220.99999999999997</ele><time>2026-03-22T09:50:13.155Z</time></trkpt><trkpt lat="43.9749055" lon="12.4636495"><ele>222.0</ele><time>2026-03-22T09:50:15.13Z</time></trkpt><trkpt lat="43.9748444" lon="12.4637333"><ele>223.0</ele><time>2026-03-22T09:50:17.161Z</time></trkpt><trkpt lat="43.9747844" lon="12.4637992"><ele>224.0</ele><time>2026-03-22T09:50:19.126Z</time></trkpt><trkpt lat="43.9747204" lon="12.4638649"><ele>224.99999999999997</ele><time>2026-03-22T09:50:21.104Z</time></trkpt><trkpt lat="43.9746525" lon="12.4639275"><ele>226.0</ele><time>2026-03-22T09:50:23.117Z</time></trkpt><trkpt lat="43.9745915" lon="12.4639918"><ele>226.0</ele><time>2026-03-22T09:50:25.13Z</time></trkpt><trkpt lat="43.9745223" lon="12.4640643"><ele>226.00000000000003</ele><time>2026-03-22T09:50:27.15Z</time></trkpt><trkpt lat="43.9744485" lon="12.4641431"><ele>226.00000000000003</ele><time>2026-03-22T09:50:29.085Z</time></trkpt><trkpt lat="43.9743698" lon="12.4642199"><ele>226.0</ele><time>2026-03-22T09:50:31.137Z</time></trkpt><trkpt lat="43.9742904" lon="12.4642977"><ele>226.0</ele><time>2026-03-22T09:50:33.142Z</time></trkpt><trkpt lat="43.9742024" lon="12.4644023"><ele>225.85714285714286</ele><time>2026-03-22T09:50:35.163Z</time></trkpt><trkpt lat="43.9741644" lon="12.4644727"><ele>225.71428571428572</ele><time>2026-03-22T09:50:36.171Z</time></trkpt><trkpt lat="43.9741411" lon="12.4645552"><ele>225.57142857142858</ele><time>2026-03-22T09:50:37.132Z</time></trkpt><trkpt lat="43.9741237" lon="12.4646488"><ele>225.42857142857144</ele><time>2026-03-22T09:50:38.132Z</time></trkpt><trkpt lat="43.9741198" lon="12.4647627"><ele>225.28571428571428</ele><time>2026-03-22T09:50:39.11Z</time></trkpt><trkpt lat="43.9741216" lon="12.4648825"><ele>225.14285714285717</ele><time>2026-03-22T09:50:40.129Z</time></trkpt><trkpt lat="43.9741245" lon="12.4649997"><ele>225.00000000000003</ele><time>2026-03-22T09:50:41.13Z</time></trkpt><trkpt lat="43.9741325" lon="12.4651356"><ele>225.0</ele><time>2026-03-22T09:50:42.145Z</time></trkpt><trkpt lat="43.9741408" lon="12.4652706"><ele>225.0</ele><time>2026-03-22T09:50:43.13Z</time></trkpt><trkpt lat="43.9741527" lon="12.4654248"><ele>225.0</ele><time>2026-03-22T09:50:44.134Z</time></trkpt><trkpt lat="43.9741616" lon="12.4655796"><ele>225.0</ele><time>2026-03-22T09:50:45.141Z</time></trkpt><trkpt lat="43.9741721" lon="12.4657322"><ele>225.0</ele><time>2026-03-22T09:50:46.17Z</time></trkpt><trkpt lat="43.9741796" lon="12.4658955"><ele>223.25</ele><time>2026-03-22T09:50:47.14Z</time></trkpt><trkpt lat="43.9741887" lon="12.4660577"><ele>221.5</ele><time>2026-03-22T09:50:48.13Z</time></trkpt><trkpt lat="43.9742012" lon="12.4662214"><ele>219.75</ele><time>2026-03-22T09:50:49.134Z</time></trkpt><trkpt lat="43.974219" lon="12.4663876"><ele>218.0</ele><time>2026-03-22T09:50:50.152Z</time></trkpt><trkpt lat="43.9742322" lon="12.4665457"><ele>217.0</ele><time>2026-03-22T09:50:51.097Z</time></trkpt><trkpt lat="43.974243" lon="12.4667068"><ele>216.0</ele><time>2026-03-22T09:50:52.14Z</time></trkpt><trkpt lat="43.9742527" lon="12.4668674"><ele>215.0</ele><time>2026-03-22T09:50:53.126Z</time></trkpt><trkpt lat="43.9742663" lon="12.4670294"><ele>214.0</ele><time>2026-03-22T09:50:54.148Z</time></trkpt><trkpt lat="43.9742783" lon="12.4671912"><ele>211.5</ele><time>2026-03-22T09:50:55.136Z</time></trkpt><trkpt lat="43.9742849" lon="12.4673548"><ele>209.0</ele><time>2026-03-22T09:50:56.15Z</time></trkpt><trkpt lat="43.9742926" lon="12.4675207"><ele>206.5</ele><time>2026-03-22T09:50:57.149Z</time></trkpt><trkpt lat="43.9743054" lon="12.467681"><ele>204.0</ele><time>2026-03-22T09:50:58.09Z</time></trkpt><trkpt lat="43.9743204" lon="12.4678383"><ele>203.0</ele><time>2026-03-22T09:50:59.137Z</time></trkpt><trkpt lat="43.9743278" lon="12.4680004"><ele>202.0</ele><time>2026-03-22T09:51:00.145Z</time></trkpt><trkpt lat="43.9743326" lon="12.4681594"><ele>201.0</ele><time>2026-03-22T09:51:01.142Z</time></trkpt><trkpt lat="43.9743404" lon="12.4683117"><ele>200.0</ele><time>2026-03-22T09:51:02.144Z</time></trkpt><trkpt lat="43.9743451" lon="12.4684673"><ele>200.0</ele><time>2026-03-22T09:51:03.148Z</time></trkpt><trkpt lat="43.9743538" lon="12.4686259"><ele>200.0</ele><time>2026-03-22T09:51:04.117Z</time></trkpt><trkpt lat="43.9743677" lon="12.4687822"><ele>200.0</ele><time>2026-03-22T09:51:05.162Z</time></trkpt><trkpt lat="43.9743799" lon="12.4689378"><ele>200.0</ele><time>2026-03-22T09:51:06.115Z</time></trkpt><trkpt lat="43.974383" lon="12.4690989"><ele>199.0</ele><time>2026-03-22T09:51:07.101Z</time></trkpt><trkpt lat="43.9743863" lon="12.4692507"><ele>198.0</ele><time>2026-03-22T09:51:08.09Z</time></trkpt><trkpt lat="43.9743959" lon="12.4694029"><ele>197.0</ele><time>2026-03-22T09:51:09.141Z</time></trkpt><trkpt lat="43.9744033" lon="12.4695605"><ele>196.0</ele><time>2026-03-22T09:51:10.147Z</time></trkpt><trkpt lat="43.9744053" lon="12.4697153"><ele>195.0</ele><time>2026-03-22T09:51:11.149Z</time></trkpt><trkpt lat="43.9744078" lon="12.4698758"><ele>194.25</ele><time>2026-03-22T09:51:12.148Z</time></trkpt><trkpt lat="43.974412" lon="12.4700418"><ele>193.5</ele><time>2026-03-22T09:51:13.16Z</time></trkpt><trkpt lat="43.9744202" lon="12.4702045"><ele>192.75</ele><time>2026-03-22T09:51:14.12Z</time></trkpt><trkpt lat="43.9744355" lon="12.4703659"><ele>192.0</ele><time>2026-03-22T09:51:15.127Z</time></trkpt><trkpt lat="43.974445" lon="12.4705235"><ele>192.0</ele><time>2026-03-22T09:51:16.148Z</time></trkpt><trkpt lat="43.9744584" lon="12.4706892"><ele>192.0</ele><time>2026-03-22T09:51:17.126Z</time></trkpt><trkpt lat="43.9744642" lon="12.470858"><ele>192.0</ele><time>2026-03-22T09:51:18.155Z</time></trkpt><trkpt lat="43.974474" lon="12.4710263"><ele>192.0</ele><time>2026-03-22T09:51:19.083Z</time></trkpt><trkpt lat="43.9744812" lon="12.4711971"><ele>191.75</ele><time>2026-03-22T09:51:20.09Z</time></trkpt><trkpt lat="43.9744882" lon="12.4713554"><ele>191.5</ele><time>2026-03-22T09:51:21.078Z</time></trkpt><trkpt lat="43.9745085" lon="12.4715225"><ele>191.25</ele><time>2026-03-22T09:51:22.115Z</time></trkpt><trkpt lat="43.9745391" lon="12.4716763"><ele>191.0</ele><time>2026-03-22T09:51:23.106Z</time></trkpt><trkpt lat="43.974577" lon="12.4718299"><ele>191.0</ele><time>2026-03-22T09:51:24.116Z</time></trkpt><trkpt lat="43.9746195" lon="12.4719827"><ele>191.0</ele><time>2026-03-22T09:51:25.114Z</time></trkpt><trkpt lat="43.9746736" lon="12.4721208"><ele>191.0</ele><time>2026-03-22T09:51:26.086Z</time></trkpt><trkpt lat="43.9747462" lon="12.4722404"><ele>191.0</ele><time>2026-03-22T09:51:27.086Z</time></trkpt><trkpt lat="43.974816" lon="12.4723538"><ele>189.75</ele><time>2026-03-22T09:51:28.108Z</time></trkpt><trkpt lat="43.9748949" lon="12.4724582"><ele>188.5</ele><time>2026-03-22T09:51:29.103Z</time></trkpt><trkpt lat="43.97499" lon="12.4725717"><ele>187.25</ele><time>2026-03-22T09:51:30.099Z</time></trkpt><trkpt lat="43.9750831" lon="12.4726738"><ele>186.0</ele><time>2026-03-22T09:51:31.103Z</time></trkpt><trkpt lat="43.9751698" lon="12.4727731"><ele>183.0</ele><time>2026-03-22T09:51:32.088Z</time></trkpt><trkpt lat="43.9755445" lon="12.4731432"><ele>183.0</ele><time>2026-03-22T09:51:36.1Z</time></trkpt><trkpt lat="43.9756319" lon="12.4732461"><ele>183.0</ele><time>2026-03-22T09:51:37.103Z</time></trkpt><trkpt lat="43.9757241" lon="12.4733518"><ele>183.0</ele><time>2026-03-22T09:51:38.121Z</time></trkpt><trkpt lat="43.97582" lon="12.4734624"><ele>183.0</ele><time>2026-03-22T09:51:39.096Z</time></trkpt><trkpt lat="43.975915" lon="12.4735735"><ele>180.0</ele><time>2026-03-22T09:51:40.119Z</time></trkpt><trkpt lat="43.9760098" lon="12.4736796"><ele>177.0</ele><time>2026-03-22T09:51:41.161Z</time></trkpt><trkpt lat="43.9760973" lon="12.473784"><ele>174.0</ele><time>2026-03-22T09:51:42.148Z</time></trkpt><trkpt lat="43.9761846" lon="12.4738995"><ele>171.0</ele><time>2026-03-22T09:51:43.121Z</time></trkpt><trkpt lat="43.9762753" lon="12.4740334"><ele>170.25</ele><time>2026-03-22T09:51:44.112Z</time></trkpt><trkpt lat="43.9763732" lon="12.4741661"><ele>169.5</ele><time>2026-03-22T09:51:45.129Z</time></trkpt><trkpt lat="43.9764668" lon="12.4743006"><ele>168.75</ele><time>2026-03-22T09:51:46.113Z</time></trkpt><trkpt lat="43.9765655" lon="12.4744329"><ele>168.0</ele><time>2026-03-22T09:51:47.115Z</time></trkpt><trkpt lat="43.9766625" lon="12.4745707"><ele>165.0</ele><time>2026-03-22T09:51:48.127Z</time></trkpt><trkpt lat="43.9767628" lon="12.4747104"><ele>162.0</ele><time>2026-03-22T09:51:49.118Z</time></trkpt><trkpt lat="43.9768639" lon="12.4748607"><ele>159.0</ele><time>2026-03-22T09:51:50.1Z</time></trkpt><trkpt lat="43.9769713" lon="12.4750033"><ele>156.0</ele><time>2026-03-22T09:51:51.129Z</time></trkpt><trkpt lat="43.9770859" lon="12.4751438"><ele>156.0</ele><time>2026-03-22T09:51:52.166Z</time></trkpt><trkpt lat="43.9771875" lon="12.4752705"><ele>156.0</ele><time>2026-03-22T09:51:53.117Z</time></trkpt><trkpt lat="43.9772856" lon="12.4754092"><ele>156.0</ele><time>2026-03-22T09:51:54.127Z</time></trkpt><trkpt lat="43.9773825" lon="12.4755543"><ele>156.0</ele><time>2026-03-22T09:51:55.118Z</time></trkpt><trkpt lat="43.9774826" lon="12.4757067"><ele>152.75</ele><time>2026-03-22T09:51:56.119Z</time></trkpt><trkpt lat="43.9775547" lon="12.4758705"><ele>149.5</ele><time>2026-03-22T09:51:57.154Z</time></trkpt><trkpt lat="43.9775919" lon="12.4760531"><ele>146.25</ele><time>2026-03-22T09:51:58.122Z</time></trkpt><trkpt lat="43.9776135" lon="12.4762509"><ele>143.0</ele><time>2026-03-22T09:51:59.133Z</time></trkpt><trkpt lat="43.9776364" lon="12.4764372"><ele>142.5</ele><time>2026-03-22T09:52:00.132Z</time></trkpt><trkpt lat="43.9776596" lon="12.4766204"><ele>142.0</ele><time>2026-03-22T09:52:01.13Z</time></trkpt><trkpt lat="43.9776958" lon="12.4768059"><ele>141.5</ele><time>2026-03-22T09:52:02.128Z</time></trkpt><trkpt lat="43.9777222" lon="12.4769939"><ele>141.0</ele><time>2026-03-22T09:52:03.128Z</time></trkpt><trkpt lat="43.9777508" lon="12.477165"><ele>140.6</ele><time>2026-03-22T09:52:04.133Z</time></trkpt><trkpt lat="43.9777539" lon="12.4773185"><ele>140.2</ele><time>2026-03-22T09:52:05.134Z</time></trkpt><trkpt lat="43.9777402" lon="12.4774712"><ele>139.8</ele><time>2026-03-22T09:52:06.106Z</time></trkpt><trkpt lat="43.9777154" lon="12.477605"><ele>139.4</ele><time>2026-03-22T09:52:07.14Z</time></trkpt><trkpt lat="43.9776927" lon="12.4777173"><ele>139.0</ele><time>2026-03-22T09:52:08.152Z</time></trkpt><trkpt lat="43.9777086" lon="12.4778248"><ele>139.0</ele><time>2026-03-22T09:52:09.075Z</time></trkpt><trkpt lat="43.9777675" lon="12.4779328"><ele>139.0</ele><time>2026-03-22T09:52:10.073Z</time></trkpt><trkpt lat="43.9778365" lon="12.4780085"><ele>139.0</ele><time>2026-03-22T09:52:11.083Z</time></trkpt><trkpt lat="43.9779006" lon="12.4780872"><ele>139.0</ele><time>2026-03-22T09:52:12.103Z</time></trkpt><trkpt lat="43.9779421" lon="12.4782047"><ele>139.0</ele><time>2026-03-22T09:52:13.08Z</time></trkpt><trkpt lat="43.9779657" lon="12.4783366"><ele>139.0</ele><time>2026-03-22T09:52:14.074Z</time></trkpt><trkpt lat="43.9779851" lon="12.4784649"><ele>139.0</ele><time>2026-03-22T09:52:15.092Z</time></trkpt><trkpt lat="43.9780041" lon="12.4785983"><ele>139.0</ele><time>2026-03-22T09:52:16.142Z</time></trkpt><trkpt lat="43.9780232" lon="12.4787466"><ele>139.0</ele><time>2026-03-22T09:52:17.158Z</time></trkpt><trkpt lat="43.9780297" lon="12.4788875"><ele>139.0</ele><time>2026-03-22T09:52:18.149Z</time></trkpt><trkpt lat="43.9780492" lon="12.4790308"><ele>137.8</ele><time>2026-03-22T09:52:19.134Z</time></trkpt><trkpt lat="43.9780713" lon="12.4791761"><ele>136.60000000000002</ele><time>2026-03-22T09:52:20.145Z</time></trkpt><trkpt lat="43.9780937" lon="12.4793187"><ele>135.4</ele><time>2026-03-22T09:52:21.144Z</time></trkpt><trkpt lat="43.9781191" lon="12.4794694"><ele>134.20000000000002</ele><time>2026-03-22T09:52:22.133Z</time></trkpt><trkpt lat="43.9781403" lon="12.4796233"><ele>133.0</ele><time>2026-03-22T09:52:23.141Z</time></trkpt><trkpt lat="43.9781592" lon="12.4797679"><ele>132.0</ele><time>2026-03-22T09:52:24.157Z</time></trkpt><trkpt lat="43.9781758" lon="12.4799086"><ele>131.0</ele><time>2026-03-22T09:52:25.152Z</time></trkpt><trkpt lat="43.9781908" lon="12.4800457"><ele>130.0</ele><time>2026-03-22T09:52:26.139Z</time></trkpt><trkpt lat="43.9782021" lon="12.4801543"><ele>129.0</ele><time>2026-03-22T09:52:27.148Z</time></trkpt><trkpt lat="43.9782187" lon="12.4802534"><ele>128.0</ele><time>2026-03-22T09:52:28.146Z</time></trkpt><trkpt lat="43.9782171" lon="12.4804066"><ele>128.0</ele><time>2026-03-22T09:52:30.154Z</time></trkpt><trkpt lat="43.9781241" lon="12.480487"><ele>128.0</ele><time>2026-03-22T09:52:32.158Z</time></trkpt><trkpt lat="43.9780329" lon="12.4805293"><ele>128.0</ele><time>2026-03-22T09:52:34.142Z</time></trkpt><trkpt lat="43.97795" lon="12.4805919"><ele>128.0</ele><time>2026-03-22T09:52:36.136Z</time></trkpt><trkpt lat="43.9778556" lon="12.4806639"><ele>128.0</ele><time>2026-03-22T09:52:38.157Z</time></trkpt><trkpt lat="43.9777999" lon="12.4807096"><ele>127.99999999999999</ele><time>2026-03-22T09:52:39.146Z</time></trkpt><trkpt lat="43.9776826" lon="12.4807987"><ele>128.0</ele><time>2026-03-22T09:52:41.114Z</time></trkpt><trkpt lat="43.9776183" lon="12.4808465"><ele>128.0</ele><time>2026-03-22T09:52:42.129Z</time></trkpt><trkpt lat="43.9775542" lon="12.4808993"><ele>128.0</ele><time>2026-03-22T09:52:43.149Z</time></trkpt><trkpt lat="43.9774902" lon="12.480951"><ele>127.99999999999999</ele><time>2026-03-22T09:52:44.136Z</time></trkpt><trkpt lat="43.9774289" lon="12.4810022"><ele>128.0</ele><time>2026-03-22T09:52:45.133Z</time></trkpt><trkpt lat="43.9773612" lon="12.481057"><ele>127.66666666666666</ele><time>2026-03-22T09:52:46.157Z</time></trkpt><trkpt lat="43.9772927" lon="12.4811106"><ele>127.33333333333333</ele><time>2026-03-22T09:52:47.128Z</time></trkpt><trkpt lat="43.9772209" lon="12.4811604"><ele>127.0</ele><time>2026-03-22T09:52:48.134Z</time></trkpt><trkpt lat="43.9771468" lon="12.481178"><ele>126.66666666666666</ele><time>2026-03-22T09:52:49.092Z</time></trkpt><trkpt lat="43.9770588" lon="12.4811646"><ele>126.33333333333333</ele><time>2026-03-22T09:52:50.103Z</time></trkpt><trkpt lat="43.9769668" lon="12.481143"><ele>126.0</ele><time>2026-03-22T09:52:51.13Z</time></trkpt><trkpt lat="43.9768799" lon="12.4811287"><ele>126.0</ele><time>2026-03-22T09:52:52.118Z</time></trkpt><trkpt lat="43.9767885" lon="12.4811124"><ele>126.0</ele><time>2026-03-22T09:52:53.155Z</time></trkpt><trkpt lat="43.9767014" lon="12.4810976"><ele>126.0</ele><time>2026-03-22T09:52:54.163Z</time></trkpt><trkpt lat="43.9766138" lon="12.4810862"><ele>126.0</ele><time>2026-03-22T09:52:55.143Z</time></trkpt><trkpt lat="43.976537" lon="12.4810974"><ele>126.0</ele><time>2026-03-22T09:52:56.156Z</time></trkpt><trkpt lat="43.9764702" lon="12.4811095"><ele>126.0</ele><time>2026-03-22T09:52:57.155Z</time></trkpt><trkpt lat="43.9763641" lon="12.4811392"><ele>125.14285714285714</ele><time>2026-03-22T09:52:59.131Z</time></trkpt><trkpt lat="43.976296" lon="12.4811534"><ele>124.28571428571428</ele><time>2026-03-22T09:53:01.139Z</time></trkpt><trkpt lat="43.9762968" lon="12.4810356"><ele>123.42857142857143</ele><time>2026-03-22T09:53:04.071Z</time></trkpt><trkpt lat="43.9763418" lon="12.4809726"><ele>122.57142857142857</ele><time>2026-03-22T09:53:08.126Z</time></trkpt><trkpt lat="43.9764165" lon="12.4809706"><ele>121.71428571428571</ele><time>2026-03-22T09:53:13.152Z</time></trkpt><trkpt lat="43.9763587" lon="12.4810437"><ele>120.85714285714286</ele><time>2026-03-22T09:53:22.132Z</time></trkpt><trkpt lat="43.9762965" lon="12.4810711"><ele>120.0</ele><time>2026-03-22T09:53:25.163Z</time></trkpt><trkpt lat="43.9762738" lon="12.4811639"><ele>120.0</ele><time>2026-03-22T09:53:29.134Z</time></trkpt><trkpt lat="43.9762963" lon="12.4812575"><ele>120.0</ele><time>2026-03-22T09:53:33.142Z</time></trkpt><trkpt lat="43.9763382" lon="12.4813559"><ele>116.0</ele><time>2026-03-22T09:53:36.144Z</time></trkpt><trkpt lat="43.9763755" lon="12.4814387"><ele>116.0</ele><time>2026-03-22T09:53:38.132Z</time></trkpt><trkpt lat="43.976422" lon="12.4815233"><ele>116.0</ele><time>2026-03-22T09:53:40.144Z</time></trkpt><trkpt lat="43.9764721" lon="12.4815795"><ele>116.0</ele><time>2026-03-22T09:53:43.111Z</time></trkpt></trkseg></trk></gpx>